GFSWCAN_prec_pwat_009.txt.gz
Precipitable_Water
1.06 1.06 1.04 0.98 0.90 0.87 0.85 0.84 0.84 0.84 0.82 0.79 0.78 0.75 0.73 0.71 0.77 0.81 0.72 0.75 0.64 0.48 0.50 0.58 0.58 0.51 0.48 0.47 0.39 0.47 0.42 0.45 0.42 0.27 0.26 0.26 0.26 0.29 0.26 0.28 0.27 0.26 0.28 0.27 0.32 0.29 0.26 0.50 0.48 0.42 0.51 0.59 0.61 0.58
1.04 1.05 1.05 1.03 0.97 0.90 0.86 0.83 0.81 0.81 0.83 0.81 0.78 0.76 0.74 0.72 0.74 0.79 0.69 0.75 0.77 0.60 0.54 0.66 0.65 0.65 0.62 0.60 0.52 0.50 0.45 0.41 0.42 0.36 0.34 0.34 0.26 0.32 0.29 0.22 0.35 0.25 0.33 0.33 0.39 0.37 0.49 0.56 0.56 0.65 0.65 0.61 0.61 0.61
1.00 1.03 1.05 1.04 1.02 0.98 0.93 0.87 0.83 0.81 0.82 0.81 0.79 0.77 0.76 0.75 0.74 0.79 0.75 0.76 0.73 0.60 0.57 0.57 0.54 0.65 0.68 0.66 0.70 0.45 0.50 0.52 0.48 0.55 0.42 0.37 0.27 0.35 0.23 0.26 0.28 0.34 0.42 0.39 0.43 0.47 0.50 0.56 0.64 0.69 0.68 0.63 0.62 0.61
0.94 0.98 1.03 1.05 1.04 1.03 1.01 0.95 0.89 0.85 0.84 0.83 0.83 0.81 0.80 0.79 0.77 0.80 0.75 0.78 0.74 0.63 0.46 0.56 0.73 0.65 0.74 0.73 0.68 0.67 0.59 0.59 0.59 0.53 0.40 0.36 0.32 0.44 0.33 0.32 0.32 0.36 0.42 0.43 0.45 0.51 0.53 0.58 0.65 0.66 0.65 0.63 0.60 0.56
0.84 0.90 0.94 0.99 1.02 1.03 1.03 1.00 0.96 0.92 0.89 0.87 0.87 0.85 0.84 0.84 0.82 0.84 0.83 0.81 0.81 0.66 0.48 0.52 0.65 0.70 0.74 0.74 0.69 0.68 0.63 0.58 0.54 0.45 0.40 0.36 0.46 0.44 0.47 0.43 0.33 0.39 0.40 0.43 0.43 0.56 0.55 0.60 0.67 0.67 0.63 0.59 0.53 0.45
0.74 0.79 0.86 0.92 0.98 1.00 1.02 1.02 1.00 0.97 0.94 0.92 0.92 0.91 0.89 0.90 0.90 0.86 0.69 0.85 0.87 0.84 0.58 0.43 0.68 0.64 0.70 0.73 0.71 0.68 0.67 0.65 0.62 0.54 0.46 0.50 0.57 0.46 0.36 0.31 0.38 0.47 0.52 0.58 0.56 0.66 0.64 0.66 0.67 0.68 0.59 0.50 0.46 0.40
0.62 0.67 0.74 0.84 0.90 0.95 0.98 1.01 1.02 1.00 0.97 0.97 0.96 0.96 0.96 0.96 0.96 0.80 0.72 0.87 0.93 0.93 0.64 0.51 0.53 0.64 0.70 0.73 0.71 0.69 0.70 0.65 0.60 0.54 0.49 0.47 0.48 0.51 0.43 0.31 0.43 0.51 0.59 0.64 0.65 0.63 0.56 0.64 0.58 0.57 0.51 0.45 0.41 0.35
0.57 0.59 0.63 0.71 0.82 0.88 0.93 0.98 1.00 1.03 1.02 0.98 0.99 1.00 1.00 0.99 0.97 0.86 0.95 0.95 1.00 0.84 0.76 0.53 0.51 0.54 0.69 0.57 0.55 0.66 0.58 0.59 0.57 0.52 0.53 0.45 0.51 0.53 0.38 0.44 0.53 0.61 0.62 0.61 0.60 0.64 0.63 0.65 0.56 0.48 0.43 0.34 0.27 0.25
0.55 0.57 0.57 0.60 0.69 0.81 0.87 0.93 0.98 1.02 1.04 1.03 1.03 1.04 0.99 0.89 0.76 0.83 1.00 1.00 0.98 0.81 0.59 0.55 0.43 0.38 0.62 0.55 0.57 0.55 0.56 0.41 0.55 0.45 0.46 0.50 0.44 0.37 0.45 0.52 0.56 0.58 0.57 0.57 0.60 0.58 0.55 0.48 0.41 0.33 0.26 0.25 0.24 0.24
0.55 0.55 0.57 0.56 0.58 0.67 0.80 0.87 0.93 1.00 1.05 1.06 1.00 0.86 0.69 0.81 1.02 0.97 0.86 0.73 0.72 0.70 0.67 0.48 0.56 0.44 0.53 0.47 0.44 0.43 0.47 0.42 0.34 0.42 0.53 0.45 0.42 0.54 0.59 0.61 0.61 0.60 0.60 0.59 0.51 0.45 0.43 0.35 0.27 0.25 0.25 0.26 0.25 0.22
0.54 0.54 0.56 0.56 0.57 0.60 0.69 0.82 0.90 0.98 1.00 0.89 0.77 0.73 0.86 0.99 0.88 0.77 0.62 0.58 0.59 0.50 0.55 0.56 0.57 0.48 0.60 0.45 0.45 0.53 0.45 0.49 0.38 0.42 0.45 0.40 0.37 0.48 0.57 0.57 0.59 0.58 0.57 0.54 0.49 0.41 0.31 0.27 0.26 0.26 0.26 0.26 0.23 0.22
0.54 0.54 0.55 0.55 0.58 0.60 0.63 0.79 0.88 0.89 0.86 0.85 0.83 0.88 0.87 0.75 0.66 0.57 0.52 0.55 0.51 0.46 0.52 0.49 0.53 0.59 0.59 0.65 0.52 0.54 0.48 0.49 0.38 0.50 0.42 0.34 0.42 0.50 0.51 0.51 0.53 0.52 0.49 0.42 0.36 0.29 0.28 0.27 0.28 0.28 0.26 0.22 0.22 0.23
0.50 0.53 0.55 0.56 0.58 0.61 0.63 0.70 0.81 0.88 0.89 0.83 0.72 0.64 0.61 0.58 0.47 0.44 0.39 0.43 0.43 0.49 0.52 0.54 0.51 0.58 0.60 0.63 0.55 0.52 0.43 0.40 0.49 0.38 0.34 0.40 0.46 0.46 0.49 0.49 0.47 0.46 0.40 0.33 0.29 0.28 0.27 0.27 0.27 0.25 0.22 0.23 0.24 0.23
0.49 0.53 0.55 0.56 0.57 0.63 0.65 0.67 0.71 0.77 0.73 0.59 0.53 0.45 0.46 0.42 0.45 0.46 0.47 0.48 0.54 0.56 0.56 0.57 0.54 0.53 0.55 0.50 0.50 0.41 0.44 0.44 0.34 0.31 0.32 0.41 0.43 0.44 0.47 0.47 0.43 0.37 0.32 0.28 0.27 0.27 0.26 0.24 0.22 0.23 0.25 0.25 0.24 0.23
0.43 0.52 0.56 0.57 0.57 0.61 0.63 0.67 0.71 0.70 0.63 0.51 0.51 0.39 0.41 0.48 0.51 0.52 0.55 0.55 0.58 0.61 0.58 0.54 0.52 0.52 0.47 0.43 0.45 0.41 0.35 0.31 0.33 0.32 0.37 0.40 0.42 0.43 0.41 0.39 0.36 0.31 0.29 0.28 0.28 0.25 0.21 0.20 0.22 0.24 0.26 0.26 0.27 0.26
0.43 0.51 0.54 0.58 0.59 0.60 0.61 0.64 0.64 0.63 0.53 0.49 0.48 0.42 0.46 0.44 0.45 0.48 0.50 0.49 0.57 0.56 0.56 0.53 0.44 0.40 0.38 0.40 0.35 0.33 0.32 0.29 0.33 0.38 0.40 0.39 0.38 0.37 0.35 0.33 0.32 0.31 0.29 0.25 0.21 0.20 0.21 0.23 0.24 0.24 0.26 0.26 0.26 0.27
0.43 0.46 0.57 0.57 0.59 0.62 0.60 0.58 0.58 0.49 0.44 0.39 0.39 0.49 0.47 0.45 0.44 0.47 0.49 0.49 0.57 0.50 0.42 0.43 0.35 0.33 0.39 0.33 0.31 0.35 0.31 0.35 0.38 0.38 0.39 0.37 0.34 0.31 0.31 0.31 0.29 0.27 0.24 0.22 0.22 0.24 0.24 0.26 0.27 0.25 0.22 0.25 0.28 0.28
0.39 0.51 0.59 0.58 0.58 0.57 0.56 0.53 0.48 0.43 0.36 0.37 0.36 0.39 0.43 0.45 0.43 0.45 0.47 0.50 0.47 0.43 0.41 0.36 0.38 0.32 0.30 0.28 0.29 0.34 0.35 0.37 0.37 0.33 0.31 0.31 0.30 0.30 0.29 0.27 0.26 0.25 0.23 0.23 0.23 0.24 0.25 0.25 0.25 0.25 0.26 0.27 0.28 0.29
0.49 0.55 0.61 0.59 0.57 0.51 0.43 0.45 0.46 0.33 0.34 0.37 0.38 0.40 0.39 0.39 0.43 0.45 0.45 0.47 0.48 0.47 0.42 0.38 0.32 0.29 0.28 0.30 0.30 0.31 0.32 0.30 0.29 0.30 0.31 0.31 0.29 0.25 0.23 0.23 0.23 0.22 0.22 0.23 0.23 0.24 0.25 0.26 0.27 0.27 0.29 0.30 0.29 0.31
0.54 0.58 0.62 0.60 0.56 0.45 0.38 0.39 0.46 0.36 0.32 0.35 0.37 0.35 0.34 0.34 0.37 0.38 0.40 0.42 0.40 0.38 0.34 0.31 0.29 0.30 0.30 0.31 0.32 0.31 0.30 0.30 0.29 0.26 0.24 0.24 0.25 0.25 0.24 0.23 0.23 0.23 0.23 0.23 0.24 0.26 0.27 0.28 0.29 0.31 0.33 0.32 0.31 0.30
0.53 0.56 0.60 0.58 0.49 0.43 0.38 0.36 0.36 0.36 0.34 0.31 0.33 0.33 0.29 0.32 0.30 0.30 0.31 0.38 0.34 0.31 0.27 0.30 0.31 0.33 0.33 0.32 0.31 0.31 0.30 0.28 0.23 0.22 0.21 0.21 0.23 0.23 0.23 0.24 0.25 0.25 0.23 0.24 0.24 0.26 0.28 0.28 0.29 0.32 0.33 0.33 0.34 0.34
0.51 0.57 0.52 0.54 0.44 0.40 0.35 0.37 0.34 0.35 0.31 0.29 0.29 0.30 0.26 0.24 0.24 0.26 0.30 0.26 0.25 0.26 0.28 0.28 0.29 0.29 0.29 0.28 0.27 0.26 0.24 0.24 0.23 0.23 0.23 0.23 0.22 0.23 0.23 0.24 0.25 0.24 0.25 0.26 0.27 0.27 0.28 0.31 0.33 0.34 0.34 0.34 0.36 0.35
0.55 0.53 0.47 0.45 0.37 0.35 0.32 0.38 0.29 0.29 0.24 0.24 0.26 0.22 0.21 0.21 0.23 0.26 0.20 0.22 0.23 0.25 0.26 0.26 0.26 0.27 0.25 0.24 0.23 0.22 0.22 0.21 0.19 0.20 0.22 0.23 0.24 0.25 0.26 0.28 0.30 0.29 0.27 0.27 0.30 0.30 0.31 0.35 0.35 0.34 0.36 0.36 0.35 0.33
0.54 0.43 0.36 0.34 0.34 0.29 0.33 0.28 0.29 0.26 0.25 0.21 0.20 0.17 0.18 0.20 0.22 0.19 0.17 0.20 0.22 0.24 0.22 0.22 0.23 0.22 0.23 0.21 0.20 0.21 0.22 0.23 0.23 0.25 0.27 0.26 0.25 0.26 0.29 0.28 0.29 0.30 0.31 0.32 0.32 0.32 0.33 0.34 0.35 0.35 0.35 0.33 0.32 0.31
0.35 0.32 0.33 0.27 0.31 0.26 0.23 0.22 0.22 0.21 0.18 0.20 0.18 0.18 0.19 0.22 0.17 0.16 0.15 0.18 0.21 0.22 0.23 0.23 0.22 0.21 0.20 0.23 0.23 0.25 0.27 0.27 0.26 0.25 0.28 0.30 0.30 0.30 0.29 0.30 0.30 0.32 0.34 0.32 0.30 0.30 0.32 0.34 0.34 0.33 0.32 0.32 0.31 0.31
0.25 0.28 0.25 0.24 0.24 0.21 0.21 0.18 0.18 0.19 0.19 0.18 0.19 0.21 0.21 0.19 0.15 0.14 0.16 0.21 0.23 0.23 0.22 0.23 0.24 0.24 0.25 0.26 0.26 0.26 0.28 0.31 0.30 0.27 0.28 0.31 0.31 0.30 0.28 0.27 0.27 0.29 0.35 0.35 0.32 0.30 0.31 0.32 0.32 0.31 0.31 0.31 0.31 0.30
0.21 0.22 0.25 0.28 0.25 0.22 0.20 0.21 0.21 0.19 0.16 0.15 0.18 0.17 0.17 0.13 0.13 0.17 0.23 0.24 0.25 0.25 0.28 0.29 0.28 0.27 0.26 0.27 0.29 0.30 0.30 0.29 0.25 0.24 0.26 0.27 0.29 0.31 0.31 0.29 0.28 0.30 0.33 0.33 0.33 0.32 0.31 0.31 0.30 0.30 0.30 0.31 0.31 0.31
0.24 0.24 0.18 0.21 0.21 0.21 0.16 0.16 0.16 0.15 0.16 0.19 0.18 0.14 0.13 0.14 0.17 0.23 0.23 0.25 0.27 0.28 0.30 0.30 0.31 0.30 0.28 0.27 0.24 0.21 0.20 0.21 0.22 0.24 0.25 0.27 0.31 0.28 0.28 0.30 0.31 0.31 0.32 0.32 0.32 0.32 0.31 0.31 0.30 0.30 0.29 0.29 0.29 0.31
0.22 0.24 0.21 0.17 0.18 0.18 0.17 0.16 0.17 0.19 0.21 0.20 0.18 0.18 0.21 0.23 0.24 0.25 0.26 0.28 0.30 0.29 0.27 0.25 0.23 0.21 0.20 0.19 0.21 0.22 0.21 0.20 0.18 0.17 0.17 0.18 0.20 0.21 0.25 0.26 0.27 0.28 0.29 0.29 0.30 0.30 0.30 0.30 0.29 0.28 0.28 0.28 0.28 0.28
0.21 0.25 0.20 0.19 0.17 0.16 0.22 0.24 0.24 0.26 0.27 0.27 0.28 0.26 0.25 0.25 0.26 0.29 0.28 0.26 0.24 0.21 0.19 0.18 0.17 0.17 0.17 0.18 0.18 0.20 0.21 0.21 0.20 0.18 0.17 0.17 0.19 0.22 0.23 0.23 0.24 0.25 0.26 0.26 0.26 0.27 0.29 0.28 0.28 0.28 0.26 0.25 0.23 0.22
0.26 0.25 0.22 0.22 0.21 0.25 0.27 0.28 0.29 0.29 0.29 0.28 0.29 0.26 0.24 0.23 0.23 0.23 0.21 0.20 0.18 0.17 0.16 0.16 0.17 0.19 0.18 0.18 0.17 0.17 0.16 0.19 0.19 0.20 0.20 0.20 0.21 0.21 0.21 0.22 0.23 0.23 0.24 0.24 0.24 0.24 0.24 0.24 0.24 0.23 0.22 0.21 0.20 0.19
0.24 0.22 0.21 0.19 0.20 0.24 0.24 0.21 0.20 0.19 0.20 0.18 0.19 0.19 0.17 0.16 0.12 0.13 0.16 0.16 0.16 0.16 0.17 0.17 0.17 0.17 0.19 0.19 0.19 0.19 0.18 0.18 0.18 0.18 0.19 0.19 0.19 0.20 0.20 0.21 0.21 0.21 0.22 0.22 0.22 0.22 0.22 0.22 0.21 0.21 0.20 0.18 0.17 0.16
0.17 0.17 0.16 0.15 0.15 0.16 0.18 0.15 0.14 0.12 0.13 0.12 0.12 0.13 0.13 0.14 0.12 0.15 0.18 0.19 0.18 0.17 0.17 0.17 0.17 0.18 0.18 0.18 0.17 0.17 0.17 0.17 0.17 0.18 0.18 0.18 0.18 0.18 0.19 0.19 0.19 0.19 0.20 0.20 0.20 0.20 0.20 0.19 0.19 0.18 0.17 0.16 0.15 0.14

GFSWCAN_prec_pwat_012.txt.gz
Precipitable_Water
1.10 1.04 0.97 0.90 0.89 0.89 0.89 0.88 0.86 0.85 0.82 0.79 0.76 0.74 0.71 0.70 0.76 0.82 0.75 0.75 0.71 0.54 0.57 0.67 0.68 0.61 0.60 0.59 0.50 0.55 0.45 0.46 0.42 0.28 0.25 0.24 0.25 0.29 0.27 0.29 0.26 0.22 0.23 0.23 0.26 0.22 0.19 0.45 0.46 0.37 0.49 0.59 0.62 0.61
1.09 1.07 1.00 0.94 0.90 0.88 0.88 0.88 0.86 0.85 0.83 0.79 0.77 0.76 0.76 0.72 0.72 0.82 0.72 0.76 0.80 0.62 0.57 0.72 0.76 0.79 0.71 0.69 0.60 0.56 0.45 0.45 0.43 0.34 0.33 0.34 0.24 0.33 0.28 0.20 0.31 0.26 0.31 0.29 0.31 0.28 0.44 0.51 0.52 0.60 0.63 0.60 0.63 0.64
1.04 1.08 1.06 1.01 0.95 0.90 0.88 0.88 0.87 0.85 0.85 0.83 0.81 0.80 0.79 0.76 0.73 0.80 0.78 0.77 0.76 0.61 0.56 0.54 0.52 0.65 0.73 0.74 0.77 0.49 0.54 0.54 0.49 0.61 0.43 0.35 0.24 0.32 0.21 0.24 0.26 0.33 0.36 0.33 0.35 0.36 0.42 0.50 0.60 0.66 0.67 0.66 0.66 0.64
0.99 1.03 1.05 1.04 1.00 0.95 0.90 0.88 0.87 0.86 0.86 0.85 0.84 0.82 0.80 0.78 0.75 0.80 0.77 0.79 0.77 0.65 0.44 0.54 0.73 0.62 0.71 0.71 0.68 0.70 0.61 0.63 0.65 0.59 0.41 0.34 0.27 0.40 0.32 0.30 0.33 0.35 0.38 0.32 0.34 0.40 0.49 0.57 0.62 0.65 0.66 0.68 0.67 0.65
0.94 0.97 1.01 1.02 1.02 1.00 0.95 0.91 0.88 0.86 0.85 0.84 0.83 0.82 0.80 0.80 0.78 0.82 0.82 0.82 0.85 0.69 0.49 0.54 0.66 0.70 0.71 0.71 0.67 0.67 0.65 0.59 0.56 0.47 0.40 0.34 0.43 0.40 0.48 0.47 0.37 0.36 0.32 0.31 0.31 0.49 0.52 0.57 0.68 0.70 0.64 0.65 0.64 0.53
0.84 0.91 0.95 0.98 1.00 1.00 1.00 0.97 0.94 0.90 0.87 0.85 0.85 0.84 0.83 0.83 0.82 0.78 0.62 0.81 0.84 0.88 0.60 0.41 0.68 0.63 0.68 0.70 0.69 0.66 0.66 0.63 0.61 0.55 0.48 0.51 0.57 0.46 0.38 0.33 0.39 0.40 0.42 0.47 0.45 0.58 0.63 0.69 0.69 0.68 0.63 0.60 0.54 0.49
0.74 0.79 0.89 0.93 0.96 0.99 1.00 1.00 1.00 0.98 0.95 0.91 0.90 0.89 0.87 0.86 0.86 0.71 0.64 0.82 0.85 0.89 0.60 0.48 0.50 0.63 0.67 0.69 0.71 0.69 0.74 0.69 0.64 0.59 0.55 0.53 0.50 0.55 0.45 0.33 0.40 0.43 0.48 0.54 0.62 0.65 0.60 0.62 0.58 0.60 0.54 0.52 0.49 0.42
0.63 0.68 0.73 0.81 0.88 0.92 0.96 0.99 1.01 1.02 1.01 0.97 0.95 0.95 0.94 0.92 0.89 0.78 0.90 0.91 0.97 0.81 0.73 0.51 0.52 0.56 0.71 0.61 0.59 0.73 0.64 0.66 0.64 0.58 0.59 0.52 0.53 0.53 0.39 0.42 0.44 0.47 0.53 0.61 0.64 0.67 0.64 0.64 0.60 0.56 0.51 0.44 0.35 0.29
0.55 0.58 0.59 0.63 0.72 0.82 0.87 0.92 0.98 1.02 1.04 1.04 1.01 1.01 0.96 0.87 0.76 0.81 0.97 0.96 0.97 0.82 0.60 0.56 0.45 0.42 0.69 0.62 0.65 0.64 0.66 0.49 0.63 0.50 0.50 0.51 0.44 0.34 0.37 0.41 0.46 0.55 0.58 0.59 0.63 0.64 0.61 0.57 0.49 0.44 0.36 0.30 0.27 0.26
0.54 0.55 0.57 0.58 0.58 0.64 0.79 0.84 0.90 0.98 1.04 1.05 0.99 0.82 0.68 0.82 0.98 0.93 0.84 0.74 0.73 0.74 0.71 0.52 0.62 0.48 0.59 0.56 0.53 0.52 0.55 0.47 0.38 0.42 0.50 0.39 0.35 0.45 0.48 0.52 0.61 0.63 0.64 0.65 0.58 0.50 0.50 0.46 0.40 0.32 0.28 0.28 0.28 0.26
0.53 0.54 0.55 0.57 0.58 0.56 0.60 0.77 0.85 0.94 0.99 0.90 0.77 0.71 0.86 0.99 0.88 0.76 0.61 0.59 0.60 0.51 0.58 0.56 0.57 0.49 0.65 0.48 0.47 0.54 0.45 0.47 0.34 0.40 0.41 0.37 0.35 0.45 0.56 0.61 0.63 0.65 0.66 0.63 0.59 0.54 0.48 0.39 0.31 0.29 0.28 0.29 0.27 0.25
0.52 0.53 0.53 0.55 0.57 0.59 0.58 0.65 0.80 0.85 0.85 0.85 0.84 0.90 0.88 0.76 0.67 0.58 0.53 0.56 0.50 0.45 0.53 0.50 0.53 0.59 0.61 0.66 0.53 0.53 0.47 0.48 0.35 0.51 0.42 0.34 0.43 0.54 0.58 0.57 0.57 0.59 0.58 0.53 0.47 0.42 0.38 0.32 0.30 0.29 0.28 0.26 0.24 0.24
0.49 0.53 0.53 0.53 0.57 0.60 0.62 0.64 0.68 0.80 0.86 0.83 0.73 0.65 0.62 0.59 0.48 0.44 0.39 0.43 0.43 0.50 0.51 0.52 0.50 0.59 0.62 0.63 0.55 0.52 0.44 0.41 0.52 0.40 0.35 0.41 0.52 0.55 0.55 0.54 0.54 0.53 0.48 0.43 0.40 0.36 0.32 0.28 0.27 0.25 0.23 0.22 0.24 0.25
0.43 0.50 0.54 0.53 0.57 0.60 0.60 0.63 0.65 0.66 0.66 0.58 0.53 0.45 0.47 0.43 0.45 0.47 0.46 0.47 0.53 0.55 0.56 0.57 0.55 0.55 0.58 0.53 0.52 0.42 0.46 0.47 0.36 0.32 0.34 0.48 0.51 0.51 0.54 0.52 0.50 0.44 0.44 0.39 0.33 0.31 0.28 0.28 0.25 0.22 0.22 0.24 0.25 0.24
0.41 0.48 0.55 0.54 0.54 0.57 0.60 0.62 0.64 0.63 0.54 0.46 0.50 0.39 0.42 0.49 0.52 0.53 0.56 0.55 0.58 0.61 0.58 0.55 0.54 0.55 0.49 0.47 0.47 0.44 0.38 0.34 0.36 0.36 0.43 0.47 0.49 0.50 0.48 0.48 0.46 0.43 0.37 0.33 0.32 0.28 0.26 0.22 0.20 0.21 0.25 0.27 0.27 0.27
0.38 0.44 0.51 0.55 0.56 0.56 0.58 0.59 0.57 0.57 0.47 0.45 0.45 0.40 0.47 0.45 0.46 0.49 0.51 0.50 0.59 0.58 0.58 0.54 0.46 0.42 0.40 0.42 0.38 0.35 0.33 0.31 0.38 0.43 0.45 0.44 0.43 0.44 0.43 0.40 0.37 0.36 0.33 0.30 0.29 0.25 0.22 0.22 0.23 0.24 0.26 0.26 0.26 0.27
0.36 0.39 0.52 0.55 0.57 0.57 0.57 0.52 0.51 0.44 0.38 0.34 0.37 0.47 0.46 0.46 0.45 0.48 0.51 0.51 0.58 0.51 0.43 0.44 0.37 0.35 0.41 0.35 0.33 0.38 0.34 0.39 0.43 0.42 0.42 0.41 0.38 0.37 0.36 0.34 0.32 0.30 0.29 0.28 0.25 0.24 0.24 0.24 0.25 0.24 0.22 0.25 0.29 0.30
0.36 0.45 0.51 0.56 0.56 0.53 0.52 0.51 0.44 0.40 0.34 0.36 0.34 0.37 0.42 0.45 0.44 0.45 0.48 0.51 0.48 0.45 0.44 0.39 0.42 0.34 0.32 0.30 0.31 0.38 0.40 0.40 0.40 0.36 0.35 0.34 0.34 0.34 0.32 0.29 0.27 0.26 0.24 0.23 0.23 0.23 0.23 0.23 0.23 0.24 0.26 0.30 0.30 0.30
0.45 0.49 0.52 0.56 0.55 0.47 0.39 0.42 0.44 0.32 0.34 0.37 0.39 0.40 0.39 0.40 0.44 0.46 0.46 0.48 0.49 0.48 0.43 0.39 0.34 0.30 0.31 0.34 0.33 0.34 0.35 0.34 0.31 0.32 0.33 0.34 0.32 0.30 0.26 0.24 0.23 0.23 0.22 0.23 0.22 0.23 0.24 0.25 0.25 0.26 0.28 0.29 0.28 0.31
0.47 0.49 0.53 0.56 0.54 0.44 0.37 0.37 0.44 0.35 0.30 0.34 0.38 0.36 0.36 0.35 0.37 0.39 0.40 0.41 0.40 0.39 0.35 0.33 0.32 0.34 0.34 0.34 0.34 0.33 0.33 0.33 0.30 0.27 0.27 0.27 0.26 0.26 0.25 0.25 0.23 0.24 0.23 0.23 0.24 0.25 0.26 0.27 0.28 0.29 0.29 0.31 0.31 0.32
0.47 0.48 0.52 0.54 0.48 0.45 0.38 0.35 0.34 0.36 0.36 0.36 0.38 0.36 0.32 0.34 0.31 0.31 0.31 0.37 0.33 0.30 0.27 0.30 0.31 0.35 0.36 0.34 0.33 0.31 0.30 0.30 0.27 0.24 0.22 0.22 0.25 0.25 0.23 0.23 0.25 0.26 0.25 0.25 0.24 0.24 0.26 0.26 0.27 0.29 0.30 0.33 0.35 0.36
0.42 0.52 0.47 0.50 0.43 0.39 0.36 0.40 0.35 0.37 0.36 0.34 0.33 0.34 0.28 0.26 0.26 0.27 0.31 0.26 0.25 0.26 0.28 0.28 0.29 0.30 0.31 0.30 0.30 0.30 0.28 0.25 0.24 0.23 0.23 0.23 0.22 0.23 0.24 0.25 0.25 0.24 0.26 0.27 0.28 0.27 0.27 0.30 0.32 0.33 0.33 0.34 0.36 0.35
0.47 0.48 0.44 0.44 0.36 0.34 0.32 0.41 0.31 0.32 0.26 0.27 0.29 0.26 0.24 0.24 0.26 0.28 0.21 0.23 0.24 0.27 0.28 0.29 0.29 0.29 0.27 0.29 0.26 0.23 0.23 0.23 0.22 0.23 0.24 0.25 0.27 0.28 0.28 0.30 0.32 0.31 0.30 0.30 0.31 0.31 0.32 0.34 0.32 0.31 0.33 0.34 0.34 0.34
0.50 0.40 0.35 0.33 0.34 0.30 0.34 0.30 0.32 0.29 0.29 0.26 0.24 0.21 0.22 0.22 0.23 0.20 0.18 0.21 0.25 0.27 0.25 0.24 0.24 0.23 0.24 0.22 0.21 0.24 0.26 0.26 0.25 0.26 0.28 0.28 0.27 0.27 0.29 0.30 0.31 0.32 0.34 0.35 0.33 0.32 0.32 0.31 0.30 0.30 0.31 0.32 0.32 0.31
0.32 0.31 0.33 0.28 0.33 0.29 0.27 0.26 0.26 0.25 0.22 0.23 0.20 0.19 0.20 0.22 0.18 0.17 0.17 0.23 0.28 0.26 0.27 0.28 0.25 0.24 0.23 0.26 0.26 0.29 0.32 0.31 0.29 0.26 0.28 0.30 0.29 0.28 0.26 0.25 0.25 0.27 0.30 0.28 0.29 0.31 0.32 0.32 0.31 0.31 0.31 0.31 0.30 0.30
0.25 0.30 0.28 0.28 0.29 0.28 0.27 0.24 0.24 0.23 0.22 0.20 0.20 0.22 0.22 0.19 0.16 0.15 0.19 0.25 0.24 0.23 0.23 0.24 0.26 0.27 0.28 0.29 0.27 0.27 0.28 0.30 0.28 0.24 0.24 0.25 0.21 0.20 0.20 0.20 0.21 0.23 0.27 0.29 0.29 0.28 0.29 0.30 0.30 0.30 0.30 0.30 0.30 0.30
0.24 0.25 0.29 0.35 0.31 0.29 0.26 0.26 0.25 0.22 0.18 0.17 0.19 0.18 0.17 0.13 0.13 0.20 0.25 0.27 0.24 0.25 0.27 0.28 0.27 0.26 0.26 0.27 0.28 0.29 0.29 0.27 0.22 0.19 0.21 0.23 0.25 0.25 0.23 0.21 0.20 0.23 0.25 0.26 0.28 0.28 0.27 0.27 0.28 0.29 0.29 0.30 0.30 0.30
0.28 0.29 0.23 0.26 0.25 0.25 0.20 0.20 0.18 0.17 0.18 0.21 0.20 0.15 0.14 0.15 0.17 0.24 0.25 0.26 0.26 0.28 0.29 0.29 0.29 0.29 0.29 0.28 0.26 0.23 0.20 0.20 0.20 0.21 0.22 0.26 0.26 0.24 0.23 0.24 0.25 0.25 0.25 0.25 0.26 0.27 0.27 0.27 0.27 0.27 0.27 0.27 0.27 0.29
0.25 0.27 0.24 0.19 0.20 0.19 0.18 0.17 0.18 0.20 0.23 0.21 0.18 0.18 0.20 0.22 0.24 0.24 0.25 0.27 0.29 0.28 0.27 0.28 0.28 0.28 0.24 0.21 0.22 0.21 0.20 0.19 0.17 0.14 0.14 0.14 0.15 0.17 0.20 0.21 0.21 0.22 0.23 0.23 0.24 0.25 0.26 0.26 0.26 0.27 0.27 0.27 0.27 0.27
0.22 0.26 0.21 0.18 0.17 0.18 0.22 0.25 0.24 0.27 0.26 0.27 0.29 0.25 0.24 0.24 0.25 0.28 0.28 0.28 0.27 0.26 0.25 0.23 0.20 0.18 0.17 0.17 0.17 0.19 0.20 0.19 0.18 0.16 0.14 0.14 0.15 0.17 0.18 0.18 0.19 0.20 0.21 0.22 0.22 0.23 0.24 0.24 0.25 0.25 0.24 0.24 0.23 0.23
0.25 0.24 0.21 0.21 0.20 0.24 0.26 0.28 0.28 0.28 0.28 0.28 0.30 0.27 0.23 0.23 0.23 0.23 0.23 0.23 0.21 0.19 0.16 0.16 0.17 0.18 0.17 0.17 0.16 0.15 0.15 0.17 0.17 0.17 0.16 0.16 0.16 0.16 0.17 0.17 0.18 0.19 0.19 0.20 0.20 0.20 0.21 0.21 0.21 0.21 0.20 0.20 0.20 0.20
0.23 0.21 0.20 0.18 0.20 0.25 0.25 0.21 0.20 0.18 0.19 0.18 0.18 0.19 0.18 0.16 0.13 0.14 0.16 0.17 0.16 0.16 0.16 0.17 0.16 0.16 0.17 0.17 0.17 0.16 0.15 0.14 0.13 0.13 0.13 0.13 0.13 0.13 0.14 0.15 0.17 0.17 0.17 0.17 0.18 0.19 0.19 0.19 0.19 0.18 0.18 0.18 0.18 0.17
0.17 0.16 0.15 0.14 0.14 0.14 0.17 0.14 0.14 0.14 0.14 0.14 0.15 0.14 0.13 0.14 0.12 0.15 0.18 0.19 0.18 0.17 0.16 0.16 0.16 0.15 0.15 0.14 0.12 0.14 0.13 0.12 0.12 0.13 0.13 0.13 0.12 0.12 0.12 0.12 0.13 0.14 0.15 0.15 0.16 0.17 0.17 0.16 0.16 0.16 0.16 0.16 0.16 0.15

GFSWCAN_prec_pwat_015.txt.gz
Precipitable_Water
1.05 0.98 0.91 0.88 0.86 0.87 0.88 0.87 0.84 0.83 0.83 0.81 0.77 0.71 0.68 0.70 0.79 0.83 0.65 0.79 0.67 0.51 0.57 0.66 0.68 0.57 0.57 0.57 0.45 0.54 0.49 0.48 0.45 0.31 0.25 0.22 0.22 0.25 0.26 0.29 0.24 0.20 0.19 0.19 0.24 0.19 0.14 0.36 0.37 0.28 0.36 0.50 0.56 0.57
1.04 0.99 0.93 0.89 0.87 0.88 0.89 0.88 0.86 0.84 0.83 0.82 0.80 0.77 0.71 0.68 0.73 0.85 0.65 0.80 0.84 0.58 0.53 0.75 0.81 0.82 0.77 0.75 0.62 0.60 0.47 0.46 0.45 0.34 0.32 0.32 0.23 0.30 0.26 0.19 0.34 0.23 0.25 0.24 0.25 0.22 0.34 0.43 0.44 0.49 0.51 0.52 0.59 0.60
1.07 1.02 0.95 0.90 0.88 0.88 0.88 0.89 0.88 0.86 0.85 0.84 0.81 0.78 0.76 0.72 0.73 0.81 0.73 0.77 0.74 0.57 0.53 0.53 0.58 0.76 0.85 0.88 0.88 0.52 0.57 0.57 0.50 0.53 0.38 0.34 0.22 0.31 0.20 0.24 0.25 0.33 0.40 0.32 0.33 0.37 0.42 0.48 0.51 0.54 0.59 0.60 0.64 0.65
1.06 1.06 1.00 0.93 0.90 0.90 0.89 0.88 0.88 0.87 0.87 0.86 0.84 0.79 0.76 0.76 0.79 0.83 0.72 0.79 0.73 0.60 0.42 0.49 0.70 0.60 0.74 0.79 0.78 0.74 0.63 0.68 0.64 0.58 0.44 0.35 0.26 0.38 0.27 0.27 0.27 0.28 0.34 0.30 0.32 0.39 0.44 0.49 0.52 0.57 0.61 0.64 0.68 0.67
1.00 1.02 1.03 1.00 0.96 0.91 0.91 0.91 0.90 0.89 0.88 0.87 0.85 0.83 0.80 0.80 0.81 0.83 0.79 0.81 0.85 0.63 0.44 0.52 0.65 0.70 0.70 0.69 0.66 0.69 0.63 0.58 0.56 0.49 0.43 0.36 0.41 0.41 0.45 0.42 0.34 0.36 0.33 0.31 0.29 0.43 0.42 0.47 0.58 0.63 0.64 0.67 0.67 0.60
0.95 0.98 1.00 1.02 1.00 0.97 0.94 0.91 0.91 0.90 0.89 0.88 0.87 0.85 0.83 0.82 0.83 0.79 0.58 0.77 0.82 0.88 0.55 0.40 0.68 0.63 0.68 0.69 0.67 0.63 0.64 0.62 0.58 0.49 0.45 0.49 0.56 0.43 0.36 0.33 0.42 0.44 0.45 0.47 0.43 0.51 0.52 0.58 0.63 0.67 0.66 0.65 0.59 0.53
0.89 0.94 0.96 0.98 0.99 0.98 0.95 0.92 0.90 0.89 0.89 0.88 0.87 0.86 0.84 0.82 0.80 0.65 0.57 0.75 0.80 0.85 0.55 0.45 0.47 0.62 0.67 0.68 0.68 0.66 0.70 0.64 0.62 0.58 0.53 0.52 0.51 0.56 0.45 0.34 0.44 0.49 0.49 0.52 0.53 0.53 0.52 0.62 0.62 0.66 0.62 0.57 0.53 0.48
0.76 0.80 0.87 0.92 0.95 0.96 0.96 0.97 0.95 0.92 0.89 0.87 0.87 0.88 0.86 0.84 0.82 0.71 0.82 0.84 0.90 0.69 0.62 0.43 0.44 0.50 0.68 0.59 0.57 0.72 0.63 0.67 0.66 0.62 0.63 0.54 0.56 0.54 0.40 0.46 0.49 0.49 0.49 0.51 0.54 0.60 0.64 0.67 0.66 0.62 0.57 0.49 0.42 0.37
0.65 0.69 0.72 0.78 0.89 0.92 0.93 0.96 0.97 0.96 0.96 0.94 0.92 0.92 0.86 0.76 0.66 0.73 0.88 0.88 0.91 0.72 0.50 0.50 0.40 0.38 0.68 0.61 0.66 0.66 0.70 0.54 0.67 0.55 0.56 0.57 0.49 0.39 0.41 0.45 0.45 0.47 0.47 0.51 0.60 0.65 0.67 0.62 0.58 0.52 0.45 0.42 0.36 0.30
0.59 0.59 0.61 0.64 0.68 0.80 0.86 0.90 0.95 1.01 1.02 1.02 0.95 0.79 0.66 0.77 0.93 0.92 0.80 0.67 0.68 0.70 0.67 0.50 0.58 0.46 0.57 0.56 0.55 0.56 0.59 0.51 0.42 0.48 0.57 0.44 0.39 0.49 0.51 0.53 0.55 0.57 0.60 0.66 0.61 0.60 0.60 0.54 0.46 0.44 0.41 0.36 0.31 0.29
0.56 0.56 0.57 0.57 0.57 0.59 0.71 0.82 0.90 0.97 1.01 0.91 0.77 0.72 0.88 1.00 0.86 0.74 0.58 0.56 0.58 0.50 0.58 0.57 0.58 0.51 0.65 0.49 0.50 0.57 0.47 0.48 0.35 0.39 0.40 0.35 0.33 0.44 0.53 0.56 0.63 0.66 0.69 0.69 0.66 0.62 0.56 0.49 0.45 0.41 0.35 0.31 0.29 0.27
0.54 0.53 0.55 0.57 0.57 0.60 0.63 0.69 0.82 0.86 0.85 0.85 0.85 0.90 0.88 0.76 0.68 0.58 0.52 0.55 0.50 0.45 0.55 0.52 0.56 0.61 0.64 0.69 0.55 0.56 0.47 0.48 0.36 0.52 0.42 0.34 0.43 0.54 0.57 0.59 0.62 0.65 0.63 0.59 0.56 0.51 0.49 0.49 0.41 0.34 0.29 0.26 0.25 0.25
0.52 0.53 0.54 0.58 0.57 0.58 0.61 0.64 0.66 0.77 0.84 0.82 0.72 0.65 0.62 0.59 0.48 0.44 0.38 0.42 0.44 0.51 0.54 0.56 0.53 0.61 0.64 0.64 0.56 0.53 0.45 0.42 0.53 0.41 0.36 0.41 0.52 0.58 0.58 0.55 0.52 0.53 0.51 0.48 0.47 0.48 0.44 0.36 0.31 0.28 0.25 0.23 0.24 0.24
0.48 0.51 0.52 0.56 0.58 0.57 0.59 0.61 0.63 0.65 0.62 0.57 0.53 0.45 0.47 0.43 0.45 0.46 0.45 0.47 0.53 0.55 0.55 0.57 0.55 0.55 0.59 0.54 0.54 0.44 0.48 0.47 0.37 0.33 0.34 0.47 0.54 0.58 0.56 0.53 0.51 0.48 0.47 0.47 0.44 0.41 0.35 0.31 0.28 0.26 0.25 0.25 0.24 0.23
0.41 0.50 0.52 0.51 0.54 0.56 0.58 0.59 0.60 0.57 0.50 0.41 0.46 0.39 0.42 0.49 0.52 0.53 0.55 0.55 0.57 0.60 0.57 0.53 0.53 0.53 0.48 0.47 0.48 0.44 0.38 0.34 0.36 0.35 0.42 0.49 0.52 0.52 0.50 0.49 0.48 0.46 0.45 0.43 0.38 0.34 0.31 0.27 0.25 0.23 0.23 0.24 0.24 0.24
0.42 0.47 0.49 0.53 0.53 0.53 0.54 0.54 0.53 0.51 0.43 0.39 0.39 0.36 0.44 0.45 0.46 0.49 0.50 0.50 0.58 0.57 0.57 0.54 0.46 0.42 0.40 0.41 0.37 0.35 0.34 0.32 0.37 0.42 0.47 0.49 0.48 0.48 0.49 0.49 0.48 0.45 0.39 0.35 0.33 0.31 0.27 0.24 0.22 0.22 0.23 0.23 0.24 0.26
0.38 0.38 0.49 0.51 0.52 0.52 0.52 0.47 0.45 0.37 0.32 0.32 0.31 0.40 0.40 0.41 0.42 0.46 0.50 0.50 0.58 0.51 0.43 0.45 0.37 0.35 0.42 0.35 0.33 0.38 0.34 0.39 0.43 0.43 0.45 0.45 0.42 0.40 0.40 0.38 0.36 0.34 0.33 0.31 0.29 0.25 0.22 0.23 0.23 0.22 0.20 0.22 0.26 0.28
0.37 0.42 0.47 0.51 0.52 0.49 0.46 0.44 0.38 0.35 0.29 0.33 0.32 0.35 0.38 0.40 0.39 0.42 0.47 0.52 0.50 0.46 0.44 0.39 0.43 0.35 0.32 0.30 0.32 0.39 0.42 0.43 0.43 0.41 0.39 0.38 0.37 0.35 0.34 0.31 0.29 0.26 0.23 0.22 0.22 0.22 0.23 0.22 0.21 0.21 0.24 0.25 0.26 0.27
0.42 0.46 0.48 0.51 0.49 0.42 0.34 0.36 0.39 0.27 0.30 0.35 0.37 0.38 0.38 0.38 0.41 0.42 0.42 0.43 0.44 0.46 0.42 0.39 0.34 0.31 0.33 0.36 0.36 0.38 0.37 0.36 0.33 0.33 0.34 0.35 0.34 0.31 0.28 0.26 0.25 0.23 0.23 0.23 0.23 0.22 0.23 0.24 0.24 0.25 0.26 0.27 0.26 0.28
0.42 0.45 0.48 0.52 0.49 0.38 0.32 0.32 0.40 0.30 0.26 0.31 0.35 0.34 0.35 0.34 0.38 0.39 0.39 0.39 0.38 0.35 0.30 0.27 0.28 0.33 0.34 0.35 0.35 0.33 0.34 0.33 0.30 0.28 0.27 0.28 0.28 0.27 0.25 0.25 0.24 0.24 0.24 0.25 0.24 0.25 0.25 0.25 0.25 0.26 0.28 0.31 0.30 0.30
0.39 0.43 0.45 0.48 0.46 0.40 0.36 0.33 0.31 0.32 0.32 0.29 0.34 0.34 0.32 0.34 0.32 0.32 0.32 0.37 0.31 0.27 0.24 0.28 0.30 0.33 0.35 0.34 0.33 0.31 0.30 0.30 0.26 0.26 0.23 0.21 0.24 0.24 0.23 0.24 0.25 0.26 0.26 0.26 0.26 0.26 0.28 0.27 0.29 0.32 0.34 0.33 0.32 0.32
0.37 0.47 0.43 0.45 0.37 0.37 0.34 0.39 0.34 0.35 0.32 0.31 0.32 0.34 0.31 0.29 0.28 0.29 0.32 0.27 0.25 0.26 0.29 0.28 0.29 0.30 0.30 0.30 0.30 0.30 0.28 0.26 0.24 0.23 0.24 0.24 0.22 0.23 0.24 0.27 0.27 0.26 0.27 0.28 0.29 0.29 0.29 0.32 0.35 0.35 0.34 0.31 0.32 0.32
0.40 0.39 0.38 0.39 0.32 0.31 0.30 0.40 0.30 0.30 0.25 0.27 0.31 0.27 0.26 0.26 0.28 0.32 0.23 0.24 0.25 0.29 0.29 0.29 0.30 0.30 0.29 0.30 0.30 0.24 0.25 0.25 0.24 0.26 0.26 0.26 0.27 0.27 0.28 0.29 0.30 0.29 0.27 0.27 0.30 0.29 0.28 0.30 0.30 0.30 0.30 0.30 0.30 0.30
0.42 0.32 0.30 0.31 0.31 0.27 0.33 0.29 0.32 0.30 0.29 0.26 0.25 0.22 0.24 0.24 0.27 0.22 0.18 0.22 0.27 0.29 0.27 0.26 0.26 0.24 0.24 0.23 0.24 0.26 0.27 0.29 0.27 0.28 0.29 0.27 0.24 0.25 0.27 0.27 0.28 0.27 0.25 0.24 0.24 0.24 0.25 0.26 0.31 0.30 0.29 0.29 0.30 0.30
0.25 0.26 0.29 0.26 0.31 0.27 0.24 0.26 0.27 0.27 0.24 0.26 0.24 0.23 0.24 0.26 0.19 0.17 0.17 0.23 0.26 0.27 0.28 0.28 0.27 0.26 0.26 0.27 0.28 0.28 0.30 0.29 0.27 0.25 0.27 0.27 0.24 0.22 0.20 0.20 0.21 0.23 0.24 0.22 0.21 0.22 0.23 0.24 0.25 0.26 0.28 0.28 0.28 0.28
0.20 0.26 0.25 0.26 0.27 0.26 0.26 0.23 0.25 0.25 0.26 0.24 0.24 0.26 0.25 0.21 0.17 0.16 0.21 0.24 0.25 0.25 0.24 0.25 0.25 0.24 0.25 0.27 0.26 0.27 0.28 0.29 0.27 0.24 0.24 0.23 0.20 0.18 0.17 0.17 0.16 0.18 0.22 0.22 0.21 0.21 0.21 0.22 0.22 0.23 0.25 0.27 0.28 0.28
0.22 0.24 0.30 0.35 0.33 0.32 0.29 0.31 0.31 0.28 0.24 0.22 0.23 0.21 0.19 0.14 0.14 0.20 0.25 0.27 0.26 0.28 0.27 0.26 0.26 0.25 0.25 0.26 0.27 0.29 0.29 0.27 0.24 0.20 0.20 0.23 0.22 0.21 0.19 0.17 0.16 0.18 0.20 0.21 0.21 0.20 0.20 0.21 0.22 0.22 0.23 0.25 0.26 0.26
0.29 0.29 0.25 0.29 0.30 0.31 0.26 0.25 0.23 0.21 0.22 0.24 0.21 0.16 0.15 0.15 0.17 0.23 0.25 0.28 0.28 0.28 0.28 0.27 0.28 0.28 0.28 0.29 0.29 0.27 0.23 0.20 0.18 0.18 0.23 0.22 0.20 0.19 0.18 0.19 0.19 0.19 0.19 0.20 0.20 0.20 0.20 0.21 0.21 0.22 0.23 0.23 0.24 0.25
0.28 0.32 0.30 0.25 0.24 0.23 0.22 0.21 0.21 0.23 0.26 0.22 0.18 0.17 0.19 0.22 0.23 0.23 0.25 0.27 0.28 0.27 0.26 0.26 0.27 0.29 0.27 0.26 0.23 0.19 0.18 0.17 0.15 0.13 0.13 0.12 0.13 0.14 0.15 0.15 0.15 0.15 0.16 0.17 0.18 0.19 0.19 0.20 0.21 0.21 0.22 0.23 0.22 0.22
0.25 0.30 0.23 0.21 0.20 0.19 0.22 0.26 0.25 0.27 0.28 0.28 0.27 0.25 0.24 0.24 0.25 0.28 0.27 0.27 0.26 0.25 0.24 0.23 0.22 0.19 0.16 0.15 0.15 0.16 0.18 0.17 0.15 0.13 0.10 0.10 0.10 0.11 0.11 0.11 0.11 0.12 0.13 0.14 0.14 0.15 0.17 0.19 0.20 0.20 0.19 0.20 0.19 0.19
0.26 0.25 0.22 0.22 0.21 0.24 0.26 0.27 0.28 0.28 0.27 0.27 0.29 0.25 0.22 0.23 0.23 0.24 0.22 0.21 0.19 0.18 0.16 0.15 0.16 0.16 0.15 0.15 0.15 0.13 0.12 0.14 0.14 0.13 0.12 0.11 0.11 0.11 0.11 0.11 0.11 0.12 0.12 0.12 0.12 0.13 0.14 0.15 0.16 0.16 0.16 0.16 0.16 0.16
0.22 0.20 0.19 0.17 0.19 0.23 0.23 0.19 0.18 0.17 0.18 0.17 0.17 0.18 0.17 0.16 0.13 0.14 0.16 0.16 0.15 0.15 0.15 0.15 0.14 0.14 0.15 0.16 0.15 0.14 0.13 0.12 0.11 0.11 0.12 0.12 0.11 0.11 0.11 0.11 0.11 0.12 0.12 0.11 0.12 0.12 0.13 0.13 0.14 0.14 0.14 0.14 0.14 0.14
0.16 0.15 0.15 0.14 0.14 0.14 0.17 0.13 0.13 0.14 0.15 0.14 0.15 0.16 0.15 0.14 0.12 0.14 0.18 0.18 0.16 0.15 0.14 0.14 0.14 0.15 0.14 0.13 0.12 0.11 0.11 0.11 0.11 0.12 0.12 0.12 0.12 0.11 0.11 0.12 0.12 0.12 0.11 0.11 0.11 0.12 0.12 0.12 0.12 0.12 0.12 0.13 0.13 0.13

GFSWCAN_prec_pwat_018.txt.gz
Precipitable_Water
1.02 0.99 0.90 0.85 0.89 0.89 0.86 0.83 0.84 0.82 0.79 0.75 0.72 0.73 0.76 0.83 0.86 0.76 0.71 0.84 0.63 0.52 0.58 0.66 0.65 0.54 0.54 0.50 0.41 0.51 0.48 0.50 0.46 0.34 0.29 0.27 0.25 0.28 0.26 0.27 0.23 0.20 0.19 0.19 0.22 0.17 0.13 0.31 0.35 0.26 0.29 0.39 0.44 0.49
1.03 0.99 0.88 0.84 0.89 0.90 0.88 0.84 0.84 0.84 0.81 0.77 0.72 0.70 0.68 0.72 0.81 0.79 0.58 0.79 0.78 0.53 0.55 0.76 0.77 0.79 0.71 0.65 0.56 0.57 0.46 0.45 0.46 0.36 0.34 0.33 0.25 0.31 0.26 0.19 0.33 0.21 0.22 0.20 0.22 0.19 0.30 0.36 0.35 0.42 0.45 0.45 0.48 0.52
1.01 0.96 0.88 0.84 0.87 0.90 0.89 0.86 0.85 0.84 0.84 0.81 0.76 0.72 0.68 0.72 0.78 0.76 0.68 0.75 0.66 0.50 0.50 0.57 0.62 0.79 0.87 0.82 0.79 0.51 0.56 0.59 0.51 0.51 0.40 0.34 0.23 0.30 0.21 0.23 0.27 0.30 0.35 0.27 0.29 0.31 0.34 0.41 0.47 0.51 0.55 0.54 0.58 0.62
1.01 0.95 0.90 0.85 0.85 0.88 0.89 0.87 0.86 0.85 0.84 0.84 0.81 0.77 0.73 0.75 0.77 0.77 0.64 0.75 0.64 0.53 0.37 0.46 0.73 0.68 0.85 0.85 0.80 0.76 0.69 0.70 0.64 0.55 0.41 0.34 0.28 0.37 0.26 0.27 0.27 0.29 0.35 0.31 0.32 0.38 0.45 0.48 0.52 0.56 0.58 0.61 0.61 0.63
1.02 0.98 0.93 0.90 0.86 0.86 0.88 0.88 0.88 0.86 0.85 0.84 0.83 0.80 0.79 0.81 0.80 0.76 0.73 0.75 0.79 0.51 0.37 0.46 0.63 0.68 0.70 0.73 0.73 0.74 0.69 0.64 0.57 0.47 0.43 0.38 0.43 0.42 0.42 0.40 0.32 0.35 0.30 0.27 0.25 0.38 0.40 0.43 0.52 0.57 0.57 0.60 0.63 0.62
1.03 1.00 0.96 0.92 0.91 0.88 0.87 0.88 0.89 0.88 0.87 0.86 0.84 0.83 0.82 0.81 0.83 0.73 0.54 0.76 0.83 0.77 0.48 0.35 0.63 0.61 0.67 0.69 0.63 0.63 0.65 0.63 0.58 0.50 0.47 0.50 0.55 0.42 0.34 0.31 0.40 0.43 0.45 0.45 0.40 0.50 0.50 0.53 0.57 0.61 0.61 0.64 0.64 0.58
0.98 1.00 1.00 0.96 0.92 0.91 0.90 0.89 0.89 0.89 0.88 0.87 0.86 0.85 0.83 0.83 0.80 0.62 0.54 0.74 0.86 0.82 0.51 0.42 0.43 0.60 0.66 0.68 0.66 0.64 0.67 0.61 0.59 0.54 0.49 0.47 0.48 0.51 0.41 0.32 0.41 0.48 0.50 0.51 0.53 0.53 0.48 0.53 0.53 0.63 0.64 0.65 0.58 0.53
0.94 0.95 0.97 0.98 0.97 0.93 0.92 0.91 0.91 0.91 0.89 0.88 0.88 0.87 0.86 0.86 0.86 0.73 0.81 0.88 0.88 0.65 0.57 0.39 0.40 0.46 0.65 0.54 0.52 0.67 0.59 0.63 0.64 0.61 0.62 0.54 0.57 0.57 0.42 0.46 0.50 0.53 0.53 0.54 0.55 0.58 0.58 0.63 0.64 0.64 0.64 0.58 0.52 0.48
0.80 0.89 0.93 0.93 0.93 0.95 0.95 0.94 0.91 0.89 0.90 0.90 0.90 0.89 0.81 0.74 0.63 0.70 0.85 0.85 0.87 0.65 0.44 0.43 0.32 0.30 0.60 0.54 0.59 0.61 0.64 0.50 0.64 0.54 0.56 0.59 0.51 0.42 0.44 0.47 0.49 0.52 0.52 0.53 0.60 0.62 0.64 0.62 0.63 0.62 0.56 0.51 0.46 0.42
0.69 0.71 0.75 0.85 0.90 0.90 0.92 0.94 0.94 0.93 0.93 0.91 0.83 0.68 0.57 0.70 0.87 0.85 0.71 0.57 0.58 0.62 0.60 0.43 0.49 0.39 0.51 0.50 0.49 0.51 0.56 0.50 0.41 0.48 0.59 0.47 0.41 0.51 0.53 0.55 0.55 0.55 0.57 0.62 0.59 0.58 0.60 0.60 0.58 0.55 0.49 0.47 0.44 0.39
0.61 0.63 0.62 0.66 0.75 0.84 0.89 0.93 0.97 0.98 0.96 0.82 0.69 0.63 0.79 0.89 0.76 0.64 0.51 0.48 0.52 0.46 0.54 0.54 0.54 0.49 0.63 0.47 0.48 0.58 0.51 0.52 0.38 0.43 0.44 0.38 0.34 0.42 0.52 0.53 0.57 0.62 0.65 0.65 0.68 0.68 0.65 0.60 0.54 0.46 0.48 0.44 0.35 0.30
0.60 0.61 0.61 0.62 0.62 0.67 0.79 0.89 0.94 0.90 0.87 0.86 0.84 0.90 0.86 0.72 0.63 0.54 0.50 0.54 0.50 0.45 0.56 0.54 0.56 0.61 0.63 0.68 0.56 0.57 0.49 0.51 0.37 0.51 0.42 0.33 0.42 0.54 0.55 0.57 0.58 0.60 0.61 0.61 0.64 0.63 0.57 0.52 0.52 0.47 0.37 0.29 0.26 0.26
0.56 0.59 0.59 0.61 0.62 0.62 0.64 0.70 0.83 0.90 0.90 0.86 0.75 0.67 0.63 0.60 0.48 0.43 0.39 0.42 0.43 0.52 0.55 0.56 0.53 0.61 0.64 0.66 0.58 0.54 0.45 0.42 0.53 0.41 0.37 0.41 0.52 0.55 0.54 0.57 0.58 0.62 0.61 0.56 0.54 0.58 0.53 0.44 0.39 0.34 0.30 0.28 0.29 0.27
0.53 0.54 0.57 0.58 0.61 0.62 0.62 0.63 0.66 0.71 0.72 0.61 0.57 0.47 0.48 0.44 0.45 0.45 0.45 0.47 0.53 0.55 0.55 0.56 0.54 0.54 0.57 0.54 0.53 0.43 0.47 0.47 0.36 0.32 0.32 0.45 0.52 0.55 0.53 0.52 0.50 0.48 0.48 0.50 0.51 0.46 0.43 0.40 0.33 0.30 0.29 0.29 0.27 0.23
0.49 0.50 0.51 0.53 0.56 0.58 0.58 0.59 0.60 0.59 0.49 0.44 0.50 0.40 0.43 0.49 0.52 0.52 0.54 0.54 0.57 0.60 0.57 0.53 0.53 0.53 0.49 0.46 0.47 0.44 0.38 0.33 0.35 0.33 0.40 0.48 0.53 0.53 0.49 0.47 0.46 0.45 0.46 0.44 0.42 0.39 0.37 0.33 0.29 0.27 0.27 0.25 0.24 0.24
0.47 0.49 0.49 0.52 0.51 0.52 0.54 0.55 0.54 0.50 0.43 0.39 0.38 0.36 0.45 0.45 0.46 0.49 0.50 0.50 0.57 0.55 0.56 0.54 0.46 0.42 0.40 0.41 0.37 0.35 0.33 0.30 0.35 0.42 0.46 0.49 0.48 0.49 0.50 0.52 0.50 0.47 0.42 0.40 0.37 0.35 0.32 0.28 0.25 0.24 0.24 0.24 0.24 0.25
0.39 0.39 0.49 0.49 0.49 0.50 0.48 0.44 0.40 0.34 0.33 0.32 0.30 0.39 0.37 0.38 0.39 0.42 0.46 0.47 0.56 0.50 0.41 0.44 0.36 0.35 0.42 0.36 0.33 0.38 0.33 0.38 0.42 0.45 0.48 0.48 0.46 0.44 0.44 0.41 0.39 0.38 0.36 0.33 0.30 0.26 0.24 0.25 0.25 0.23 0.21 0.22 0.25 0.26
0.33 0.41 0.47 0.47 0.48 0.46 0.41 0.40 0.34 0.30 0.25 0.30 0.29 0.34 0.38 0.40 0.39 0.41 0.45 0.48 0.46 0.44 0.43 0.38 0.44 0.36 0.33 0.30 0.33 0.39 0.43 0.45 0.47 0.45 0.44 0.43 0.40 0.37 0.36 0.33 0.30 0.27 0.26 0.25 0.24 0.24 0.24 0.23 0.22 0.22 0.23 0.24 0.25 0.26
0.37 0.41 0.43 0.45 0.43 0.37 0.29 0.32 0.34 0.24 0.27 0.32 0.34 0.36 0.36 0.37 0.41 0.42 0.41 0.42 0.42 0.42 0.38 0.35 0.31 0.29 0.31 0.35 0.37 0.39 0.39 0.36 0.34 0.34 0.33 0.34 0.34 0.32 0.30 0.28 0.27 0.25 0.24 0.24 0.24 0.23 0.24 0.25 0.26 0.27 0.27 0.28 0.26 0.28
0.37 0.40 0.43 0.44 0.44 0.34 0.28 0.29 0.38 0.27 0.23 0.28 0.33 0.32 0.32 0.32 0.36 0.38 0.38 0.37 0.36 0.34 0.28 0.26 0.27 0.30 0.30 0.31 0.32 0.30 0.32 0.31 0.29 0.27 0.27 0.29 0.29 0.27 0.25 0.25 0.24 0.24 0.25 0.26 0.27 0.28 0.28 0.28 0.30 0.30 0.30 0.29 0.29 0.29
0.34 0.36 0.40 0.41 0.37 0.35 0.31 0.29 0.28 0.29 0.28 0.26 0.30 0.30 0.28 0.32 0.30 0.31 0.32 0.36 0.30 0.27 0.25 0.30 0.31 0.33 0.34 0.33 0.32 0.31 0.30 0.30 0.27 0.25 0.24 0.21 0.22 0.23 0.24 0.25 0.27 0.28 0.27 0.27 0.26 0.26 0.27 0.27 0.29 0.29 0.29 0.28 0.30 0.29
0.32 0.39 0.36 0.38 0.32 0.34 0.30 0.34 0.30 0.33 0.28 0.27 0.28 0.29 0.26 0.26 0.28 0.30 0.34 0.28 0.27 0.28 0.31 0.31 0.31 0.32 0.32 0.31 0.31 0.31 0.29 0.24 0.23 0.25 0.26 0.26 0.23 0.24 0.25 0.26 0.25 0.25 0.26 0.27 0.27 0.26 0.25 0.25 0.24 0.24 0.24 0.26 0.28 0.28
0.36 0.34 0.30 0.32 0.26 0.26 0.25 0.36 0.27 0.29 0.23 0.25 0.29 0.25 0.25 0.26 0.30 0.33 0.25 0.26 0.28 0.33 0.32 0.31 0.31 0.32 0.30 0.31 0.30 0.29 0.28 0.26 0.24 0.24 0.25 0.25 0.26 0.26 0.25 0.25 0.24 0.22 0.21 0.22 0.22 0.20 0.19 0.21 0.22 0.23 0.24 0.25 0.26 0.26
0.38 0.27 0.22 0.22 0.25 0.23 0.30 0.26 0.31 0.29 0.27 0.25 0.24 0.22 0.24 0.25 0.29 0.25 0.20 0.24 0.29 0.31 0.29 0.27 0.28 0.27 0.28 0.26 0.23 0.24 0.25 0.26 0.26 0.26 0.26 0.25 0.23 0.24 0.25 0.24 0.24 0.22 0.20 0.20 0.19 0.19 0.19 0.19 0.20 0.20 0.21 0.22 0.23 0.24
0.21 0.21 0.22 0.19 0.27 0.24 0.22 0.23 0.25 0.25 0.22 0.25 0.24 0.24 0.25 0.27 0.20 0.19 0.19 0.24 0.27 0.28 0.29 0.29 0.27 0.26 0.23 0.23 0.24 0.25 0.28 0.27 0.26 0.24 0.25 0.25 0.24 0.23 0.22 0.21 0.19 0.19 0.19 0.17 0.16 0.16 0.16 0.17 0.18 0.18 0.19 0.20 0.21 0.23
0.17 0.21 0.18 0.20 0.22 0.23 0.24 0.21 0.22 0.23 0.24 0.25 0.26 0.29 0.28 0.23 0.20 0.18 0.22 0.24 0.26 0.27 0.27 0.27 0.25 0.24 0.24 0.25 0.24 0.25 0.26 0.28 0.26 0.24 0.24 0.24 0.23 0.20 0.16 0.15 0.15 0.15 0.17 0.16 0.16 0.15 0.15 0.16 0.16 0.16 0.17 0.18 0.20 0.22
0.19 0.20 0.26 0.31 0.29 0.29 0.27 0.29 0.30 0.27 0.24 0.24 0.26 0.26 0.24 0.18 0.17 0.21 0.26 0.28 0.27 0.28 0.29 0.27 0.26 0.24 0.24 0.25 0.26 0.26 0.26 0.26 0.24 0.23 0.25 0.22 0.19 0.18 0.16 0.14 0.13 0.14 0.15 0.15 0.14 0.14 0.13 0.13 0.14 0.15 0.16 0.17 0.19 0.20
0.27 0.28 0.23 0.27 0.28 0.30 0.26 0.26 0.25 0.24 0.26 0.30 0.28 0.22 0.20 0.19 0.19 0.24 0.25 0.28 0.29 0.29 0.27 0.27 0.27 0.27 0.26 0.26 0.26 0.26 0.25 0.23 0.20 0.21 0.19 0.18 0.17 0.17 0.15 0.14 0.13 0.12 0.11 0.11 0.12 0.12 0.12 0.13 0.13 0.14 0.15 0.16 0.18 0.19
0.27 0.31 0.30 0.25 0.27 0.26 0.27 0.26 0.25 0.28 0.30 0.26 0.21 0.20 0.20 0.22 0.24 0.24 0.26 0.27 0.28 0.27 0.25 0.25 0.26 0.27 0.26 0.25 0.22 0.20 0.17 0.15 0.13 0.12 0.11 0.10 0.10 0.10 0.12 0.10 0.10 0.10 0.10 0.10 0.11 0.11 0.12 0.13 0.13 0.14 0.15 0.15 0.16 0.16
0.27 0.32 0.26 0.24 0.23 0.21 0.23 0.27 0.25 0.29 0.30 0.28 0.27 0.24 0.23 0.23 0.25 0.27 0.26 0.26 0.25 0.24 0.24 0.23 0.21 0.19 0.16 0.15 0.14 0.15 0.16 0.15 0.14 0.11 0.09 0.08 0.09 0.10 0.10 0.10 0.09 0.10 0.10 0.10 0.10 0.11 0.12 0.12 0.13 0.14 0.14 0.14 0.14 0.14
0.27 0.26 0.22 0.22 0.21 0.24 0.26 0.28 0.28 0.28 0.27 0.26 0.27 0.23 0.21 0.21 0.23 0.23 0.22 0.22 0.21 0.19 0.17 0.15 0.15 0.15 0.14 0.14 0.13 0.12 0.12 0.13 0.13 0.12 0.11 0.11 0.11 0.10 0.10 0.10 0.11 0.11 0.11 0.11 0.10 0.10 0.11 0.11 0.11 0.11 0.11 0.11 0.12 0.12
0.22 0.20 0.18 0.17 0.18 0.22 0.22 0.18 0.16 0.15 0.16 0.15 0.15 0.16 0.15 0.14 0.12 0.14 0.16 0.16 0.15 0.14 0.14 0.14 0.13 0.13 0.14 0.15 0.14 0.13 0.12 0.11 0.11 0.11 0.11 0.11 0.10 0.11 0.11 0.11 0.11 0.11 0.10 0.10 0.10 0.10 0.11 0.10 0.10 0.10 0.10 0.10 0.11 0.11
0.15 0.15 0.14 0.14 0.13 0.13 0.15 0.12 0.12 0.13 0.15 0.14 0.14 0.15 0.14 0.14 0.12 0.15 0.18 0.18 0.16 0.15 0.14 0.14 0.14 0.14 0.14 0.12 0.11 0.10 0.10 0.10 0.11 0.10 0.11 0.11 0.11 0.11 0.11 0.11 0.10 0.10 0.10 0.09 0.10 0.10 0.10 0.10 0.10 0.10 0.10 0.10 0.10 0.11

GFSWCAN_prec_pwat_021.txt.gz
Precipitable_Water
0.85 0.84 0.86 0.83 0.81 0.83 0.84 0.81 0.79 0.80 0.83 0.83 0.80 0.75 0.80 0.83 0.90 0.90 0.86 0.89 0.62 0.49 0.57 0.64 0.61 0.51 0.51 0.49 0.39 0.48 0.46 0.48 0.44 0.36 0.32 0.29 0.27 0.29 0.27 0.29 0.25 0.22 0.20 0.19 0.21 0.17 0.12 0.26 0.32 0.23 0.26 0.31 0.37 0.40
0.84 0.84 0.83 0.84 0.84 0.84 0.86 0.82 0.81 0.81 0.81 0.81 0.77 0.77 0.80 0.83 0.81 0.78 0.65 0.82 0.75 0.56 0.58 0.75 0.75 0.75 0.69 0.63 0.54 0.55 0.46 0.47 0.48 0.38 0.35 0.33 0.27 0.32 0.28 0.20 0.34 0.22 0.24 0.20 0.21 0.18 0.26 0.31 0.30 0.36 0.39 0.38 0.42 0.47
0.83 0.81 0.83 0.86 0.87 0.85 0.85 0.84 0.83 0.82 0.80 0.77 0.76 0.77 0.82 0.87 0.85 0.76 0.72 0.74 0.61 0.52 0.57 0.62 0.61 0.75 0.83 0.78 0.76 0.49 0.53 0.53 0.48 0.49 0.39 0.35 0.25 0.31 0.21 0.23 0.26 0.30 0.35 0.26 0.26 0.26 0.28 0.35 0.40 0.43 0.47 0.47 0.52 0.57
0.92 0.84 0.85 0.88 0.88 0.88 0.86 0.85 0.85 0.82 0.80 0.77 0.74 0.73 0.76 0.78 0.76 0.73 0.65 0.71 0.56 0.46 0.34 0.48 0.77 0.71 0.85 0.85 0.79 0.72 0.65 0.67 0.62 0.54 0.40 0.34 0.27 0.35 0.26 0.28 0.28 0.31 0.34 0.29 0.29 0.32 0.37 0.41 0.44 0.47 0.51 0.54 0.58 0.62
0.94 0.88 0.87 0.88 0.91 0.91 0.89 0.87 0.85 0.84 0.81 0.78 0.75 0.74 0.74 0.73 0.73 0.72 0.72 0.75 0.74 0.46 0.35 0.43 0.61 0.71 0.79 0.81 0.77 0.75 0.69 0.64 0.58 0.49 0.43 0.36 0.40 0.38 0.40 0.38 0.31 0.35 0.31 0.28 0.26 0.35 0.37 0.38 0.47 0.53 0.53 0.54 0.57 0.58
0.97 0.93 0.89 0.89 0.92 0.94 0.92 0.89 0.86 0.85 0.84 0.83 0.81 0.78 0.78 0.77 0.76 0.59 0.44 0.67 0.77 0.65 0.41 0.33 0.59 0.58 0.64 0.66 0.64 0.64 0.64 0.61 0.57 0.49 0.46 0.49 0.50 0.42 0.33 0.30 0.37 0.38 0.41 0.42 0.38 0.46 0.47 0.52 0.56 0.58 0.55 0.58 0.62 0.61
0.99 0.94 0.90 0.88 0.91 0.94 0.93 0.91 0.89 0.87 0.85 0.85 0.83 0.82 0.81 0.82 0.74 0.53 0.46 0.67 0.83 0.71 0.45 0.37 0.38 0.55 0.62 0.63 0.60 0.60 0.64 0.60 0.58 0.52 0.47 0.46 0.47 0.50 0.40 0.31 0.36 0.45 0.49 0.51 0.55 0.55 0.49 0.53 0.50 0.59 0.63 0.65 0.63 0.58
0.98 0.95 0.93 0.91 0.89 0.89 0.90 0.91 0.90 0.88 0.88 0.88 0.86 0.86 0.87 0.87 0.84 0.69 0.82 0.86 0.86 0.64 0.56 0.38 0.39 0.45 0.64 0.52 0.50 0.64 0.56 0.59 0.59 0.55 0.56 0.50 0.55 0.54 0.41 0.43 0.49 0.53 0.56 0.55 0.56 0.59 0.58 0.61 0.63 0.64 0.65 0.61 0.57 0.57
0.95 0.96 0.95 0.93 0.91 0.90 0.87 0.87 0.89 0.89 0.90 0.89 0.87 0.85 0.80 0.74 0.66 0.72 0.89 0.91 0.86 0.63 0.44 0.42 0.33 0.30 0.59 0.53 0.56 0.56 0.59 0.46 0.59 0.51 0.52 0.55 0.48 0.40 0.45 0.48 0.50 0.52 0.52 0.53 0.58 0.60 0.61 0.61 0.60 0.61 0.60 0.58 0.60 0.54
0.90 0.93 0.94 0.93 0.93 0.92 0.92 0.89 0.88 0.88 0.89 0.88 0.80 0.65 0.56 0.70 0.88 0.85 0.72 0.58 0.59 0.62 0.59 0.42 0.46 0.35 0.47 0.46 0.45 0.46 0.51 0.45 0.38 0.45 0.56 0.44 0.40 0.52 0.55 0.57 0.58 0.60 0.61 0.63 0.56 0.56 0.58 0.57 0.59 0.60 0.62 0.60 0.54 0.48
0.83 0.88 0.90 0.92 0.92 0.95 0.97 0.95 0.94 0.93 0.89 0.76 0.65 0.61 0.78 0.87 0.73 0.62 0.50 0.47 0.50 0.44 0.50 0.49 0.47 0.40 0.54 0.41 0.44 0.54 0.47 0.48 0.36 0.42 0.45 0.40 0.38 0.48 0.56 0.56 0.58 0.59 0.61 0.63 0.64 0.64 0.64 0.63 0.61 0.57 0.50 0.51 0.51 0.40
0.69 0.71 0.77 0.85 0.90 0.93 0.96 0.97 0.97 0.90 0.83 0.79 0.75 0.80 0.76 0.64 0.56 0.47 0.44 0.49 0.46 0.41 0.51 0.47 0.49 0.55 0.59 0.64 0.54 0.56 0.48 0.49 0.37 0.51 0.43 0.34 0.43 0.51 0.53 0.55 0.57 0.60 0.62 0.61 0.63 0.61 0.60 0.58 0.55 0.53 0.46 0.38 0.34 0.33
0.64 0.65 0.63 0.66 0.74 0.84 0.91 0.95 0.96 0.95 0.92 0.85 0.73 0.63 0.58 0.55 0.43 0.40 0.35 0.39 0.39 0.49 0.55 0.57 0.55 0.61 0.64 0.65 0.57 0.54 0.45 0.41 0.52 0.40 0.36 0.40 0.48 0.53 0.55 0.57 0.57 0.60 0.60 0.59 0.58 0.58 0.54 0.48 0.45 0.44 0.40 0.36 0.32 0.30
0.60 0.61 0.62 0.62 0.62 0.64 0.69 0.79 0.87 0.87 0.80 0.65 0.58 0.48 0.48 0.43 0.44 0.46 0.46 0.48 0.54 0.56 0.56 0.57 0.54 0.53 0.57 0.53 0.52 0.43 0.47 0.47 0.36 0.32 0.32 0.43 0.49 0.51 0.52 0.50 0.48 0.49 0.53 0.54 0.48 0.45 0.43 0.41 0.37 0.35 0.32 0.32 0.30 0.28
0.54 0.55 0.57 0.58 0.60 0.60 0.61 0.64 0.68 0.67 0.63 0.55 0.54 0.43 0.44 0.50 0.52 0.52 0.56 0.55 0.58 0.60 0.57 0.54 0.53 0.53 0.49 0.46 0.46 0.44 0.38 0.33 0.34 0.32 0.40 0.47 0.51 0.51 0.48 0.48 0.48 0.49 0.48 0.44 0.44 0.43 0.41 0.36 0.32 0.30 0.30 0.29 0.27 0.25
0.49 0.48 0.48 0.53 0.55 0.54 0.57 0.58 0.55 0.53 0.47 0.42 0.44 0.43 0.48 0.46 0.46 0.49 0.51 0.51 0.58 0.57 0.58 0.55 0.46 0.42 0.41 0.42 0.37 0.35 0.33 0.30 0.35 0.42 0.47 0.50 0.49 0.50 0.50 0.50 0.50 0.48 0.44 0.42 0.41 0.38 0.33 0.29 0.27 0.26 0.25 0.25 0.25 0.25
0.43 0.42 0.50 0.49 0.49 0.48 0.49 0.45 0.44 0.37 0.35 0.33 0.33 0.41 0.41 0.41 0.40 0.42 0.45 0.46 0.53 0.47 0.40 0.42 0.35 0.35 0.42 0.35 0.33 0.38 0.34 0.38 0.43 0.45 0.47 0.48 0.46 0.45 0.45 0.42 0.40 0.38 0.34 0.31 0.29 0.28 0.26 0.26 0.26 0.24 0.22 0.23 0.24 0.25
0.33 0.42 0.45 0.44 0.43 0.40 0.39 0.40 0.33 0.29 0.26 0.32 0.29 0.33 0.37 0.39 0.38 0.39 0.42 0.45 0.44 0.41 0.40 0.35 0.40 0.33 0.31 0.29 0.31 0.38 0.42 0.44 0.45 0.45 0.47 0.47 0.42 0.39 0.37 0.34 0.32 0.30 0.28 0.27 0.26 0.26 0.25 0.25 0.24 0.24 0.26 0.28 0.27 0.27
0.34 0.36 0.37 0.40 0.40 0.33 0.28 0.31 0.33 0.22 0.25 0.31 0.34 0.36 0.37 0.37 0.41 0.43 0.42 0.43 0.42 0.42 0.36 0.34 0.30 0.28 0.30 0.34 0.35 0.38 0.40 0.38 0.37 0.37 0.35 0.33 0.33 0.32 0.30 0.29 0.28 0.26 0.24 0.25 0.25 0.25 0.26 0.28 0.28 0.28 0.28 0.28 0.26 0.26
0.32 0.35 0.36 0.37 0.38 0.30 0.24 0.26 0.34 0.25 0.24 0.29 0.33 0.31 0.31 0.32 0.36 0.37 0.37 0.36 0.35 0.32 0.27 0.25 0.25 0.28 0.28 0.28 0.31 0.30 0.31 0.31 0.28 0.24 0.25 0.27 0.29 0.27 0.26 0.25 0.24 0.25 0.24 0.25 0.26 0.27 0.26 0.25 0.27 0.27 0.27 0.26 0.23 0.21
0.27 0.30 0.33 0.33 0.30 0.30 0.27 0.26 0.25 0.26 0.26 0.24 0.29 0.29 0.28 0.31 0.29 0.30 0.31 0.35 0.30 0.26 0.24 0.29 0.31 0.33 0.34 0.34 0.34 0.33 0.31 0.30 0.27 0.26 0.25 0.24 0.27 0.27 0.25 0.24 0.24 0.24 0.23 0.23 0.23 0.23 0.24 0.23 0.22 0.21 0.20 0.21 0.23 0.24
0.27 0.32 0.29 0.31 0.25 0.27 0.25 0.30 0.27 0.30 0.26 0.25 0.25 0.26 0.23 0.23 0.25 0.28 0.32 0.27 0.25 0.28 0.31 0.32 0.33 0.35 0.34 0.33 0.33 0.32 0.30 0.28 0.27 0.26 0.26 0.25 0.22 0.21 0.21 0.22 0.22 0.21 0.22 0.22 0.22 0.21 0.20 0.20 0.20 0.19 0.19 0.19 0.21 0.21
0.30 0.27 0.24 0.25 0.20 0.21 0.22 0.33 0.24 0.25 0.20 0.23 0.26 0.22 0.22 0.23 0.27 0.32 0.25 0.27 0.29 0.35 0.36 0.35 0.35 0.36 0.34 0.34 0.33 0.31 0.30 0.27 0.24 0.23 0.23 0.24 0.24 0.25 0.25 0.24 0.24 0.22 0.21 0.21 0.22 0.19 0.18 0.18 0.17 0.17 0.17 0.17 0.17 0.17
0.33 0.23 0.19 0.18 0.19 0.18 0.25 0.23 0.27 0.25 0.24 0.23 0.22 0.20 0.22 0.24 0.29 0.26 0.22 0.25 0.31 0.34 0.32 0.32 0.32 0.30 0.30 0.30 0.28 0.26 0.25 0.26 0.25 0.24 0.25 0.25 0.24 0.25 0.25 0.24 0.23 0.22 0.21 0.19 0.18 0.16 0.16 0.15 0.15 0.15 0.15 0.14 0.15 0.15
0.18 0.19 0.20 0.16 0.22 0.19 0.17 0.18 0.21 0.23 0.20 0.22 0.22 0.22 0.24 0.28 0.22 0.20 0.20 0.24 0.28 0.29 0.30 0.32 0.31 0.29 0.26 0.26 0.26 0.26 0.27 0.26 0.25 0.24 0.26 0.26 0.24 0.23 0.22 0.21 0.21 0.20 0.17 0.15 0.13 0.13 0.12 0.12 0.11 0.11 0.11 0.11 0.12 0.12
0.14 0.20 0.17 0.19 0.19 0.18 0.19 0.18 0.21 0.21 0.22 0.22 0.24 0.27 0.28 0.25 0.21 0.19 0.22 0.27 0.28 0.29 0.29 0.29 0.28 0.27 0.26 0.26 0.25 0.25 0.25 0.26 0.26 0.23 0.23 0.23 0.22 0.20 0.18 0.16 0.13 0.13 0.14 0.13 0.11 0.10 0.09 0.09 0.09 0.10 0.10 0.11 0.12 0.12
0.18 0.20 0.25 0.30 0.27 0.26 0.24 0.25 0.27 0.25 0.23 0.22 0.24 0.24 0.24 0.20 0.19 0.23 0.29 0.30 0.29 0.30 0.31 0.31 0.29 0.26 0.24 0.24 0.25 0.25 0.25 0.25 0.24 0.24 0.24 0.22 0.19 0.16 0.14 0.12 0.10 0.11 0.11 0.10 0.09 0.09 0.09 0.09 0.09 0.10 0.11 0.11 0.13 0.13
0.26 0.27 0.22 0.26 0.27 0.29 0.24 0.24 0.24 0.23 0.25 0.28 0.27 0.22 0.21 0.21 0.21 0.26 0.28 0.30 0.31 0.30 0.29 0.29 0.28 0.26 0.25 0.25 0.25 0.25 0.24 0.24 0.23 0.21 0.18 0.15 0.14 0.14 0.13 0.12 0.11 0.10 0.10 0.10 0.10 0.10 0.10 0.10 0.10 0.11 0.11 0.11 0.12 0.13
0.27 0.30 0.29 0.24 0.26 0.26 0.26 0.25 0.25 0.28 0.31 0.29 0.24 0.22 0.22 0.24 0.25 0.25 0.26 0.28 0.29 0.28 0.25 0.24 0.25 0.26 0.26 0.25 0.24 0.21 0.19 0.15 0.12 0.10 0.10 0.09 0.10 0.10 0.11 0.10 0.09 0.10 0.10 0.10 0.10 0.10 0.11 0.11 0.11 0.11 0.12 0.12 0.12 0.12
0.26 0.30 0.25 0.24 0.23 0.21 0.24 0.27 0.26 0.30 0.31 0.29 0.27 0.25 0.23 0.23 0.24 0.27 0.26 0.26 0.25 0.24 0.24 0.23 0.22 0.20 0.18 0.16 0.14 0.13 0.14 0.14 0.13 0.12 0.10 0.09 0.09 0.10 0.09 0.09 0.09 0.10 0.10 0.10 0.10 0.09 0.10 0.11 0.11 0.11 0.10 0.10 0.10 0.11
0.28 0.26 0.23 0.22 0.21 0.24 0.26 0.29 0.29 0.30 0.29 0.26 0.26 0.22 0.19 0.19 0.20 0.22 0.21 0.20 0.19 0.19 0.17 0.15 0.14 0.14 0.13 0.12 0.12 0.12 0.12 0.13 0.13 0.12 0.11 0.10 0.10 0.10 0.10 0.10 0.10 0.10 0.10 0.09 0.09 0.09 0.09 0.10 0.09 0.09 0.09 0.09 0.10 0.10
0.20 0.19 0.18 0.16 0.18 0.22 0.22 0.19 0.18 0.17 0.17 0.16 0.15 0.15 0.14 0.13 0.12 0.14 0.16 0.16 0.15 0.14 0.14 0.13 0.12 0.13 0.14 0.14 0.13 0.13 0.12 0.11 0.10 0.09 0.09 0.10 0.10 0.10 0.10 0.10 0.09 0.09 0.09 0.08 0.09 0.09 0.09 0.09 0.09 0.09 0.09 0.09 0.09 0.10
0.14 0.15 0.14 0.14 0.13 0.14 0.15 0.12 0.11 0.12 0.14 0.13 0.13 0.14 0.14 0.13 0.12 0.15 0.18 0.17 0.16 0.15 0.14 0.13 0.13 0.13 0.13 0.13 0.12 0.11 0.11 0.10 0.10 0.10 0.10 0.10 0.10 0.10 0.09 0.09 0.09 0.09 0.09 0.09 0.09 0.09 0.09 0.09 0.09 0.09 0.09 0.09 0.09 0.10

GFSWCAN_prec_pwat_024.txt.gz
Precipitable_Water
0.91 0.91 0.88 0.84 0.79 0.78 0.78 0.81 0.86 0.89 0.90 0.90 0.87 0.82 0.72 0.67 0.76 0.83 0.88 0.95 0.68 0.54 0.60 0.64 0.62 0.52 0.49 0.47 0.37 0.46 0.44 0.47 0.41 0.32 0.30 0.29 0.28 0.28 0.26 0.27 0.26 0.23 0.21 0.20 0.22 0.18 0.14 0.27 0.31 0.22 0.25 0.30 0.30 0.34
0.92 0.89 0.85 0.82 0.80 0.80 0.80 0.83 0.86 0.88 0.88 0.90 0.88 0.83 0.76 0.76 0.85 0.96 0.80 0.91 0.82 0.60 0.63 0.78 0.76 0.76 0.63 0.58 0.50 0.53 0.45 0.45 0.45 0.37 0.35 0.34 0.28 0.30 0.26 0.19 0.33 0.23 0.26 0.21 0.22 0.19 0.27 0.31 0.30 0.35 0.36 0.34 0.37 0.39
0.89 0.87 0.83 0.83 0.82 0.81 0.81 0.82 0.84 0.84 0.85 0.88 0.89 0.86 0.83 0.82 0.93 0.96 0.84 0.79 0.70 0.59 0.61 0.64 0.61 0.75 0.81 0.76 0.74 0.47 0.50 0.52 0.49 0.51 0.40 0.34 0.24 0.30 0.21 0.23 0.26 0.30 0.34 0.26 0.25 0.26 0.28 0.32 0.36 0.39 0.42 0.42 0.47 0.51
0.88 0.86 0.86 0.87 0.85 0.83 0.82 0.83 0.82 0.83 0.82 0.85 0.88 0.87 0.86 0.84 0.86 0.87 0.76 0.78 0.62 0.55 0.45 0.54 0.79 0.70 0.82 0.82 0.74 0.68 0.60 0.62 0.57 0.51 0.39 0.35 0.29 0.37 0.27 0.28 0.27 0.30 0.33 0.28 0.29 0.31 0.34 0.37 0.40 0.43 0.44 0.48 0.50 0.54
0.88 0.90 0.88 0.85 0.85 0.85 0.89 0.84 0.81 0.81 0.82 0.85 0.85 0.84 0.85 0.82 0.82 0.83 0.81 0.77 0.67 0.43 0.34 0.47 0.66 0.73 0.80 0.80 0.75 0.73 0.67 0.60 0.55 0.49 0.44 0.38 0.41 0.37 0.38 0.36 0.30 0.34 0.30 0.28 0.26 0.34 0.35 0.36 0.43 0.48 0.49 0.51 0.55 0.57
0.89 0.91 0.90 0.87 0.86 0.89 0.90 0.85 0.83 0.82 0.80 0.80 0.82 0.83 0.85 0.84 0.76 0.59 0.48 0.72 0.72 0.61 0.40 0.32 0.58 0.61 0.70 0.74 0.72 0.70 0.68 0.63 0.58 0.50 0.47 0.48 0.50 0.42 0.34 0.30 0.35 0.39 0.42 0.44 0.40 0.47 0.49 0.52 0.57 0.61 0.57 0.58 0.60 0.60
0.88 0.90 0.91 0.91 0.89 0.90 0.91 0.88 0.87 0.84 0.82 0.79 0.77 0.78 0.75 0.70 0.59 0.45 0.42 0.65 0.74 0.62 0.39 0.34 0.36 0.53 0.61 0.60 0.59 0.59 0.63 0.58 0.55 0.51 0.47 0.47 0.48 0.48 0.40 0.32 0.38 0.47 0.53 0.55 0.58 0.58 0.52 0.57 0.54 0.61 0.62 0.62 0.62 0.62
0.90 0.92 0.93 0.94 0.94 0.93 0.91 0.89 0.88 0.87 0.86 0.84 0.81 0.80 0.79 0.76 0.72 0.62 0.74 0.79 0.73 0.52 0.46 0.32 0.34 0.41 0.60 0.48 0.45 0.58 0.50 0.54 0.54 0.51 0.52 0.46 0.51 0.50 0.38 0.45 0.51 0.55 0.56 0.57 0.58 0.61 0.58 0.61 0.62 0.61 0.63 0.62 0.59 0.58
0.95 0.93 0.92 0.93 0.96 0.97 0.94 0.92 0.90 0.89 0.88 0.86 0.85 0.82 0.76 0.69 0.63 0.71 0.86 0.82 0.77 0.56 0.40 0.40 0.33 0.32 0.60 0.51 0.53 0.54 0.56 0.43 0.56 0.48 0.48 0.51 0.45 0.38 0.45 0.47 0.50 0.53 0.54 0.56 0.61 0.63 0.63 0.60 0.58 0.59 0.61 0.60 0.59 0.59
0.95 0.95 0.94 0.93 0.93 0.94 0.98 0.96 0.94 0.92 0.88 0.85 0.76 0.64 0.57 0.71 0.88 0.84 0.72 0.60 0.61 0.63 0.60 0.44 0.51 0.40 0.50 0.47 0.44 0.45 0.49 0.42 0.35 0.42 0.53 0.42 0.40 0.51 0.50 0.53 0.57 0.60 0.61 0.61 0.56 0.54 0.57 0.57 0.58 0.59 0.58 0.59 0.58 0.56
0.91 0.92 0.93 0.92 0.92 0.92 0.92 0.94 0.93 0.91 0.87 0.75 0.64 0.61 0.79 0.87 0.72 0.61 0.50 0.48 0.51 0.46 0.53 0.52 0.50 0.43 0.54 0.40 0.41 0.49 0.42 0.43 0.31 0.37 0.40 0.37 0.37 0.48 0.55 0.58 0.61 0.62 0.62 0.62 0.62 0.61 0.62 0.60 0.57 0.55 0.56 0.55 0.52 0.46
0.89 0.91 0.92 0.92 0.93 0.94 0.93 0.89 0.86 0.80 0.74 0.73 0.73 0.79 0.75 0.63 0.55 0.46 0.44 0.48 0.45 0.40 0.49 0.47 0.48 0.52 0.53 0.57 0.47 0.49 0.42 0.44 0.34 0.49 0.42 0.35 0.44 0.53 0.56 0.57 0.59 0.60 0.59 0.58 0.58 0.56 0.57 0.56 0.55 0.52 0.49 0.45 0.42 0.40
0.81 0.86 0.88 0.90 0.93 0.95 0.96 0.93 0.91 0.87 0.85 0.77 0.67 0.58 0.54 0.53 0.41 0.39 0.35 0.39 0.38 0.46 0.49 0.50 0.48 0.55 0.60 0.62 0.56 0.53 0.44 0.40 0.52 0.41 0.37 0.40 0.48 0.52 0.54 0.55 0.54 0.56 0.57 0.55 0.54 0.53 0.51 0.48 0.46 0.43 0.39 0.37 0.35 0.33
0.68 0.68 0.74 0.82 0.87 0.89 0.92 0.93 0.92 0.89 0.81 0.65 0.57 0.46 0.45 0.42 0.43 0.43 0.43 0.43 0.50 0.53 0.55 0.57 0.54 0.54 0.58 0.53 0.53 0.44 0.47 0.47 0.36 0.32 0.32 0.42 0.47 0.49 0.50 0.49 0.52 0.51 0.50 0.46 0.44 0.42 0.41 0.39 0.36 0.34 0.33 0.32 0.30 0.28
0.61 0.63 0.62 0.60 0.64 0.73 0.82 0.85 0.85 0.82 0.71 0.59 0.57 0.44 0.45 0.50 0.52 0.53 0.56 0.55 0.57 0.60 0.58 0.55 0.55 0.54 0.50 0.47 0.47 0.44 0.38 0.33 0.33 0.32 0.39 0.46 0.50 0.50 0.49 0.50 0.49 0.48 0.45 0.43 0.42 0.40 0.39 0.34 0.30 0.29 0.30 0.29 0.28 0.26
0.51 0.51 0.53 0.56 0.58 0.57 0.62 0.65 0.65 0.67 0.62 0.57 0.53 0.46 0.50 0.48 0.48 0.51 0.53 0.52 0.60 0.58 0.59 0.55 0.47 0.43 0.41 0.43 0.38 0.36 0.33 0.30 0.35 0.41 0.46 0.49 0.48 0.49 0.48 0.47 0.46 0.46 0.42 0.39 0.36 0.32 0.29 0.28 0.26 0.25 0.26 0.25 0.25 0.25
0.45 0.43 0.49 0.49 0.50 0.53 0.56 0.51 0.47 0.41 0.40 0.37 0.37 0.48 0.47 0.47 0.46 0.49 0.51 0.51 0.58 0.50 0.41 0.42 0.35 0.33 0.40 0.33 0.31 0.35 0.31 0.36 0.42 0.45 0.48 0.49 0.47 0.46 0.45 0.42 0.38 0.35 0.32 0.30 0.28 0.27 0.26 0.27 0.27 0.25 0.24 0.26 0.28 0.28
0.34 0.41 0.44 0.43 0.42 0.42 0.43 0.44 0.36 0.34 0.30 0.35 0.32 0.36 0.41 0.43 0.41 0.42 0.44 0.46 0.44 0.41 0.40 0.35 0.39 0.32 0.29 0.27 0.29 0.36 0.38 0.42 0.43 0.43 0.44 0.47 0.45 0.40 0.36 0.32 0.31 0.30 0.28 0.27 0.26 0.26 0.26 0.25 0.24 0.25 0.25 0.25 0.25 0.25
0.32 0.34 0.36 0.38 0.38 0.33 0.29 0.32 0.33 0.23 0.27 0.31 0.34 0.37 0.38 0.39 0.42 0.44 0.43 0.44 0.44 0.43 0.39 0.35 0.29 0.26 0.28 0.33 0.33 0.35 0.37 0.34 0.33 0.35 0.35 0.34 0.32 0.30 0.29 0.29 0.28 0.27 0.26 0.26 0.25 0.24 0.26 0.26 0.25 0.24 0.23 0.22 0.19 0.20
0.27 0.29 0.30 0.32 0.34 0.26 0.23 0.26 0.34 0.26 0.23 0.29 0.33 0.32 0.32 0.33 0.37 0.38 0.38 0.38 0.36 0.32 0.27 0.25 0.25 0.28 0.28 0.29 0.31 0.31 0.34 0.33 0.31 0.27 0.26 0.27 0.29 0.30 0.29 0.28 0.27 0.26 0.25 0.24 0.23 0.23 0.22 0.22 0.22 0.22 0.20 0.19 0.18 0.18
0.24 0.26 0.29 0.30 0.27 0.27 0.25 0.24 0.23 0.25 0.26 0.25 0.30 0.29 0.28 0.31 0.29 0.30 0.31 0.35 0.30 0.27 0.25 0.30 0.31 0.33 0.36 0.36 0.36 0.34 0.32 0.31 0.28 0.27 0.26 0.27 0.30 0.29 0.28 0.25 0.23 0.22 0.21 0.21 0.21 0.22 0.21 0.20 0.20 0.19 0.17 0.16 0.17 0.17
0.22 0.27 0.23 0.25 0.21 0.24 0.23 0.29 0.25 0.28 0.24 0.24 0.23 0.25 0.22 0.22 0.24 0.27 0.31 0.27 0.26 0.29 0.31 0.32 0.34 0.34 0.34 0.34 0.34 0.34 0.33 0.32 0.31 0.30 0.29 0.28 0.24 0.23 0.22 0.23 0.22 0.22 0.22 0.22 0.22 0.20 0.19 0.19 0.17 0.16 0.14 0.14 0.14 0.13
0.27 0.24 0.21 0.21 0.17 0.18 0.20 0.30 0.21 0.22 0.18 0.21 0.24 0.20 0.20 0.21 0.25 0.30 0.24 0.26 0.28 0.33 0.35 0.36 0.37 0.39 0.37 0.36 0.35 0.34 0.32 0.30 0.27 0.25 0.24 0.24 0.24 0.25 0.24 0.24 0.24 0.22 0.21 0.20 0.20 0.19 0.16 0.14 0.12 0.11 0.11 0.11 0.11 0.10
0.27 0.19 0.15 0.15 0.16 0.15 0.21 0.19 0.23 0.21 0.22 0.21 0.20 0.18 0.19 0.21 0.26 0.23 0.19 0.23 0.29 0.33 0.33 0.34 0.35 0.33 0.33 0.31 0.29 0.29 0.30 0.29 0.27 0.26 0.26 0.25 0.24 0.25 0.25 0.24 0.22 0.21 0.20 0.18 0.16 0.12 0.11 0.10 0.10 0.10 0.09 0.09 0.09 0.09
0.12 0.15 0.15 0.12 0.18 0.15 0.14 0.15 0.17 0.18 0.16 0.19 0.19 0.20 0.22 0.26 0.21 0.20 0.20 0.24 0.28 0.30 0.31 0.33 0.33 0.32 0.29 0.29 0.29 0.28 0.29 0.28 0.26 0.25 0.26 0.26 0.25 0.23 0.22 0.21 0.20 0.19 0.16 0.11 0.09 0.09 0.09 0.09 0.09 0.08 0.09 0.09 0.09 0.10
0.11 0.16 0.14 0.16 0.17 0.16 0.17 0.15 0.17 0.19 0.20 0.20 0.21 0.24 0.25 0.23 0.20 0.19 0.21 0.25 0.27 0.29 0.30 0.31 0.30 0.29 0.28 0.29 0.27 0.26 0.26 0.27 0.27 0.24 0.24 0.23 0.22 0.21 0.18 0.16 0.12 0.10 0.11 0.11 0.10 0.09 0.08 0.08 0.08 0.08 0.09 0.09 0.10 0.10
0.15 0.18 0.23 0.29 0.26 0.25 0.23 0.23 0.24 0.22 0.20 0.20 0.22 0.22 0.22 0.18 0.18 0.22 0.27 0.30 0.29 0.31 0.33 0.33 0.32 0.30 0.27 0.26 0.25 0.26 0.26 0.26 0.25 0.24 0.24 0.23 0.20 0.16 0.12 0.10 0.09 0.10 0.11 0.10 0.09 0.09 0.08 0.08 0.09 0.09 0.09 0.10 0.10 0.10
0.25 0.26 0.21 0.25 0.25 0.27 0.23 0.23 0.22 0.22 0.23 0.27 0.26 0.21 0.20 0.20 0.20 0.25 0.27 0.30 0.31 0.31 0.31 0.30 0.29 0.28 0.26 0.25 0.25 0.25 0.26 0.25 0.23 0.21 0.18 0.14 0.13 0.13 0.12 0.11 0.11 0.10 0.10 0.10 0.09 0.09 0.09 0.09 0.09 0.09 0.09 0.10 0.10 0.10
0.25 0.28 0.27 0.23 0.24 0.25 0.25 0.24 0.24 0.27 0.30 0.28 0.24 0.22 0.22 0.24 0.25 0.25 0.27 0.28 0.29 0.27 0.25 0.25 0.25 0.26 0.25 0.25 0.24 0.21 0.18 0.15 0.12 0.10 0.09 0.09 0.10 0.10 0.11 0.10 0.09 0.09 0.09 0.09 0.10 0.09 0.10 0.10 0.10 0.10 0.10 0.10 0.10 0.10
0.24 0.29 0.24 0.23 0.21 0.21 0.24 0.27 0.25 0.29 0.29 0.29 0.28 0.25 0.24 0.23 0.24 0.26 0.25 0.25 0.23 0.22 0.22 0.22 0.21 0.20 0.18 0.16 0.13 0.13 0.13 0.13 0.13 0.11 0.10 0.09 0.09 0.10 0.09 0.09 0.09 0.09 0.09 0.09 0.08 0.08 0.09 0.09 0.10 0.10 0.09 0.09 0.09 0.09
0.25 0.24 0.21 0.20 0.19 0.22 0.24 0.27 0.29 0.29 0.28 0.25 0.25 0.21 0.18 0.18 0.19 0.20 0.19 0.19 0.19 0.18 0.17 0.15 0.14 0.14 0.13 0.12 0.12 0.11 0.11 0.13 0.13 0.12 0.11 0.10 0.09 0.09 0.09 0.09 0.09 0.09 0.08 0.08 0.08 0.08 0.09 0.09 0.09 0.08 0.08 0.08 0.09 0.09
0.17 0.16 0.15 0.14 0.16 0.19 0.20 0.18 0.17 0.17 0.17 0.17 0.15 0.15 0.14 0.13 0.12 0.14 0.16 0.16 0.15 0.14 0.13 0.13 0.12 0.12 0.13 0.13 0.13 0.12 0.12 0.12 0.11 0.10 0.09 0.09 0.09 0.09 0.09 0.09 0.09 0.09 0.09 0.09 0.09 0.09 0.09 0.08 0.08 0.08 0.08 0.08 0.09 0.09
0.14 0.14 0.13 0.13 0.12 0.13 0.14 0.12 0.11 0.12 0.13 0.12 0.12 0.14 0.14 0.13 0.12 0.14 0.17 0.17 0.16 0.14 0.13 0.13 0.13 0.13 0.13 0.13 0.12 0.11 0.11 0.10 0.10 0.09 0.09 0.09 0.09 0.10 0.10 0.10 0.09 0.10 0.10 0.09 0.09 0.08 0.08 0.08 0.07 0.08 0.08 0.08 0.09 0.09

GFSWCAN_prec_pwat_027.txt.gz
Precipitable_Water
0.89 0.91 0.94 0.93 0.88 0.82 0.80 0.83 0.86 0.85 0.87 0.88 0.85 0.83 0.78 0.75 0.78 0.76 0.74 0.90 0.67 0.52 0.51 0.52 0.47 0.37 0.43 0.45 0.35 0.44 0.42 0.43 0.38 0.29 0.27 0.26 0.25 0.26 0.25 0.27 0.25 0.23 0.21 0.20 0.22 0.18 0.15 0.28 0.29 0.21 0.25 0.30 0.31 0.33
0.91 0.93 0.92 0.88 0.84 0.83 0.85 0.88 0.88 0.92 0.92 0.89 0.88 0.84 0.76 0.71 0.74 0.78 0.74 0.96 0.90 0.65 0.55 0.66 0.67 0.65 0.60 0.51 0.46 0.51 0.45 0.43 0.44 0.36 0.33 0.31 0.28 0.30 0.27 0.20 0.33 0.22 0.26 0.22 0.22 0.19 0.27 0.31 0.30 0.34 0.37 0.34 0.36 0.39
0.92 0.90 0.87 0.83 0.84 0.86 0.87 0.88 0.91 0.93 0.93 0.93 0.92 0.87 0.76 0.71 0.73 0.84 0.80 0.92 0.79 0.67 0.65 0.66 0.64 0.79 0.83 0.76 0.72 0.45 0.50 0.54 0.46 0.49 0.40 0.36 0.27 0.31 0.22 0.23 0.27 0.30 0.34 0.26 0.25 0.26 0.28 0.32 0.38 0.40 0.42 0.42 0.45 0.48
0.88 0.85 0.83 0.84 0.85 0.84 0.85 0.88 0.90 0.95 0.97 0.96 0.90 0.82 0.74 0.74 0.82 0.85 0.84 0.90 0.75 0.62 0.52 0.61 0.84 0.75 0.87 0.82 0.73 0.67 0.59 0.61 0.56 0.51 0.40 0.35 0.28 0.37 0.29 0.31 0.29 0.31 0.33 0.29 0.28 0.31 0.35 0.37 0.40 0.43 0.46 0.49 0.49 0.54
0.85 0.84 0.84 0.84 0.83 0.82 0.83 0.87 0.88 0.92 0.98 0.98 0.90 0.80 0.78 0.85 0.96 0.93 0.97 0.87 0.78 0.53 0.45 0.55 0.72 0.79 0.83 0.79 0.71 0.68 0.62 0.56 0.50 0.43 0.40 0.36 0.42 0.41 0.42 0.38 0.30 0.34 0.31 0.28 0.27 0.36 0.37 0.39 0.47 0.53 0.53 0.55 0.59 0.59
0.88 0.86 0.85 0.83 0.82 0.81 0.82 0.85 0.89 0.86 0.92 0.98 0.94 0.88 0.90 0.94 0.94 0.84 0.67 0.80 0.76 0.67 0.47 0.46 0.68 0.68 0.75 0.75 0.70 0.67 0.65 0.62 0.58 0.52 0.48 0.50 0.52 0.44 0.36 0.31 0.37 0.42 0.45 0.45 0.41 0.50 0.52 0.56 0.59 0.62 0.59 0.60 0.62 0.61
0.89 0.88 0.87 0.86 0.83 0.84 0.83 0.83 0.91 0.86 0.89 0.89 0.90 0.88 0.86 0.84 0.78 0.62 0.55 0.74 0.74 0.63 0.42 0.37 0.41 0.59 0.69 0.68 0.67 0.66 0.70 0.63 0.59 0.53 0.47 0.47 0.46 0.47 0.40 0.32 0.43 0.49 0.53 0.56 0.60 0.60 0.54 0.58 0.55 0.62 0.61 0.59 0.61 0.62
0.92 0.89 0.88 0.87 0.88 0.91 0.88 0.85 0.86 0.84 0.86 0.84 0.86 0.82 0.80 0.78 0.77 0.67 0.75 0.76 0.70 0.50 0.44 0.32 0.32 0.40 0.59 0.46 0.43 0.57 0.50 0.54 0.53 0.49 0.50 0.44 0.49 0.49 0.38 0.46 0.50 0.53 0.55 0.58 0.59 0.63 0.61 0.62 0.61 0.59 0.62 0.63 0.61 0.60
0.94 0.91 0.87 0.87 0.91 0.94 0.92 0.90 0.89 0.87 0.85 0.82 0.80 0.75 0.68 0.63 0.57 0.67 0.78 0.74 0.67 0.46 0.33 0.33 0.27 0.28 0.56 0.49 0.51 0.52 0.54 0.40 0.53 0.44 0.46 0.49 0.43 0.37 0.42 0.45 0.48 0.51 0.52 0.53 0.58 0.59 0.62 0.61 0.60 0.61 0.60 0.58 0.58 0.57
0.92 0.95 0.93 0.90 0.91 0.93 0.94 0.92 0.90 0.88 0.85 0.82 0.73 0.60 0.54 0.70 0.83 0.76 0.61 0.51 0.50 0.52 0.50 0.37 0.46 0.37 0.50 0.49 0.46 0.46 0.49 0.40 0.33 0.41 0.51 0.41 0.39 0.46 0.48 0.51 0.54 0.58 0.61 0.64 0.57 0.55 0.57 0.56 0.56 0.56 0.55 0.55 0.54 0.52
0.91 0.92 0.93 0.94 0.97 0.98 0.95 0.92 0.89 0.86 0.84 0.73 0.63 0.63 0.80 0.86 0.69 0.60 0.51 0.48 0.51 0.45 0.52 0.51 0.51 0.45 0.58 0.44 0.43 0.49 0.41 0.41 0.31 0.36 0.37 0.35 0.34 0.42 0.52 0.55 0.59 0.62 0.62 0.61 0.61 0.60 0.58 0.56 0.53 0.52 0.51 0.52 0.51 0.48
0.90 0.91 0.92 0.93 0.93 0.93 0.93 0.95 0.92 0.84 0.78 0.76 0.76 0.80 0.74 0.62 0.55 0.48 0.45 0.49 0.47 0.42 0.52 0.50 0.52 0.54 0.54 0.57 0.45 0.46 0.38 0.40 0.29 0.45 0.39 0.33 0.42 0.52 0.55 0.56 0.58 0.59 0.58 0.56 0.56 0.54 0.53 0.51 0.49 0.47 0.46 0.42 0.40 0.38
0.87 0.88 0.89 0.89 0.91 0.90 0.91 0.89 0.88 0.89 0.87 0.80 0.70 0.62 0.57 0.55 0.43 0.40 0.35 0.38 0.39 0.47 0.50 0.49 0.45 0.51 0.53 0.53 0.47 0.45 0.40 0.38 0.50 0.41 0.37 0.40 0.48 0.53 0.54 0.54 0.54 0.56 0.54 0.50 0.48 0.47 0.46 0.43 0.41 0.37 0.34 0.34 0.32 0.30
0.82 0.84 0.86 0.88 0.90 0.91 0.90 0.89 0.85 0.82 0.73 0.58 0.50 0.40 0.40 0.38 0.40 0.41 0.41 0.44 0.49 0.51 0.53 0.54 0.52 0.51 0.56 0.51 0.52 0.43 0.47 0.47 0.36 0.32 0.33 0.42 0.48 0.51 0.52 0.53 0.51 0.46 0.44 0.42 0.41 0.41 0.38 0.35 0.31 0.31 0.30 0.29 0.27 0.25
0.66 0.70 0.76 0.82 0.86 0.89 0.90 0.90 0.88 0.84 0.70 0.57 0.53 0.41 0.43 0.48 0.51 0.53 0.55 0.53 0.55 0.58 0.57 0.54 0.53 0.54 0.50 0.47 0.48 0.45 0.39 0.34 0.35 0.33 0.40 0.46 0.49 0.49 0.48 0.48 0.46 0.44 0.43 0.41 0.39 0.36 0.31 0.29 0.27 0.26 0.27 0.26 0.26 0.26
0.58 0.60 0.59 0.63 0.68 0.76 0.81 0.81 0.81 0.77 0.67 0.58 0.54 0.47 0.50 0.49 0.49 0.52 0.53 0.53 0.61 0.60 0.61 0.57 0.48 0.44 0.42 0.43 0.39 0.36 0.34 0.30 0.34 0.41 0.46 0.47 0.46 0.46 0.46 0.47 0.46 0.45 0.39 0.35 0.31 0.29 0.28 0.26 0.25 0.25 0.27 0.27 0.27 0.26
0.46 0.44 0.52 0.56 0.59 0.60 0.62 0.60 0.58 0.54 0.53 0.49 0.47 0.54 0.52 0.51 0.50 0.52 0.55 0.55 0.62 0.55 0.45 0.46 0.38 0.36 0.42 0.35 0.33 0.37 0.32 0.37 0.42 0.44 0.45 0.45 0.44 0.44 0.44 0.41 0.37 0.34 0.31 0.29 0.28 0.27 0.26 0.27 0.26 0.24 0.21 0.22 0.22 0.22
0.35 0.41 0.45 0.46 0.46 0.49 0.49 0.46 0.40 0.38 0.34 0.39 0.36 0.41 0.46 0.48 0.46 0.48 0.50 0.53 0.50 0.47 0.45 0.39 0.41 0.33 0.30 0.27 0.28 0.35 0.39 0.42 0.44 0.43 0.44 0.44 0.43 0.40 0.35 0.30 0.31 0.30 0.28 0.27 0.26 0.26 0.25 0.24 0.21 0.20 0.20 0.20 0.20 0.19
0.31 0.34 0.37 0.38 0.37 0.33 0.30 0.34 0.35 0.26 0.31 0.37 0.39 0.42 0.43 0.43 0.46 0.47 0.45 0.45 0.45 0.45 0.41 0.36 0.30 0.27 0.29 0.34 0.33 0.34 0.35 0.34 0.33 0.34 0.34 0.36 0.34 0.32 0.31 0.31 0.31 0.29 0.27 0.26 0.25 0.23 0.23 0.22 0.21 0.21 0.19 0.19 0.17 0.17
0.26 0.27 0.29 0.33 0.33 0.25 0.24 0.27 0.34 0.26 0.25 0.30 0.34 0.33 0.35 0.36 0.39 0.41 0.40 0.40 0.38 0.35 0.30 0.26 0.26 0.29 0.29 0.32 0.35 0.35 0.36 0.35 0.33 0.30 0.29 0.31 0.32 0.31 0.31 0.30 0.29 0.27 0.24 0.23 0.23 0.22 0.22 0.22 0.21 0.20 0.19 0.17 0.14 0.12
0.20 0.22 0.26 0.26 0.25 0.26 0.25 0.24 0.23 0.26 0.27 0.26 0.31 0.30 0.29 0.32 0.31 0.31 0.31 0.35 0.30 0.27 0.25 0.30 0.31 0.33 0.35 0.34 0.34 0.35 0.35 0.33 0.32 0.31 0.28 0.28 0.30 0.30 0.30 0.28 0.26 0.23 0.21 0.22 0.22 0.22 0.21 0.20 0.19 0.17 0.14 0.12 0.11 0.11
0.20 0.24 0.21 0.23 0.20 0.23 0.23 0.28 0.24 0.27 0.24 0.23 0.23 0.25 0.22 0.23 0.25 0.28 0.32 0.27 0.26 0.28 0.31 0.32 0.33 0.34 0.34 0.34 0.35 0.35 0.35 0.35 0.34 0.32 0.32 0.31 0.28 0.27 0.25 0.23 0.22 0.22 0.23 0.22 0.22 0.20 0.19 0.17 0.15 0.12 0.10 0.10 0.10 0.10
0.23 0.21 0.19 0.19 0.16 0.18 0.19 0.28 0.20 0.21 0.17 0.19 0.22 0.19 0.19 0.20 0.23 0.29 0.22 0.25 0.27 0.33 0.34 0.35 0.36 0.37 0.35 0.36 0.36 0.35 0.34 0.32 0.30 0.29 0.28 0.27 0.26 0.25 0.23 0.24 0.24 0.22 0.21 0.20 0.20 0.17 0.15 0.12 0.11 0.10 0.10 0.09 0.09 0.09
0.23 0.16 0.13 0.13 0.15 0.13 0.19 0.17 0.21 0.20 0.20 0.19 0.18 0.17 0.19 0.20 0.25 0.21 0.18 0.22 0.27 0.31 0.32 0.33 0.34 0.33 0.34 0.34 0.32 0.31 0.31 0.31 0.29 0.28 0.28 0.26 0.25 0.25 0.26 0.24 0.23 0.21 0.20 0.18 0.15 0.12 0.11 0.10 0.10 0.09 0.09 0.09 0.09 0.09
0.10 0.13 0.14 0.12 0.17 0.15 0.14 0.15 0.16 0.18 0.16 0.19 0.18 0.18 0.20 0.24 0.19 0.18 0.18 0.22 0.26 0.28 0.31 0.33 0.33 0.33 0.30 0.30 0.30 0.30 0.31 0.31 0.29 0.27 0.27 0.27 0.25 0.24 0.22 0.22 0.20 0.18 0.16 0.12 0.10 0.10 0.09 0.09 0.08 0.08 0.09 0.09 0.08 0.09
0.11 0.17 0.16 0.17 0.18 0.17 0.17 0.15 0.16 0.17 0.18 0.18 0.20 0.23 0.24 0.21 0.18 0.17 0.19 0.23 0.25 0.27 0.28 0.29 0.29 0.29 0.29 0.29 0.28 0.28 0.28 0.30 0.28 0.25 0.24 0.24 0.23 0.21 0.18 0.15 0.13 0.11 0.12 0.11 0.10 0.09 0.08 0.08 0.08 0.08 0.08 0.08 0.09 0.09
0.15 0.17 0.23 0.28 0.25 0.23 0.21 0.22 0.23 0.20 0.19 0.18 0.22 0.22 0.21 0.17 0.16 0.20 0.25 0.26 0.26 0.28 0.30 0.30 0.30 0.29 0.28 0.28 0.28 0.28 0.28 0.28 0.26 0.25 0.25 0.22 0.19 0.16 0.13 0.11 0.10 0.10 0.11 0.10 0.09 0.08 0.08 0.08 0.08 0.08 0.08 0.09 0.09 0.09
0.23 0.23 0.19 0.22 0.23 0.24 0.20 0.20 0.20 0.19 0.21 0.25 0.24 0.19 0.18 0.18 0.19 0.23 0.25 0.27 0.28 0.29 0.28 0.29 0.29 0.28 0.27 0.26 0.26 0.26 0.25 0.24 0.22 0.20 0.16 0.14 0.13 0.13 0.12 0.12 0.11 0.10 0.09 0.09 0.09 0.09 0.08 0.08 0.08 0.08 0.09 0.09 0.09 0.09
0.23 0.25 0.24 0.20 0.22 0.22 0.22 0.21 0.21 0.25 0.27 0.26 0.22 0.21 0.21 0.23 0.24 0.24 0.26 0.27 0.28 0.27 0.25 0.24 0.24 0.25 0.24 0.23 0.22 0.20 0.17 0.14 0.12 0.10 0.09 0.10 0.10 0.11 0.12 0.11 0.09 0.09 0.09 0.08 0.09 0.08 0.09 0.09 0.09 0.09 0.09 0.09 0.09 0.09
0.21 0.25 0.20 0.19 0.18 0.18 0.21 0.25 0.24 0.27 0.27 0.27 0.26 0.24 0.23 0.23 0.24 0.25 0.24 0.23 0.22 0.21 0.20 0.20 0.20 0.19 0.16 0.14 0.12 0.12 0.13 0.13 0.12 0.11 0.10 0.09 0.09 0.10 0.09 0.09 0.08 0.08 0.08 0.08 0.08 0.08 0.09 0.09 0.09 0.09 0.09 0.08 0.08 0.08
0.20 0.19 0.16 0.16 0.15 0.18 0.20 0.22 0.24 0.24 0.23 0.22 0.22 0.19 0.18 0.18 0.17 0.18 0.18 0.18 0.17 0.17 0.16 0.15 0.14 0.13 0.12 0.12 0.11 0.11 0.11 0.12 0.12 0.12 0.11 0.10 0.09 0.09 0.08 0.08 0.08 0.08 0.08 0.08 0.09 0.09 0.09 0.09 0.09 0.08 0.08 0.07 0.08 0.08
0.15 0.14 0.13 0.11 0.13 0.17 0.18 0.15 0.14 0.14 0.15 0.14 0.13 0.14 0.13 0.13 0.12 0.14 0.16 0.16 0.15 0.14 0.14 0.13 0.12 0.12 0.13 0.12 0.12 0.12 0.12 0.11 0.11 0.10 0.09 0.09 0.09 0.09 0.09 0.10 0.10 0.09 0.09 0.09 0.09 0.09 0.08 0.08 0.08 0.07 0.07 0.07 0.08 0.08
0.15 0.15 0.14 0.12 0.12 0.12 0.13 0.12 0.11 0.11 0.12 0.12 0.12 0.13 0.13 0.13 0.12 0.14 0.16 0.17 0.16 0.15 0.14 0.13 0.14 0.14 0.14 0.13 0.12 0.11 0.10 0.10 0.09 0.09 0.09 0.10 0.10 0.10 0.10 0.10 0.10 0.09 0.09 0.09 0.09 0.08 0.08 0.08 0.07 0.07 0.07 0.07 0.07 0.07

GFSWCAN_prec_pwat_030.txt.gz
Precipitable_Water
0.67 0.73 0.74 0.78 0.85 0.90 0.93 0.94 0.94 0.87 0.85 0.87 0.87 0.87 0.88 0.87 0.89 0.95 0.82 0.84 0.70 0.57 0.54 0.55 0.48 0.39 0.43 0.46 0.35 0.42 0.40 0.43 0.40 0.31 0.30 0.29 0.26 0.27 0.25 0.27 0.26 0.24 0.23 0.22 0.23 0.19 0.16 0.28 0.29 0.22 0.29 0.32 0.32 0.34
0.76 0.79 0.82 0.89 0.90 0.92 0.90 0.87 0.85 0.86 0.86 0.85 0.86 0.88 0.88 0.84 0.86 0.97 0.74 0.85 0.81 0.61 0.60 0.69 0.63 0.59 0.55 0.59 0.49 0.47 0.44 0.41 0.44 0.38 0.35 0.34 0.28 0.29 0.28 0.22 0.33 0.23 0.28 0.25 0.25 0.24 0.29 0.32 0.32 0.37 0.38 0.36 0.39 0.41
0.87 0.89 0.91 0.93 0.89 0.87 0.86 0.86 0.87 0.86 0.86 0.87 0.88 0.87 0.85 0.83 0.89 0.92 0.75 0.78 0.74 0.64 0.63 0.62 0.55 0.64 0.68 0.69 0.74 0.47 0.50 0.55 0.49 0.54 0.43 0.39 0.28 0.35 0.25 0.26 0.28 0.31 0.35 0.27 0.26 0.29 0.30 0.34 0.38 0.40 0.42 0.42 0.44 0.47
0.91 0.88 0.87 0.87 0.88 0.89 0.89 0.89 0.90 0.92 0.92 0.90 0.87 0.85 0.82 0.83 0.88 0.84 0.72 0.85 0.84 0.72 0.53 0.53 0.74 0.68 0.78 0.75 0.70 0.66 0.63 0.63 0.58 0.54 0.43 0.37 0.32 0.40 0.30 0.32 0.30 0.33 0.35 0.31 0.29 0.31 0.35 0.37 0.42 0.44 0.48 0.53 0.54 0.58
0.88 0.88 0.88 0.89 0.91 0.93 0.96 0.99 0.98 0.97 0.94 0.91 0.88 0.84 0.80 0.81 0.86 0.82 0.83 0.94 0.94 0.70 0.55 0.56 0.74 0.82 0.85 0.80 0.72 0.69 0.63 0.58 0.54 0.47 0.41 0.37 0.42 0.40 0.41 0.39 0.35 0.39 0.35 0.30 0.29 0.38 0.38 0.41 0.50 0.56 0.57 0.59 0.62 0.62
0.86 0.85 0.85 0.88 0.91 0.94 0.99 1.01 1.01 1.01 0.96 0.91 0.87 0.82 0.79 0.80 0.84 0.79 0.68 0.93 0.89 0.86 0.64 0.54 0.77 0.76 0.80 0.78 0.72 0.68 0.66 0.61 0.58 0.51 0.47 0.49 0.53 0.47 0.38 0.33 0.42 0.45 0.48 0.49 0.43 0.51 0.54 0.58 0.63 0.65 0.61 0.60 0.61 0.60
0.85 0.84 0.85 0.87 0.89 0.91 0.93 0.99 1.03 0.98 0.92 0.86 0.84 0.83 0.80 0.81 0.77 0.65 0.70 0.82 0.82 0.77 0.54 0.52 0.54 0.71 0.78 0.75 0.71 0.68 0.70 0.63 0.61 0.57 0.53 0.52 0.50 0.50 0.41 0.34 0.43 0.48 0.52 0.55 0.59 0.59 0.56 0.57 0.54 0.60 0.61 0.62 0.65 0.65
0.87 0.85 0.85 0.87 0.89 0.92 0.89 0.91 0.95 0.96 0.92 0.88 0.87 0.87 0.89 0.91 0.89 0.83 0.89 0.84 0.75 0.57 0.50 0.38 0.42 0.56 0.73 0.58 0.55 0.68 0.60 0.63 0.60 0.55 0.53 0.46 0.49 0.48 0.37 0.43 0.49 0.52 0.54 0.56 0.55 0.59 0.57 0.58 0.60 0.60 0.64 0.64 0.60 0.59
0.88 0.89 0.89 0.88 0.87 0.89 0.87 0.88 0.88 0.86 0.89 0.91 0.91 0.90 0.90 0.86 0.77 0.79 0.85 0.81 0.75 0.54 0.38 0.36 0.31 0.29 0.58 0.50 0.51 0.52 0.54 0.39 0.52 0.43 0.45 0.49 0.42 0.35 0.40 0.44 0.47 0.51 0.51 0.53 0.57 0.59 0.60 0.59 0.59 0.60 0.60 0.58 0.55 0.53
0.92 0.92 0.93 0.92 0.90 0.89 0.94 0.89 0.86 0.81 0.78 0.74 0.70 0.58 0.55 0.72 0.85 0.80 0.65 0.52 0.49 0.51 0.48 0.36 0.43 0.33 0.46 0.46 0.43 0.45 0.49 0.41 0.35 0.42 0.51 0.41 0.36 0.44 0.47 0.49 0.51 0.53 0.55 0.59 0.54 0.52 0.55 0.54 0.55 0.53 0.52 0.53 0.52 0.50
0.90 0.88 0.90 0.91 0.93 0.92 0.90 0.86 0.87 0.84 0.78 0.68 0.61 0.61 0.76 0.78 0.64 0.55 0.44 0.42 0.44 0.37 0.43 0.43 0.44 0.38 0.53 0.41 0.41 0.49 0.42 0.42 0.32 0.37 0.38 0.35 0.32 0.40 0.48 0.50 0.56 0.59 0.60 0.60 0.59 0.57 0.55 0.52 0.49 0.47 0.47 0.47 0.46 0.43
0.92 0.92 0.90 0.90 0.91 0.90 0.90 0.88 0.84 0.78 0.75 0.74 0.75 0.79 0.72 0.61 0.54 0.46 0.43 0.47 0.43 0.39 0.48 0.46 0.47 0.52 0.54 0.60 0.48 0.49 0.41 0.41 0.31 0.44 0.36 0.30 0.37 0.49 0.54 0.56 0.58 0.58 0.57 0.55 0.55 0.51 0.49 0.48 0.47 0.43 0.38 0.34 0.32 0.32
0.88 0.88 0.89 0.89 0.88 0.89 0.90 0.90 0.89 0.87 0.84 0.79 0.68 0.59 0.57 0.56 0.44 0.41 0.37 0.40 0.41 0.49 0.52 0.52 0.48 0.55 0.57 0.57 0.48 0.45 0.37 0.35 0.45 0.35 0.33 0.38 0.48 0.53 0.55 0.56 0.56 0.55 0.52 0.48 0.45 0.42 0.39 0.36 0.35 0.33 0.30 0.30 0.28 0.27
0.84 0.86 0.87 0.87 0.86 0.85 0.84 0.85 0.87 0.89 0.79 0.64 0.58 0.49 0.49 0.44 0.45 0.45 0.44 0.45 0.51 0.52 0.51 0.51 0.47 0.48 0.52 0.46 0.47 0.37 0.42 0.44 0.35 0.32 0.34 0.44 0.50 0.53 0.55 0.55 0.49 0.45 0.42 0.42 0.41 0.40 0.35 0.31 0.29 0.29 0.27 0.27 0.25 0.23
0.79 0.82 0.83 0.84 0.87 0.87 0.85 0.84 0.84 0.80 0.69 0.56 0.54 0.41 0.43 0.48 0.50 0.49 0.50 0.48 0.51 0.56 0.55 0.52 0.50 0.51 0.47 0.46 0.48 0.46 0.39 0.35 0.36 0.36 0.42 0.49 0.51 0.52 0.51 0.49 0.45 0.44 0.43 0.40 0.38 0.32 0.29 0.28 0.26 0.25 0.26 0.25 0.25 0.25
0.64 0.69 0.74 0.82 0.84 0.86 0.85 0.84 0.82 0.77 0.66 0.57 0.52 0.46 0.50 0.47 0.47 0.51 0.52 0.51 0.59 0.58 0.59 0.56 0.49 0.45 0.43 0.45 0.41 0.39 0.37 0.33 0.38 0.44 0.47 0.50 0.49 0.49 0.48 0.47 0.45 0.44 0.39 0.34 0.31 0.30 0.28 0.26 0.24 0.25 0.26 0.25 0.22 0.21
0.55 0.55 0.65 0.66 0.66 0.69 0.72 0.72 0.70 0.61 0.55 0.51 0.47 0.54 0.53 0.52 0.50 0.53 0.56 0.56 0.63 0.57 0.48 0.50 0.41 0.39 0.45 0.38 0.36 0.41 0.36 0.40 0.45 0.46 0.48 0.48 0.46 0.45 0.45 0.43 0.39 0.35 0.33 0.32 0.29 0.27 0.26 0.26 0.26 0.23 0.20 0.19 0.20 0.21
0.40 0.49 0.52 0.55 0.57 0.58 0.54 0.52 0.49 0.46 0.43 0.47 0.45 0.48 0.51 0.53 0.51 0.52 0.55 0.58 0.56 0.53 0.51 0.44 0.46 0.38 0.35 0.31 0.32 0.38 0.41 0.44 0.45 0.44 0.44 0.45 0.44 0.41 0.38 0.32 0.31 0.31 0.30 0.28 0.27 0.26 0.25 0.22 0.20 0.20 0.20 0.20 0.20 0.20
0.35 0.38 0.42 0.45 0.46 0.41 0.36 0.38 0.41 0.34 0.39 0.42 0.44 0.46 0.47 0.47 0.51 0.53 0.52 0.53 0.53 0.54 0.50 0.44 0.37 0.33 0.34 0.38 0.37 0.38 0.40 0.39 0.37 0.37 0.37 0.39 0.39 0.36 0.33 0.33 0.32 0.31 0.30 0.28 0.25 0.23 0.22 0.22 0.21 0.21 0.20 0.19 0.18 0.17
0.27 0.32 0.34 0.35 0.34 0.27 0.26 0.29 0.37 0.31 0.30 0.35 0.39 0.38 0.39 0.39 0.42 0.42 0.42 0.43 0.41 0.39 0.34 0.31 0.31 0.34 0.35 0.37 0.38 0.36 0.37 0.37 0.33 0.30 0.30 0.33 0.35 0.34 0.33 0.32 0.31 0.30 0.28 0.25 0.23 0.22 0.22 0.22 0.22 0.20 0.19 0.17 0.15 0.12
0.20 0.23 0.26 0.27 0.25 0.27 0.26 0.26 0.25 0.29 0.30 0.29 0.33 0.33 0.32 0.35 0.34 0.34 0.35 0.38 0.34 0.30 0.28 0.31 0.32 0.33 0.35 0.36 0.38 0.40 0.38 0.38 0.35 0.34 0.32 0.30 0.33 0.32 0.31 0.31 0.30 0.28 0.25 0.23 0.22 0.22 0.22 0.20 0.19 0.18 0.17 0.14 0.12 0.12
0.19 0.23 0.21 0.23 0.21 0.23 0.24 0.28 0.25 0.28 0.25 0.26 0.27 0.28 0.25 0.25 0.27 0.29 0.34 0.29 0.27 0.29 0.31 0.32 0.33 0.34 0.34 0.33 0.34 0.36 0.37 0.37 0.37 0.36 0.35 0.34 0.30 0.29 0.29 0.28 0.26 0.24 0.23 0.23 0.22 0.21 0.20 0.18 0.17 0.15 0.13 0.11 0.12 0.12
0.20 0.19 0.17 0.19 0.15 0.17 0.19 0.29 0.20 0.21 0.18 0.20 0.23 0.19 0.19 0.21 0.24 0.29 0.23 0.25 0.27 0.31 0.33 0.34 0.35 0.37 0.35 0.36 0.36 0.35 0.36 0.35 0.33 0.33 0.32 0.31 0.30 0.29 0.27 0.26 0.26 0.24 0.23 0.21 0.20 0.19 0.18 0.16 0.13 0.11 0.11 0.11 0.10 0.10
0.20 0.14 0.12 0.12 0.14 0.12 0.19 0.17 0.21 0.20 0.21 0.19 0.17 0.16 0.18 0.21 0.25 0.21 0.19 0.22 0.25 0.29 0.30 0.31 0.32 0.31 0.32 0.33 0.31 0.32 0.33 0.34 0.32 0.31 0.31 0.29 0.27 0.27 0.28 0.26 0.24 0.23 0.21 0.20 0.18 0.16 0.13 0.12 0.11 0.11 0.10 0.09 0.09 0.09
0.09 0.13 0.14 0.12 0.17 0.15 0.14 0.15 0.17 0.17 0.15 0.18 0.17 0.18 0.20 0.24 0.18 0.17 0.17 0.20 0.24 0.26 0.28 0.30 0.31 0.30 0.29 0.29 0.30 0.31 0.33 0.32 0.30 0.29 0.29 0.30 0.28 0.25 0.24 0.23 0.22 0.20 0.19 0.15 0.12 0.11 0.11 0.10 0.10 0.09 0.09 0.09 0.08 0.08
0.11 0.17 0.16 0.17 0.17 0.16 0.16 0.14 0.15 0.15 0.17 0.17 0.19 0.22 0.24 0.21 0.17 0.16 0.19 0.23 0.24 0.25 0.26 0.27 0.28 0.27 0.27 0.29 0.28 0.28 0.29 0.31 0.30 0.27 0.26 0.26 0.25 0.23 0.20 0.17 0.15 0.14 0.13 0.12 0.11 0.10 0.09 0.09 0.08 0.08 0.08 0.09 0.09 0.09
0.14 0.17 0.22 0.26 0.23 0.22 0.20 0.21 0.22 0.19 0.18 0.18 0.20 0.21 0.20 0.16 0.16 0.19 0.24 0.25 0.25 0.27 0.28 0.28 0.28 0.27 0.26 0.27 0.28 0.28 0.28 0.28 0.27 0.26 0.25 0.23 0.20 0.17 0.14 0.12 0.11 0.12 0.12 0.11 0.10 0.09 0.08 0.08 0.08 0.08 0.08 0.09 0.09 0.10
0.21 0.22 0.18 0.21 0.22 0.23 0.19 0.20 0.19 0.19 0.20 0.24 0.23 0.18 0.18 0.18 0.18 0.22 0.24 0.26 0.27 0.28 0.27 0.28 0.28 0.27 0.26 0.26 0.27 0.26 0.25 0.24 0.22 0.19 0.16 0.14 0.14 0.14 0.13 0.13 0.12 0.11 0.10 0.09 0.09 0.08 0.08 0.08 0.08 0.08 0.09 0.09 0.09 0.10
0.21 0.24 0.23 0.19 0.20 0.21 0.20 0.20 0.20 0.23 0.25 0.24 0.21 0.20 0.20 0.22 0.24 0.23 0.24 0.26 0.27 0.26 0.24 0.23 0.23 0.24 0.23 0.22 0.21 0.19 0.16 0.14 0.12 0.10 0.10 0.10 0.11 0.12 0.12 0.11 0.11 0.10 0.09 0.08 0.08 0.08 0.09 0.09 0.09 0.09 0.09 0.09 0.09 0.09
0.18 0.22 0.18 0.16 0.15 0.15 0.18 0.21 0.20 0.22 0.23 0.23 0.22 0.21 0.20 0.20 0.22 0.24 0.23 0.22 0.20 0.19 0.19 0.19 0.19 0.18 0.16 0.14 0.13 0.13 0.13 0.13 0.12 0.11 0.10 0.10 0.10 0.11 0.10 0.10 0.09 0.09 0.09 0.09 0.09 0.09 0.09 0.10 0.10 0.10 0.09 0.09 0.09 0.08
0.18 0.17 0.15 0.14 0.14 0.17 0.19 0.19 0.20 0.20 0.20 0.18 0.19 0.17 0.15 0.16 0.17 0.18 0.17 0.17 0.17 0.17 0.16 0.15 0.14 0.14 0.13 0.12 0.12 0.11 0.12 0.13 0.12 0.11 0.11 0.10 0.10 0.10 0.10 0.10 0.10 0.10 0.10 0.09 0.09 0.09 0.09 0.09 0.09 0.08 0.08 0.08 0.08 0.08
0.15 0.13 0.12 0.11 0.13 0.16 0.17 0.15 0.14 0.14 0.14 0.13 0.13 0.14 0.13 0.13 0.12 0.14 0.16 0.16 0.16 0.15 0.14 0.14 0.13 0.13 0.14 0.14 0.14 0.13 0.12 0.11 0.10 0.10 0.10 0.10 0.10 0.10 0.10 0.10 0.10 0.10 0.10 0.09 0.09 0.09 0.09 0.08 0.08 0.08 0.08 0.07 0.07 0.07
0.14 0.13 0.12 0.11 0.11 0.12 0.13 0.12 0.11 0.11 0.12 0.11 0.12 0.13 0.13 0.13 0.11 0.14 0.16 0.17 0.16 0.15 0.14 0.14 0.15 0.15 0.15 0.14 0.12 0.11 0.10 0.10 0.10 0.10 0.10 0.10 0.10 0.10 0.10 0.10 0.10 0.10 0.09 0.09 0.09 0.08 0.08 0.08 0.08 0.07 0.07 0.07 0.06 0.06

GFSWCAN_prec_pwat_033.txt.gz
Precipitable_Water
0.44 0.45 0.44 0.45 0.50 0.56 0.63 0.66 0.70 0.71 0.79 0.83 0.90 0.93 0.93 0.89 0.96 0.99 1.02 0.95 0.71 0.60 0.58 0.56 0.53 0.46 0.54 0.55 0.50 0.52 0.46 0.48 0.41 0.29 0.33 0.32 0.30 0.31 0.29 0.30 0.28 0.26 0.25 0.24 0.28 0.22 0.17 0.32 0.30 0.23 0.36 0.34 0.35 0.37
0.48 0.53 0.56 0.62 0.64 0.67 0.71 0.74 0.82 0.83 0.90 0.94 0.92 0.92 0.89 0.91 0.96 1.06 0.93 0.95 0.90 0.66 0.62 0.72 0.67 0.69 0.70 0.72 0.61 0.56 0.47 0.44 0.42 0.37 0.40 0.43 0.30 0.31 0.30 0.24 0.35 0.27 0.32 0.30 0.28 0.30 0.39 0.34 0.33 0.37 0.38 0.36 0.38 0.40
0.65 0.67 0.72 0.74 0.78 0.83 0.82 0.84 0.90 0.93 0.94 0.92 0.91 0.91 0.92 0.92 0.97 1.06 0.98 0.90 0.78 0.67 0.64 0.61 0.58 0.66 0.73 0.78 0.80 0.50 0.55 0.54 0.49 0.58 0.47 0.44 0.30 0.38 0.26 0.29 0.34 0.35 0.38 0.29 0.28 0.31 0.34 0.36 0.39 0.42 0.44 0.44 0.47 0.49
0.76 0.77 0.79 0.84 0.87 0.88 0.89 0.91 0.92 0.91 0.90 0.90 0.91 0.91 0.90 0.91 0.96 1.02 0.94 0.90 0.77 0.65 0.52 0.59 0.77 0.64 0.71 0.70 0.71 0.72 0.60 0.62 0.61 0.60 0.48 0.40 0.35 0.44 0.36 0.37 0.33 0.38 0.37 0.33 0.33 0.35 0.38 0.40 0.47 0.48 0.50 0.54 0.56 0.60
0.87 0.87 0.87 0.88 0.89 0.90 0.90 0.90 0.89 0.89 0.89 0.88 0.87 0.88 0.91 0.92 0.96 1.03 0.98 0.90 0.84 0.65 0.49 0.57 0.68 0.70 0.69 0.65 0.60 0.65 0.66 0.56 0.55 0.51 0.43 0.42 0.46 0.42 0.43 0.40 0.36 0.40 0.38 0.34 0.32 0.42 0.41 0.44 0.54 0.55 0.55 0.56 0.60 0.61
0.93 0.95 0.95 0.94 0.93 0.92 0.91 0.91 0.90 0.89 0.88 0.88 0.89 0.90 0.90 0.90 0.96 0.93 0.70 0.84 0.87 0.90 0.66 0.50 0.70 0.67 0.71 0.70 0.63 0.64 0.67 0.65 0.63 0.56 0.51 0.52 0.55 0.48 0.37 0.35 0.46 0.47 0.48 0.48 0.44 0.52 0.54 0.55 0.54 0.57 0.55 0.57 0.59 0.58
0.93 0.93 0.96 1.00 1.02 0.99 0.97 0.95 0.94 0.93 0.92 0.91 0.90 0.89 0.87 0.94 0.98 0.79 0.62 0.81 0.95 0.94 0.71 0.52 0.52 0.70 0.76 0.73 0.71 0.71 0.76 0.70 0.66 0.59 0.52 0.53 0.51 0.53 0.44 0.37 0.47 0.47 0.49 0.52 0.54 0.56 0.54 0.54 0.52 0.59 0.59 0.60 0.61 0.61
0.89 0.93 0.97 1.03 1.05 1.04 1.01 0.99 0.97 0.95 0.93 0.91 0.89 0.88 0.90 0.96 0.92 0.77 0.84 0.95 0.92 0.72 0.73 0.54 0.54 0.64 0.79 0.67 0.61 0.72 0.65 0.68 0.63 0.57 0.58 0.53 0.55 0.54 0.42 0.45 0.48 0.50 0.54 0.53 0.54 0.56 0.55 0.57 0.57 0.58 0.61 0.61 0.57 0.56
0.94 0.93 0.94 0.92 0.97 0.99 1.01 0.99 0.94 0.93 0.92 0.88 0.87 0.88 0.89 0.87 0.74 0.76 0.88 0.91 0.83 0.71 0.46 0.44 0.47 0.44 0.75 0.64 0.66 0.67 0.68 0.51 0.63 0.52 0.53 0.54 0.44 0.36 0.40 0.44 0.47 0.50 0.50 0.50 0.54 0.54 0.55 0.54 0.56 0.58 0.57 0.55 0.52 0.51
0.91 0.91 0.90 0.93 0.91 0.93 0.94 0.93 0.91 0.91 0.92 0.92 0.87 0.74 0.64 0.77 0.85 0.83 0.73 0.68 0.64 0.58 0.53 0.41 0.52 0.40 0.59 0.58 0.53 0.51 0.53 0.45 0.35 0.41 0.50 0.42 0.37 0.45 0.49 0.51 0.51 0.51 0.53 0.53 0.48 0.49 0.53 0.53 0.54 0.53 0.52 0.52 0.50 0.46
0.89 0.89 0.90 0.88 0.89 0.87 0.87 0.88 0.87 0.86 0.86 0.76 0.68 0.66 0.88 0.94 0.85 0.70 0.55 0.51 0.51 0.42 0.47 0.47 0.48 0.40 0.55 0.41 0.39 0.47 0.39 0.42 0.31 0.38 0.39 0.36 0.33 0.42 0.50 0.50 0.52 0.53 0.56 0.58 0.59 0.57 0.55 0.53 0.51 0.49 0.47 0.46 0.43 0.37
0.90 0.90 0.91 0.92 0.91 0.89 0.83 0.78 0.77 0.73 0.74 0.76 0.77 0.85 0.80 0.65 0.56 0.48 0.44 0.47 0.44 0.39 0.46 0.43 0.44 0.47 0.49 0.56 0.44 0.47 0.38 0.41 0.32 0.48 0.38 0.31 0.38 0.46 0.48 0.49 0.54 0.57 0.57 0.55 0.55 0.52 0.51 0.50 0.48 0.43 0.37 0.34 0.31 0.29
0.90 0.90 0.88 0.89 0.89 0.89 0.88 0.85 0.83 0.79 0.81 0.77 0.65 0.57 0.56 0.53 0.43 0.40 0.35 0.37 0.37 0.45 0.47 0.47 0.42 0.49 0.51 0.53 0.46 0.45 0.38 0.37 0.49 0.37 0.33 0.36 0.42 0.46 0.50 0.54 0.56 0.58 0.56 0.53 0.50 0.47 0.43 0.38 0.36 0.34 0.30 0.29 0.29 0.26
0.86 0.87 0.88 0.87 0.87 0.87 0.88 0.87 0.89 0.86 0.77 0.63 0.57 0.46 0.47 0.44 0.45 0.45 0.44 0.45 0.51 0.54 0.54 0.55 0.51 0.51 0.55 0.49 0.49 0.39 0.43 0.45 0.33 0.29 0.29 0.38 0.46 0.52 0.56 0.57 0.55 0.52 0.49 0.46 0.44 0.41 0.36 0.32 0.30 0.30 0.28 0.28 0.26 0.23
0.83 0.84 0.85 0.83 0.84 0.83 0.83 0.86 0.86 0.83 0.73 0.60 0.58 0.45 0.46 0.51 0.53 0.54 0.56 0.55 0.56 0.60 0.57 0.53 0.51 0.52 0.46 0.44 0.46 0.43 0.37 0.34 0.35 0.34 0.42 0.49 0.53 0.55 0.55 0.53 0.49 0.46 0.46 0.46 0.42 0.35 0.32 0.31 0.29 0.28 0.27 0.25 0.24 0.22
0.77 0.78 0.77 0.82 0.82 0.81 0.82 0.83 0.80 0.77 0.67 0.59 0.55 0.48 0.51 0.50 0.49 0.51 0.52 0.51 0.58 0.56 0.56 0.53 0.44 0.42 0.41 0.43 0.39 0.37 0.35 0.33 0.38 0.46 0.51 0.54 0.54 0.54 0.52 0.50 0.49 0.49 0.46 0.40 0.36 0.34 0.32 0.29 0.27 0.26 0.25 0.23 0.21 0.21
0.67 0.61 0.69 0.74 0.76 0.78 0.81 0.76 0.72 0.62 0.56 0.51 0.48 0.55 0.54 0.52 0.50 0.51 0.54 0.53 0.61 0.55 0.47 0.49 0.41 0.40 0.47 0.40 0.38 0.44 0.40 0.45 0.49 0.50 0.52 0.53 0.51 0.51 0.51 0.49 0.46 0.42 0.37 0.36 0.35 0.31 0.27 0.27 0.26 0.23 0.20 0.20 0.20 0.21
0.51 0.58 0.63 0.63 0.61 0.61 0.65 0.67 0.60 0.53 0.46 0.50 0.46 0.49 0.52 0.55 0.53 0.54 0.57 0.60 0.59 0.55 0.53 0.47 0.51 0.42 0.39 0.36 0.38 0.44 0.47 0.50 0.50 0.49 0.49 0.49 0.50 0.49 0.48 0.43 0.39 0.37 0.35 0.32 0.29 0.28 0.27 0.25 0.22 0.21 0.21 0.21 0.20 0.20
0.40 0.47 0.51 0.52 0.49 0.45 0.42 0.45 0.52 0.43 0.44 0.48 0.49 0.51 0.51 0.51 0.55 0.56 0.56 0.58 0.59 0.60 0.55 0.50 0.42 0.39 0.40 0.45 0.44 0.45 0.46 0.45 0.43 0.44 0.45 0.46 0.44 0.41 0.38 0.36 0.34 0.33 0.32 0.31 0.30 0.28 0.25 0.23 0.22 0.22 0.22 0.20 0.19 0.19
0.33 0.35 0.37 0.39 0.36 0.31 0.31 0.36 0.46 0.40 0.39 0.43 0.47 0.44 0.45 0.46 0.50 0.50 0.51 0.52 0.51 0.49 0.43 0.40 0.39 0.42 0.43 0.44 0.46 0.44 0.43 0.42 0.38 0.34 0.34 0.36 0.38 0.37 0.36 0.35 0.34 0.33 0.31 0.29 0.28 0.26 0.24 0.24 0.24 0.22 0.21 0.19 0.19 0.18
0.23 0.25 0.28 0.30 0.28 0.28 0.29 0.29 0.30 0.34 0.36 0.34 0.38 0.38 0.36 0.41 0.38 0.39 0.39 0.44 0.37 0.34 0.32 0.36 0.36 0.38 0.42 0.43 0.43 0.43 0.42 0.40 0.36 0.35 0.32 0.31 0.35 0.35 0.34 0.34 0.33 0.32 0.30 0.29 0.27 0.25 0.25 0.23 0.22 0.21 0.20 0.20 0.19 0.16
0.19 0.24 0.23 0.24 0.22 0.24 0.25 0.30 0.27 0.30 0.29 0.30 0.30 0.32 0.29 0.28 0.29 0.32 0.38 0.32 0.30 0.31 0.33 0.34 0.35 0.36 0.35 0.35 0.38 0.41 0.41 0.41 0.40 0.39 0.39 0.37 0.33 0.33 0.32 0.32 0.31 0.29 0.28 0.26 0.26 0.25 0.23 0.22 0.20 0.19 0.19 0.17 0.14 0.14
0.19 0.19 0.18 0.19 0.14 0.17 0.20 0.30 0.21 0.23 0.19 0.21 0.24 0.21 0.22 0.22 0.25 0.31 0.25 0.27 0.28 0.32 0.34 0.33 0.34 0.35 0.34 0.36 0.37 0.37 0.39 0.38 0.36 0.36 0.35 0.34 0.34 0.33 0.32 0.31 0.30 0.28 0.26 0.25 0.24 0.22 0.21 0.20 0.19 0.16 0.14 0.13 0.13 0.12
0.19 0.14 0.11 0.12 0.15 0.13 0.21 0.18 0.22 0.20 0.21 0.19 0.18 0.17 0.18 0.20 0.25 0.21 0.18 0.20 0.24 0.28 0.29 0.30 0.31 0.31 0.32 0.32 0.31 0.32 0.33 0.35 0.33 0.33 0.34 0.32 0.30 0.30 0.30 0.29 0.28 0.26 0.24 0.23 0.22 0.21 0.19 0.16 0.14 0.13 0.12 0.11 0.11 0.10
0.10 0.14 0.15 0.12 0.18 0.15 0.15 0.16 0.17 0.17 0.16 0.18 0.18 0.18 0.20 0.24 0.18 0.17 0.17 0.20 0.23 0.24 0.26 0.29 0.29 0.29 0.27 0.28 0.29 0.30 0.32 0.32 0.30 0.28 0.30 0.31 0.29 0.28 0.27 0.26 0.24 0.23 0.22 0.20 0.17 0.15 0.13 0.13 0.12 0.11 0.10 0.10 0.09 0.09
0.12 0.17 0.16 0.16 0.17 0.15 0.15 0.14 0.15 0.15 0.17 0.17 0.18 0.22 0.23 0.21 0.17 0.16 0.18 0.22 0.23 0.24 0.25 0.26 0.27 0.26 0.26 0.28 0.27 0.27 0.28 0.31 0.30 0.27 0.28 0.28 0.27 0.25 0.23 0.21 0.19 0.19 0.17 0.15 0.13 0.12 0.11 0.10 0.09 0.09 0.09 0.09 0.09 0.09
0.14 0.16 0.21 0.25 0.22 0.21 0.19 0.20 0.21 0.19 0.17 0.17 0.19 0.20 0.20 0.16 0.15 0.19 0.23 0.24 0.23 0.25 0.27 0.27 0.27 0.26 0.26 0.26 0.27 0.28 0.29 0.29 0.28 0.26 0.26 0.24 0.22 0.20 0.18 0.14 0.12 0.13 0.14 0.13 0.12 0.10 0.09 0.09 0.09 0.09 0.09 0.09 0.10 0.10
0.20 0.21 0.17 0.21 0.21 0.23 0.19 0.19 0.19 0.18 0.20 0.23 0.23 0.18 0.17 0.17 0.17 0.21 0.23 0.25 0.26 0.26 0.26 0.26 0.26 0.26 0.26 0.26 0.27 0.26 0.26 0.25 0.23 0.21 0.20 0.17 0.15 0.15 0.15 0.15 0.14 0.13 0.12 0.11 0.10 0.09 0.09 0.09 0.09 0.09 0.09 0.09 0.10 0.10
0.20 0.23 0.22 0.17 0.19 0.19 0.18 0.18 0.18 0.20 0.22 0.21 0.19 0.18 0.18 0.20 0.22 0.22 0.23 0.25 0.26 0.25 0.23 0.23 0.23 0.24 0.23 0.22 0.21 0.20 0.18 0.16 0.13 0.11 0.11 0.12 0.13 0.14 0.14 0.13 0.12 0.11 0.11 0.10 0.10 0.10 0.10 0.10 0.10 0.10 0.10 0.10 0.10 0.10
0.16 0.21 0.16 0.15 0.14 0.14 0.17 0.20 0.19 0.21 0.21 0.21 0.21 0.19 0.18 0.19 0.20 0.22 0.22 0.21 0.20 0.19 0.19 0.19 0.19 0.18 0.17 0.16 0.14 0.14 0.14 0.13 0.13 0.12 0.11 0.11 0.11 0.12 0.11 0.11 0.11 0.11 0.11 0.11 0.10 0.10 0.11 0.10 0.10 0.10 0.10 0.09 0.09 0.09
0.18 0.18 0.15 0.15 0.14 0.17 0.19 0.20 0.20 0.19 0.18 0.17 0.18 0.16 0.15 0.15 0.16 0.17 0.17 0.18 0.17 0.17 0.17 0.16 0.15 0.15 0.14 0.13 0.13 0.13 0.14 0.15 0.14 0.12 0.11 0.11 0.11 0.11 0.11 0.11 0.11 0.11 0.11 0.10 0.10 0.10 0.09 0.09 0.09 0.09 0.09 0.09 0.09 0.08
0.15 0.13 0.12 0.11 0.13 0.16 0.17 0.15 0.15 0.15 0.15 0.14 0.13 0.14 0.14 0.14 0.12 0.14 0.16 0.17 0.16 0.16 0.15 0.16 0.15 0.14 0.15 0.15 0.16 0.15 0.13 0.12 0.11 0.11 0.10 0.11 0.11 0.11 0.11 0.11 0.10 0.10 0.10 0.09 0.09 0.09 0.09 0.08 0.08 0.08 0.08 0.08 0.08 0.07
0.13 0.13 0.12 0.12 0.12 0.12 0.14 0.13 0.12 0.12 0.12 0.12 0.12 0.13 0.13 0.13 0.11 0.14 0.17 0.17 0.16 0.16 0.15 0.15 0.16 0.16 0.16 0.14 0.13 0.12 0.11 0.11 0.11 0.11 0.10 0.10 0.09 0.09 0.09 0.10 0.10 0.10 0.09 0.09 0.08 0.08 0.08 0.08 0.08 0.08 0.07 0.07 0.07 0.07

GFSWCAN_prec_pwat_036.txt.gz
Precipitable_Water
0.45 0.45 0.45 0.48 0.50 0.48 0.47 0.49 0.52 0.54 0.59 0.62 0.60 0.59 0.74 0.80 0.86 0.93 0.92 1.12 0.94 0.77 0.66 0.68 0.60 0.51 0.57 0.60 0.70 0.58 0.50 0.49 0.45 0.31 0.27 0.32 0.31 0.34 0.29 0.33 0.30 0.26 0.26 0.25 0.30 0.25 0.18 0.35 0.33 0.25 0.39 0.41 0.38 0.37
0.41 0.43 0.45 0.45 0.44 0.46 0.47 0.49 0.54 0.58 0.61 0.60 0.57 0.70 0.81 0.83 0.90 0.95 0.81 0.98 1.09 0.96 0.77 0.84 0.80 0.75 0.73 0.77 0.70 0.60 0.46 0.46 0.46 0.39 0.39 0.41 0.33 0.33 0.29 0.23 0.37 0.28 0.33 0.31 0.29 0.31 0.41 0.37 0.35 0.39 0.41 0.37 0.39 0.42
0.44 0.44 0.43 0.44 0.45 0.46 0.49 0.54 0.57 0.57 0.59 0.62 0.69 0.76 0.84 0.92 0.96 0.92 0.99 1.11 1.18 0.97 0.73 0.68 0.68 0.76 0.87 0.94 0.92 0.57 0.62 0.62 0.52 0.60 0.46 0.43 0.31 0.37 0.24 0.26 0.38 0.38 0.42 0.32 0.32 0.31 0.36 0.39 0.41 0.46 0.47 0.47 0.49 0.51
0.49 0.50 0.51 0.53 0.54 0.56 0.56 0.58 0.59 0.65 0.67 0.72 0.78 0.83 0.92 0.96 0.98 1.00 0.95 1.09 1.14 0.73 0.58 0.65 0.82 0.67 0.81 0.85 0.87 0.83 0.74 0.72 0.66 0.61 0.44 0.36 0.33 0.45 0.33 0.36 0.37 0.41 0.40 0.32 0.32 0.36 0.39 0.45 0.51 0.52 0.53 0.55 0.54 0.58
0.64 0.64 0.64 0.65 0.67 0.67 0.67 0.70 0.70 0.78 0.80 0.83 0.86 0.93 0.93 0.98 1.05 1.06 1.05 1.10 1.09 0.75 0.54 0.61 0.70 0.71 0.69 0.70 0.71 0.75 0.71 0.63 0.57 0.47 0.40 0.39 0.46 0.43 0.45 0.40 0.34 0.42 0.37 0.32 0.33 0.45 0.44 0.49 0.52 0.54 0.50 0.50 0.52 0.52
0.77 0.77 0.78 0.79 0.81 0.80 0.78 0.78 0.83 0.86 0.89 0.92 0.95 0.93 0.97 1.01 1.02 0.98 0.84 0.94 0.96 0.90 0.59 0.51 0.75 0.68 0.67 0.65 0.61 0.62 0.67 0.64 0.61 0.56 0.51 0.54 0.56 0.49 0.35 0.32 0.46 0.48 0.49 0.50 0.48 0.54 0.54 0.51 0.51 0.54 0.53 0.55 0.57 0.55
0.89 0.90 0.89 0.89 0.90 0.90 0.90 0.89 0.88 0.90 0.91 0.92 0.94 0.95 0.97 1.02 1.00 0.87 0.72 0.82 0.91 0.96 0.65 0.52 0.55 0.70 0.73 0.67 0.65 0.62 0.70 0.69 0.66 0.57 0.51 0.52 0.50 0.57 0.44 0.36 0.49 0.50 0.52 0.53 0.52 0.54 0.48 0.52 0.49 0.57 0.57 0.56 0.56 0.55
0.95 0.97 0.97 0.95 0.94 0.95 0.94 0.91 0.91 0.92 0.92 0.93 0.95 0.99 1.03 1.02 1.03 0.89 0.90 0.88 0.89 0.78 0.78 0.52 0.52 0.57 0.74 0.61 0.55 0.68 0.61 0.65 0.64 0.57 0.59 0.55 0.56 0.57 0.43 0.50 0.52 0.53 0.53 0.51 0.51 0.55 0.56 0.58 0.58 0.56 0.56 0.53 0.51 0.52
0.95 0.98 0.98 0.96 0.96 0.95 0.94 0.92 0.92 0.93 0.95 0.98 1.00 1.01 0.99 0.97 0.86 0.82 0.94 0.91 0.91 0.75 0.59 0.57 0.46 0.40 0.70 0.61 0.62 0.63 0.67 0.50 0.65 0.56 0.58 0.59 0.49 0.42 0.49 0.50 0.49 0.52 0.50 0.50 0.54 0.55 0.54 0.52 0.51 0.51 0.51 0.52 0.50 0.49
0.96 0.96 0.95 0.98 0.99 0.98 0.97 0.97 0.97 0.96 0.96 0.98 0.93 0.80 0.73 0.87 0.94 0.90 0.81 0.66 0.67 0.70 0.63 0.54 0.65 0.49 0.62 0.60 0.57 0.57 0.63 0.55 0.45 0.53 0.62 0.49 0.43 0.51 0.54 0.52 0.52 0.54 0.55 0.55 0.49 0.47 0.48 0.48 0.49 0.50 0.52 0.52 0.50 0.47
0.92 0.93 0.95 0.93 0.93 0.98 0.98 0.97 0.96 0.96 0.95 0.86 0.76 0.72 0.89 0.96 0.80 0.70 0.57 0.52 0.59 0.51 0.53 0.57 0.60 0.54 0.70 0.56 0.54 0.61 0.51 0.52 0.37 0.43 0.41 0.35 0.32 0.40 0.50 0.52 0.56 0.57 0.57 0.55 0.53 0.52 0.53 0.52 0.51 0.50 0.49 0.48 0.44 0.39
0.90 0.91 0.91 0.90 0.90 0.91 0.96 0.95 0.93 0.90 0.85 0.82 0.81 0.90 0.84 0.71 0.63 0.50 0.46 0.52 0.53 0.46 0.51 0.49 0.51 0.55 0.59 0.66 0.53 0.56 0.41 0.41 0.30 0.46 0.36 0.30 0.37 0.47 0.51 0.53 0.54 0.55 0.53 0.51 0.53 0.52 0.53 0.53 0.52 0.49 0.45 0.38 0.35 0.33
0.88 0.89 0.90 0.90 0.89 0.90 0.88 0.90 0.88 0.88 0.88 0.82 0.70 0.62 0.61 0.57 0.46 0.41 0.37 0.42 0.42 0.51 0.52 0.52 0.46 0.51 0.54 0.53 0.45 0.42 0.35 0.34 0.46 0.35 0.31 0.36 0.45 0.51 0.52 0.52 0.50 0.51 0.52 0.52 0.52 0.53 0.52 0.50 0.46 0.40 0.36 0.36 0.34 0.31
0.88 0.87 0.87 0.87 0.85 0.87 0.87 0.85 0.84 0.82 0.74 0.61 0.56 0.46 0.50 0.46 0.47 0.48 0.48 0.48 0.52 0.53 0.52 0.52 0.48 0.47 0.50 0.43 0.44 0.35 0.41 0.43 0.33 0.29 0.31 0.41 0.47 0.49 0.50 0.52 0.52 0.52 0.53 0.51 0.50 0.47 0.42 0.39 0.38 0.36 0.33 0.31 0.29 0.26
0.84 0.85 0.85 0.84 0.86 0.86 0.83 0.83 0.84 0.81 0.71 0.59 0.58 0.44 0.46 0.52 0.54 0.54 0.56 0.54 0.56 0.60 0.57 0.53 0.52 0.51 0.47 0.44 0.46 0.43 0.38 0.34 0.35 0.33 0.40 0.46 0.50 0.53 0.54 0.55 0.55 0.52 0.51 0.49 0.47 0.43 0.40 0.38 0.36 0.32 0.31 0.29 0.26 0.23
0.78 0.78 0.76 0.81 0.83 0.84 0.85 0.85 0.83 0.80 0.70 0.60 0.56 0.49 0.53 0.51 0.51 0.54 0.55 0.54 0.61 0.61 0.62 0.58 0.49 0.45 0.43 0.44 0.40 0.37 0.35 0.32 0.37 0.44 0.49 0.52 0.53 0.56 0.56 0.54 0.51 0.50 0.51 0.49 0.43 0.39 0.38 0.36 0.34 0.30 0.27 0.24 0.23 0.22
0.67 0.68 0.73 0.75 0.78 0.81 0.81 0.76 0.72 0.62 0.57 0.53 0.49 0.57 0.55 0.54 0.51 0.53 0.56 0.57 0.66 0.59 0.49 0.50 0.41 0.39 0.46 0.38 0.36 0.43 0.38 0.44 0.49 0.51 0.56 0.57 0.55 0.55 0.55 0.54 0.52 0.51 0.47 0.44 0.41 0.39 0.35 0.33 0.29 0.25 0.22 0.22 0.22 0.22
0.54 0.59 0.58 0.58 0.66 0.71 0.70 0.70 0.59 0.53 0.47 0.50 0.47 0.50 0.54 0.55 0.54 0.55 0.58 0.61 0.58 0.54 0.52 0.45 0.51 0.42 0.39 0.37 0.38 0.45 0.49 0.53 0.55 0.54 0.53 0.55 0.55 0.54 0.53 0.50 0.48 0.46 0.43 0.40 0.37 0.34 0.31 0.28 0.25 0.24 0.23 0.22 0.22 0.22
0.46 0.51 0.52 0.49 0.46 0.47 0.51 0.55 0.59 0.44 0.46 0.50 0.51 0.53 0.53 0.53 0.57 0.58 0.59 0.61 0.62 0.63 0.57 0.51 0.43 0.39 0.40 0.44 0.45 0.48 0.49 0.49 0.47 0.49 0.51 0.53 0.53 0.51 0.49 0.46 0.44 0.41 0.38 0.35 0.33 0.31 0.29 0.28 0.25 0.24 0.23 0.22 0.21 0.22
0.33 0.37 0.40 0.37 0.37 0.34 0.35 0.44 0.56 0.47 0.42 0.46 0.50 0.48 0.49 0.49 0.52 0.53 0.54 0.55 0.53 0.50 0.44 0.40 0.38 0.41 0.42 0.46 0.50 0.50 0.50 0.50 0.47 0.43 0.42 0.44 0.45 0.43 0.42 0.40 0.37 0.35 0.34 0.33 0.31 0.31 0.29 0.28 0.26 0.24 0.24 0.23 0.22 0.20
0.21 0.24 0.28 0.30 0.28 0.30 0.33 0.34 0.34 0.39 0.41 0.41 0.45 0.44 0.42 0.46 0.44 0.44 0.45 0.49 0.42 0.39 0.37 0.41 0.42 0.45 0.48 0.49 0.51 0.50 0.48 0.46 0.42 0.41 0.38 0.37 0.40 0.39 0.38 0.38 0.38 0.36 0.34 0.33 0.31 0.29 0.28 0.26 0.25 0.24 0.23 0.22 0.21 0.20
0.18 0.23 0.21 0.24 0.22 0.25 0.27 0.33 0.30 0.33 0.33 0.34 0.34 0.34 0.32 0.31 0.32 0.35 0.40 0.34 0.31 0.32 0.35 0.35 0.37 0.38 0.38 0.39 0.40 0.43 0.44 0.44 0.44 0.43 0.41 0.40 0.35 0.34 0.35 0.36 0.35 0.32 0.32 0.31 0.30 0.28 0.26 0.25 0.23 0.22 0.21 0.21 0.19 0.17
0.19 0.18 0.17 0.18 0.13 0.17 0.20 0.30 0.22 0.25 0.20 0.23 0.27 0.23 0.24 0.25 0.28 0.34 0.26 0.28 0.28 0.34 0.35 0.35 0.35 0.37 0.35 0.37 0.38 0.38 0.39 0.38 0.37 0.37 0.36 0.36 0.35 0.35 0.33 0.33 0.33 0.30 0.28 0.27 0.27 0.26 0.24 0.23 0.22 0.20 0.19 0.16 0.14 0.14
0.19 0.14 0.12 0.13 0.15 0.14 0.21 0.18 0.22 0.20 0.21 0.19 0.18 0.17 0.19 0.21 0.25 0.22 0.18 0.20 0.24 0.28 0.28 0.29 0.31 0.30 0.30 0.30 0.29 0.31 0.33 0.34 0.33 0.33 0.34 0.32 0.30 0.30 0.30 0.30 0.29 0.28 0.28 0.27 0.25 0.24 0.22 0.21 0.19 0.16 0.14 0.12 0.12 0.11
0.10 0.14 0.16 0.13 0.18 0.16 0.15 0.15 0.17 0.17 0.15 0.19 0.18 0.17 0.19 0.24 0.18 0.17 0.17 0.20 0.22 0.23 0.24 0.27 0.26 0.27 0.25 0.26 0.27 0.28 0.31 0.31 0.29 0.28 0.29 0.30 0.29 0.28 0.27 0.27 0.26 0.25 0.25 0.22 0.20 0.19 0.17 0.15 0.14 0.13 0.11 0.10 0.10 0.09
0.11 0.16 0.15 0.15 0.16 0.15 0.15 0.13 0.14 0.16 0.17 0.17 0.18 0.21 0.23 0.20 0.16 0.15 0.18 0.20 0.21 0.22 0.23 0.24 0.25 0.24 0.24 0.25 0.25 0.25 0.27 0.30 0.29 0.26 0.27 0.28 0.27 0.26 0.24 0.23 0.22 0.21 0.21 0.19 0.15 0.13 0.13 0.12 0.11 0.10 0.09 0.10 0.10 0.10
0.13 0.15 0.20 0.24 0.21 0.21 0.19 0.20 0.21 0.20 0.17 0.17 0.19 0.19 0.20 0.16 0.14 0.18 0.22 0.23 0.22 0.24 0.25 0.26 0.25 0.24 0.24 0.24 0.26 0.27 0.27 0.27 0.26 0.25 0.25 0.24 0.23 0.22 0.20 0.18 0.15 0.14 0.14 0.14 0.13 0.11 0.10 0.09 0.09 0.09 0.09 0.10 0.11 0.11
0.19 0.21 0.16 0.21 0.21 0.22 0.18 0.19 0.18 0.17 0.19 0.21 0.23 0.17 0.16 0.16 0.16 0.21 0.22 0.25 0.26 0.26 0.25 0.25 0.25 0.25 0.25 0.25 0.25 0.25 0.26 0.25 0.23 0.22 0.21 0.20 0.18 0.17 0.16 0.16 0.15 0.14 0.13 0.12 0.11 0.11 0.10 0.10 0.10 0.10 0.10 0.10 0.10 0.11
0.19 0.22 0.21 0.16 0.17 0.17 0.17 0.17 0.17 0.19 0.20 0.19 0.17 0.15 0.16 0.18 0.20 0.20 0.22 0.23 0.24 0.23 0.21 0.21 0.22 0.23 0.22 0.21 0.20 0.19 0.17 0.15 0.13 0.11 0.12 0.12 0.14 0.15 0.15 0.13 0.13 0.12 0.12 0.12 0.12 0.11 0.11 0.11 0.10 0.10 0.10 0.10 0.10 0.10
0.16 0.20 0.15 0.15 0.14 0.13 0.16 0.20 0.18 0.19 0.19 0.19 0.18 0.17 0.16 0.17 0.19 0.21 0.20 0.20 0.19 0.18 0.18 0.18 0.18 0.18 0.17 0.17 0.15 0.15 0.15 0.14 0.13 0.13 0.12 0.11 0.11 0.12 0.12 0.12 0.12 0.12 0.12 0.11 0.11 0.10 0.10 0.10 0.09 0.09 0.09 0.09 0.09 0.09
0.18 0.18 0.15 0.15 0.14 0.16 0.18 0.20 0.20 0.19 0.17 0.16 0.17 0.14 0.13 0.14 0.16 0.17 0.17 0.18 0.17 0.17 0.17 0.16 0.15 0.15 0.15 0.14 0.14 0.14 0.15 0.16 0.14 0.13 0.12 0.11 0.12 0.12 0.12 0.12 0.11 0.11 0.11 0.10 0.09 0.09 0.09 0.08 0.08 0.08 0.08 0.08 0.08 0.08
0.14 0.12 0.12 0.11 0.13 0.15 0.17 0.16 0.15 0.17 0.16 0.14 0.12 0.14 0.14 0.13 0.11 0.13 0.16 0.17 0.16 0.15 0.15 0.16 0.15 0.15 0.16 0.16 0.16 0.15 0.14 0.13 0.12 0.12 0.11 0.10 0.10 0.10 0.10 0.10 0.10 0.10 0.10 0.09 0.09 0.09 0.09 0.08 0.08 0.08 0.08 0.08 0.08 0.08
0.13 0.13 0.13 0.13 0.13 0.13 0.15 0.14 0.13 0.13 0.13 0.12 0.12 0.13 0.13 0.13 0.11 0.14 0.17 0.17 0.16 0.15 0.15 0.15 0.16 0.16 0.15 0.14 0.13 0.12 0.12 0.12 0.11 0.10 0.10 0.10 0.09 0.09 0.09 0.09 0.09 0.09 0.09 0.08 0.08 0.08 0.08 0.08 0.08 0.08 0.07 0.07 0.07 0.07

GFSWCAN_prec_pwat_039.txt.gz
Precipitable_Water
0.52 0.50 0.49 0.51 0.52 0.57 0.60 0.60 0.63 0.64 0.64 0.65 0.65 0.64 0.64 0.61 0.61 0.64 0.71 0.83 0.79 0.71 0.76 0.74 0.66 0.49 0.64 0.64 0.51 0.61 0.68 0.69 0.61 0.39 0.36 0.27 0.23 0.25 0.33 0.38 0.32 0.27 0.26 0.26 0.30 0.23 0.19 0.36 0.34 0.25 0.35 0.40 0.40 0.40
0.48 0.50 0.53 0.54 0.56 0.57 0.55 0.59 0.60 0.59 0.63 0.64 0.65 0.65 0.62 0.57 0.57 0.69 0.71 0.85 0.88 0.74 0.79 0.98 0.83 0.81 0.73 0.71 0.65 0.70 0.69 0.64 0.54 0.40 0.36 0.34 0.25 0.31 0.31 0.25 0.39 0.25 0.29 0.25 0.28 0.26 0.37 0.36 0.37 0.43 0.44 0.42 0.44 0.44
0.45 0.47 0.48 0.50 0.52 0.53 0.52 0.52 0.55 0.56 0.58 0.61 0.63 0.60 0.59 0.54 0.64 0.75 0.78 0.89 0.89 0.77 0.81 0.87 0.75 0.88 0.92 0.84 0.78 0.58 0.66 0.78 0.57 0.55 0.44 0.40 0.29 0.35 0.26 0.28 0.31 0.38 0.43 0.35 0.33 0.37 0.37 0.42 0.45 0.46 0.46 0.45 0.48 0.47
0.42 0.44 0.47 0.48 0.48 0.48 0.48 0.48 0.51 0.54 0.58 0.60 0.59 0.59 0.55 0.55 0.72 0.80 0.78 0.93 0.93 0.86 0.74 0.76 0.99 0.86 0.99 0.97 0.84 0.77 0.80 0.87 0.71 0.58 0.41 0.36 0.30 0.42 0.30 0.31 0.33 0.39 0.40 0.35 0.33 0.40 0.42 0.46 0.50 0.50 0.51 0.50 0.50 0.50
0.44 0.45 0.44 0.43 0.43 0.45 0.47 0.49 0.53 0.57 0.60 0.59 0.59 0.58 0.60 0.73 0.79 0.85 0.90 0.97 0.99 0.85 0.66 0.79 0.87 0.90 0.95 0.91 0.84 0.87 0.90 0.72 0.61 0.49 0.40 0.35 0.42 0.39 0.39 0.39 0.36 0.43 0.37 0.30 0.28 0.39 0.38 0.44 0.50 0.52 0.50 0.51 0.50 0.50
0.53 0.48 0.45 0.47 0.48 0.48 0.49 0.51 0.53 0.56 0.55 0.56 0.57 0.69 0.73 0.85 0.90 0.89 0.75 0.94 1.06 0.98 0.77 0.64 0.89 0.81 0.85 0.90 0.87 0.83 0.81 0.74 0.66 0.53 0.50 0.50 0.54 0.41 0.33 0.32 0.44 0.48 0.49 0.49 0.42 0.50 0.50 0.53 0.56 0.57 0.52 0.51 0.53 0.54
0.64 0.62 0.61 0.56 0.51 0.53 0.53 0.53 0.54 0.56 0.59 0.63 0.68 0.73 0.80 0.90 0.92 0.77 0.73 0.98 1.05 1.08 0.79 0.61 0.62 0.83 0.85 0.76 0.75 0.79 0.82 0.73 0.65 0.58 0.52 0.49 0.49 0.50 0.40 0.33 0.45 0.51 0.53 0.54 0.57 0.55 0.50 0.51 0.48 0.54 0.54 0.55 0.55 0.53
0.77 0.73 0.70 0.69 0.69 0.66 0.66 0.66 0.66 0.68 0.70 0.73 0.78 0.84 0.92 0.92 0.96 0.83 0.98 1.05 1.06 0.86 0.71 0.52 0.52 0.58 0.75 0.58 0.53 0.71 0.63 0.64 0.62 0.55 0.57 0.49 0.53 0.52 0.37 0.47 0.53 0.55 0.54 0.53 0.54 0.56 0.53 0.55 0.56 0.55 0.55 0.53 0.49 0.47
0.89 0.86 0.83 0.84 0.83 0.80 0.77 0.76 0.79 0.82 0.83 0.85 0.91 0.96 0.95 0.88 0.80 0.86 0.96 0.95 0.89 0.73 0.53 0.56 0.47 0.45 0.73 0.62 0.63 0.63 0.64 0.47 0.61 0.51 0.51 0.53 0.46 0.38 0.46 0.51 0.54 0.55 0.51 0.52 0.55 0.55 0.55 0.54 0.54 0.53 0.53 0.50 0.46 0.46
0.95 0.93 0.92 0.90 0.88 0.86 0.87 0.87 0.86 0.90 0.93 0.99 0.95 0.83 0.73 0.89 0.97 0.91 0.77 0.64 0.63 0.65 0.60 0.54 0.64 0.51 0.63 0.58 0.53 0.54 0.55 0.45 0.38 0.46 0.59 0.49 0.43 0.55 0.60 0.62 0.62 0.58 0.56 0.56 0.51 0.49 0.52 0.51 0.50 0.50 0.49 0.51 0.49 0.47
0.97 0.97 0.96 0.96 0.95 0.92 0.91 0.92 0.94 0.97 1.01 0.86 0.78 0.72 0.85 0.95 0.76 0.66 0.54 0.49 0.51 0.44 0.51 0.57 0.63 0.56 0.69 0.51 0.49 0.56 0.48 0.49 0.36 0.44 0.45 0.41 0.41 0.52 0.61 0.60 0.61 0.60 0.60 0.59 0.58 0.57 0.55 0.52 0.50 0.50 0.49 0.48 0.47 0.44
0.95 0.97 0.98 0.99 0.99 0.97 0.96 0.97 0.99 0.93 0.89 0.85 0.82 0.89 0.86 0.72 0.60 0.47 0.44 0.48 0.46 0.42 0.51 0.51 0.61 0.66 0.65 0.68 0.55 0.56 0.45 0.48 0.35 0.53 0.45 0.34 0.42 0.50 0.51 0.53 0.56 0.59 0.59 0.57 0.58 0.54 0.53 0.52 0.51 0.49 0.48 0.45 0.39 0.37
0.91 0.93 0.97 0.99 0.99 1.00 1.02 1.02 1.02 0.98 0.95 0.86 0.74 0.66 0.62 0.57 0.44 0.39 0.35 0.40 0.40 0.50 0.54 0.56 0.57 0.64 0.66 0.63 0.54 0.53 0.45 0.41 0.51 0.38 0.33 0.37 0.45 0.49 0.51 0.53 0.55 0.58 0.57 0.55 0.52 0.52 0.52 0.51 0.52 0.50 0.43 0.43 0.39 0.34
0.88 0.89 0.91 0.93 0.96 0.91 0.94 0.97 0.95 0.88 0.77 0.64 0.57 0.47 0.47 0.44 0.45 0.45 0.44 0.45 0.52 0.54 0.56 0.57 0.54 0.52 0.55 0.49 0.48 0.37 0.43 0.45 0.35 0.30 0.30 0.40 0.47 0.50 0.53 0.55 0.54 0.51 0.50 0.51 0.51 0.52 0.52 0.50 0.46 0.44 0.42 0.41 0.36 0.31
0.84 0.86 0.87 0.87 0.89 0.90 0.87 0.86 0.84 0.79 0.68 0.55 0.54 0.42 0.44 0.50 0.52 0.54 0.57 0.57 0.58 0.62 0.61 0.58 0.56 0.54 0.47 0.43 0.44 0.40 0.35 0.31 0.33 0.32 0.40 0.48 0.53 0.53 0.52 0.51 0.50 0.50 0.51 0.52 0.50 0.45 0.44 0.43 0.40 0.38 0.38 0.34 0.31 0.27
0.78 0.80 0.79 0.85 0.85 0.83 0.83 0.83 0.80 0.75 0.67 0.58 0.52 0.46 0.50 0.48 0.49 0.53 0.56 0.56 0.63 0.62 0.62 0.57 0.48 0.44 0.41 0.43 0.39 0.36 0.34 0.32 0.39 0.47 0.52 0.54 0.52 0.52 0.53 0.54 0.54 0.54 0.54 0.51 0.48 0.45 0.43 0.41 0.37 0.34 0.33 0.30 0.26 0.23
0.71 0.65 0.75 0.79 0.80 0.80 0.81 0.76 0.74 0.64 0.57 0.52 0.48 0.55 0.54 0.53 0.51 0.54 0.57 0.58 0.66 0.59 0.49 0.51 0.43 0.42 0.50 0.42 0.40 0.45 0.40 0.45 0.50 0.49 0.52 0.55 0.56 0.56 0.57 0.56 0.55 0.54 0.52 0.49 0.45 0.44 0.42 0.41 0.36 0.31 0.26 0.25 0.25 0.23
0.54 0.59 0.63 0.74 0.75 0.71 0.71 0.69 0.60 0.54 0.46 0.50 0.46 0.49 0.53 0.55 0.53 0.55 0.59 0.63 0.61 0.57 0.55 0.49 0.54 0.44 0.39 0.37 0.38 0.45 0.48 0.51 0.55 0.55 0.55 0.56 0.56 0.56 0.56 0.53 0.52 0.51 0.49 0.46 0.43 0.41 0.38 0.34 0.30 0.27 0.26 0.25 0.24 0.24
0.46 0.47 0.45 0.46 0.58 0.61 0.52 0.55 0.56 0.44 0.46 0.49 0.51 0.53 0.52 0.53 0.56 0.58 0.59 0.61 0.63 0.63 0.56 0.49 0.41 0.37 0.38 0.42 0.43 0.47 0.49 0.50 0.49 0.51 0.53 0.55 0.55 0.53 0.52 0.52 0.50 0.48 0.45 0.42 0.38 0.34 0.33 0.31 0.29 0.28 0.27 0.25 0.24 0.23
0.29 0.31 0.32 0.33 0.35 0.39 0.46 0.49 0.57 0.47 0.42 0.46 0.50 0.47 0.49 0.49 0.52 0.53 0.53 0.54 0.53 0.50 0.42 0.38 0.37 0.39 0.40 0.44 0.48 0.49 0.50 0.51 0.49 0.45 0.46 0.49 0.51 0.50 0.48 0.46 0.44 0.42 0.39 0.37 0.35 0.34 0.31 0.30 0.30 0.29 0.27 0.25 0.23 0.21
0.20 0.23 0.26 0.28 0.28 0.32 0.36 0.37 0.41 0.47 0.46 0.43 0.47 0.46 0.44 0.47 0.45 0.44 0.42 0.44 0.41 0.39 0.35 0.39 0.40 0.42 0.45 0.47 0.49 0.50 0.49 0.50 0.46 0.44 0.42 0.41 0.45 0.44 0.42 0.41 0.40 0.38 0.36 0.35 0.33 0.32 0.31 0.30 0.29 0.27 0.25 0.24 0.22 0.22
0.17 0.22 0.18 0.22 0.21 0.27 0.28 0.34 0.33 0.36 0.35 0.36 0.37 0.37 0.35 0.33 0.35 0.37 0.36 0.34 0.33 0.35 0.37 0.38 0.39 0.40 0.41 0.41 0.43 0.46 0.46 0.46 0.46 0.45 0.44 0.42 0.38 0.37 0.36 0.36 0.36 0.34 0.33 0.32 0.31 0.29 0.29 0.27 0.25 0.23 0.23 0.21 0.21 0.21
0.17 0.16 0.15 0.17 0.13 0.16 0.19 0.28 0.21 0.25 0.22 0.24 0.28 0.24 0.25 0.26 0.30 0.35 0.26 0.28 0.29 0.34 0.35 0.36 0.36 0.38 0.37 0.38 0.39 0.39 0.40 0.39 0.37 0.36 0.36 0.36 0.35 0.35 0.34 0.33 0.33 0.30 0.28 0.28 0.29 0.27 0.26 0.25 0.23 0.22 0.21 0.20 0.17 0.15
0.20 0.15 0.12 0.14 0.15 0.13 0.20 0.18 0.21 0.18 0.19 0.18 0.18 0.17 0.19 0.22 0.27 0.19 0.17 0.20 0.23 0.27 0.27 0.28 0.30 0.27 0.28 0.28 0.28 0.29 0.31 0.33 0.32 0.32 0.33 0.31 0.30 0.29 0.30 0.29 0.29 0.29 0.28 0.27 0.26 0.25 0.23 0.21 0.21 0.19 0.17 0.14 0.13 0.11
0.10 0.14 0.15 0.12 0.18 0.15 0.14 0.14 0.16 0.15 0.15 0.17 0.15 0.16 0.18 0.22 0.16 0.15 0.15 0.18 0.20 0.22 0.23 0.26 0.25 0.25 0.24 0.24 0.25 0.26 0.29 0.29 0.27 0.26 0.28 0.29 0.28 0.27 0.26 0.26 0.26 0.26 0.25 0.22 0.20 0.19 0.19 0.18 0.17 0.14 0.12 0.11 0.10 0.10
0.11 0.16 0.14 0.14 0.15 0.14 0.15 0.12 0.14 0.15 0.17 0.15 0.17 0.20 0.22 0.18 0.15 0.14 0.16 0.19 0.20 0.21 0.22 0.22 0.23 0.22 0.22 0.24 0.23 0.24 0.25 0.28 0.27 0.24 0.25 0.26 0.26 0.25 0.23 0.22 0.21 0.20 0.20 0.19 0.17 0.16 0.14 0.12 0.11 0.10 0.09 0.10 0.10 0.10
0.13 0.15 0.20 0.24 0.22 0.21 0.18 0.20 0.21 0.18 0.16 0.16 0.18 0.19 0.20 0.15 0.13 0.17 0.21 0.22 0.22 0.23 0.24 0.24 0.24 0.23 0.22 0.23 0.24 0.24 0.24 0.24 0.23 0.23 0.23 0.22 0.21 0.20 0.19 0.16 0.15 0.15 0.16 0.14 0.12 0.11 0.10 0.09 0.09 0.09 0.09 0.10 0.10 0.10
0.19 0.21 0.16 0.19 0.18 0.20 0.17 0.17 0.17 0.16 0.17 0.19 0.20 0.14 0.14 0.14 0.14 0.19 0.20 0.23 0.24 0.23 0.23 0.22 0.23 0.22 0.22 0.22 0.22 0.22 0.22 0.22 0.21 0.20 0.19 0.18 0.17 0.17 0.16 0.15 0.15 0.14 0.13 0.13 0.12 0.11 0.11 0.10 0.10 0.09 0.09 0.09 0.09 0.09
0.18 0.20 0.19 0.15 0.14 0.14 0.15 0.15 0.15 0.16 0.18 0.17 0.14 0.13 0.14 0.16 0.18 0.18 0.20 0.21 0.22 0.20 0.19 0.19 0.19 0.20 0.19 0.18 0.16 0.14 0.13 0.13 0.12 0.11 0.11 0.12 0.13 0.13 0.13 0.13 0.13 0.13 0.12 0.11 0.11 0.11 0.11 0.11 0.10 0.10 0.09 0.09 0.09 0.09
0.15 0.19 0.15 0.13 0.12 0.12 0.15 0.18 0.15 0.17 0.18 0.17 0.15 0.14 0.14 0.15 0.17 0.19 0.18 0.18 0.17 0.16 0.16 0.17 0.17 0.16 0.15 0.15 0.14 0.14 0.15 0.15 0.13 0.12 0.10 0.10 0.10 0.12 0.12 0.12 0.11 0.11 0.11 0.10 0.09 0.09 0.10 0.09 0.09 0.09 0.08 0.08 0.08 0.08
0.17 0.17 0.14 0.13 0.12 0.14 0.16 0.19 0.18 0.18 0.16 0.14 0.15 0.12 0.11 0.13 0.14 0.16 0.16 0.17 0.16 0.16 0.16 0.15 0.14 0.14 0.14 0.14 0.14 0.13 0.12 0.13 0.13 0.12 0.11 0.11 0.10 0.10 0.09 0.10 0.10 0.10 0.09 0.09 0.09 0.09 0.08 0.08 0.08 0.08 0.08 0.07 0.08 0.08
0.12 0.11 0.11 0.11 0.12 0.15 0.17 0.15 0.15 0.16 0.15 0.13 0.12 0.13 0.13 0.12 0.11 0.13 0.16 0.16 0.15 0.14 0.15 0.15 0.14 0.14 0.14 0.14 0.13 0.12 0.12 0.12 0.11 0.10 0.10 0.09 0.09 0.08 0.08 0.08 0.09 0.09 0.08 0.08 0.08 0.09 0.08 0.08 0.08 0.08 0.08 0.08 0.08 0.07
0.13 0.12 0.12 0.12 0.13 0.14 0.14 0.14 0.15 0.13 0.14 0.13 0.13 0.14 0.13 0.12 0.11 0.13 0.17 0.17 0.15 0.14 0.14 0.15 0.15 0.15 0.14 0.12 0.11 0.11 0.10 0.10 0.09 0.09 0.09 0.09 0.09 0.09 0.09 0.09 0.09 0.09 0.09 0.09 0.09 0.09 0.09 0.09 0.09 0.09 0.09 0.08 0.08 0.08

GFSWCAN_prec_pwat_042.txt.gz
Precipitable_Water
0.60 0.59 0.58 0.56 0.54 0.52 0.50 0.49 0.50 0.49 0.48 0.46 0.45 0.46 0.48 0.54 0.60 0.61 0.55 0.74 0.64 0.53 0.63 0.72 0.58 0.43 0.46 0.45 0.35 0.54 0.58 0.59 0.60 0.46 0.44 0.41 0.35 0.37 0.33 0.32 0.24 0.22 0.27 0.29 0.31 0.24 0.19 0.36 0.34 0.26 0.33 0.42 0.42 0.41
0.56 0.56 0.56 0.54 0.52 0.52 0.52 0.51 0.51 0.51 0.50 0.51 0.51 0.50 0.49 0.56 0.60 0.62 0.52 0.76 0.81 0.58 0.73 0.88 0.80 0.72 0.63 0.56 0.53 0.63 0.56 0.56 0.63 0.54 0.51 0.48 0.40 0.42 0.34 0.21 0.37 0.29 0.30 0.26 0.30 0.28 0.38 0.39 0.37 0.42 0.42 0.39 0.42 0.43
0.52 0.51 0.50 0.51 0.53 0.53 0.55 0.57 0.59 0.62 0.60 0.58 0.58 0.56 0.56 0.58 0.63 0.64 0.57 0.65 0.71 0.63 0.74 0.76 0.73 0.85 0.84 0.67 0.73 0.62 0.69 0.72 0.67 0.71 0.64 0.53 0.38 0.42 0.24 0.24 0.31 0.37 0.40 0.31 0.31 0.38 0.37 0.40 0.45 0.46 0.47 0.45 0.48 0.49
0.53 0.54 0.55 0.57 0.58 0.57 0.60 0.60 0.61 0.62 0.61 0.63 0.64 0.64 0.66 0.67 0.68 0.62 0.58 0.72 0.66 0.61 0.55 0.71 0.99 0.81 0.90 0.74 0.76 0.82 0.75 0.76 0.75 0.81 0.64 0.49 0.37 0.43 0.26 0.31 0.31 0.34 0.38 0.35 0.36 0.43 0.44 0.45 0.45 0.45 0.45 0.48 0.50 0.50
0.46 0.48 0.52 0.55 0.55 0.54 0.55 0.57 0.59 0.63 0.64 0.64 0.67 0.65 0.65 0.67 0.65 0.59 0.69 0.80 0.87 0.58 0.50 0.65 0.90 0.95 0.91 0.83 0.76 0.80 0.80 0.70 0.65 0.58 0.58 0.47 0.53 0.44 0.37 0.35 0.31 0.39 0.34 0.31 0.29 0.42 0.40 0.43 0.49 0.52 0.50 0.50 0.52 0.51
0.43 0.46 0.49 0.51 0.51 0.50 0.52 0.54 0.55 0.57 0.62 0.66 0.66 0.65 0.64 0.64 0.61 0.55 0.50 0.72 0.86 0.89 0.63 0.50 0.79 0.88 0.87 0.86 0.83 0.80 0.80 0.74 0.65 0.58 0.62 0.64 0.63 0.42 0.29 0.26 0.36 0.41 0.45 0.45 0.41 0.48 0.47 0.49 0.53 0.56 0.54 0.54 0.55 0.53
0.44 0.45 0.46 0.45 0.47 0.49 0.50 0.51 0.56 0.61 0.63 0.64 0.63 0.63 0.61 0.59 0.55 0.53 0.56 0.70 0.79 0.85 0.65 0.60 0.64 0.86 1.00 1.02 0.94 0.88 0.87 0.73 0.67 0.67 0.63 0.57 0.54 0.47 0.36 0.28 0.40 0.44 0.48 0.49 0.50 0.49 0.46 0.50 0.49 0.57 0.57 0.56 0.56 0.55
0.53 0.47 0.44 0.44 0.46 0.48 0.50 0.50 0.55 0.59 0.60 0.60 0.59 0.61 0.67 0.70 0.76 0.73 0.88 1.01 0.99 0.80 0.74 0.58 0.61 0.71 0.96 0.80 0.77 0.96 0.81 0.75 0.75 0.70 0.66 0.53 0.55 0.51 0.36 0.45 0.49 0.50 0.52 0.52 0.54 0.56 0.55 0.57 0.58 0.57 0.57 0.55 0.52 0.51
0.62 0.57 0.51 0.46 0.45 0.45 0.46 0.48 0.52 0.55 0.56 0.57 0.60 0.69 0.74 0.74 0.67 0.72 0.89 1.03 1.00 0.83 0.64 0.64 0.57 0.54 0.85 0.77 0.77 0.80 0.80 0.64 0.74 0.61 0.59 0.58 0.50 0.43 0.47 0.47 0.49 0.53 0.52 0.53 0.58 0.58 0.57 0.55 0.54 0.54 0.54 0.52 0.51 0.50
0.73 0.69 0.64 0.60 0.56 0.51 0.50 0.51 0.53 0.53 0.60 0.71 0.75 0.66 0.59 0.71 0.94 0.94 0.83 0.75 0.76 0.75 0.74 0.61 0.71 0.61 0.73 0.66 0.61 0.60 0.65 0.55 0.48 0.57 0.66 0.53 0.45 0.53 0.56 0.58 0.59 0.60 0.63 0.63 0.54 0.51 0.53 0.52 0.54 0.54 0.53 0.54 0.52 0.49
0.83 0.80 0.76 0.71 0.65 0.64 0.66 0.68 0.72 0.76 0.81 0.73 0.68 0.66 0.85 0.95 0.79 0.70 0.60 0.59 0.60 0.48 0.56 0.61 0.61 0.53 0.70 0.52 0.50 0.56 0.48 0.49 0.37 0.43 0.45 0.41 0.41 0.50 0.59 0.60 0.63 0.66 0.68 0.64 0.62 0.60 0.58 0.57 0.56 0.54 0.53 0.52 0.51 0.47
0.91 0.89 0.86 0.84 0.76 0.75 0.76 0.80 0.83 0.81 0.83 0.78 0.79 0.90 0.87 0.73 0.63 0.54 0.49 0.51 0.46 0.41 0.51 0.50 0.53 0.58 0.61 0.65 0.54 0.53 0.44 0.45 0.34 0.52 0.42 0.33 0.42 0.54 0.59 0.62 0.66 0.66 0.64 0.62 0.62 0.59 0.58 0.58 0.56 0.53 0.51 0.48 0.46 0.44
0.94 0.93 0.91 0.91 0.91 0.89 0.88 0.91 0.96 0.99 0.94 0.87 0.77 0.67 0.62 0.57 0.45 0.42 0.38 0.41 0.41 0.47 0.51 0.53 0.51 0.59 0.61 0.61 0.54 0.50 0.41 0.40 0.51 0.41 0.37 0.40 0.50 0.56 0.60 0.61 0.59 0.60 0.59 0.58 0.58 0.58 0.57 0.55 0.54 0.51 0.48 0.48 0.43 0.39
0.95 0.96 0.95 0.95 0.96 0.97 0.96 0.98 0.97 0.86 0.78 0.66 0.57 0.47 0.47 0.41 0.43 0.44 0.43 0.43 0.49 0.51 0.54 0.57 0.58 0.59 0.61 0.54 0.52 0.42 0.47 0.49 0.38 0.33 0.33 0.44 0.51 0.54 0.55 0.56 0.55 0.55 0.57 0.56 0.55 0.55 0.53 0.52 0.51 0.50 0.44 0.41 0.38 0.34
0.90 0.90 0.92 0.95 0.94 0.94 0.93 0.89 0.84 0.79 0.67 0.57 0.55 0.41 0.42 0.48 0.51 0.53 0.55 0.52 0.54 0.58 0.58 0.56 0.55 0.55 0.52 0.49 0.50 0.44 0.38 0.34 0.36 0.35 0.43 0.49 0.52 0.53 0.54 0.55 0.56 0.55 0.54 0.52 0.53 0.52 0.52 0.52 0.50 0.46 0.43 0.39 0.36 0.33
0.85 0.85 0.83 0.86 0.84 0.85 0.87 0.83 0.78 0.73 0.63 0.55 0.51 0.46 0.50 0.47 0.46 0.49 0.51 0.52 0.60 0.61 0.62 0.58 0.50 0.45 0.44 0.45 0.40 0.37 0.35 0.33 0.39 0.45 0.51 0.54 0.54 0.55 0.54 0.54 0.54 0.55 0.55 0.54 0.54 0.51 0.49 0.46 0.42 0.39 0.37 0.35 0.34 0.31
0.78 0.73 0.80 0.82 0.82 0.81 0.82 0.76 0.70 0.60 0.53 0.49 0.45 0.53 0.51 0.51 0.49 0.51 0.54 0.58 0.66 0.59 0.49 0.50 0.42 0.41 0.49 0.42 0.39 0.43 0.39 0.44 0.50 0.52 0.56 0.58 0.56 0.55 0.56 0.56 0.56 0.55 0.52 0.51 0.50 0.48 0.44 0.42 0.40 0.37 0.33 0.32 0.31 0.28
0.62 0.72 0.75 0.75 0.73 0.72 0.71 0.68 0.59 0.52 0.44 0.47 0.44 0.48 0.51 0.53 0.52 0.53 0.57 0.62 0.61 0.57 0.53 0.46 0.51 0.41 0.37 0.35 0.37 0.44 0.48 0.52 0.55 0.55 0.56 0.57 0.57 0.56 0.56 0.54 0.54 0.53 0.51 0.49 0.47 0.45 0.42 0.39 0.36 0.34 0.33 0.31 0.29 0.28
0.45 0.49 0.62 0.69 0.66 0.61 0.56 0.58 0.57 0.44 0.45 0.48 0.50 0.51 0.51 0.51 0.54 0.55 0.56 0.58 0.59 0.60 0.53 0.46 0.39 0.36 0.36 0.41 0.41 0.45 0.48 0.49 0.49 0.51 0.52 0.54 0.55 0.54 0.53 0.53 0.51 0.49 0.48 0.46 0.44 0.42 0.40 0.37 0.34 0.32 0.31 0.30 0.27 0.27
0.30 0.34 0.37 0.47 0.60 0.51 0.46 0.48 0.56 0.47 0.41 0.45 0.49 0.46 0.47 0.47 0.49 0.50 0.50 0.51 0.51 0.48 0.41 0.36 0.35 0.37 0.38 0.42 0.46 0.47 0.49 0.51 0.49 0.46 0.46 0.49 0.51 0.51 0.49 0.48 0.46 0.46 0.44 0.43 0.40 0.37 0.34 0.33 0.33 0.32 0.30 0.27 0.25 0.24
0.18 0.23 0.27 0.32 0.39 0.49 0.48 0.47 0.46 0.46 0.46 0.42 0.46 0.45 0.42 0.43 0.41 0.41 0.41 0.43 0.40 0.37 0.34 0.37 0.37 0.40 0.43 0.44 0.46 0.47 0.48 0.49 0.47 0.46 0.44 0.43 0.46 0.46 0.45 0.45 0.44 0.41 0.38 0.36 0.34 0.33 0.33 0.31 0.31 0.30 0.27 0.25 0.25 0.25
0.15 0.20 0.15 0.20 0.21 0.26 0.29 0.38 0.36 0.41 0.39 0.40 0.40 0.39 0.35 0.34 0.33 0.32 0.35 0.33 0.32 0.34 0.36 0.36 0.37 0.38 0.38 0.39 0.41 0.43 0.44 0.45 0.45 0.44 0.44 0.43 0.39 0.39 0.38 0.38 0.37 0.34 0.33 0.32 0.32 0.30 0.29 0.29 0.28 0.28 0.26 0.24 0.23 0.23
0.15 0.16 0.16 0.16 0.12 0.17 0.19 0.28 0.22 0.25 0.22 0.24 0.28 0.25 0.26 0.28 0.31 0.30 0.26 0.27 0.28 0.32 0.34 0.35 0.35 0.37 0.36 0.38 0.39 0.39 0.40 0.39 0.37 0.37 0.36 0.36 0.35 0.35 0.34 0.33 0.33 0.31 0.29 0.29 0.30 0.28 0.27 0.27 0.26 0.24 0.23 0.21 0.20 0.19
0.19 0.14 0.13 0.14 0.15 0.13 0.19 0.18 0.21 0.18 0.20 0.18 0.17 0.16 0.19 0.23 0.23 0.19 0.17 0.19 0.23 0.26 0.27 0.28 0.28 0.27 0.28 0.28 0.28 0.29 0.31 0.33 0.32 0.32 0.32 0.31 0.29 0.29 0.30 0.29 0.29 0.28 0.28 0.27 0.26 0.25 0.25 0.23 0.22 0.20 0.19 0.17 0.16 0.14
0.09 0.13 0.13 0.11 0.16 0.14 0.12 0.13 0.14 0.15 0.13 0.15 0.14 0.15 0.18 0.20 0.14 0.14 0.14 0.16 0.19 0.21 0.22 0.24 0.24 0.24 0.23 0.23 0.24 0.25 0.28 0.27 0.25 0.25 0.27 0.27 0.26 0.26 0.25 0.25 0.25 0.25 0.24 0.22 0.20 0.20 0.19 0.19 0.18 0.16 0.15 0.13 0.12 0.10
0.10 0.16 0.13 0.13 0.14 0.13 0.14 0.12 0.14 0.16 0.16 0.14 0.16 0.20 0.21 0.16 0.13 0.12 0.15 0.17 0.18 0.20 0.21 0.21 0.21 0.21 0.21 0.22 0.21 0.22 0.23 0.25 0.24 0.22 0.23 0.24 0.24 0.23 0.21 0.20 0.19 0.19 0.20 0.18 0.17 0.15 0.14 0.13 0.12 0.10 0.09 0.10 0.10 0.10
0.12 0.14 0.19 0.25 0.21 0.19 0.17 0.19 0.19 0.16 0.15 0.14 0.17 0.17 0.18 0.12 0.12 0.15 0.19 0.21 0.20 0.21 0.23 0.23 0.22 0.21 0.20 0.20 0.21 0.22 0.22 0.22 0.21 0.20 0.20 0.20 0.19 0.18 0.16 0.14 0.13 0.14 0.15 0.13 0.12 0.11 0.10 0.10 0.10 0.09 0.09 0.09 0.09 0.09
0.19 0.21 0.15 0.18 0.17 0.18 0.15 0.14 0.14 0.13 0.14 0.17 0.17 0.12 0.11 0.11 0.12 0.16 0.18 0.21 0.21 0.21 0.20 0.20 0.20 0.19 0.17 0.17 0.18 0.18 0.18 0.18 0.17 0.17 0.16 0.15 0.15 0.15 0.15 0.15 0.14 0.14 0.14 0.13 0.12 0.12 0.11 0.10 0.10 0.09 0.09 0.08 0.09 0.09
0.16 0.18 0.15 0.12 0.12 0.13 0.13 0.13 0.12 0.14 0.16 0.15 0.12 0.11 0.12 0.14 0.16 0.16 0.17 0.19 0.20 0.19 0.17 0.16 0.16 0.17 0.16 0.15 0.14 0.13 0.12 0.13 0.12 0.11 0.11 0.11 0.10 0.11 0.13 0.13 0.12 0.12 0.11 0.11 0.10 0.10 0.10 0.09 0.09 0.09 0.08 0.08 0.08 0.09
0.15 0.17 0.12 0.11 0.10 0.10 0.13 0.15 0.13 0.15 0.15 0.14 0.13 0.12 0.12 0.13 0.15 0.17 0.17 0.16 0.15 0.15 0.15 0.15 0.15 0.15 0.14 0.13 0.13 0.13 0.14 0.13 0.12 0.11 0.09 0.08 0.09 0.10 0.09 0.09 0.09 0.09 0.09 0.09 0.08 0.09 0.09 0.09 0.09 0.09 0.08 0.08 0.08 0.08
0.16 0.15 0.12 0.11 0.10 0.13 0.15 0.17 0.16 0.15 0.14 0.12 0.13 0.11 0.11 0.12 0.14 0.16 0.15 0.16 0.16 0.15 0.14 0.13 0.13 0.13 0.12 0.12 0.11 0.10 0.10 0.11 0.11 0.10 0.09 0.09 0.08 0.08 0.08 0.08 0.08 0.09 0.09 0.09 0.09 0.09 0.09 0.09 0.09 0.08 0.08 0.08 0.08 0.08
0.12 0.12 0.11 0.10 0.11 0.15 0.18 0.16 0.16 0.14 0.14 0.13 0.12 0.13 0.13 0.12 0.11 0.13 0.15 0.15 0.14 0.14 0.14 0.14 0.13 0.13 0.13 0.12 0.11 0.10 0.09 0.09 0.09 0.08 0.08 0.08 0.09 0.09 0.09 0.09 0.09 0.09 0.09 0.08 0.08 0.08 0.08 0.08 0.07 0.07 0.08 0.08 0.08 0.08
0.12 0.12 0.11 0.12 0.12 0.12 0.14 0.14 0.14 0.13 0.13 0.12 0.12 0.13 0.12 0.11 0.10 0.13 0.16 0.16 0.14 0.13 0.12 0.12 0.12 0.12 0.11 0.10 0.09 0.08 0.08 0.08 0.08 0.09 0.09 0.09 0.09 0.09 0.09 0.09 0.08 0.08 0.08 0.08 0.07 0.07 0.07 0.07 0.07 0.07 0.07 0.07 0.07 0.07

GFSWCAN_prec_pwat_045.txt.gz
Precipitable_Water
0.67 0.67 0.67 0.67 0.67 0.67 0.66 0.66 0.64 0.60 0.54 0.48 0.43 0.49 0.54 0.57 0.62 0.60 0.57 0.67 0.54 0.43 0.49 0.58 0.58 0.50 0.44 0.39 0.29 0.35 0.40 0.48 0.53 0.44 0.49 0.43 0.40 0.40 0.36 0.38 0.34 0.35 0.34 0.29 0.29 0.21 0.20 0.37 0.35 0.25 0.28 0.38 0.39 0.41
0.64 0.64 0.64 0.65 0.65 0.64 0.64 0.63 0.62 0.58 0.50 0.47 0.47 0.54 0.57 0.60 0.64 0.65 0.54 0.66 0.68 0.53 0.58 0.65 0.64 0.62 0.55 0.54 0.45 0.44 0.44 0.46 0.52 0.48 0.54 0.53 0.42 0.43 0.39 0.30 0.44 0.32 0.35 0.27 0.26 0.27 0.41 0.43 0.36 0.39 0.41 0.40 0.44 0.45
0.59 0.60 0.60 0.61 0.61 0.61 0.60 0.58 0.55 0.53 0.50 0.47 0.50 0.52 0.52 0.58 0.62 0.62 0.59 0.64 0.62 0.52 0.53 0.56 0.54 0.66 0.70 0.62 0.68 0.44 0.54 0.62 0.61 0.68 0.63 0.58 0.46 0.47 0.34 0.33 0.36 0.42 0.42 0.27 0.30 0.37 0.40 0.42 0.44 0.44 0.44 0.43 0.46 0.47
0.55 0.56 0.55 0.54 0.53 0.51 0.49 0.48 0.47 0.47 0.49 0.50 0.50 0.50 0.50 0.51 0.57 0.61 0.57 0.64 0.59 0.53 0.38 0.46 0.79 0.69 0.89 0.85 0.72 0.68 0.55 0.75 0.79 0.78 0.65 0.58 0.48 0.56 0.46 0.45 0.40 0.43 0.37 0.29 0.29 0.35 0.38 0.40 0.41 0.43 0.44 0.46 0.46 0.49
0.55 0.54 0.53 0.53 0.54 0.56 0.57 0.56 0.54 0.52 0.50 0.48 0.47 0.46 0.47 0.48 0.54 0.57 0.58 0.63 0.68 0.53 0.44 0.55 0.66 0.85 0.90 0.79 0.72 0.68 0.67 0.68 0.68 0.64 0.58 0.50 0.58 0.54 0.54 0.50 0.39 0.43 0.28 0.25 0.22 0.32 0.34 0.38 0.45 0.47 0.44 0.45 0.48 0.49
0.56 0.58 0.56 0.57 0.58 0.59 0.60 0.60 0.61 0.63 0.59 0.58 0.57 0.54 0.48 0.49 0.53 0.53 0.46 0.62 0.71 0.74 0.48 0.48 0.71 0.73 0.92 0.88 0.74 0.65 0.59 0.64 0.68 0.65 0.61 0.65 0.70 0.56 0.47 0.40 0.46 0.46 0.41 0.40 0.35 0.44 0.45 0.49 0.50 0.51 0.48 0.50 0.53 0.53
0.53 0.55 0.54 0.53 0.56 0.58 0.58 0.62 0.61 0.64 0.61 0.62 0.59 0.56 0.56 0.62 0.58 0.42 0.41 0.54 0.60 0.77 0.60 0.52 0.54 0.75 0.94 0.86 0.79 0.69 0.72 0.71 0.74 0.68 0.66 0.63 0.62 0.60 0.52 0.39 0.47 0.48 0.44 0.44 0.47 0.48 0.45 0.48 0.45 0.52 0.53 0.55 0.57 0.56
0.49 0.52 0.51 0.50 0.52 0.56 0.58 0.58 0.62 0.64 0.66 0.63 0.64 0.66 0.64 0.63 0.65 0.51 0.63 0.79 0.68 0.65 0.66 0.50 0.52 0.61 0.84 0.74 0.68 0.80 0.69 0.75 0.76 0.73 0.72 0.63 0.62 0.57 0.44 0.51 0.52 0.53 0.50 0.49 0.50 0.52 0.49 0.52 0.54 0.55 0.56 0.56 0.55 0.55
0.44 0.45 0.47 0.48 0.49 0.51 0.55 0.58 0.59 0.61 0.62 0.63 0.65 0.64 0.61 0.55 0.44 0.48 0.85 0.80 0.73 0.58 0.45 0.48 0.44 0.46 0.74 0.74 0.76 0.74 0.78 0.62 0.76 0.65 0.66 0.66 0.53 0.43 0.46 0.49 0.52 0.54 0.50 0.49 0.53 0.53 0.54 0.54 0.55 0.56 0.57 0.57 0.54 0.53
0.44 0.43 0.42 0.44 0.46 0.48 0.51 0.56 0.59 0.61 0.62 0.63 0.59 0.49 0.40 0.47 0.63 0.77 0.70 0.61 0.61 0.63 0.59 0.47 0.59 0.51 0.73 0.72 0.66 0.64 0.68 0.60 0.56 0.64 0.73 0.58 0.53 0.60 0.61 0.61 0.62 0.61 0.61 0.59 0.53 0.52 0.55 0.57 0.58 0.57 0.56 0.56 0.55 0.54
0.45 0.42 0.40 0.41 0.42 0.44 0.48 0.52 0.54 0.55 0.60 0.52 0.50 0.53 0.63 0.84 0.66 0.59 0.51 0.51 0.55 0.50 0.56 0.60 0.66 0.60 0.77 0.61 0.61 0.69 0.60 0.60 0.50 0.57 0.57 0.54 0.51 0.57 0.65 0.64 0.66 0.66 0.66 0.65 0.65 0.64 0.67 0.65 0.62 0.60 0.58 0.56 0.54 0.54
0.54 0.45 0.42 0.41 0.42 0.44 0.50 0.56 0.59 0.60 0.62 0.63 0.75 0.74 0.71 0.60 0.54 0.48 0.47 0.53 0.51 0.48 0.60 0.60 0.64 0.67 0.71 0.77 0.64 0.63 0.54 0.54 0.41 0.57 0.50 0.42 0.48 0.59 0.63 0.64 0.65 0.66 0.65 0.64 0.67 0.69 0.69 0.66 0.63 0.60 0.57 0.54 0.54 0.53
0.61 0.55 0.58 0.62 0.62 0.62 0.62 0.70 0.74 0.77 0.82 0.83 0.67 0.57 0.56 0.55 0.44 0.41 0.39 0.44 0.44 0.53 0.59 0.60 0.56 0.61 0.64 0.66 0.59 0.54 0.45 0.39 0.51 0.40 0.35 0.38 0.45 0.51 0.55 0.58 0.59 0.62 0.63 0.67 0.68 0.67 0.64 0.61 0.60 0.57 0.54 0.54 0.52 0.47
0.74 0.72 0.78 0.80 0.80 0.78 0.80 0.83 0.83 0.86 0.81 0.62 0.55 0.45 0.46 0.42 0.44 0.46 0.46 0.47 0.52 0.54 0.56 0.57 0.54 0.51 0.53 0.47 0.48 0.38 0.43 0.44 0.33 0.28 0.30 0.40 0.50 0.56 0.60 0.64 0.64 0.62 0.63 0.62 0.59 0.58 0.57 0.57 0.56 0.55 0.53 0.51 0.46 0.41
0.88 0.87 0.85 0.85 0.87 0.87 0.87 0.90 0.90 0.84 0.70 0.57 0.54 0.40 0.42 0.48 0.51 0.51 0.53 0.53 0.55 0.58 0.56 0.54 0.54 0.55 0.48 0.44 0.44 0.41 0.36 0.32 0.34 0.33 0.41 0.50 0.55 0.59 0.61 0.62 0.61 0.60 0.59 0.58 0.59 0.58 0.56 0.54 0.51 0.49 0.47 0.45 0.41 0.37
0.90 0.88 0.85 0.89 0.89 0.90 0.85 0.80 0.75 0.72 0.62 0.53 0.48 0.44 0.47 0.45 0.46 0.49 0.49 0.49 0.58 0.58 0.58 0.55 0.47 0.44 0.44 0.45 0.40 0.38 0.34 0.31 0.37 0.44 0.51 0.54 0.54 0.56 0.56 0.57 0.58 0.59 0.59 0.58 0.57 0.55 0.54 0.52 0.49 0.46 0.44 0.40 0.37 0.34
0.86 0.75 0.82 0.84 0.85 0.86 0.82 0.76 0.68 0.56 0.50 0.46 0.43 0.50 0.49 0.48 0.46 0.49 0.53 0.54 0.62 0.57 0.48 0.49 0.40 0.39 0.48 0.39 0.37 0.42 0.37 0.43 0.48 0.52 0.55 0.56 0.55 0.56 0.59 0.59 0.59 0.58 0.56 0.55 0.53 0.52 0.51 0.50 0.47 0.43 0.38 0.37 0.35 0.34
0.75 0.79 0.82 0.79 0.79 0.75 0.71 0.69 0.57 0.49 0.43 0.46 0.42 0.45 0.48 0.50 0.49 0.51 0.55 0.59 0.58 0.54 0.51 0.44 0.48 0.39 0.35 0.33 0.34 0.41 0.46 0.50 0.54 0.54 0.55 0.57 0.57 0.57 0.58 0.56 0.55 0.54 0.52 0.51 0.50 0.48 0.47 0.44 0.40 0.37 0.36 0.35 0.33 0.32
0.66 0.71 0.72 0.71 0.70 0.65 0.57 0.55 0.55 0.42 0.43 0.46 0.48 0.49 0.48 0.48 0.51 0.53 0.54 0.56 0.58 0.57 0.51 0.45 0.37 0.33 0.34 0.38 0.39 0.42 0.46 0.48 0.48 0.50 0.52 0.55 0.56 0.54 0.54 0.53 0.52 0.50 0.49 0.47 0.46 0.43 0.41 0.40 0.39 0.38 0.35 0.34 0.32 0.32
0.36 0.47 0.63 0.65 0.61 0.52 0.48 0.49 0.56 0.46 0.40 0.44 0.45 0.43 0.44 0.43 0.45 0.46 0.46 0.48 0.49 0.46 0.39 0.35 0.33 0.35 0.36 0.39 0.42 0.44 0.46 0.50 0.48 0.45 0.46 0.48 0.51 0.50 0.49 0.48 0.47 0.46 0.45 0.43 0.42 0.41 0.39 0.37 0.36 0.35 0.34 0.33 0.31 0.28
0.25 0.32 0.40 0.49 0.51 0.51 0.48 0.46 0.44 0.46 0.45 0.42 0.45 0.43 0.38 0.39 0.38 0.38 0.38 0.40 0.38 0.36 0.33 0.35 0.35 0.37 0.40 0.41 0.43 0.45 0.45 0.46 0.44 0.44 0.43 0.41 0.44 0.45 0.44 0.44 0.44 0.42 0.39 0.38 0.36 0.35 0.35 0.33 0.33 0.32 0.31 0.29 0.28 0.27
0.16 0.20 0.18 0.25 0.24 0.30 0.32 0.39 0.38 0.41 0.39 0.39 0.37 0.38 0.35 0.32 0.30 0.30 0.32 0.31 0.31 0.32 0.34 0.34 0.35 0.36 0.36 0.37 0.39 0.41 0.42 0.42 0.42 0.42 0.42 0.41 0.38 0.38 0.38 0.38 0.37 0.35 0.35 0.34 0.33 0.31 0.30 0.30 0.30 0.29 0.28 0.27 0.27 0.26
0.16 0.17 0.15 0.15 0.13 0.18 0.20 0.29 0.23 0.25 0.22 0.24 0.26 0.23 0.24 0.25 0.26 0.27 0.24 0.24 0.25 0.29 0.31 0.33 0.34 0.35 0.34 0.36 0.37 0.37 0.38 0.37 0.36 0.36 0.36 0.35 0.35 0.35 0.34 0.33 0.33 0.31 0.29 0.29 0.29 0.28 0.27 0.28 0.27 0.26 0.25 0.24 0.23 0.21
0.17 0.13 0.12 0.12 0.13 0.12 0.18 0.17 0.20 0.20 0.19 0.18 0.18 0.16 0.19 0.20 0.20 0.17 0.16 0.18 0.22 0.25 0.27 0.28 0.30 0.29 0.30 0.30 0.30 0.31 0.32 0.33 0.32 0.32 0.32 0.31 0.29 0.29 0.29 0.28 0.28 0.28 0.27 0.26 0.26 0.25 0.24 0.24 0.23 0.22 0.21 0.19 0.18 0.17
0.09 0.12 0.12 0.10 0.15 0.12 0.12 0.13 0.14 0.14 0.12 0.14 0.13 0.15 0.17 0.17 0.12 0.12 0.12 0.15 0.17 0.19 0.20 0.22 0.22 0.22 0.21 0.21 0.22 0.23 0.26 0.25 0.24 0.23 0.25 0.26 0.25 0.24 0.24 0.24 0.23 0.23 0.22 0.20 0.20 0.19 0.19 0.18 0.17 0.16 0.15 0.14 0.13 0.13
0.09 0.16 0.13 0.12 0.14 0.13 0.13 0.11 0.13 0.13 0.14 0.14 0.15 0.19 0.17 0.14 0.12 0.11 0.14 0.16 0.17 0.18 0.19 0.20 0.20 0.19 0.19 0.20 0.19 0.20 0.21 0.22 0.21 0.20 0.20 0.21 0.20 0.19 0.17 0.16 0.16 0.16 0.17 0.16 0.15 0.13 0.13 0.12 0.11 0.11 0.10 0.10 0.10 0.10
0.11 0.13 0.17 0.22 0.20 0.18 0.16 0.16 0.16 0.14 0.13 0.13 0.15 0.15 0.15 0.11 0.11 0.14 0.18 0.19 0.19 0.20 0.21 0.20 0.19 0.18 0.17 0.17 0.18 0.19 0.18 0.18 0.17 0.16 0.16 0.16 0.15 0.14 0.13 0.12 0.11 0.12 0.14 0.13 0.12 0.11 0.11 0.10 0.10 0.09 0.09 0.09 0.09 0.09
0.18 0.19 0.13 0.15 0.15 0.16 0.12 0.12 0.11 0.10 0.12 0.15 0.14 0.10 0.10 0.10 0.10 0.15 0.16 0.19 0.19 0.19 0.18 0.17 0.16 0.15 0.14 0.15 0.15 0.16 0.15 0.15 0.15 0.14 0.14 0.13 0.13 0.13 0.13 0.13 0.13 0.12 0.12 0.11 0.10 0.10 0.09 0.08 0.08 0.08 0.08 0.07 0.08 0.08
0.15 0.16 0.14 0.11 0.11 0.11 0.11 0.10 0.10 0.12 0.14 0.13 0.10 0.09 0.10 0.12 0.14 0.15 0.16 0.17 0.18 0.17 0.15 0.15 0.15 0.15 0.14 0.13 0.12 0.12 0.12 0.12 0.11 0.09 0.09 0.08 0.08 0.08 0.09 0.09 0.08 0.08 0.08 0.08 0.08 0.09 0.10 0.10 0.09 0.09 0.09 0.09 0.09 0.09
0.13 0.15 0.10 0.10 0.09 0.09 0.11 0.13 0.12 0.13 0.13 0.12 0.11 0.11 0.11 0.12 0.14 0.16 0.16 0.15 0.14 0.13 0.14 0.14 0.14 0.14 0.12 0.12 0.11 0.11 0.12 0.11 0.10 0.08 0.07 0.06 0.06 0.07 0.07 0.07 0.08 0.08 0.08 0.08 0.08 0.08 0.08 0.08 0.08 0.08 0.08 0.08 0.08 0.08
0.15 0.13 0.10 0.10 0.10 0.13 0.14 0.14 0.13 0.13 0.12 0.11 0.11 0.10 0.10 0.12 0.13 0.15 0.15 0.15 0.15 0.14 0.14 0.13 0.13 0.13 0.12 0.11 0.10 0.09 0.08 0.09 0.08 0.08 0.08 0.08 0.08 0.08 0.08 0.09 0.08 0.08 0.08 0.07 0.07 0.07 0.07 0.07 0.07 0.07 0.07 0.07 0.07 0.07
0.12 0.11 0.10 0.09 0.11 0.14 0.15 0.14 0.13 0.12 0.12 0.12 0.11 0.12 0.12 0.11 0.10 0.13 0.15 0.15 0.14 0.13 0.13 0.13 0.12 0.11 0.11 0.10 0.09 0.08 0.08 0.08 0.08 0.08 0.08 0.08 0.08 0.08 0.08 0.08 0.08 0.08 0.07 0.07 0.07 0.07 0.06 0.06 0.06 0.06 0.06 0.06 0.07 0.07
0.12 0.11 0.11 0.11 0.11 0.12 0.14 0.14 0.12 0.11 0.11 0.11 0.11 0.12 0.12 0.11 0.10 0.12 0.15 0.14 0.13 0.12 0.11 0.10 0.10 0.09 0.09 0.08 0.08 0.08 0.08 0.08 0.09 0.09 0.09 0.09 0.08 0.08 0.07 0.07 0.07 0.07 0.07 0.06 0.06 0.06 0.06 0.06 0.06 0.06 0.06 0.06 0.06 0.06

GFSWCAN_prec_pwat_048.txt.gz
Precipitable_Water
0.60 0.59 0.59 0.58 0.56 0.59 0.71 0.72 0.72 0.71 0.71 0.70 0.69 0.68 0.65 0.60 0.57 0.50 0.43 0.60 0.53 0.41 0.52 0.59 0.52 0.38 0.37 0.31 0.21 0.28 0.28 0.30 0.34 0.27 0.34 0.45 0.47 0.48 0.44 0.44 0.37 0.34 0.33 0.32 0.32 0.27 0.22 0.41 0.34 0.23 0.27 0.34 0.34 0.36
0.68 0.68 0.68 0.69 0.70 0.71 0.71 0.70 0.69 0.69 0.69 0.68 0.67 0.64 0.61 0.60 0.56 0.51 0.43 0.56 0.62 0.51 0.51 0.67 0.66 0.66 0.53 0.44 0.35 0.39 0.27 0.28 0.28 0.34 0.43 0.48 0.46 0.48 0.43 0.36 0.48 0.36 0.39 0.34 0.34 0.33 0.46 0.44 0.31 0.35 0.38 0.35 0.37 0.38
0.65 0.66 0.66 0.66 0.67 0.67 0.68 0.67 0.67 0.65 0.65 0.64 0.62 0.59 0.57 0.54 0.52 0.51 0.50 0.56 0.56 0.48 0.45 0.52 0.52 0.69 0.73 0.64 0.60 0.32 0.41 0.54 0.42 0.42 0.44 0.47 0.43 0.50 0.38 0.41 0.44 0.47 0.49 0.39 0.41 0.44 0.43 0.39 0.40 0.44 0.42 0.39 0.43 0.45
0.62 0.63 0.64 0.65 0.65 0.65 0.65 0.65 0.64 0.63 0.61 0.57 0.54 0.50 0.45 0.46 0.47 0.54 0.50 0.57 0.58 0.49 0.34 0.42 0.67 0.60 0.77 0.74 0.69 0.63 0.53 0.61 0.63 0.59 0.43 0.44 0.45 0.56 0.46 0.49 0.46 0.47 0.47 0.42 0.40 0.45 0.41 0.37 0.38 0.39 0.39 0.43 0.43 0.46
0.57 0.58 0.60 0.61 0.62 0.62 0.62 0.62 0.62 0.60 0.54 0.49 0.52 0.58 0.62 0.61 0.60 0.58 0.60 0.67 0.69 0.49 0.32 0.43 0.54 0.62 0.69 0.72 0.65 0.67 0.60 0.50 0.53 0.49 0.50 0.45 0.56 0.55 0.58 0.57 0.49 0.54 0.46 0.42 0.35 0.41 0.29 0.29 0.36 0.41 0.39 0.40 0.43 0.42
0.55 0.54 0.53 0.51 0.51 0.53 0.54 0.55 0.54 0.53 0.52 0.52 0.56 0.56 0.56 0.60 0.61 0.57 0.45 0.61 0.68 0.65 0.42 0.34 0.56 0.58 0.67 0.74 0.67 0.62 0.64 0.54 0.55 0.49 0.52 0.61 0.68 0.59 0.49 0.45 0.55 0.57 0.59 0.58 0.46 0.45 0.39 0.40 0.41 0.45 0.44 0.45 0.46 0.46
0.58 0.57 0.58 0.59 0.59 0.55 0.52 0.51 0.49 0.48 0.50 0.51 0.51 0.52 0.51 0.55 0.56 0.46 0.42 0.52 0.62 0.65 0.49 0.38 0.38 0.59 0.74 0.75 0.75 0.71 0.72 0.62 0.59 0.56 0.53 0.59 0.64 0.65 0.60 0.45 0.53 0.55 0.58 0.58 0.58 0.53 0.43 0.43 0.40 0.47 0.50 0.50 0.52 0.53
0.56 0.57 0.58 0.58 0.58 0.58 0.58 0.57 0.53 0.51 0.51 0.51 0.51 0.48 0.48 0.51 0.51 0.49 0.57 0.61 0.60 0.57 0.53 0.38 0.36 0.46 0.72 0.58 0.61 0.79 0.64 0.64 0.59 0.55 0.58 0.56 0.64 0.63 0.51 0.55 0.58 0.60 0.60 0.59 0.60 0.57 0.52 0.53 0.52 0.51 0.52 0.53 0.51 0.51
0.51 0.54 0.56 0.58 0.59 0.59 0.59 0.58 0.59 0.59 0.58 0.58 0.56 0.52 0.53 0.45 0.40 0.45 0.60 0.61 0.58 0.49 0.41 0.42 0.39 0.40 0.73 0.64 0.75 0.72 0.70 0.53 0.63 0.50 0.52 0.58 0.52 0.45 0.51 0.55 0.56 0.61 0.57 0.53 0.59 0.59 0.59 0.55 0.53 0.53 0.53 0.54 0.53 0.54
0.46 0.48 0.51 0.54 0.55 0.59 0.60 0.60 0.58 0.59 0.60 0.57 0.56 0.47 0.39 0.46 0.57 0.63 0.58 0.46 0.44 0.46 0.46 0.39 0.51 0.44 0.58 0.58 0.59 0.64 0.66 0.57 0.48 0.50 0.61 0.51 0.49 0.58 0.60 0.67 0.68 0.64 0.60 0.57 0.55 0.54 0.55 0.54 0.54 0.54 0.56 0.60 0.62 0.62
0.41 0.44 0.47 0.49 0.54 0.56 0.57 0.58 0.60 0.60 0.60 0.52 0.43 0.39 0.52 0.63 0.59 0.54 0.45 0.44 0.45 0.40 0.46 0.42 0.46 0.46 0.62 0.48 0.46 0.58 0.58 0.58 0.45 0.50 0.51 0.45 0.48 0.57 0.69 0.70 0.70 0.68 0.66 0.66 0.66 0.65 0.64 0.63 0.61 0.61 0.63 0.67 0.67 0.65
0.41 0.43 0.47 0.49 0.54 0.59 0.63 0.63 0.63 0.60 0.56 0.53 0.57 0.57 0.57 0.53 0.48 0.42 0.39 0.42 0.39 0.36 0.46 0.43 0.45 0.51 0.56 0.67 0.58 0.58 0.53 0.56 0.44 0.60 0.50 0.42 0.55 0.69 0.72 0.72 0.74 0.75 0.72 0.72 0.71 0.69 0.68 0.68 0.67 0.66 0.67 0.66 0.65 0.62
0.47 0.47 0.46 0.48 0.52 0.57 0.61 0.64 0.67 0.73 0.72 0.67 0.62 0.52 0.51 0.47 0.39 0.38 0.34 0.39 0.42 0.50 0.54 0.57 0.55 0.62 0.64 0.67 0.58 0.55 0.48 0.47 0.60 0.49 0.46 0.50 0.58 0.66 0.68 0.68 0.68 0.68 0.68 0.68 0.68 0.69 0.68 0.67 0.67 0.66 0.64 0.62 0.59 0.56
0.53 0.53 0.52 0.54 0.56 0.59 0.64 0.68 0.69 0.72 0.64 0.54 0.49 0.39 0.42 0.37 0.41 0.44 0.45 0.48 0.55 0.57 0.57 0.59 0.57 0.56 0.59 0.54 0.54 0.46 0.51 0.53 0.42 0.39 0.41 0.49 0.52 0.56 0.60 0.63 0.63 0.64 0.66 0.66 0.64 0.64 0.64 0.65 0.63 0.61 0.59 0.57 0.56 0.52
0.63 0.66 0.67 0.68 0.68 0.70 0.71 0.72 0.74 0.72 0.61 0.51 0.51 0.38 0.40 0.48 0.51 0.53 0.56 0.55 0.57 0.60 0.60 0.56 0.57 0.58 0.51 0.48 0.49 0.47 0.41 0.36 0.38 0.36 0.41 0.47 0.52 0.55 0.57 0.61 0.63 0.64 0.64 0.63 0.63 0.60 0.59 0.58 0.57 0.56 0.56 0.55 0.48 0.43
0.79 0.75 0.76 0.81 0.80 0.79 0.79 0.77 0.74 0.69 0.59 0.52 0.47 0.43 0.48 0.46 0.46 0.49 0.51 0.51 0.58 0.57 0.59 0.55 0.48 0.45 0.43 0.45 0.40 0.36 0.33 0.31 0.37 0.44 0.51 0.54 0.55 0.57 0.59 0.61 0.61 0.61 0.61 0.60 0.59 0.57 0.57 0.55 0.54 0.52 0.50 0.46 0.44 0.43
0.80 0.72 0.81 0.82 0.82 0.81 0.78 0.69 0.63 0.53 0.48 0.45 0.42 0.48 0.47 0.46 0.44 0.46 0.50 0.52 0.61 0.56 0.46 0.48 0.39 0.37 0.45 0.37 0.34 0.38 0.34 0.39 0.45 0.49 0.54 0.55 0.55 0.56 0.58 0.59 0.59 0.58 0.57 0.56 0.54 0.53 0.52 0.52 0.50 0.47 0.43 0.42 0.40 0.37
0.76 0.81 0.83 0.82 0.78 0.74 0.69 0.66 0.53 0.46 0.40 0.43 0.39 0.42 0.44 0.45 0.44 0.46 0.50 0.55 0.55 0.51 0.47 0.40 0.44 0.35 0.33 0.31 0.32 0.37 0.40 0.45 0.49 0.50 0.52 0.55 0.56 0.57 0.57 0.55 0.55 0.54 0.52 0.51 0.51 0.50 0.49 0.47 0.45 0.43 0.41 0.39 0.37 0.35
0.80 0.81 0.82 0.82 0.79 0.66 0.54 0.52 0.52 0.39 0.40 0.42 0.42 0.44 0.44 0.43 0.46 0.49 0.50 0.52 0.54 0.54 0.48 0.41 0.34 0.31 0.32 0.35 0.36 0.39 0.41 0.43 0.44 0.47 0.49 0.52 0.52 0.52 0.52 0.52 0.51 0.50 0.49 0.47 0.46 0.45 0.44 0.44 0.42 0.41 0.39 0.37 0.34 0.33
0.66 0.67 0.66 0.66 0.65 0.53 0.47 0.47 0.54 0.44 0.39 0.41 0.43 0.40 0.39 0.39 0.42 0.43 0.44 0.45 0.46 0.44 0.37 0.32 0.31 0.32 0.34 0.36 0.39 0.39 0.41 0.45 0.45 0.43 0.43 0.45 0.47 0.48 0.47 0.46 0.45 0.45 0.44 0.43 0.42 0.41 0.40 0.39 0.39 0.38 0.36 0.35 0.33 0.32
0.41 0.54 0.61 0.60 0.53 0.52 0.48 0.45 0.43 0.45 0.44 0.39 0.41 0.38 0.35 0.36 0.35 0.35 0.35 0.39 0.37 0.34 0.31 0.32 0.33 0.35 0.37 0.38 0.40 0.41 0.41 0.43 0.41 0.41 0.39 0.39 0.41 0.42 0.42 0.42 0.42 0.41 0.39 0.38 0.36 0.36 0.35 0.34 0.34 0.34 0.33 0.31 0.31 0.30
0.29 0.37 0.36 0.41 0.36 0.35 0.34 0.39 0.37 0.39 0.36 0.35 0.33 0.33 0.29 0.26 0.25 0.26 0.29 0.28 0.27 0.30 0.32 0.32 0.33 0.34 0.34 0.35 0.37 0.39 0.39 0.40 0.40 0.39 0.39 0.39 0.36 0.36 0.36 0.36 0.36 0.34 0.34 0.33 0.32 0.31 0.31 0.31 0.31 0.30 0.29 0.28 0.28 0.27
0.17 0.17 0.15 0.17 0.18 0.22 0.23 0.30 0.23 0.25 0.21 0.22 0.24 0.20 0.19 0.18 0.20 0.21 0.18 0.19 0.21 0.26 0.29 0.31 0.32 0.33 0.33 0.34 0.35 0.35 0.36 0.35 0.34 0.34 0.34 0.34 0.33 0.33 0.33 0.32 0.32 0.30 0.29 0.29 0.29 0.28 0.27 0.27 0.27 0.26 0.25 0.25 0.24 0.23
0.15 0.12 0.10 0.11 0.13 0.13 0.19 0.18 0.21 0.19 0.19 0.18 0.17 0.15 0.16 0.16 0.17 0.14 0.13 0.16 0.19 0.22 0.23 0.24 0.26 0.26 0.27 0.28 0.28 0.29 0.30 0.31 0.30 0.30 0.31 0.30 0.28 0.28 0.28 0.28 0.27 0.27 0.26 0.26 0.25 0.24 0.23 0.22 0.22 0.21 0.19 0.18 0.17 0.16
0.08 0.12 0.11 0.10 0.14 0.12 0.12 0.13 0.14 0.14 0.13 0.14 0.13 0.14 0.15 0.15 0.11 0.11 0.11 0.13 0.15 0.17 0.18 0.19 0.19 0.20 0.19 0.19 0.20 0.21 0.23 0.23 0.22 0.21 0.22 0.23 0.22 0.21 0.20 0.20 0.20 0.19 0.19 0.17 0.16 0.15 0.15 0.14 0.13 0.12 0.12 0.11 0.11 0.10
0.09 0.15 0.13 0.13 0.14 0.12 0.13 0.11 0.12 0.13 0.13 0.13 0.14 0.17 0.15 0.12 0.10 0.10 0.12 0.15 0.16 0.17 0.18 0.18 0.18 0.18 0.18 0.19 0.17 0.17 0.18 0.18 0.17 0.15 0.15 0.15 0.14 0.13 0.12 0.11 0.11 0.11 0.13 0.12 0.11 0.10 0.10 0.10 0.09 0.09 0.08 0.08 0.08 0.08
0.10 0.12 0.16 0.20 0.18 0.16 0.14 0.15 0.15 0.13 0.12 0.12 0.14 0.14 0.12 0.09 0.09 0.12 0.16 0.17 0.17 0.18 0.18 0.17 0.17 0.16 0.16 0.16 0.16 0.15 0.15 0.14 0.13 0.12 0.13 0.12 0.12 0.12 0.11 0.10 0.09 0.10 0.11 0.10 0.09 0.08 0.07 0.07 0.07 0.07 0.07 0.07 0.08 0.08
0.16 0.16 0.11 0.13 0.13 0.14 0.11 0.10 0.10 0.10 0.11 0.13 0.12 0.09 0.09 0.08 0.09 0.14 0.16 0.17 0.18 0.17 0.16 0.16 0.15 0.14 0.14 0.13 0.13 0.13 0.13 0.14 0.13 0.12 0.11 0.11 0.10 0.10 0.09 0.08 0.08 0.08 0.08 0.08 0.08 0.08 0.09 0.08 0.08 0.08 0.07 0.07 0.07 0.08
0.14 0.15 0.12 0.09 0.10 0.10 0.10 0.09 0.09 0.11 0.12 0.11 0.08 0.08 0.09 0.11 0.13 0.14 0.15 0.16 0.17 0.16 0.14 0.14 0.13 0.14 0.13 0.12 0.12 0.12 0.11 0.10 0.08 0.07 0.06 0.05 0.05 0.06 0.07 0.07 0.08 0.08 0.08 0.08 0.08 0.08 0.08 0.07 0.07 0.07 0.07 0.07 0.07 0.07
0.12 0.14 0.09 0.09 0.08 0.08 0.10 0.12 0.10 0.11 0.11 0.11 0.10 0.10 0.10 0.11 0.13 0.15 0.15 0.14 0.14 0.13 0.13 0.13 0.13 0.12 0.11 0.11 0.10 0.10 0.10 0.09 0.08 0.06 0.05 0.05 0.06 0.08 0.08 0.08 0.08 0.08 0.07 0.07 0.07 0.07 0.07 0.06 0.06 0.06 0.06 0.06 0.06 0.06
0.14 0.11 0.09 0.10 0.10 0.12 0.12 0.12 0.12 0.12 0.11 0.10 0.10 0.10 0.10 0.11 0.13 0.15 0.14 0.14 0.14 0.14 0.14 0.13 0.13 0.12 0.11 0.10 0.08 0.07 0.06 0.07 0.07 0.07 0.08 0.08 0.08 0.08 0.08 0.07 0.07 0.07 0.07 0.07 0.06 0.06 0.06 0.05 0.05 0.05 0.05 0.05 0.05 0.06
0.12 0.10 0.09 0.08 0.10 0.13 0.14 0.13 0.12 0.11 0.11 0.10 0.10 0.10 0.10 0.10 0.10 0.12 0.14 0.14 0.13 0.12 0.12 0.12 0.11 0.09 0.09 0.08 0.08 0.07 0.07 0.08 0.08 0.08 0.08 0.08 0.08 0.07 0.07 0.07 0.07 0.07 0.07 0.06 0.06 0.06 0.05 0.05 0.05 0.05 0.05 0.05 0.05 0.05
0.11 0.11 0.10 0.10 0.10 0.10 0.12 0.12 0.11 0.10 0.10 0.10 0.10 0.11 0.10 0.10 0.09 0.11 0.14 0.14 0.12 0.11 0.10 0.09 0.09 0.08 0.08 0.08 0.08 0.08 0.08 0.08 0.08 0.08 0.08 0.08 0.07 0.07 0.07 0.07 0.07 0.07 0.06 0.06 0.06 0.05 0.05 0.05 0.05 0.05 0.05 0.05 0.05 0.06

GFSWCAN_prec_pwat_051.txt.gz
Precipitable_Water
0.54 0.56 0.63 0.63 0.62 0.63 0.64 0.64 0.64 0.68 0.73 0.73 0.73 0.72 0.71 0.70 0.69 0.63 0.60 0.63 0.50 0.39 0.44 0.51 0.45 0.39 0.38 0.35 0.26 0.32 0.29 0.27 0.29 0.23 0.25 0.29 0.31 0.35 0.39 0.49 0.45 0.40 0.36 0.33 0.32 0.27 0.23 0.38 0.38 0.30 0.35 0.36 0.31 0.34
0.61 0.58 0.59 0.61 0.60 0.60 0.64 0.67 0.69 0.73 0.73 0.72 0.71 0.70 0.70 0.68 0.69 0.64 0.52 0.61 0.62 0.45 0.44 0.64 0.60 0.62 0.50 0.41 0.36 0.34 0.21 0.21 0.23 0.23 0.27 0.29 0.30 0.36 0.35 0.34 0.56 0.41 0.43 0.36 0.36 0.33 0.44 0.44 0.42 0.44 0.45 0.33 0.34 0.37
0.67 0.67 0.59 0.58 0.59 0.63 0.69 0.72 0.72 0.72 0.72 0.71 0.71 0.70 0.68 0.69 0.67 0.61 0.52 0.55 0.50 0.41 0.41 0.48 0.52 0.69 0.72 0.60 0.51 0.28 0.29 0.36 0.29 0.33 0.28 0.25 0.25 0.33 0.31 0.35 0.46 0.56 0.57 0.44 0.42 0.45 0.46 0.45 0.46 0.52 0.47 0.36 0.42 0.41
0.66 0.67 0.68 0.69 0.70 0.71 0.71 0.71 0.71 0.70 0.71 0.71 0.70 0.70 0.69 0.70 0.66 0.58 0.49 0.49 0.45 0.41 0.35 0.39 0.62 0.59 0.76 0.73 0.60 0.51 0.46 0.51 0.59 0.44 0.31 0.34 0.26 0.36 0.34 0.38 0.44 0.54 0.54 0.47 0.44 0.48 0.47 0.48 0.51 0.50 0.44 0.42 0.41 0.43
0.64 0.65 0.67 0.67 0.67 0.68 0.68 0.68 0.68 0.69 0.69 0.68 0.68 0.68 0.67 0.64 0.64 0.57 0.51 0.49 0.46 0.41 0.31 0.35 0.48 0.65 0.71 0.73 0.67 0.59 0.50 0.49 0.47 0.45 0.38 0.30 0.36 0.37 0.40 0.41 0.39 0.51 0.49 0.43 0.40 0.50 0.48 0.47 0.53 0.48 0.40 0.38 0.40 0.41
0.61 0.62 0.64 0.65 0.65 0.64 0.64 0.65 0.65 0.66 0.65 0.66 0.65 0.63 0.61 0.59 0.56 0.47 0.37 0.47 0.54 0.54 0.40 0.31 0.45 0.49 0.64 0.73 0.69 0.63 0.57 0.51 0.51 0.45 0.46 0.50 0.56 0.45 0.32 0.27 0.40 0.51 0.57 0.59 0.54 0.60 0.58 0.58 0.55 0.49 0.41 0.40 0.43 0.45
0.53 0.56 0.61 0.62 0.63 0.61 0.60 0.58 0.55 0.53 0.53 0.53 0.52 0.52 0.51 0.53 0.50 0.37 0.39 0.51 0.59 0.62 0.46 0.33 0.30 0.51 0.61 0.67 0.64 0.60 0.62 0.56 0.52 0.45 0.39 0.44 0.50 0.52 0.42 0.33 0.42 0.50 0.60 0.63 0.66 0.62 0.56 0.57 0.50 0.52 0.49 0.46 0.49 0.50
0.58 0.57 0.51 0.51 0.56 0.58 0.58 0.54 0.52 0.52 0.56 0.57 0.58 0.61 0.55 0.56 0.55 0.52 0.61 0.62 0.64 0.53 0.49 0.37 0.38 0.45 0.65 0.52 0.52 0.68 0.57 0.57 0.53 0.48 0.45 0.40 0.49 0.49 0.37 0.47 0.55 0.57 0.59 0.60 0.64 0.64 0.61 0.60 0.58 0.59 0.54 0.52 0.51 0.52
0.57 0.56 0.56 0.52 0.48 0.47 0.48 0.49 0.51 0.52 0.53 0.54 0.54 0.58 0.57 0.50 0.45 0.48 0.67 0.62 0.62 0.55 0.37 0.40 0.39 0.38 0.66 0.58 0.60 0.60 0.66 0.50 0.59 0.47 0.46 0.48 0.42 0.37 0.44 0.49 0.53 0.58 0.60 0.66 0.72 0.69 0.63 0.61 0.58 0.59 0.59 0.58 0.56 0.55
0.58 0.59 0.59 0.58 0.58 0.54 0.50 0.51 0.50 0.50 0.49 0.49 0.46 0.38 0.32 0.39 0.57 0.59 0.55 0.42 0.43 0.46 0.45 0.37 0.52 0.46 0.59 0.57 0.50 0.52 0.61 0.53 0.46 0.49 0.57 0.45 0.37 0.48 0.56 0.57 0.59 0.60 0.64 0.65 0.59 0.59 0.58 0.57 0.57 0.57 0.59 0.62 0.62 0.62
0.55 0.58 0.61 0.61 0.61 0.60 0.57 0.53 0.51 0.54 0.51 0.42 0.35 0.34 0.43 0.57 0.45 0.41 0.33 0.32 0.34 0.32 0.38 0.37 0.36 0.37 0.59 0.43 0.43 0.52 0.52 0.55 0.45 0.48 0.46 0.40 0.38 0.48 0.55 0.58 0.61 0.63 0.64 0.65 0.69 0.68 0.66 0.63 0.62 0.61 0.62 0.64 0.64 0.64
0.51 0.55 0.59 0.60 0.59 0.59 0.57 0.57 0.57 0.52 0.49 0.55 0.54 0.53 0.53 0.43 0.39 0.33 0.28 0.30 0.31 0.25 0.38 0.34 0.34 0.38 0.45 0.56 0.47 0.50 0.45 0.48 0.39 0.59 0.49 0.38 0.48 0.57 0.57 0.58 0.62 0.67 0.68 0.68 0.71 0.68 0.68 0.67 0.68 0.67 0.67 0.66 0.67 0.67
0.49 0.53 0.60 0.61 0.61 0.63 0.59 0.62 0.64 0.66 0.65 0.61 0.51 0.43 0.43 0.41 0.33 0.31 0.26 0.32 0.31 0.35 0.38 0.39 0.35 0.42 0.48 0.53 0.46 0.46 0.39 0.41 0.55 0.46 0.42 0.46 0.56 0.62 0.64 0.66 0.70 0.75 0.76 0.76 0.74 0.75 0.74 0.72 0.72 0.68 0.65 0.67 0.68 0.65
0.51 0.53 0.56 0.61 0.64 0.66 0.68 0.66 0.67 0.67 0.58 0.46 0.42 0.34 0.36 0.34 0.36 0.37 0.39 0.41 0.46 0.44 0.44 0.47 0.46 0.47 0.52 0.48 0.51 0.44 0.49 0.50 0.41 0.36 0.37 0.50 0.57 0.63 0.66 0.68 0.68 0.67 0.70 0.69 0.69 0.69 0.68 0.67 0.67 0.68 0.66 0.63 0.61 0.58
0.55 0.57 0.59 0.61 0.62 0.64 0.66 0.66 0.68 0.65 0.54 0.44 0.44 0.34 0.35 0.42 0.45 0.47 0.51 0.52 0.55 0.58 0.55 0.54 0.56 0.57 0.51 0.48 0.49 0.47 0.41 0.36 0.37 0.36 0.44 0.52 0.57 0.60 0.61 0.62 0.63 0.63 0.64 0.64 0.64 0.64 0.63 0.63 0.62 0.60 0.60 0.59 0.58 0.54
0.63 0.63 0.62 0.62 0.62 0.64 0.68 0.69 0.66 0.62 0.54 0.46 0.41 0.37 0.42 0.42 0.43 0.47 0.50 0.51 0.59 0.59 0.60 0.57 0.50 0.45 0.43 0.44 0.38 0.36 0.34 0.30 0.35 0.42 0.49 0.54 0.55 0.57 0.58 0.60 0.62 0.62 0.61 0.60 0.60 0.59 0.58 0.57 0.56 0.54 0.54 0.53 0.50 0.45
0.73 0.66 0.72 0.68 0.68 0.71 0.71 0.64 0.58 0.49 0.45 0.41 0.37 0.42 0.42 0.43 0.43 0.46 0.50 0.51 0.60 0.56 0.47 0.47 0.39 0.36 0.43 0.36 0.33 0.36 0.32 0.36 0.41 0.45 0.50 0.53 0.53 0.54 0.57 0.57 0.57 0.56 0.56 0.56 0.54 0.53 0.52 0.52 0.52 0.49 0.45 0.45 0.45 0.45
0.70 0.76 0.77 0.75 0.73 0.69 0.64 0.60 0.50 0.44 0.38 0.39 0.37 0.39 0.42 0.44 0.43 0.46 0.49 0.54 0.54 0.50 0.46 0.39 0.41 0.33 0.30 0.28 0.29 0.34 0.37 0.40 0.44 0.45 0.48 0.50 0.52 0.53 0.54 0.53 0.54 0.53 0.52 0.51 0.50 0.49 0.48 0.47 0.45 0.43 0.43 0.42 0.41 0.39
0.77 0.78 0.76 0.74 0.71 0.61 0.52 0.50 0.48 0.36 0.36 0.39 0.39 0.41 0.41 0.41 0.43 0.45 0.47 0.49 0.49 0.49 0.43 0.36 0.31 0.28 0.29 0.32 0.32 0.34 0.37 0.39 0.40 0.42 0.45 0.47 0.48 0.49 0.49 0.49 0.49 0.48 0.46 0.46 0.45 0.44 0.43 0.43 0.42 0.41 0.40 0.39 0.36 0.36
0.78 0.78 0.77 0.74 0.68 0.53 0.45 0.44 0.49 0.39 0.35 0.37 0.38 0.35 0.35 0.36 0.38 0.39 0.40 0.41 0.41 0.39 0.33 0.29 0.28 0.30 0.31 0.33 0.35 0.36 0.37 0.40 0.41 0.39 0.39 0.41 0.43 0.44 0.43 0.43 0.42 0.42 0.42 0.41 0.41 0.41 0.39 0.38 0.38 0.38 0.37 0.35 0.33 0.32
0.69 0.68 0.71 0.64 0.53 0.51 0.46 0.44 0.42 0.42 0.41 0.37 0.38 0.34 0.30 0.32 0.31 0.31 0.31 0.34 0.32 0.30 0.28 0.30 0.30 0.32 0.34 0.35 0.37 0.37 0.38 0.39 0.38 0.38 0.36 0.36 0.39 0.39 0.39 0.39 0.39 0.39 0.37 0.36 0.35 0.34 0.34 0.33 0.33 0.33 0.32 0.31 0.30 0.30
0.47 0.50 0.45 0.44 0.39 0.38 0.36 0.39 0.37 0.38 0.31 0.29 0.28 0.25 0.20 0.18 0.18 0.18 0.21 0.19 0.20 0.24 0.28 0.30 0.31 0.32 0.32 0.33 0.34 0.35 0.36 0.36 0.36 0.36 0.36 0.36 0.34 0.34 0.33 0.34 0.33 0.32 0.32 0.31 0.31 0.30 0.29 0.30 0.30 0.29 0.28 0.28 0.28 0.27
0.30 0.28 0.24 0.23 0.21 0.22 0.21 0.29 0.22 0.23 0.18 0.18 0.20 0.16 0.15 0.14 0.15 0.17 0.14 0.16 0.18 0.22 0.24 0.25 0.27 0.29 0.29 0.31 0.32 0.32 0.33 0.32 0.31 0.31 0.31 0.31 0.30 0.30 0.30 0.30 0.29 0.28 0.27 0.27 0.28 0.27 0.26 0.26 0.25 0.24 0.24 0.23 0.21 0.20
0.16 0.12 0.11 0.12 0.15 0.15 0.20 0.18 0.20 0.18 0.18 0.16 0.14 0.12 0.13 0.14 0.15 0.13 0.11 0.13 0.16 0.19 0.20 0.21 0.22 0.22 0.23 0.24 0.24 0.25 0.27 0.28 0.27 0.27 0.27 0.26 0.25 0.25 0.25 0.24 0.24 0.23 0.22 0.21 0.20 0.18 0.17 0.16 0.15 0.14 0.13 0.12 0.11 0.10
0.09 0.11 0.11 0.10 0.13 0.11 0.12 0.13 0.14 0.14 0.12 0.13 0.12 0.12 0.12 0.14 0.10 0.10 0.10 0.12 0.14 0.15 0.17 0.18 0.18 0.18 0.17 0.17 0.18 0.18 0.19 0.18 0.17 0.16 0.17 0.17 0.16 0.16 0.15 0.15 0.14 0.14 0.13 0.11 0.11 0.10 0.10 0.10 0.09 0.08 0.07 0.07 0.06 0.06
0.08 0.14 0.12 0.12 0.12 0.12 0.12 0.10 0.11 0.12 0.12 0.12 0.13 0.14 0.13 0.11 0.10 0.09 0.11 0.14 0.15 0.16 0.16 0.17 0.17 0.16 0.16 0.17 0.15 0.15 0.14 0.14 0.13 0.11 0.11 0.11 0.11 0.10 0.09 0.09 0.08 0.09 0.10 0.09 0.07 0.06 0.06 0.06 0.07 0.07 0.07 0.07 0.07 0.07
0.09 0.11 0.15 0.18 0.16 0.14 0.13 0.14 0.14 0.12 0.11 0.11 0.12 0.12 0.11 0.08 0.08 0.11 0.14 0.16 0.15 0.16 0.17 0.17 0.17 0.16 0.15 0.14 0.13 0.13 0.12 0.12 0.11 0.11 0.11 0.10 0.10 0.09 0.08 0.06 0.05 0.06 0.07 0.07 0.07 0.07 0.07 0.07 0.07 0.07 0.06 0.06 0.06 0.06
0.14 0.14 0.10 0.12 0.11 0.11 0.09 0.09 0.09 0.09 0.09 0.12 0.11 0.08 0.07 0.07 0.08 0.12 0.15 0.17 0.16 0.16 0.16 0.16 0.15 0.14 0.13 0.12 0.12 0.12 0.12 0.12 0.11 0.10 0.09 0.08 0.07 0.07 0.07 0.07 0.08 0.08 0.08 0.08 0.08 0.07 0.07 0.06 0.06 0.06 0.06 0.05 0.05 0.06
0.12 0.12 0.10 0.08 0.08 0.09 0.09 0.08 0.08 0.10 0.11 0.10 0.08 0.07 0.08 0.10 0.12 0.13 0.15 0.16 0.16 0.15 0.14 0.13 0.13 0.12 0.12 0.12 0.12 0.11 0.10 0.08 0.06 0.05 0.04 0.04 0.05 0.06 0.08 0.08 0.08 0.08 0.07 0.07 0.07 0.07 0.07 0.06 0.06 0.05 0.05 0.05 0.05 0.06
0.10 0.12 0.08 0.08 0.08 0.08 0.09 0.10 0.09 0.10 0.11 0.10 0.10 0.10 0.10 0.11 0.13 0.15 0.15 0.15 0.14 0.13 0.13 0.13 0.13 0.12 0.11 0.10 0.09 0.09 0.08 0.07 0.06 0.06 0.05 0.06 0.06 0.08 0.08 0.07 0.07 0.06 0.07 0.06 0.06 0.06 0.06 0.06 0.06 0.05 0.05 0.05 0.05 0.05
0.12 0.11 0.09 0.10 0.09 0.11 0.11 0.11 0.11 0.10 0.10 0.09 0.10 0.09 0.09 0.10 0.12 0.14 0.14 0.14 0.14 0.13 0.13 0.12 0.12 0.12 0.10 0.09 0.07 0.06 0.05 0.07 0.07 0.08 0.08 0.08 0.08 0.07 0.07 0.07 0.07 0.07 0.06 0.06 0.06 0.05 0.05 0.05 0.05 0.05 0.05 0.05 0.05 0.05
0.11 0.09 0.09 0.08 0.09 0.11 0.13 0.12 0.11 0.10 0.10 0.09 0.09 0.09 0.10 0.10 0.09 0.11 0.13 0.13 0.13 0.12 0.12 0.11 0.10 0.08 0.08 0.07 0.07 0.07 0.07 0.08 0.08 0.08 0.08 0.07 0.07 0.07 0.07 0.07 0.07 0.07 0.06 0.06 0.06 0.06 0.05 0.05 0.05 0.05 0.05 0.05 0.05 0.05
0.11 0.10 0.09 0.09 0.09 0.09 0.11 0.11 0.10 0.09 0.09 0.09 0.09 0.10 0.10 0.09 0.08 0.11 0.13 0.13 0.12 0.11 0.10 0.09 0.08 0.08 0.08 0.08 0.08 0.08 0.08 0.08 0.08 0.08 0.08 0.07 0.07 0.07 0.07 0.07 0.07 0.07 0.06 0.06 0.06 0.06 0.06 0.06 0.05 0.05 0.05 0.05 0.05 0.05

GFSWCAN_prec_pwat_057.txt.gz
Precipitable_Water
0.66 0.60 0.61 0.62 0.59 0.61 0.64 0.61 0.56 0.56 0.56 0.56 0.59 0.64 0.64 0.66 0.65 0.66 0.63 0.63 0.52 0.44 0.43 0.47 0.47 0.43 0.38 0.32 0.29 0.37 0.35 0.44 0.40 0.31 0.26 0.27 0.28 0.30 0.29 0.33 0.34 0.44 0.43 0.40 0.43 0.37 0.31 0.48 0.45 0.35 0.36 0.41 0.46 0.43
0.59 0.58 0.61 0.63 0.61 0.63 0.54 0.54 0.55 0.60 0.60 0.63 0.64 0.63 0.64 0.65 0.69 0.70 0.58 0.63 0.62 0.53 0.51 0.61 0.64 0.66 0.59 0.43 0.32 0.36 0.40 0.40 0.38 0.31 0.30 0.31 0.32 0.35 0.34 0.28 0.37 0.37 0.44 0.47 0.45 0.44 0.53 0.55 0.48 0.51 0.51 0.50 0.52 0.49
0.59 0.58 0.60 0.66 0.62 0.65 0.59 0.58 0.65 0.62 0.65 0.64 0.64 0.67 0.63 0.69 0.69 0.70 0.63 0.63 0.58 0.51 0.49 0.48 0.44 0.58 0.67 0.66 0.70 0.41 0.49 0.47 0.43 0.42 0.38 0.38 0.33 0.35 0.29 0.27 0.30 0.42 0.49 0.42 0.48 0.52 0.56 0.58 0.60 0.58 0.58 0.57 0.58 0.57
0.68 0.63 0.64 0.67 0.63 0.63 0.66 0.66 0.65 0.66 0.68 0.68 0.65 0.63 0.70 0.70 0.71 0.69 0.61 0.67 0.60 0.53 0.41 0.41 0.55 0.51 0.64 0.71 0.65 0.63 0.59 0.52 0.50 0.48 0.40 0.35 0.29 0.27 0.30 0.30 0.26 0.33 0.39 0.36 0.35 0.39 0.45 0.57 0.59 0.61 0.63 0.63 0.61 0.58
0.71 0.70 0.69 0.69 0.64 0.60 0.59 0.60 0.61 0.60 0.60 0.60 0.66 0.69 0.70 0.70 0.69 0.68 0.67 0.67 0.67 0.49 0.37 0.39 0.47 0.51 0.56 0.58 0.62 0.63 0.62 0.53 0.45 0.38 0.32 0.29 0.33 0.23 0.28 0.30 0.26 0.30 0.31 0.33 0.31 0.35 0.36 0.39 0.56 0.65 0.65 0.66 0.64 0.60
0.71 0.72 0.71 0.71 0.70 0.65 0.62 0.62 0.67 0.71 0.73 0.72 0.71 0.71 0.70 0.69 0.69 0.62 0.49 0.65 0.68 0.62 0.41 0.30 0.47 0.43 0.47 0.54 0.56 0.57 0.55 0.54 0.50 0.39 0.37 0.33 0.30 0.29 0.27 0.26 0.28 0.23 0.28 0.34 0.35 0.42 0.42 0.50 0.60 0.60 0.64 0.69 0.66 0.63
0.69 0.71 0.70 0.71 0.72 0.72 0.72 0.72 0.72 0.73 0.73 0.72 0.71 0.69 0.69 0.69 0.65 0.53 0.47 0.55 0.63 0.56 0.39 0.28 0.28 0.43 0.50 0.52 0.52 0.50 0.54 0.54 0.56 0.49 0.43 0.39 0.32 0.32 0.30 0.24 0.24 0.29 0.35 0.37 0.44 0.47 0.41 0.49 0.53 0.63 0.66 0.69 0.67 0.65
0.67 0.68 0.69 0.70 0.71 0.71 0.71 0.70 0.71 0.71 0.70 0.70 0.69 0.68 0.68 0.67 0.64 0.56 0.58 0.58 0.58 0.47 0.41 0.29 0.32 0.43 0.52 0.39 0.36 0.48 0.43 0.49 0.52 0.49 0.49 0.46 0.50 0.51 0.39 0.39 0.33 0.32 0.35 0.42 0.49 0.51 0.48 0.52 0.52 0.57 0.62 0.66 0.66 0.64
0.62 0.66 0.68 0.69 0.69 0.69 0.69 0.69 0.69 0.69 0.69 0.68 0.67 0.66 0.63 0.57 0.49 0.53 0.60 0.53 0.58 0.45 0.28 0.30 0.32 0.33 0.58 0.49 0.52 0.52 0.53 0.40 0.49 0.39 0.40 0.47 0.43 0.40 0.46 0.47 0.45 0.45 0.45 0.46 0.51 0.56 0.54 0.50 0.51 0.55 0.58 0.58 0.58 0.61
0.53 0.55 0.61 0.66 0.66 0.66 0.67 0.68 0.67 0.66 0.66 0.65 0.60 0.48 0.42 0.49 0.58 0.54 0.50 0.39 0.34 0.37 0.40 0.34 0.47 0.39 0.51 0.52 0.51 0.51 0.54 0.41 0.33 0.41 0.52 0.43 0.40 0.48 0.51 0.53 0.52 0.51 0.51 0.54 0.48 0.47 0.49 0.48 0.52 0.54 0.60 0.64 0.64 0.65
0.51 0.53 0.57 0.58 0.59 0.59 0.60 0.62 0.62 0.59 0.56 0.50 0.43 0.41 0.52 0.61 0.52 0.48 0.37 0.34 0.35 0.31 0.38 0.41 0.45 0.40 0.56 0.47 0.45 0.54 0.42 0.43 0.33 0.41 0.39 0.38 0.37 0.43 0.52 0.55 0.58 0.56 0.58 0.57 0.57 0.55 0.56 0.59 0.60 0.58 0.60 0.64 0.67 0.67
0.47 0.50 0.56 0.58 0.58 0.59 0.56 0.52 0.54 0.55 0.53 0.52 0.49 0.55 0.56 0.47 0.41 0.32 0.30 0.33 0.32 0.28 0.38 0.37 0.40 0.47 0.51 0.61 0.52 0.54 0.46 0.47 0.35 0.53 0.45 0.35 0.41 0.46 0.50 0.50 0.53 0.54 0.53 0.54 0.58 0.59 0.60 0.64 0.67 0.63 0.61 0.60 0.61 0.62
0.46 0.48 0.50 0.49 0.52 0.55 0.55 0.55 0.53 0.53 0.55 0.54 0.42 0.39 0.39 0.37 0.27 0.26 0.22 0.24 0.27 0.36 0.39 0.40 0.37 0.44 0.49 0.52 0.50 0.49 0.41 0.40 0.53 0.41 0.35 0.37 0.45 0.49 0.53 0.57 0.60 0.65 0.65 0.63 0.61 0.62 0.63 0.62 0.63 0.60 0.56 0.57 0.57 0.58
0.47 0.47 0.48 0.49 0.49 0.52 0.55 0.57 0.57 0.58 0.48 0.36 0.32 0.26 0.30 0.28 0.28 0.29 0.31 0.32 0.37 0.41 0.42 0.44 0.41 0.39 0.43 0.41 0.47 0.37 0.42 0.45 0.35 0.32 0.33 0.41 0.45 0.49 0.52 0.55 0.57 0.58 0.62 0.62 0.61 0.61 0.62 0.63 0.61 0.60 0.60 0.60 0.60 0.58
0.52 0.52 0.55 0.57 0.60 0.60 0.60 0.60 0.62 0.58 0.45 0.37 0.35 0.26 0.28 0.32 0.32 0.32 0.35 0.37 0.40 0.44 0.45 0.40 0.40 0.47 0.43 0.42 0.44 0.42 0.36 0.29 0.29 0.28 0.37 0.43 0.47 0.49 0.50 0.52 0.53 0.55 0.57 0.57 0.59 0.59 0.60 0.60 0.59 0.58 0.58 0.58 0.57 0.56
0.58 0.58 0.60 0.63 0.64 0.64 0.65 0.65 0.61 0.55 0.44 0.37 0.33 0.30 0.30 0.30 0.29 0.31 0.32 0.33 0.42 0.43 0.50 0.50 0.43 0.39 0.36 0.37 0.33 0.29 0.28 0.24 0.28 0.34 0.39 0.45 0.47 0.49 0.49 0.51 0.52 0.54 0.54 0.55 0.55 0.56 0.56 0.55 0.53 0.53 0.54 0.53 0.53 0.52
0.62 0.56 0.63 0.64 0.63 0.63 0.65 0.58 0.51 0.42 0.38 0.34 0.31 0.35 0.34 0.33 0.29 0.31 0.34 0.37 0.44 0.41 0.37 0.39 0.32 0.30 0.36 0.28 0.28 0.31 0.28 0.32 0.37 0.39 0.41 0.43 0.44 0.46 0.49 0.50 0.50 0.51 0.51 0.51 0.51 0.51 0.51 0.51 0.51 0.49 0.46 0.47 0.47 0.46
0.54 0.58 0.61 0.61 0.62 0.59 0.55 0.54 0.44 0.38 0.32 0.33 0.32 0.34 0.36 0.38 0.38 0.39 0.41 0.44 0.44 0.41 0.41 0.35 0.39 0.31 0.29 0.27 0.28 0.32 0.35 0.38 0.40 0.40 0.41 0.43 0.44 0.45 0.46 0.46 0.47 0.47 0.47 0.47 0.48 0.47 0.47 0.46 0.44 0.43 0.43 0.43 0.42 0.42
0.66 0.67 0.68 0.68 0.65 0.57 0.48 0.47 0.43 0.33 0.33 0.36 0.37 0.38 0.39 0.39 0.42 0.45 0.46 0.48 0.49 0.49 0.44 0.38 0.32 0.29 0.30 0.32 0.32 0.34 0.36 0.38 0.37 0.38 0.39 0.41 0.42 0.42 0.43 0.43 0.43 0.43 0.42 0.42 0.42 0.41 0.41 0.41 0.41 0.40 0.40 0.39 0.37 0.38
0.70 0.69 0.67 0.67 0.64 0.50 0.43 0.42 0.45 0.36 0.32 0.34 0.35 0.33 0.33 0.33 0.36 0.39 0.40 0.40 0.39 0.37 0.34 0.31 0.30 0.31 0.32 0.34 0.35 0.35 0.37 0.40 0.38 0.35 0.35 0.37 0.38 0.39 0.38 0.39 0.38 0.39 0.38 0.38 0.38 0.38 0.37 0.36 0.37 0.36 0.36 0.35 0.34 0.33
0.67 0.65 0.59 0.58 0.53 0.50 0.46 0.41 0.35 0.33 0.32 0.28 0.29 0.26 0.26 0.28 0.26 0.26 0.25 0.28 0.27 0.27 0.26 0.29 0.30 0.32 0.34 0.35 0.36 0.36 0.36 0.36 0.34 0.34 0.33 0.32 0.35 0.35 0.35 0.35 0.36 0.35 0.34 0.33 0.33 0.32 0.32 0.32 0.32 0.33 0.32 0.31 0.31 0.31
0.59 0.56 0.52 0.51 0.44 0.39 0.34 0.35 0.29 0.30 0.25 0.22 0.21 0.20 0.18 0.16 0.16 0.16 0.18 0.15 0.15 0.18 0.20 0.22 0.23 0.24 0.25 0.26 0.27 0.29 0.30 0.31 0.32 0.32 0.33 0.33 0.31 0.31 0.31 0.32 0.31 0.30 0.30 0.30 0.29 0.29 0.28 0.28 0.28 0.27 0.26 0.25 0.23 0.20
0.44 0.39 0.36 0.33 0.24 0.23 0.22 0.30 0.21 0.21 0.16 0.17 0.18 0.14 0.14 0.14 0.14 0.16 0.13 0.14 0.15 0.19 0.20 0.20 0.21 0.22 0.22 0.23 0.23 0.24 0.25 0.25 0.25 0.25 0.26 0.26 0.26 0.27 0.27 0.27 0.27 0.25 0.24 0.23 0.23 0.21 0.20 0.19 0.17 0.16 0.15 0.13 0.13 0.12
0.26 0.21 0.18 0.19 0.21 0.18 0.22 0.18 0.19 0.17 0.17 0.15 0.13 0.11 0.12 0.13 0.16 0.13 0.11 0.13 0.16 0.18 0.19 0.19 0.20 0.20 0.20 0.20 0.19 0.20 0.20 0.21 0.21 0.21 0.20 0.19 0.18 0.17 0.17 0.16 0.15 0.15 0.14 0.14 0.12 0.11 0.11 0.10 0.10 0.10 0.09 0.09 0.09 0.09
0.13 0.14 0.16 0.13 0.18 0.15 0.13 0.13 0.14 0.14 0.12 0.13 0.12 0.12 0.12 0.15 0.11 0.10 0.10 0.12 0.15 0.16 0.17 0.18 0.18 0.17 0.16 0.16 0.16 0.16 0.17 0.16 0.15 0.13 0.14 0.14 0.14 0.12 0.11 0.09 0.08 0.08 0.09 0.09 0.09 0.09 0.09 0.09 0.09 0.08 0.08 0.07 0.06 0.07
0.09 0.13 0.13 0.13 0.13 0.12 0.12 0.11 0.11 0.12 0.12 0.11 0.12 0.13 0.15 0.12 0.09 0.09 0.11 0.13 0.14 0.15 0.16 0.17 0.17 0.16 0.16 0.16 0.15 0.14 0.14 0.14 0.12 0.10 0.10 0.09 0.09 0.09 0.08 0.07 0.07 0.07 0.09 0.09 0.09 0.08 0.08 0.08 0.07 0.07 0.07 0.07 0.06 0.06
0.10 0.11 0.14 0.17 0.16 0.15 0.14 0.14 0.14 0.12 0.10 0.10 0.12 0.11 0.11 0.08 0.08 0.10 0.13 0.15 0.15 0.17 0.18 0.19 0.18 0.17 0.15 0.15 0.14 0.13 0.12 0.11 0.10 0.08 0.08 0.08 0.08 0.08 0.08 0.07 0.07 0.08 0.09 0.09 0.08 0.08 0.07 0.06 0.06 0.06 0.06 0.06 0.06 0.06
0.13 0.14 0.10 0.12 0.12 0.12 0.09 0.09 0.09 0.09 0.10 0.12 0.11 0.08 0.07 0.07 0.08 0.12 0.14 0.16 0.17 0.18 0.17 0.17 0.17 0.16 0.14 0.14 0.14 0.13 0.12 0.10 0.09 0.09 0.09 0.09 0.09 0.09 0.09 0.09 0.08 0.08 0.08 0.08 0.08 0.07 0.07 0.07 0.06 0.06 0.06 0.06 0.06 0.07
0.12 0.13 0.10 0.08 0.09 0.09 0.09 0.09 0.09 0.10 0.11 0.11 0.09 0.08 0.08 0.10 0.12 0.13 0.14 0.16 0.17 0.16 0.15 0.14 0.14 0.14 0.14 0.14 0.13 0.11 0.10 0.09 0.07 0.06 0.07 0.07 0.08 0.08 0.09 0.08 0.08 0.08 0.08 0.08 0.07 0.07 0.07 0.07 0.07 0.06 0.07 0.07 0.07 0.07
0.11 0.13 0.09 0.08 0.08 0.08 0.09 0.11 0.10 0.11 0.12 0.11 0.10 0.10 0.10 0.11 0.13 0.16 0.16 0.15 0.15 0.14 0.14 0.14 0.14 0.14 0.13 0.12 0.09 0.08 0.08 0.08 0.08 0.08 0.07 0.07 0.07 0.08 0.08 0.08 0.08 0.08 0.08 0.08 0.07 0.08 0.08 0.08 0.08 0.08 0.07 0.07 0.07 0.07
0.14 0.12 0.09 0.09 0.09 0.10 0.11 0.12 0.13 0.12 0.12 0.11 0.12 0.10 0.09 0.11 0.13 0.14 0.15 0.15 0.14 0.14 0.13 0.13 0.13 0.12 0.10 0.08 0.07 0.07 0.07 0.08 0.08 0.08 0.08 0.08 0.08 0.08 0.07 0.07 0.08 0.08 0.08 0.08 0.08 0.07 0.07 0.07 0.07 0.07 0.07 0.07 0.07 0.07
0.12 0.10 0.09 0.08 0.09 0.12 0.13 0.13 0.12 0.11 0.11 0.10 0.09 0.10 0.10 0.10 0.09 0.11 0.13 0.14 0.13 0.12 0.12 0.12 0.11 0.09 0.09 0.08 0.08 0.08 0.08 0.08 0.08 0.08 0.08 0.08 0.08 0.08 0.08 0.08 0.08 0.08 0.08 0.08 0.07 0.07 0.07 0.06 0.07 0.06 0.06 0.06 0.06 0.06
0.11 0.11 0.10 0.10 0.10 0.11 0.12 0.12 0.11 0.10 0.10 0.09 0.09 0.10 0.10 0.10 0.08 0.11 0.13 0.14 0.13 0.13 0.12 0.11 0.11 0.10 0.09 0.08 0.09 0.09 0.09 0.09 0.08 0.08 0.08 0.08 0.07 0.07 0.08 0.08 0.08 0.08 0.07 0.07 0.07 0.07 0.07 0.06 0.06 0.06 0.06 0.06 0.06 0.07

GFSWCAN_prec_pwat_060.txt.gz
Precipitable_Water
0.63 0.62 0.60 0.60 0.61 0.64 0.63 0.62 0.62 0.60 0.61 0.64 0.62 0.68 0.67 0.67 0.67 0.63 0.56 0.69 0.60 0.46 0.46 0.53 0.54 0.48 0.43 0.38 0.31 0.33 0.34 0.41 0.51 0.41 0.34 0.29 0.26 0.25 0.22 0.25 0.34 0.34 0.35 0.41 0.43 0.39 0.35 0.55 0.48 0.38 0.40 0.41 0.49 0.46
0.67 0.62 0.60 0.59 0.65 0.63 0.57 0.54 0.58 0.65 0.65 0.65 0.66 0.65 0.67 0.67 0.67 0.65 0.53 0.63 0.72 0.55 0.51 0.62 0.59 0.61 0.59 0.56 0.42 0.40 0.35 0.41 0.42 0.47 0.38 0.35 0.27 0.25 0.20 0.22 0.32 0.34 0.38 0.33 0.46 0.45 0.59 0.60 0.54 0.56 0.55 0.54 0.54 0.58
0.70 0.67 0.63 0.64 0.63 0.60 0.56 0.57 0.57 0.60 0.61 0.62 0.64 0.65 0.66 0.66 0.67 0.64 0.55 0.60 0.66 0.54 0.54 0.54 0.49 0.58 0.65 0.66 0.66 0.45 0.37 0.46 0.54 0.51 0.42 0.36 0.27 0.33 0.24 0.25 0.35 0.42 0.47 0.42 0.45 0.50 0.56 0.71 0.69 0.63 0.61 0.60 0.60 0.63
0.70 0.68 0.63 0.63 0.66 0.61 0.66 0.65 0.58 0.55 0.57 0.60 0.64 0.65 0.65 0.66 0.65 0.61 0.56 0.66 0.64 0.54 0.39 0.40 0.58 0.54 0.58 0.59 0.62 0.62 0.56 0.55 0.55 0.52 0.43 0.41 0.34 0.34 0.28 0.28 0.29 0.37 0.48 0.48 0.50 0.52 0.52 0.56 0.61 0.67 0.64 0.66 0.64 0.64
0.72 0.68 0.63 0.61 0.65 0.65 0.65 0.65 0.60 0.60 0.60 0.61 0.63 0.64 0.64 0.65 0.65 0.72 0.69 0.67 0.67 0.49 0.35 0.41 0.52 0.59 0.56 0.51 0.57 0.58 0.54 0.55 0.51 0.51 0.42 0.33 0.48 0.39 0.33 0.33 0.30 0.36 0.33 0.37 0.36 0.39 0.39 0.40 0.42 0.45 0.46 0.49 0.53 0.62
0.71 0.65 0.59 0.58 0.61 0.66 0.67 0.67 0.64 0.64 0.65 0.65 0.66 0.67 0.66 0.65 0.65 0.65 0.51 0.67 0.69 0.62 0.48 0.37 0.52 0.50 0.50 0.46 0.44 0.50 0.54 0.53 0.58 0.53 0.48 0.47 0.55 0.42 0.27 0.23 0.30 0.33 0.32 0.30 0.26 0.30 0.42 0.46 0.51 0.52 0.50 0.55 0.61 0.70
0.71 0.70 0.68 0.63 0.62 0.62 0.62 0.63 0.64 0.65 0.66 0.68 0.69 0.68 0.70 0.70 0.66 0.53 0.49 0.61 0.70 0.63 0.43 0.34 0.34 0.44 0.50 0.48 0.44 0.45 0.56 0.58 0.55 0.55 0.56 0.45 0.39 0.35 0.29 0.25 0.29 0.32 0.35 0.39 0.41 0.38 0.39 0.47 0.44 0.47 0.51 0.60 0.65 0.68
0.71 0.71 0.72 0.71 0.71 0.72 0.71 0.69 0.68 0.70 0.70 0.70 0.70 0.69 0.68 0.68 0.66 0.55 0.63 0.65 0.64 0.51 0.45 0.33 0.31 0.34 0.50 0.42 0.37 0.46 0.43 0.52 0.55 0.53 0.50 0.41 0.41 0.38 0.28 0.32 0.33 0.35 0.33 0.33 0.38 0.47 0.51 0.55 0.53 0.50 0.51 0.57 0.59 0.62
0.69 0.70 0.71 0.71 0.71 0.71 0.71 0.70 0.69 0.69 0.69 0.69 0.69 0.68 0.65 0.60 0.52 0.54 0.62 0.64 0.65 0.53 0.36 0.32 0.25 0.27 0.53 0.46 0.44 0.44 0.46 0.42 0.51 0.40 0.46 0.50 0.43 0.37 0.45 0.46 0.49 0.54 0.53 0.52 0.53 0.50 0.47 0.52 0.51 0.51 0.49 0.51 0.51 0.56
0.68 0.69 0.69 0.69 0.69 0.70 0.70 0.69 0.69 0.68 0.68 0.67 0.63 0.52 0.44 0.54 0.60 0.55 0.48 0.42 0.43 0.44 0.42 0.30 0.37 0.32 0.44 0.45 0.41 0.42 0.45 0.38 0.32 0.37 0.51 0.47 0.48 0.53 0.55 0.55 0.57 0.59 0.61 0.61 0.52 0.52 0.54 0.57 0.53 0.51 0.51 0.53 0.54 0.57
0.62 0.66 0.67 0.68 0.68 0.68 0.68 0.68 0.67 0.67 0.66 0.58 0.50 0.46 0.58 0.63 0.51 0.46 0.32 0.29 0.29 0.26 0.29 0.31 0.37 0.36 0.49 0.37 0.37 0.43 0.35 0.38 0.31 0.35 0.38 0.37 0.36 0.42 0.51 0.54 0.56 0.57 0.58 0.58 0.56 0.56 0.58 0.56 0.52 0.54 0.55 0.57 0.58 0.60
0.59 0.58 0.60 0.64 0.64 0.63 0.63 0.64 0.65 0.63 0.58 0.56 0.53 0.58 0.54 0.46 0.41 0.34 0.31 0.35 0.32 0.28 0.36 0.33 0.36 0.46 0.47 0.51 0.42 0.44 0.41 0.45 0.32 0.49 0.41 0.34 0.37 0.42 0.44 0.47 0.52 0.55 0.55 0.55 0.57 0.55 0.57 0.57 0.58 0.58 0.58 0.58 0.60 0.63
0.58 0.57 0.54 0.54 0.52 0.53 0.55 0.56 0.58 0.60 0.61 0.56 0.47 0.40 0.41 0.38 0.27 0.25 0.21 0.25 0.29 0.39 0.42 0.45 0.40 0.48 0.51 0.52 0.47 0.46 0.40 0.37 0.50 0.37 0.30 0.31 0.39 0.43 0.46 0.48 0.50 0.53 0.54 0.54 0.53 0.54 0.54 0.54 0.55 0.56 0.57 0.59 0.59 0.60
0.51 0.52 0.52 0.52 0.52 0.51 0.52 0.52 0.53 0.57 0.52 0.38 0.35 0.27 0.31 0.25 0.27 0.28 0.28 0.30 0.38 0.40 0.41 0.46 0.44 0.44 0.49 0.46 0.46 0.39 0.44 0.46 0.35 0.29 0.27 0.34 0.41 0.45 0.49 0.53 0.53 0.53 0.54 0.56 0.57 0.59 0.59 0.58 0.57 0.57 0.57 0.58 0.58 0.55
0.49 0.52 0.53 0.53 0.57 0.60 0.57 0.54 0.53 0.48 0.41 0.34 0.31 0.23 0.24 0.29 0.30 0.32 0.35 0.36 0.38 0.42 0.43 0.44 0.45 0.46 0.43 0.41 0.43 0.42 0.36 0.29 0.30 0.28 0.33 0.39 0.44 0.46 0.48 0.50 0.50 0.51 0.52 0.53 0.54 0.54 0.55 0.55 0.55 0.55 0.55 0.55 0.55 0.54
0.56 0.60 0.61 0.63 0.63 0.64 0.64 0.58 0.53 0.49 0.41 0.34 0.30 0.28 0.30 0.27 0.26 0.28 0.30 0.30 0.39 0.40 0.43 0.45 0.39 0.36 0.34 0.34 0.31 0.28 0.25 0.24 0.28 0.33 0.37 0.41 0.43 0.45 0.46 0.47 0.48 0.49 0.49 0.50 0.50 0.51 0.51 0.50 0.50 0.50 0.51 0.50 0.50 0.49
0.59 0.54 0.63 0.63 0.62 0.64 0.64 0.56 0.46 0.37 0.34 0.32 0.28 0.31 0.30 0.29 0.28 0.28 0.31 0.32 0.38 0.35 0.32 0.37 0.30 0.29 0.34 0.25 0.25 0.28 0.24 0.28 0.33 0.35 0.38 0.39 0.39 0.40 0.43 0.45 0.46 0.46 0.46 0.46 0.46 0.47 0.46 0.47 0.47 0.45 0.43 0.44 0.45 0.45
0.58 0.61 0.61 0.61 0.66 0.63 0.52 0.48 0.40 0.36 0.29 0.31 0.29 0.31 0.33 0.34 0.32 0.33 0.34 0.37 0.38 0.35 0.34 0.30 0.33 0.28 0.26 0.24 0.23 0.27 0.31 0.34 0.36 0.36 0.36 0.39 0.40 0.40 0.41 0.41 0.42 0.43 0.43 0.43 0.43 0.44 0.44 0.43 0.42 0.41 0.41 0.41 0.41 0.40
0.59 0.62 0.64 0.66 0.63 0.56 0.47 0.44 0.42 0.32 0.32 0.34 0.34 0.35 0.36 0.37 0.39 0.41 0.41 0.41 0.41 0.40 0.35 0.32 0.28 0.26 0.26 0.29 0.30 0.32 0.35 0.35 0.34 0.35 0.36 0.38 0.39 0.39 0.40 0.40 0.40 0.40 0.40 0.39 0.39 0.39 0.39 0.40 0.39 0.39 0.38 0.38 0.36 0.36
0.67 0.67 0.66 0.63 0.61 0.49 0.42 0.40 0.44 0.36 0.32 0.35 0.37 0.35 0.36 0.36 0.38 0.39 0.41 0.42 0.42 0.40 0.35 0.31 0.29 0.30 0.31 0.33 0.34 0.35 0.36 0.38 0.35 0.33 0.34 0.35 0.37 0.37 0.37 0.37 0.37 0.37 0.37 0.36 0.36 0.36 0.36 0.35 0.35 0.35 0.34 0.34 0.32 0.31
0.65 0.61 0.59 0.57 0.52 0.48 0.41 0.34 0.31 0.32 0.31 0.28 0.29 0.26 0.26 0.27 0.26 0.27 0.27 0.29 0.29 0.25 0.23 0.25 0.26 0.27 0.30 0.31 0.32 0.32 0.33 0.33 0.32 0.32 0.31 0.31 0.34 0.34 0.34 0.34 0.34 0.34 0.33 0.32 0.31 0.31 0.31 0.30 0.31 0.31 0.30 0.29 0.29 0.29
0.55 0.57 0.54 0.52 0.36 0.31 0.30 0.33 0.28 0.29 0.24 0.23 0.22 0.21 0.19 0.17 0.17 0.17 0.18 0.15 0.15 0.18 0.20 0.21 0.21 0.22 0.23 0.23 0.25 0.26 0.26 0.27 0.27 0.26 0.27 0.27 0.26 0.26 0.27 0.28 0.28 0.28 0.28 0.28 0.27 0.26 0.25 0.26 0.25 0.23 0.21 0.19 0.17 0.15
0.51 0.47 0.40 0.33 0.23 0.22 0.21 0.29 0.20 0.22 0.17 0.18 0.19 0.15 0.15 0.15 0.16 0.18 0.13 0.14 0.16 0.20 0.21 0.21 0.22 0.22 0.22 0.22 0.23 0.24 0.24 0.24 0.23 0.23 0.23 0.23 0.23 0.24 0.23 0.23 0.22 0.20 0.18 0.17 0.17 0.15 0.14 0.14 0.13 0.13 0.12 0.12 0.12 0.12
0.31 0.25 0.21 0.20 0.21 0.18 0.22 0.18 0.20 0.18 0.18 0.15 0.13 0.12 0.13 0.15 0.17 0.13 0.11 0.13 0.16 0.19 0.19 0.21 0.21 0.19 0.19 0.20 0.19 0.20 0.21 0.22 0.21 0.22 0.21 0.19 0.17 0.15 0.14 0.13 0.13 0.13 0.12 0.12 0.11 0.11 0.10 0.10 0.10 0.09 0.08 0.08 0.08 0.08
0.15 0.16 0.20 0.15 0.20 0.15 0.13 0.14 0.14 0.13 0.12 0.13 0.11 0.12 0.13 0.15 0.11 0.11 0.11 0.13 0.16 0.17 0.18 0.19 0.19 0.19 0.17 0.17 0.17 0.17 0.18 0.16 0.14 0.13 0.14 0.15 0.14 0.13 0.11 0.09 0.09 0.09 0.10 0.10 0.09 0.09 0.09 0.08 0.08 0.08 0.07 0.06 0.07 0.07
0.12 0.15 0.15 0.15 0.14 0.13 0.13 0.11 0.12 0.12 0.12 0.12 0.12 0.14 0.15 0.12 0.10 0.09 0.11 0.14 0.15 0.16 0.17 0.18 0.17 0.16 0.16 0.16 0.15 0.15 0.15 0.15 0.13 0.10 0.09 0.09 0.10 0.09 0.08 0.08 0.08 0.08 0.10 0.10 0.09 0.08 0.08 0.07 0.07 0.07 0.07 0.07 0.06 0.06
0.11 0.12 0.15 0.19 0.17 0.15 0.14 0.15 0.15 0.13 0.11 0.11 0.12 0.12 0.11 0.08 0.08 0.11 0.14 0.16 0.15 0.17 0.19 0.19 0.18 0.17 0.16 0.15 0.15 0.14 0.12 0.11 0.10 0.09 0.09 0.09 0.09 0.09 0.08 0.07 0.07 0.08 0.09 0.09 0.08 0.08 0.07 0.07 0.06 0.06 0.07 0.07 0.07 0.07
0.14 0.15 0.11 0.14 0.13 0.14 0.11 0.11 0.10 0.10 0.11 0.13 0.12 0.08 0.08 0.09 0.09 0.13 0.14 0.16 0.17 0.18 0.18 0.18 0.18 0.17 0.15 0.15 0.15 0.14 0.13 0.11 0.10 0.10 0.10 0.10 0.10 0.10 0.10 0.10 0.09 0.09 0.09 0.08 0.08 0.07 0.07 0.07 0.07 0.07 0.07 0.07 0.07 0.08
0.14 0.13 0.11 0.09 0.09 0.09 0.10 0.11 0.10 0.11 0.12 0.13 0.10 0.09 0.09 0.11 0.13 0.13 0.15 0.16 0.18 0.17 0.15 0.15 0.14 0.15 0.15 0.14 0.13 0.12 0.10 0.10 0.08 0.07 0.07 0.08 0.08 0.08 0.09 0.09 0.09 0.08 0.08 0.08 0.08 0.08 0.08 0.08 0.07 0.07 0.08 0.08 0.08 0.08
0.12 0.14 0.09 0.09 0.09 0.08 0.10 0.12 0.11 0.13 0.13 0.11 0.11 0.10 0.11 0.11 0.14 0.16 0.16 0.16 0.16 0.15 0.15 0.15 0.15 0.15 0.14 0.13 0.10 0.08 0.08 0.08 0.09 0.09 0.08 0.08 0.08 0.08 0.08 0.08 0.08 0.08 0.08 0.08 0.08 0.08 0.08 0.08 0.08 0.08 0.08 0.07 0.07 0.06
0.15 0.13 0.10 0.10 0.09 0.11 0.12 0.14 0.14 0.14 0.13 0.12 0.13 0.10 0.09 0.11 0.13 0.15 0.15 0.15 0.14 0.14 0.13 0.13 0.13 0.13 0.11 0.09 0.08 0.07 0.08 0.08 0.08 0.08 0.09 0.09 0.08 0.08 0.08 0.08 0.08 0.09 0.09 0.08 0.08 0.08 0.07 0.07 0.07 0.07 0.07 0.06 0.07 0.07
0.13 0.11 0.09 0.08 0.10 0.13 0.15 0.15 0.14 0.12 0.13 0.11 0.10 0.11 0.11 0.11 0.09 0.11 0.14 0.14 0.13 0.13 0.13 0.13 0.11 0.10 0.09 0.09 0.08 0.08 0.09 0.09 0.09 0.08 0.08 0.08 0.08 0.08 0.09 0.09 0.09 0.09 0.08 0.08 0.08 0.07 0.07 0.07 0.06 0.07 0.07 0.07 0.07 0.07
0.12 0.11 0.11 0.10 0.11 0.11 0.13 0.14 0.12 0.11 0.12 0.10 0.10 0.11 0.11 0.10 0.08 0.11 0.14 0.15 0.14 0.14 0.12 0.13 0.12 0.11 0.09 0.09 0.09 0.09 0.09 0.09 0.08 0.08 0.08 0.07 0.07 0.07 0.08 0.09 0.08 0.08 0.08 0.07 0.07 0.07 0.07 0.07 0.07 0.07 0.07 0.07 0.07 0.07

GFSWCAN_prec_pwat_063.txt.gz
Precipitable_Water
0.67 0.67 0.66 0.64 0.62 0.62 0.62 0.62 0.63 0.63 0.64 0.65 0.66 0.66 0.63 0.68 0.68 0.66 0.56 0.63 0.58 0.47 0.42 0.48 0.49 0.40 0.40 0.41 0.35 0.38 0.38 0.36 0.33 0.27 0.24 0.24 0.23 0.30 0.30 0.37 0.35 0.33 0.31 0.31 0.39 0.36 0.32 0.56 0.52 0.39 0.47 0.52 0.51 0.47
0.69 0.69 0.69 0.66 0.63 0.62 0.63 0.62 0.60 0.59 0.60 0.65 0.65 0.65 0.67 0.64 0.68 0.68 0.53 0.62 0.64 0.55 0.51 0.55 0.53 0.57 0.55 0.54 0.46 0.45 0.38 0.33 0.37 0.30 0.32 0.32 0.25 0.28 0.29 0.21 0.35 0.28 0.29 0.28 0.31 0.35 0.54 0.61 0.60 0.62 0.65 0.62 0.60 0.57
0.72 0.70 0.67 0.63 0.61 0.63 0.59 0.60 0.60 0.57 0.58 0.56 0.65 0.63 0.66 0.64 0.65 0.65 0.56 0.57 0.60 0.51 0.54 0.52 0.45 0.52 0.62 0.67 0.67 0.46 0.44 0.45 0.41 0.45 0.41 0.37 0.32 0.34 0.26 0.23 0.22 0.31 0.38 0.32 0.32 0.41 0.43 0.49 0.63 0.69 0.71 0.71 0.70 0.70
0.68 0.64 0.62 0.63 0.62 0.62 0.62 0.57 0.55 0.65 0.63 0.61 0.63 0.65 0.66 0.63 0.68 0.66 0.56 0.59 0.56 0.53 0.40 0.43 0.61 0.55 0.65 0.66 0.65 0.63 0.53 0.55 0.57 0.50 0.42 0.42 0.38 0.39 0.28 0.30 0.27 0.24 0.31 0.33 0.38 0.46 0.54 0.59 0.58 0.64 0.65 0.73 0.67 0.66
0.62 0.60 0.63 0.64 0.63 0.59 0.55 0.54 0.59 0.62 0.66 0.65 0.66 0.66 0.68 0.70 0.67 0.65 0.62 0.61 0.63 0.54 0.36 0.39 0.51 0.63 0.61 0.57 0.54 0.53 0.51 0.50 0.49 0.45 0.45 0.42 0.48 0.42 0.39 0.33 0.29 0.31 0.24 0.29 0.29 0.52 0.58 0.54 0.59 0.66 0.62 0.63 0.62 0.60
0.62 0.60 0.61 0.64 0.63 0.62 0.60 0.58 0.60 0.63 0.66 0.64 0.63 0.65 0.66 0.67 0.65 0.60 0.47 0.63 0.69 0.64 0.46 0.37 0.56 0.54 0.53 0.50 0.46 0.43 0.45 0.49 0.51 0.45 0.46 0.54 0.52 0.45 0.36 0.30 0.33 0.30 0.33 0.33 0.31 0.35 0.43 0.42 0.39 0.49 0.50 0.48 0.58 0.60
0.66 0.66 0.63 0.62 0.63 0.62 0.62 0.62 0.62 0.62 0.64 0.65 0.64 0.64 0.65 0.66 0.62 0.48 0.43 0.48 0.70 0.71 0.47 0.37 0.37 0.49 0.52 0.46 0.43 0.42 0.48 0.47 0.49 0.47 0.49 0.49 0.49 0.50 0.37 0.30 0.39 0.42 0.40 0.35 0.40 0.41 0.32 0.35 0.32 0.41 0.52 0.56 0.53 0.49
0.71 0.70 0.68 0.64 0.63 0.64 0.65 0.65 0.65 0.63 0.64 0.63 0.63 0.64 0.67 0.69 0.67 0.55 0.63 0.64 0.67 0.50 0.47 0.33 0.36 0.40 0.53 0.41 0.37 0.43 0.38 0.42 0.44 0.44 0.48 0.48 0.45 0.48 0.35 0.51 0.49 0.44 0.45 0.46 0.49 0.54 0.49 0.50 0.56 0.58 0.57 0.53 0.50 0.48
0.70 0.72 0.70 0.69 0.68 0.68 0.68 0.69 0.68 0.66 0.66 0.66 0.66 0.65 0.65 0.61 0.52 0.56 0.68 0.66 0.64 0.51 0.36 0.34 0.28 0.27 0.49 0.44 0.43 0.42 0.43 0.34 0.43 0.37 0.40 0.45 0.43 0.39 0.43 0.46 0.46 0.45 0.43 0.43 0.51 0.55 0.54 0.51 0.50 0.51 0.49 0.46 0.44 0.47
0.69 0.70 0.70 0.69 0.69 0.69 0.68 0.68 0.68 0.67 0.67 0.66 0.61 0.52 0.43 0.53 0.63 0.62 0.56 0.47 0.46 0.46 0.42 0.31 0.38 0.28 0.39 0.42 0.38 0.39 0.41 0.34 0.28 0.32 0.46 0.40 0.41 0.48 0.48 0.48 0.49 0.50 0.51 0.52 0.47 0.46 0.48 0.52 0.56 0.56 0.55 0.55 0.53 0.54
0.68 0.68 0.68 0.67 0.67 0.67 0.67 0.67 0.67 0.67 0.65 0.57 0.47 0.43 0.55 0.62 0.55 0.44 0.32 0.31 0.34 0.30 0.35 0.34 0.35 0.29 0.44 0.35 0.37 0.45 0.39 0.38 0.26 0.32 0.34 0.38 0.33 0.41 0.48 0.51 0.53 0.56 0.58 0.60 0.62 0.63 0.65 0.65 0.62 0.60 0.59 0.59 0.58 0.58
0.66 0.66 0.65 0.66 0.66 0.66 0.65 0.66 0.65 0.61 0.57 0.54 0.51 0.54 0.54 0.47 0.41 0.33 0.31 0.33 0.28 0.26 0.34 0.32 0.33 0.37 0.40 0.48 0.38 0.43 0.37 0.36 0.25 0.39 0.32 0.29 0.33 0.40 0.43 0.49 0.53 0.54 0.55 0.57 0.61 0.61 0.62 0.61 0.59 0.58 0.59 0.58 0.57 0.57
0.60 0.59 0.60 0.60 0.60 0.61 0.61 0.61 0.63 0.62 0.62 0.56 0.47 0.43 0.39 0.37 0.27 0.25 0.22 0.27 0.30 0.38 0.40 0.41 0.37 0.41 0.45 0.47 0.39 0.39 0.31 0.31 0.43 0.33 0.28 0.28 0.35 0.41 0.45 0.45 0.45 0.48 0.50 0.52 0.53 0.55 0.55 0.56 0.58 0.58 0.56 0.56 0.55 0.53
0.51 0.50 0.50 0.50 0.49 0.50 0.52 0.52 0.56 0.55 0.48 0.39 0.35 0.28 0.28 0.24 0.26 0.26 0.27 0.29 0.36 0.38 0.41 0.45 0.43 0.43 0.46 0.40 0.40 0.35 0.38 0.37 0.30 0.25 0.21 0.27 0.34 0.39 0.44 0.46 0.47 0.47 0.47 0.47 0.48 0.50 0.51 0.52 0.52 0.52 0.51 0.51 0.51 0.50
0.54 0.55 0.59 0.60 0.60 0.54 0.53 0.54 0.50 0.45 0.39 0.30 0.29 0.22 0.24 0.29 0.30 0.31 0.33 0.33 0.36 0.41 0.43 0.44 0.45 0.44 0.41 0.38 0.39 0.36 0.31 0.26 0.27 0.25 0.29 0.33 0.36 0.38 0.40 0.43 0.45 0.46 0.48 0.48 0.49 0.49 0.50 0.50 0.51 0.51 0.53 0.53 0.52 0.50
0.61 0.62 0.61 0.62 0.61 0.59 0.57 0.49 0.46 0.43 0.37 0.30 0.27 0.25 0.27 0.25 0.25 0.28 0.29 0.30 0.38 0.40 0.44 0.45 0.39 0.35 0.33 0.33 0.30 0.28 0.25 0.23 0.26 0.30 0.34 0.37 0.38 0.41 0.42 0.43 0.44 0.45 0.46 0.46 0.47 0.47 0.47 0.47 0.46 0.46 0.48 0.47 0.47 0.46
0.64 0.57 0.60 0.61 0.59 0.54 0.55 0.47 0.39 0.34 0.31 0.30 0.27 0.30 0.27 0.26 0.25 0.27 0.29 0.32 0.40 0.37 0.32 0.36 0.30 0.29 0.32 0.25 0.25 0.29 0.26 0.28 0.31 0.33 0.36 0.37 0.38 0.38 0.40 0.41 0.42 0.43 0.43 0.43 0.43 0.43 0.43 0.44 0.44 0.43 0.41 0.42 0.42 0.42
0.59 0.62 0.64 0.66 0.66 0.57 0.47 0.43 0.35 0.31 0.28 0.30 0.27 0.29 0.30 0.29 0.27 0.29 0.31 0.36 0.37 0.34 0.33 0.30 0.31 0.26 0.24 0.22 0.22 0.28 0.29 0.30 0.31 0.32 0.33 0.36 0.37 0.38 0.38 0.38 0.39 0.40 0.39 0.40 0.40 0.40 0.40 0.40 0.39 0.39 0.39 0.39 0.38 0.38
0.60 0.63 0.64 0.65 0.61 0.51 0.40 0.39 0.38 0.30 0.30 0.32 0.32 0.33 0.33 0.32 0.34 0.35 0.36 0.37 0.38 0.37 0.33 0.29 0.26 0.24 0.24 0.26 0.27 0.29 0.30 0.31 0.31 0.32 0.34 0.35 0.36 0.36 0.37 0.37 0.37 0.37 0.36 0.36 0.36 0.36 0.36 0.36 0.36 0.36 0.36 0.35 0.34 0.34
0.65 0.65 0.63 0.61 0.61 0.46 0.39 0.38 0.43 0.35 0.31 0.33 0.35 0.32 0.32 0.33 0.36 0.37 0.38 0.39 0.38 0.36 0.30 0.27 0.26 0.27 0.27 0.29 0.31 0.32 0.32 0.33 0.31 0.29 0.30 0.31 0.33 0.33 0.33 0.33 0.33 0.34 0.34 0.34 0.34 0.34 0.33 0.32 0.33 0.33 0.32 0.32 0.30 0.30
0.62 0.58 0.57 0.56 0.47 0.43 0.40 0.34 0.32 0.33 0.32 0.29 0.33 0.31 0.30 0.31 0.28 0.29 0.28 0.30 0.28 0.22 0.19 0.21 0.22 0.23 0.26 0.26 0.27 0.27 0.27 0.26 0.25 0.25 0.24 0.24 0.27 0.27 0.28 0.28 0.29 0.28 0.28 0.27 0.27 0.27 0.28 0.28 0.28 0.28 0.27 0.26 0.24 0.22
0.53 0.55 0.45 0.38 0.29 0.30 0.28 0.31 0.26 0.26 0.23 0.22 0.21 0.21 0.19 0.18 0.18 0.18 0.20 0.15 0.15 0.17 0.18 0.19 0.20 0.21 0.22 0.22 0.23 0.25 0.25 0.25 0.25 0.25 0.25 0.25 0.23 0.23 0.24 0.24 0.24 0.24 0.24 0.23 0.22 0.20 0.19 0.18 0.16 0.15 0.14 0.12 0.12 0.11
0.52 0.40 0.31 0.28 0.20 0.21 0.20 0.28 0.20 0.22 0.17 0.17 0.18 0.15 0.15 0.15 0.16 0.17 0.13 0.14 0.16 0.20 0.20 0.21 0.22 0.23 0.22 0.23 0.24 0.25 0.25 0.24 0.23 0.23 0.23 0.23 0.23 0.23 0.22 0.22 0.21 0.18 0.16 0.15 0.14 0.13 0.12 0.11 0.11 0.10 0.10 0.10 0.09 0.09
0.32 0.25 0.21 0.19 0.19 0.16 0.20 0.17 0.19 0.17 0.16 0.14 0.12 0.12 0.14 0.15 0.16 0.12 0.11 0.14 0.17 0.20 0.21 0.21 0.20 0.19 0.19 0.19 0.19 0.19 0.20 0.21 0.20 0.20 0.20 0.17 0.14 0.13 0.12 0.12 0.12 0.12 0.11 0.10 0.10 0.09 0.09 0.09 0.08 0.07 0.08 0.07 0.07 0.07
0.14 0.18 0.20 0.15 0.19 0.14 0.13 0.13 0.14 0.13 0.11 0.13 0.11 0.12 0.13 0.15 0.11 0.11 0.10 0.13 0.16 0.17 0.18 0.19 0.19 0.18 0.16 0.16 0.16 0.16 0.17 0.15 0.14 0.13 0.14 0.14 0.12 0.11 0.09 0.09 0.09 0.10 0.11 0.09 0.08 0.08 0.07 0.08 0.07 0.06 0.06 0.06 0.06 0.06
0.11 0.16 0.16 0.15 0.14 0.13 0.13 0.11 0.12 0.12 0.12 0.11 0.12 0.14 0.15 0.11 0.09 0.09 0.11 0.14 0.14 0.16 0.17 0.17 0.16 0.15 0.16 0.16 0.14 0.14 0.14 0.14 0.11 0.08 0.09 0.10 0.09 0.09 0.08 0.07 0.07 0.07 0.09 0.09 0.08 0.07 0.07 0.06 0.07 0.07 0.06 0.06 0.06 0.06
0.12 0.13 0.17 0.20 0.18 0.16 0.14 0.14 0.14 0.11 0.10 0.10 0.11 0.12 0.11 0.08 0.08 0.10 0.14 0.16 0.15 0.17 0.18 0.19 0.17 0.16 0.15 0.14 0.13 0.12 0.11 0.10 0.09 0.08 0.09 0.09 0.08 0.08 0.08 0.07 0.06 0.07 0.09 0.08 0.08 0.07 0.06 0.06 0.06 0.07 0.07 0.07 0.07 0.07
0.15 0.16 0.12 0.14 0.13 0.14 0.10 0.10 0.10 0.09 0.10 0.13 0.11 0.08 0.08 0.08 0.08 0.12 0.14 0.16 0.17 0.17 0.17 0.18 0.18 0.17 0.15 0.15 0.15 0.14 0.12 0.11 0.11 0.10 0.10 0.10 0.10 0.10 0.09 0.09 0.09 0.09 0.08 0.07 0.07 0.07 0.07 0.07 0.07 0.07 0.07 0.07 0.07 0.08
0.14 0.14 0.12 0.09 0.09 0.09 0.10 0.10 0.09 0.11 0.13 0.13 0.09 0.08 0.09 0.12 0.14 0.14 0.15 0.16 0.17 0.16 0.15 0.14 0.14 0.14 0.13 0.13 0.12 0.10 0.10 0.10 0.08 0.07 0.07 0.07 0.08 0.08 0.09 0.09 0.08 0.08 0.08 0.08 0.08 0.08 0.08 0.08 0.07 0.07 0.07 0.07 0.07 0.07
0.13 0.14 0.09 0.09 0.08 0.08 0.11 0.13 0.12 0.12 0.12 0.12 0.11 0.11 0.11 0.13 0.15 0.16 0.16 0.16 0.15 0.14 0.14 0.14 0.15 0.14 0.13 0.11 0.08 0.07 0.06 0.07 0.08 0.08 0.07 0.07 0.07 0.08 0.08 0.07 0.08 0.08 0.08 0.08 0.08 0.08 0.08 0.08 0.08 0.08 0.07 0.07 0.07 0.06
0.15 0.12 0.09 0.09 0.09 0.11 0.12 0.13 0.13 0.13 0.13 0.12 0.12 0.10 0.10 0.11 0.13 0.15 0.15 0.15 0.14 0.13 0.12 0.12 0.12 0.12 0.10 0.08 0.07 0.07 0.07 0.08 0.08 0.08 0.08 0.08 0.08 0.08 0.07 0.08 0.08 0.08 0.08 0.08 0.07 0.07 0.07 0.06 0.06 0.07 0.07 0.06 0.07 0.07
0.13 0.09 0.08 0.08 0.10 0.14 0.15 0.14 0.13 0.12 0.12 0.11 0.10 0.11 0.11 0.10 0.09 0.11 0.14 0.13 0.13 0.12 0.13 0.13 0.11 0.10 0.09 0.08 0.07 0.08 0.08 0.08 0.08 0.08 0.08 0.08 0.08 0.08 0.08 0.09 0.09 0.08 0.08 0.07 0.07 0.07 0.07 0.07 0.06 0.06 0.06 0.06 0.06 0.06
0.11 0.10 0.10 0.10 0.11 0.11 0.14 0.14 0.12 0.12 0.12 0.11 0.11 0.11 0.11 0.10 0.08 0.11 0.14 0.15 0.13 0.13 0.12 0.12 0.12 0.11 0.09 0.09 0.08 0.08 0.09 0.09 0.08 0.08 0.07 0.07 0.07 0.07 0.07 0.08 0.07 0.07 0.07 0.07 0.07 0.07 0.07 0.07 0.07 0.07 0.07 0.06 0.06 0.06

GFSWCAN_prec_pwat_066.txt.gz
Precipitable_Water
0.65 0.66 0.66 0.67 0.68 0.69 0.68 0.64 0.62 0.62 0.62 0.62 0.62 0.62 0.63 0.63 0.63 0.63 0.58 0.68 0.55 0.45 0.46 0.51 0.46 0.38 0.39 0.38 0.30 0.34 0.35 0.35 0.35 0.30 0.26 0.23 0.20 0.24 0.24 0.30 0.31 0.29 0.29 0.31 0.38 0.34 0.34 0.58 0.54 0.44 0.51 0.55 0.55 0.55
0.69 0.70 0.71 0.70 0.70 0.67 0.65 0.63 0.62 0.62 0.64 0.64 0.66 0.67 0.66 0.67 0.69 0.65 0.51 0.63 0.63 0.51 0.48 0.61 0.59 0.52 0.46 0.42 0.37 0.39 0.35 0.35 0.35 0.31 0.30 0.29 0.23 0.26 0.23 0.19 0.32 0.25 0.31 0.33 0.34 0.32 0.43 0.49 0.56 0.64 0.68 0.64 0.62 0.60
0.63 0.64 0.64 0.64 0.62 0.61 0.61 0.62 0.62 0.63 0.63 0.64 0.65 0.65 0.66 0.67 0.68 0.68 0.56 0.59 0.56 0.47 0.46 0.51 0.48 0.56 0.62 0.57 0.55 0.36 0.40 0.44 0.42 0.47 0.38 0.34 0.27 0.31 0.22 0.26 0.26 0.28 0.37 0.34 0.36 0.35 0.34 0.40 0.48 0.48 0.63 0.69 0.71 0.70
0.60 0.63 0.65 0.63 0.60 0.59 0.58 0.57 0.57 0.57 0.59 0.60 0.61 0.65 0.67 0.68 0.67 0.67 0.57 0.59 0.53 0.45 0.34 0.38 0.57 0.51 0.63 0.62 0.57 0.56 0.51 0.56 0.56 0.52 0.43 0.36 0.30 0.36 0.28 0.32 0.28 0.27 0.31 0.28 0.30 0.35 0.42 0.45 0.46 0.52 0.61 0.66 0.65 0.74
0.60 0.63 0.64 0.62 0.60 0.56 0.56 0.57 0.61 0.61 0.61 0.64 0.60 0.59 0.67 0.68 0.67 0.65 0.62 0.61 0.59 0.41 0.31 0.38 0.59 0.60 0.60 0.59 0.54 0.52 0.53 0.53 0.52 0.47 0.44 0.38 0.40 0.37 0.38 0.38 0.36 0.40 0.39 0.35 0.32 0.41 0.37 0.41 0.43 0.49 0.58 0.59 0.62 0.61
0.63 0.63 0.64 0.61 0.59 0.59 0.60 0.61 0.63 0.57 0.58 0.55 0.62 0.67 0.65 0.69 0.67 0.59 0.46 0.62 0.60 0.55 0.46 0.37 0.58 0.55 0.60 0.59 0.54 0.54 0.55 0.52 0.54 0.45 0.44 0.47 0.54 0.40 0.31 0.32 0.45 0.50 0.52 0.50 0.46 0.51 0.46 0.40 0.40 0.46 0.50 0.56 0.61 0.63
0.65 0.65 0.64 0.63 0.61 0.61 0.61 0.61 0.65 0.63 0.64 0.64 0.65 0.65 0.67 0.65 0.60 0.47 0.42 0.50 0.62 0.64 0.46 0.39 0.40 0.53 0.56 0.54 0.52 0.51 0.52 0.47 0.42 0.39 0.39 0.42 0.44 0.47 0.44 0.34 0.48 0.51 0.55 0.55 0.58 0.53 0.41 0.46 0.43 0.49 0.50 0.50 0.49 0.53
0.65 0.64 0.65 0.64 0.62 0.60 0.60 0.61 0.62 0.64 0.66 0.66 0.67 0.66 0.65 0.63 0.63 0.56 0.60 0.61 0.68 0.56 0.50 0.35 0.37 0.43 0.53 0.42 0.39 0.48 0.42 0.45 0.43 0.38 0.40 0.38 0.46 0.48 0.37 0.45 0.51 0.51 0.55 0.54 0.55 0.58 0.52 0.52 0.52 0.52 0.53 0.54 0.53 0.52
0.69 0.68 0.68 0.66 0.64 0.63 0.60 0.61 0.63 0.64 0.65 0.64 0.64 0.65 0.63 0.56 0.48 0.53 0.69 0.70 0.68 0.52 0.35 0.35 0.29 0.29 0.51 0.44 0.43 0.42 0.43 0.30 0.40 0.35 0.36 0.40 0.41 0.35 0.38 0.42 0.47 0.48 0.45 0.46 0.52 0.54 0.53 0.51 0.53 0.55 0.54 0.55 0.52 0.52
0.69 0.68 0.68 0.67 0.66 0.64 0.62 0.61 0.62 0.65 0.65 0.64 0.63 0.51 0.43 0.55 0.69 0.65 0.56 0.48 0.46 0.46 0.40 0.32 0.39 0.31 0.41 0.40 0.38 0.37 0.39 0.31 0.28 0.35 0.43 0.37 0.34 0.41 0.45 0.45 0.47 0.50 0.52 0.55 0.50 0.46 0.47 0.49 0.53 0.56 0.58 0.59 0.58 0.56
0.67 0.66 0.66 0.66 0.66 0.65 0.65 0.64 0.64 0.64 0.66 0.56 0.46 0.45 0.57 0.67 0.53 0.42 0.36 0.33 0.34 0.30 0.35 0.34 0.35 0.30 0.43 0.31 0.33 0.39 0.35 0.36 0.27 0.33 0.32 0.31 0.28 0.34 0.41 0.45 0.51 0.53 0.54 0.56 0.55 0.53 0.52 0.51 0.53 0.58 0.61 0.61 0.62 0.63
0.66 0.65 0.65 0.63 0.63 0.64 0.64 0.63 0.62 0.58 0.55 0.50 0.48 0.57 0.56 0.46 0.39 0.31 0.29 0.31 0.28 0.28 0.35 0.33 0.35 0.36 0.37 0.41 0.35 0.41 0.37 0.39 0.28 0.43 0.32 0.23 0.28 0.38 0.42 0.44 0.47 0.51 0.51 0.52 0.56 0.55 0.57 0.61 0.63 0.63 0.62 0.63 0.62 0.61
0.62 0.63 0.63 0.64 0.63 0.63 0.63 0.63 0.63 0.58 0.58 0.56 0.45 0.38 0.35 0.33 0.25 0.24 0.23 0.27 0.28 0.34 0.36 0.36 0.32 0.35 0.37 0.41 0.39 0.38 0.32 0.31 0.43 0.31 0.24 0.24 0.31 0.34 0.37 0.40 0.41 0.44 0.47 0.48 0.49 0.52 0.54 0.55 0.56 0.56 0.56 0.58 0.58 0.57
0.58 0.59 0.58 0.59 0.59 0.58 0.60 0.59 0.60 0.52 0.45 0.35 0.31 0.24 0.25 0.23 0.24 0.25 0.27 0.29 0.36 0.37 0.39 0.40 0.39 0.39 0.43 0.38 0.39 0.31 0.35 0.35 0.27 0.22 0.21 0.25 0.30 0.33 0.36 0.39 0.40 0.40 0.45 0.45 0.45 0.47 0.47 0.47 0.48 0.50 0.50 0.51 0.50 0.50
0.60 0.57 0.59 0.53 0.52 0.51 0.51 0.51 0.48 0.43 0.37 0.29 0.28 0.21 0.22 0.26 0.28 0.30 0.33 0.34 0.39 0.43 0.43 0.42 0.43 0.42 0.38 0.35 0.34 0.32 0.27 0.22 0.22 0.21 0.24 0.29 0.33 0.34 0.36 0.38 0.39 0.40 0.41 0.41 0.43 0.43 0.43 0.44 0.45 0.45 0.46 0.47 0.47 0.47
0.64 0.61 0.58 0.59 0.55 0.57 0.50 0.45 0.43 0.41 0.34 0.28 0.27 0.24 0.26 0.24 0.25 0.28 0.29 0.32 0.39 0.43 0.46 0.44 0.37 0.33 0.30 0.31 0.27 0.24 0.21 0.19 0.21 0.26 0.31 0.34 0.34 0.34 0.35 0.37 0.38 0.39 0.40 0.40 0.41 0.42 0.43 0.42 0.42 0.42 0.43 0.43 0.43 0.43
0.63 0.56 0.63 0.61 0.56 0.52 0.52 0.41 0.37 0.32 0.29 0.26 0.25 0.29 0.26 0.26 0.25 0.27 0.30 0.32 0.40 0.37 0.34 0.35 0.30 0.28 0.31 0.26 0.24 0.26 0.24 0.26 0.29 0.31 0.34 0.35 0.35 0.35 0.37 0.37 0.38 0.39 0.39 0.40 0.40 0.40 0.40 0.41 0.41 0.40 0.38 0.39 0.40 0.40
0.58 0.61 0.64 0.63 0.57 0.49 0.42 0.40 0.34 0.30 0.26 0.27 0.23 0.25 0.26 0.27 0.25 0.28 0.31 0.34 0.35 0.33 0.34 0.30 0.31 0.26 0.24 0.22 0.24 0.27 0.29 0.31 0.32 0.31 0.32 0.34 0.35 0.35 0.36 0.36 0.37 0.37 0.37 0.37 0.37 0.37 0.37 0.36 0.36 0.36 0.36 0.36 0.36 0.36
0.61 0.63 0.64 0.59 0.53 0.46 0.37 0.36 0.34 0.26 0.26 0.27 0.27 0.27 0.27 0.27 0.30 0.32 0.32 0.33 0.33 0.34 0.31 0.28 0.25 0.23 0.23 0.26 0.26 0.26 0.27 0.28 0.27 0.28 0.29 0.31 0.32 0.32 0.33 0.34 0.34 0.34 0.34 0.33 0.33 0.33 0.33 0.34 0.33 0.34 0.33 0.33 0.32 0.32
0.65 0.63 0.60 0.59 0.54 0.43 0.36 0.36 0.40 0.30 0.27 0.28 0.30 0.28 0.28 0.28 0.30 0.31 0.32 0.33 0.33 0.31 0.26 0.22 0.20 0.22 0.22 0.24 0.25 0.25 0.25 0.26 0.25 0.24 0.25 0.26 0.28 0.28 0.28 0.28 0.28 0.29 0.29 0.29 0.29 0.30 0.29 0.29 0.29 0.29 0.29 0.29 0.27 0.26
0.59 0.53 0.51 0.49 0.46 0.45 0.42 0.39 0.36 0.34 0.33 0.30 0.32 0.31 0.29 0.31 0.30 0.31 0.30 0.30 0.27 0.22 0.17 0.20 0.21 0.24 0.26 0.26 0.27 0.27 0.26 0.26 0.24 0.24 0.23 0.23 0.26 0.26 0.26 0.27 0.27 0.27 0.26 0.25 0.25 0.25 0.25 0.24 0.24 0.23 0.20 0.17 0.16 0.14
0.48 0.45 0.35 0.36 0.29 0.30 0.29 0.33 0.28 0.30 0.27 0.26 0.26 0.25 0.23 0.21 0.20 0.21 0.23 0.19 0.16 0.18 0.20 0.20 0.21 0.22 0.22 0.22 0.23 0.25 0.25 0.25 0.25 0.24 0.25 0.24 0.23 0.23 0.23 0.24 0.24 0.23 0.23 0.21 0.19 0.17 0.16 0.15 0.14 0.13 0.12 0.11 0.10 0.09
0.37 0.33 0.29 0.25 0.19 0.20 0.21 0.29 0.21 0.23 0.17 0.17 0.18 0.16 0.15 0.14 0.14 0.16 0.13 0.15 0.16 0.19 0.20 0.20 0.20 0.21 0.21 0.22 0.22 0.22 0.22 0.21 0.20 0.20 0.20 0.20 0.20 0.20 0.19 0.18 0.17 0.14 0.13 0.12 0.12 0.11 0.10 0.11 0.10 0.09 0.09 0.08 0.08 0.07
0.31 0.24 0.20 0.17 0.17 0.15 0.20 0.17 0.19 0.16 0.15 0.14 0.13 0.12 0.14 0.14 0.14 0.11 0.10 0.13 0.17 0.19 0.19 0.18 0.18 0.18 0.18 0.18 0.18 0.18 0.19 0.19 0.17 0.16 0.15 0.13 0.12 0.12 0.12 0.11 0.11 0.10 0.10 0.09 0.09 0.08 0.07 0.07 0.08 0.07 0.07 0.07 0.07 0.06
0.14 0.17 0.17 0.13 0.17 0.13 0.12 0.12 0.12 0.11 0.10 0.11 0.10 0.11 0.12 0.14 0.10 0.10 0.10 0.12 0.15 0.16 0.17 0.18 0.17 0.16 0.15 0.15 0.15 0.15 0.16 0.16 0.14 0.13 0.13 0.11 0.10 0.09 0.08 0.09 0.09 0.09 0.09 0.08 0.07 0.07 0.07 0.07 0.06 0.06 0.06 0.06 0.06 0.06
0.11 0.16 0.14 0.14 0.14 0.13 0.13 0.10 0.11 0.11 0.11 0.10 0.11 0.13 0.13 0.10 0.09 0.08 0.11 0.13 0.14 0.16 0.16 0.16 0.15 0.15 0.15 0.15 0.14 0.13 0.13 0.12 0.11 0.09 0.10 0.10 0.10 0.08 0.07 0.06 0.06 0.07 0.09 0.08 0.07 0.06 0.07 0.07 0.06 0.06 0.06 0.06 0.06 0.07
0.11 0.13 0.16 0.19 0.17 0.15 0.13 0.13 0.13 0.11 0.09 0.09 0.11 0.11 0.09 0.07 0.07 0.10 0.14 0.16 0.15 0.17 0.18 0.17 0.16 0.15 0.13 0.12 0.12 0.12 0.11 0.10 0.09 0.08 0.08 0.08 0.08 0.08 0.08 0.06 0.06 0.07 0.08 0.08 0.07 0.07 0.06 0.06 0.07 0.07 0.07 0.07 0.07 0.07
0.16 0.16 0.12 0.13 0.12 0.13 0.09 0.09 0.08 0.08 0.10 0.12 0.10 0.08 0.07 0.07 0.08 0.12 0.14 0.16 0.16 0.17 0.17 0.17 0.17 0.16 0.15 0.14 0.13 0.12 0.11 0.10 0.10 0.10 0.10 0.09 0.09 0.08 0.08 0.08 0.09 0.08 0.07 0.07 0.06 0.07 0.07 0.07 0.07 0.07 0.07 0.06 0.07 0.07
0.13 0.14 0.12 0.08 0.09 0.09 0.09 0.09 0.09 0.11 0.12 0.12 0.08 0.08 0.09 0.12 0.14 0.14 0.15 0.16 0.16 0.15 0.14 0.14 0.13 0.13 0.12 0.12 0.11 0.10 0.09 0.08 0.07 0.06 0.06 0.06 0.07 0.07 0.08 0.08 0.08 0.08 0.08 0.08 0.08 0.08 0.08 0.08 0.07 0.07 0.07 0.07 0.07 0.07
0.12 0.12 0.09 0.09 0.08 0.08 0.10 0.11 0.10 0.12 0.12 0.11 0.11 0.11 0.11 0.13 0.15 0.17 0.16 0.15 0.14 0.13 0.12 0.12 0.13 0.12 0.11 0.09 0.06 0.06 0.08 0.09 0.09 0.08 0.07 0.07 0.07 0.08 0.08 0.07 0.08 0.08 0.08 0.08 0.08 0.07 0.07 0.08 0.08 0.08 0.07 0.07 0.07 0.07
0.13 0.11 0.09 0.10 0.09 0.11 0.12 0.12 0.12 0.11 0.11 0.10 0.11 0.10 0.10 0.12 0.14 0.16 0.15 0.15 0.14 0.14 0.12 0.12 0.12 0.11 0.10 0.08 0.07 0.07 0.07 0.08 0.08 0.08 0.08 0.08 0.08 0.07 0.07 0.08 0.08 0.08 0.08 0.08 0.07 0.07 0.07 0.06 0.06 0.06 0.06 0.06 0.06 0.06
0.12 0.09 0.09 0.08 0.10 0.13 0.14 0.13 0.11 0.11 0.11 0.10 0.10 0.11 0.11 0.10 0.09 0.11 0.14 0.14 0.12 0.11 0.11 0.11 0.10 0.09 0.09 0.09 0.08 0.08 0.08 0.07 0.08 0.08 0.08 0.08 0.08 0.08 0.08 0.08 0.08 0.08 0.07 0.07 0.07 0.07 0.07 0.07 0.07 0.07 0.06 0.06 0.06 0.06
0.11 0.11 0.10 0.10 0.11 0.11 0.13 0.13 0.11 0.11 0.11 0.10 0.11 0.11 0.11 0.10 0.08 0.11 0.14 0.14 0.13 0.13 0.12 0.12 0.12 0.11 0.09 0.08 0.08 0.08 0.08 0.08 0.08 0.08 0.07 0.07 0.07 0.07 0.07 0.07 0.07 0.07 0.07 0.07 0.06 0.07 0.07 0.07 0.07 0.07 0.07 0.06 0.06 0.06

GFSWCAN_prec_pwat_069.txt.gz
Precipitable_Water
0.67 0.66 0.64 0.67 0.68 0.67 0.66 0.66 0.68 0.70 0.65 0.63 0.62 0.61 0.62 0.63 0.65 0.66 0.61 0.67 0.56 0.46 0.49 0.53 0.51 0.42 0.43 0.42 0.33 0.38 0.37 0.38 0.36 0.28 0.27 0.27 0.24 0.23 0.19 0.22 0.23 0.24 0.24 0.25 0.29 0.26 0.20 0.46 0.48 0.39 0.60 0.61 0.60 0.59
0.66 0.62 0.62 0.63 0.65 0.67 0.70 0.68 0.69 0.71 0.70 0.68 0.66 0.61 0.59 0.59 0.61 0.64 0.53 0.65 0.66 0.51 0.48 0.60 0.59 0.59 0.52 0.49 0.44 0.43 0.35 0.34 0.34 0.30 0.30 0.31 0.25 0.27 0.25 0.18 0.33 0.23 0.31 0.27 0.31 0.28 0.36 0.40 0.40 0.51 0.67 0.70 0.66 0.61
0.63 0.61 0.64 0.64 0.63 0.62 0.63 0.65 0.65 0.68 0.69 0.66 0.64 0.64 0.60 0.61 0.60 0.59 0.55 0.61 0.58 0.47 0.46 0.48 0.46 0.60 0.64 0.58 0.56 0.39 0.41 0.44 0.41 0.43 0.36 0.34 0.26 0.31 0.23 0.22 0.25 0.29 0.31 0.24 0.27 0.28 0.37 0.36 0.39 0.48 0.58 0.53 0.53 0.66
0.61 0.62 0.63 0.61 0.59 0.56 0.54 0.56 0.60 0.62 0.64 0.64 0.65 0.66 0.65 0.64 0.63 0.64 0.55 0.58 0.54 0.47 0.35 0.36 0.51 0.54 0.64 0.65 0.56 0.53 0.49 0.52 0.51 0.49 0.40 0.36 0.30 0.37 0.28 0.30 0.30 0.31 0.31 0.28 0.27 0.27 0.30 0.39 0.40 0.43 0.51 0.54 0.57 0.57
0.63 0.63 0.60 0.57 0.59 0.60 0.61 0.58 0.56 0.55 0.59 0.63 0.65 0.65 0.66 0.66 0.67 0.66 0.63 0.61 0.57 0.41 0.33 0.34 0.50 0.55 0.64 0.67 0.60 0.58 0.54 0.50 0.47 0.41 0.38 0.34 0.39 0.39 0.41 0.39 0.31 0.37 0.35 0.33 0.32 0.43 0.40 0.38 0.43 0.50 0.50 0.52 0.57 0.58
0.64 0.61 0.59 0.60 0.61 0.62 0.65 0.61 0.55 0.57 0.59 0.60 0.63 0.66 0.67 0.68 0.67 0.59 0.45 0.61 0.62 0.55 0.40 0.32 0.47 0.46 0.55 0.59 0.58 0.55 0.54 0.50 0.47 0.43 0.41 0.41 0.52 0.43 0.35 0.29 0.41 0.45 0.46 0.48 0.42 0.53 0.57 0.59 0.60 0.60 0.52 0.50 0.53 0.59
0.65 0.61 0.57 0.59 0.60 0.65 0.63 0.58 0.55 0.59 0.61 0.63 0.64 0.65 0.68 0.67 0.60 0.47 0.40 0.51 0.64 0.61 0.43 0.36 0.37 0.52 0.54 0.52 0.53 0.54 0.54 0.49 0.46 0.45 0.43 0.44 0.46 0.48 0.41 0.35 0.43 0.45 0.47 0.53 0.57 0.58 0.52 0.54 0.53 0.57 0.54 0.52 0.54 0.56
0.65 0.60 0.57 0.61 0.62 0.64 0.63 0.61 0.63 0.62 0.61 0.60 0.60 0.65 0.67 0.65 0.62 0.50 0.57 0.62 0.62 0.53 0.47 0.34 0.37 0.41 0.57 0.45 0.44 0.53 0.48 0.50 0.47 0.42 0.42 0.37 0.41 0.41 0.35 0.40 0.44 0.48 0.52 0.54 0.60 0.62 0.61 0.62 0.60 0.56 0.58 0.56 0.53 0.55
0.65 0.64 0.58 0.61 0.62 0.63 0.63 0.65 0.66 0.64 0.64 0.65 0.65 0.66 0.63 0.57 0.50 0.52 0.64 0.64 0.63 0.52 0.38 0.38 0.31 0.30 0.53 0.46 0.47 0.46 0.47 0.36 0.44 0.36 0.35 0.37 0.35 0.30 0.34 0.38 0.42 0.46 0.46 0.47 0.56 0.60 0.60 0.58 0.57 0.57 0.56 0.55 0.55 0.55
0.66 0.65 0.61 0.59 0.62 0.65 0.66 0.65 0.64 0.64 0.63 0.62 0.56 0.47 0.41 0.54 0.65 0.63 0.57 0.48 0.49 0.48 0.40 0.36 0.41 0.33 0.43 0.40 0.38 0.37 0.39 0.31 0.27 0.32 0.40 0.32 0.30 0.36 0.39 0.40 0.44 0.47 0.50 0.52 0.49 0.50 0.51 0.52 0.54 0.53 0.52 0.55 0.55 0.55
0.64 0.63 0.63 0.61 0.61 0.62 0.65 0.65 0.63 0.63 0.63 0.55 0.45 0.40 0.57 0.67 0.53 0.48 0.38 0.36 0.36 0.32 0.35 0.37 0.36 0.33 0.45 0.34 0.34 0.38 0.32 0.32 0.23 0.29 0.31 0.27 0.25 0.31 0.37 0.38 0.41 0.46 0.49 0.51 0.54 0.54 0.54 0.53 0.51 0.53 0.54 0.55 0.53 0.53
0.64 0.64 0.63 0.62 0.64 0.64 0.64 0.64 0.63 0.60 0.55 0.54 0.54 0.59 0.58 0.47 0.39 0.31 0.28 0.31 0.30 0.29 0.36 0.34 0.34 0.37 0.40 0.44 0.34 0.37 0.30 0.35 0.26 0.38 0.30 0.22 0.26 0.32 0.35 0.37 0.39 0.42 0.46 0.48 0.50 0.50 0.49 0.51 0.52 0.52 0.52 0.52 0.52 0.54
0.64 0.64 0.64 0.63 0.62 0.62 0.62 0.62 0.62 0.63 0.63 0.53 0.42 0.34 0.31 0.30 0.23 0.22 0.21 0.24 0.25 0.32 0.34 0.37 0.34 0.38 0.38 0.39 0.34 0.36 0.29 0.30 0.40 0.29 0.23 0.24 0.30 0.33 0.35 0.38 0.39 0.43 0.44 0.44 0.45 0.47 0.47 0.48 0.50 0.49 0.48 0.51 0.52 0.53
0.58 0.58 0.59 0.59 0.59 0.60 0.54 0.52 0.52 0.48 0.41 0.32 0.28 0.22 0.22 0.20 0.22 0.23 0.24 0.26 0.32 0.35 0.35 0.35 0.34 0.34 0.37 0.33 0.38 0.30 0.32 0.33 0.25 0.21 0.21 0.27 0.31 0.33 0.35 0.36 0.36 0.37 0.39 0.39 0.41 0.43 0.44 0.45 0.45 0.46 0.47 0.47 0.47 0.46
0.60 0.60 0.56 0.54 0.53 0.53 0.53 0.51 0.43 0.41 0.34 0.28 0.26 0.20 0.22 0.26 0.29 0.31 0.34 0.34 0.36 0.39 0.40 0.39 0.39 0.39 0.35 0.33 0.32 0.30 0.25 0.21 0.21 0.21 0.26 0.30 0.33 0.34 0.34 0.34 0.35 0.36 0.37 0.38 0.40 0.41 0.42 0.42 0.42 0.41 0.43 0.44 0.45 0.44
0.62 0.59 0.57 0.53 0.50 0.49 0.45 0.44 0.42 0.40 0.33 0.28 0.25 0.23 0.26 0.25 0.26 0.30 0.32 0.34 0.41 0.42 0.44 0.42 0.36 0.31 0.29 0.29 0.25 0.23 0.21 0.20 0.22 0.26 0.29 0.32 0.32 0.33 0.33 0.34 0.36 0.36 0.37 0.38 0.39 0.39 0.40 0.40 0.39 0.39 0.41 0.40 0.40 0.40
0.62 0.53 0.59 0.55 0.51 0.47 0.43 0.38 0.34 0.31 0.27 0.25 0.24 0.27 0.26 0.25 0.26 0.29 0.32 0.35 0.42 0.39 0.34 0.35 0.28 0.26 0.30 0.25 0.23 0.24 0.22 0.25 0.27 0.29 0.30 0.31 0.31 0.32 0.33 0.34 0.35 0.36 0.36 0.35 0.35 0.36 0.36 0.37 0.38 0.37 0.35 0.36 0.37 0.37
0.56 0.60 0.59 0.57 0.53 0.47 0.41 0.37 0.31 0.27 0.23 0.25 0.22 0.24 0.26 0.27 0.27 0.29 0.31 0.34 0.36 0.33 0.34 0.30 0.30 0.26 0.24 0.22 0.22 0.24 0.26 0.28 0.30 0.30 0.30 0.30 0.31 0.32 0.33 0.33 0.33 0.33 0.33 0.34 0.34 0.34 0.35 0.34 0.34 0.33 0.34 0.34 0.34 0.33
0.61 0.61 0.58 0.54 0.49 0.41 0.34 0.32 0.29 0.22 0.23 0.24 0.24 0.25 0.26 0.26 0.28 0.30 0.30 0.30 0.31 0.31 0.30 0.29 0.25 0.24 0.24 0.26 0.25 0.26 0.27 0.28 0.27 0.28 0.29 0.30 0.30 0.30 0.30 0.31 0.32 0.32 0.32 0.31 0.31 0.31 0.31 0.32 0.31 0.31 0.31 0.31 0.29 0.30
0.63 0.59 0.55 0.53 0.50 0.38 0.31 0.30 0.32 0.24 0.21 0.22 0.25 0.24 0.26 0.27 0.29 0.29 0.30 0.31 0.33 0.32 0.25 0.21 0.21 0.22 0.22 0.24 0.25 0.25 0.25 0.26 0.25 0.24 0.24 0.25 0.27 0.27 0.27 0.28 0.28 0.28 0.28 0.28 0.28 0.28 0.27 0.27 0.27 0.27 0.26 0.24 0.21 0.19
0.54 0.51 0.52 0.48 0.44 0.42 0.37 0.32 0.27 0.28 0.27 0.24 0.26 0.26 0.25 0.28 0.29 0.29 0.30 0.31 0.26 0.22 0.18 0.20 0.21 0.23 0.25 0.25 0.25 0.25 0.24 0.24 0.23 0.23 0.23 0.23 0.25 0.26 0.26 0.27 0.27 0.26 0.26 0.25 0.25 0.24 0.24 0.22 0.20 0.17 0.15 0.14 0.13 0.13
0.41 0.46 0.41 0.43 0.37 0.37 0.34 0.38 0.34 0.35 0.31 0.31 0.32 0.31 0.28 0.25 0.24 0.24 0.23 0.19 0.15 0.17 0.18 0.18 0.19 0.20 0.19 0.19 0.20 0.22 0.22 0.22 0.22 0.21 0.22 0.22 0.20 0.21 0.21 0.22 0.22 0.21 0.21 0.19 0.17 0.15 0.14 0.14 0.13 0.12 0.11 0.10 0.09 0.09
0.33 0.32 0.29 0.27 0.23 0.26 0.28 0.35 0.27 0.28 0.21 0.21 0.21 0.18 0.16 0.15 0.16 0.18 0.13 0.14 0.15 0.18 0.18 0.18 0.19 0.20 0.19 0.20 0.20 0.20 0.21 0.20 0.19 0.19 0.19 0.19 0.19 0.18 0.17 0.15 0.14 0.12 0.11 0.10 0.11 0.10 0.10 0.10 0.09 0.08 0.08 0.07 0.06 0.06
0.30 0.23 0.18 0.16 0.17 0.17 0.21 0.18 0.19 0.16 0.16 0.14 0.13 0.11 0.12 0.11 0.13 0.11 0.10 0.13 0.15 0.18 0.17 0.17 0.18 0.17 0.18 0.18 0.17 0.17 0.18 0.17 0.15 0.14 0.14 0.13 0.11 0.11 0.11 0.10 0.10 0.10 0.09 0.08 0.08 0.08 0.08 0.08 0.08 0.07 0.07 0.06 0.06 0.06
0.15 0.15 0.15 0.13 0.16 0.13 0.12 0.13 0.13 0.12 0.10 0.11 0.11 0.12 0.12 0.13 0.10 0.10 0.10 0.12 0.15 0.16 0.16 0.17 0.16 0.16 0.14 0.14 0.15 0.16 0.17 0.16 0.13 0.12 0.12 0.11 0.09 0.09 0.08 0.08 0.08 0.08 0.09 0.07 0.07 0.06 0.06 0.07 0.07 0.06 0.06 0.06 0.06 0.06
0.11 0.16 0.13 0.13 0.13 0.12 0.12 0.09 0.10 0.10 0.10 0.10 0.11 0.12 0.12 0.09 0.08 0.08 0.11 0.13 0.14 0.15 0.15 0.15 0.15 0.14 0.14 0.14 0.13 0.12 0.12 0.13 0.12 0.09 0.09 0.10 0.09 0.08 0.07 0.07 0.07 0.07 0.09 0.08 0.07 0.06 0.06 0.06 0.06 0.06 0.06 0.07 0.07 0.07
0.11 0.13 0.16 0.18 0.16 0.13 0.11 0.12 0.12 0.10 0.09 0.09 0.11 0.10 0.09 0.06 0.07 0.10 0.14 0.16 0.15 0.16 0.17 0.16 0.15 0.14 0.13 0.13 0.12 0.12 0.11 0.10 0.08 0.08 0.08 0.09 0.09 0.08 0.07 0.06 0.06 0.07 0.08 0.08 0.07 0.07 0.06 0.06 0.06 0.07 0.07 0.07 0.06 0.06
0.14 0.14 0.11 0.12 0.11 0.11 0.09 0.08 0.08 0.08 0.09 0.12 0.10 0.08 0.07 0.07 0.08 0.12 0.14 0.16 0.17 0.17 0.17 0.16 0.15 0.14 0.13 0.12 0.11 0.10 0.09 0.09 0.09 0.08 0.08 0.08 0.08 0.08 0.08 0.08 0.08 0.08 0.07 0.07 0.07 0.07 0.07 0.07 0.07 0.07 0.06 0.06 0.06 0.07
0.13 0.13 0.10 0.08 0.08 0.09 0.09 0.09 0.09 0.11 0.12 0.10 0.07 0.07 0.08 0.11 0.13 0.14 0.15 0.16 0.17 0.16 0.14 0.14 0.13 0.13 0.12 0.12 0.11 0.09 0.08 0.08 0.07 0.06 0.06 0.06 0.07 0.07 0.08 0.08 0.08 0.08 0.08 0.08 0.08 0.08 0.08 0.08 0.07 0.07 0.07 0.07 0.07 0.07
0.11 0.11 0.08 0.09 0.08 0.08 0.10 0.11 0.10 0.12 0.12 0.11 0.11 0.11 0.11 0.12 0.15 0.16 0.15 0.14 0.13 0.13 0.13 0.12 0.12 0.11 0.10 0.08 0.06 0.07 0.08 0.09 0.09 0.08 0.07 0.07 0.07 0.07 0.07 0.07 0.08 0.08 0.08 0.08 0.08 0.07 0.07 0.07 0.07 0.07 0.07 0.07 0.07 0.07
0.12 0.10 0.09 0.10 0.09 0.11 0.11 0.11 0.11 0.11 0.11 0.10 0.11 0.09 0.09 0.11 0.14 0.15 0.15 0.15 0.14 0.13 0.12 0.12 0.12 0.11 0.10 0.08 0.07 0.06 0.06 0.08 0.08 0.08 0.08 0.07 0.07 0.07 0.07 0.07 0.08 0.08 0.08 0.08 0.07 0.07 0.06 0.06 0.06 0.06 0.06 0.06 0.06 0.06
0.10 0.09 0.09 0.09 0.10 0.13 0.14 0.12 0.11 0.10 0.10 0.10 0.10 0.10 0.10 0.10 0.09 0.12 0.14 0.14 0.13 0.12 0.12 0.12 0.11 0.10 0.10 0.09 0.08 0.08 0.08 0.08 0.08 0.08 0.08 0.08 0.08 0.08 0.08 0.08 0.08 0.08 0.07 0.07 0.07 0.07 0.07 0.06 0.06 0.06 0.06 0.06 0.06 0.06
0.10 0.10 0.11 0.10 0.10 0.10 0.12 0.11 0.10 0.10 0.10 0.10 0.10 0.11 0.10 0.09 0.08 0.11 0.14 0.14 0.13 0.12 0.12 0.12 0.12 0.11 0.10 0.08 0.07 0.07 0.08 0.08 0.08 0.08 0.07 0.07 0.07 0.07 0.07 0.07 0.07 0.07 0.07 0.07 0.06 0.06 0.06 0.07 0.06 0.06 0.06 0.06 0.06 0.06

GFSWCAN_prec_pwat_075.txt.gz
Precipitable_Water
0.64 0.65 0.66 0.67 0.65 0.62 0.60 0.62 0.63 0.62 0.64 0.68 0.65 0.64 0.66 0.64 0.64 0.59 0.52 0.60 0.49 0.39 0.44 0.48 0.47 0.44 0.45 0.43 0.35 0.41 0.40 0.42 0.39 0.30 0.28 0.27 0.25 0.27 0.25 0.27 0.30 0.26 0.24 0.22 0.25 0.22 0.17 0.38 0.42 0.33 0.39 0.40 0.42 0.39
0.66 0.67 0.66 0.64 0.61 0.60 0.60 0.61 0.62 0.62 0.63 0.68 0.66 0.63 0.65 0.68 0.65 0.62 0.49 0.61 0.63 0.47 0.46 0.60 0.59 0.59 0.52 0.50 0.45 0.46 0.39 0.39 0.39 0.33 0.32 0.31 0.27 0.30 0.27 0.21 0.31 0.23 0.31 0.29 0.28 0.26 0.37 0.45 0.42 0.39 0.40 0.37 0.38 0.38
0.67 0.66 0.60 0.58 0.56 0.57 0.58 0.57 0.59 0.61 0.64 0.68 0.66 0.65 0.65 0.67 0.68 0.65 0.55 0.61 0.57 0.46 0.47 0.49 0.50 0.60 0.66 0.62 0.61 0.42 0.45 0.47 0.43 0.44 0.36 0.34 0.27 0.31 0.24 0.26 0.28 0.31 0.33 0.26 0.25 0.27 0.28 0.31 0.39 0.47 0.47 0.43 0.45 0.46
0.66 0.60 0.57 0.56 0.57 0.59 0.60 0.60 0.59 0.58 0.63 0.68 0.66 0.66 0.65 0.65 0.67 0.66 0.58 0.64 0.58 0.50 0.38 0.42 0.62 0.55 0.64 0.63 0.61 0.57 0.53 0.56 0.54 0.49 0.39 0.35 0.30 0.36 0.29 0.30 0.29 0.32 0.33 0.30 0.29 0.32 0.32 0.32 0.38 0.42 0.41 0.44 0.44 0.48
0.59 0.58 0.58 0.59 0.60 0.59 0.61 0.63 0.61 0.59 0.61 0.69 0.67 0.66 0.65 0.65 0.68 0.65 0.64 0.64 0.63 0.47 0.35 0.38 0.50 0.53 0.57 0.61 0.58 0.59 0.56 0.53 0.49 0.43 0.40 0.36 0.41 0.39 0.39 0.37 0.31 0.36 0.31 0.27 0.25 0.37 0.37 0.37 0.45 0.47 0.43 0.45 0.47 0.48
0.59 0.60 0.62 0.61 0.61 0.60 0.62 0.60 0.60 0.61 0.59 0.68 0.67 0.66 0.65 0.65 0.66 0.59 0.45 0.61 0.65 0.61 0.42 0.32 0.44 0.46 0.49 0.54 0.54 0.55 0.56 0.53 0.51 0.45 0.42 0.45 0.49 0.40 0.31 0.28 0.36 0.40 0.42 0.42 0.38 0.46 0.45 0.48 0.51 0.51 0.46 0.49 0.53 0.53
0.61 0.64 0.62 0.61 0.59 0.58 0.58 0.61 0.56 0.58 0.61 0.68 0.67 0.66 0.64 0.65 0.62 0.49 0.44 0.55 0.63 0.61 0.41 0.31 0.32 0.43 0.46 0.50 0.51 0.52 0.56 0.53 0.50 0.47 0.43 0.43 0.42 0.43 0.34 0.26 0.36 0.39 0.41 0.44 0.48 0.48 0.44 0.48 0.46 0.50 0.50 0.52 0.57 0.54
0.63 0.62 0.63 0.61 0.60 0.60 0.59 0.60 0.57 0.58 0.65 0.68 0.67 0.65 0.65 0.64 0.62 0.54 0.59 0.60 0.60 0.48 0.43 0.30 0.30 0.35 0.46 0.38 0.38 0.52 0.48 0.50 0.49 0.46 0.47 0.41 0.45 0.43 0.30 0.33 0.35 0.37 0.41 0.43 0.43 0.47 0.48 0.52 0.52 0.51 0.51 0.54 0.54 0.55
0.63 0.64 0.62 0.61 0.61 0.62 0.61 0.59 0.58 0.65 0.66 0.68 0.67 0.65 0.62 0.55 0.47 0.52 0.66 0.63 0.59 0.46 0.32 0.30 0.25 0.28 0.48 0.41 0.43 0.46 0.49 0.38 0.49 0.41 0.41 0.44 0.37 0.29 0.29 0.31 0.33 0.35 0.35 0.35 0.41 0.45 0.49 0.47 0.47 0.49 0.51 0.53 0.52 0.52
0.60 0.62 0.62 0.63 0.61 0.63 0.63 0.65 0.67 0.67 0.65 0.65 0.60 0.49 0.41 0.52 0.64 0.62 0.54 0.44 0.43 0.43 0.41 0.31 0.38 0.31 0.41 0.39 0.38 0.41 0.42 0.37 0.32 0.38 0.45 0.36 0.30 0.33 0.33 0.34 0.34 0.35 0.36 0.37 0.36 0.38 0.43 0.45 0.46 0.48 0.49 0.51 0.54 0.52
0.61 0.63 0.61 0.60 0.61 0.62 0.60 0.63 0.63 0.64 0.63 0.56 0.46 0.41 0.56 0.64 0.52 0.45 0.35 0.33 0.34 0.31 0.36 0.36 0.37 0.35 0.47 0.34 0.35 0.41 0.36 0.35 0.26 0.32 0.33 0.27 0.22 0.27 0.33 0.33 0.34 0.35 0.35 0.36 0.38 0.41 0.43 0.46 0.45 0.46 0.47 0.49 0.50 0.50
0.63 0.61 0.60 0.58 0.60 0.63 0.63 0.62 0.62 0.59 0.55 0.53 0.51 0.56 0.53 0.44 0.38 0.30 0.29 0.33 0.31 0.28 0.36 0.35 0.38 0.42 0.43 0.48 0.38 0.38 0.32 0.33 0.23 0.35 0.28 0.20 0.22 0.28 0.29 0.29 0.31 0.33 0.35 0.35 0.38 0.39 0.40 0.42 0.44 0.45 0.46 0.46 0.47 0.46
0.60 0.62 0.60 0.59 0.55 0.55 0.56 0.61 0.59 0.57 0.51 0.44 0.37 0.31 0.31 0.30 0.24 0.21 0.20 0.24 0.26 0.33 0.36 0.37 0.35 0.40 0.44 0.42 0.37 0.34 0.27 0.24 0.32 0.25 0.20 0.20 0.24 0.26 0.29 0.31 0.32 0.34 0.36 0.35 0.35 0.37 0.38 0.39 0.41 0.42 0.40 0.41 0.43 0.43
0.57 0.58 0.58 0.56 0.55 0.51 0.49 0.55 0.53 0.49 0.37 0.29 0.25 0.22 0.22 0.20 0.22 0.23 0.24 0.26 0.30 0.33 0.35 0.37 0.35 0.34 0.37 0.32 0.33 0.25 0.28 0.29 0.22 0.18 0.17 0.22 0.27 0.28 0.31 0.33 0.33 0.33 0.35 0.34 0.34 0.35 0.35 0.36 0.37 0.38 0.38 0.38 0.38 0.38
0.56 0.54 0.55 0.55 0.50 0.46 0.44 0.43 0.42 0.39 0.30 0.24 0.24 0.19 0.20 0.25 0.27 0.28 0.30 0.30 0.33 0.36 0.37 0.36 0.34 0.33 0.30 0.28 0.28 0.27 0.23 0.20 0.20 0.18 0.22 0.26 0.28 0.30 0.31 0.32 0.32 0.32 0.32 0.33 0.33 0.33 0.34 0.35 0.35 0.35 0.36 0.36 0.36 0.37
0.56 0.52 0.50 0.51 0.50 0.46 0.43 0.39 0.37 0.33 0.28 0.24 0.22 0.21 0.24 0.24 0.25 0.28 0.29 0.30 0.35 0.36 0.38 0.36 0.30 0.27 0.25 0.25 0.23 0.21 0.20 0.18 0.21 0.24 0.27 0.29 0.29 0.30 0.30 0.31 0.32 0.32 0.32 0.32 0.32 0.32 0.33 0.33 0.33 0.33 0.34 0.34 0.34 0.34
0.54 0.48 0.54 0.50 0.45 0.44 0.43 0.37 0.33 0.28 0.25 0.23 0.23 0.27 0.27 0.27 0.26 0.29 0.31 0.33 0.38 0.36 0.31 0.32 0.26 0.23 0.29 0.24 0.22 0.24 0.21 0.23 0.26 0.27 0.28 0.29 0.29 0.29 0.30 0.30 0.30 0.31 0.30 0.31 0.31 0.31 0.31 0.32 0.32 0.31 0.30 0.31 0.31 0.31
0.50 0.54 0.53 0.48 0.48 0.40 0.38 0.36 0.31 0.27 0.24 0.26 0.25 0.27 0.29 0.30 0.29 0.30 0.32 0.35 0.35 0.34 0.34 0.29 0.30 0.25 0.23 0.21 0.21 0.24 0.26 0.27 0.28 0.28 0.28 0.28 0.29 0.29 0.29 0.29 0.29 0.29 0.29 0.29 0.30 0.30 0.30 0.29 0.29 0.28 0.29 0.29 0.29 0.28
0.54 0.53 0.51 0.43 0.40 0.35 0.29 0.30 0.29 0.24 0.24 0.26 0.27 0.28 0.28 0.27 0.28 0.29 0.30 0.31 0.33 0.34 0.32 0.31 0.26 0.23 0.23 0.25 0.24 0.25 0.25 0.26 0.24 0.25 0.26 0.27 0.27 0.27 0.28 0.28 0.29 0.28 0.28 0.28 0.28 0.28 0.28 0.28 0.27 0.27 0.27 0.26 0.23 0.21
0.55 0.51 0.50 0.46 0.40 0.31 0.27 0.27 0.30 0.25 0.22 0.25 0.27 0.25 0.26 0.26 0.29 0.29 0.29 0.33 0.31 0.28 0.24 0.20 0.18 0.19 0.19 0.20 0.21 0.20 0.21 0.21 0.20 0.18 0.19 0.21 0.22 0.23 0.23 0.23 0.23 0.24 0.24 0.25 0.25 0.25 0.25 0.25 0.24 0.22 0.20 0.19 0.17 0.16
0.47 0.46 0.44 0.40 0.36 0.33 0.28 0.26 0.24 0.25 0.24 0.23 0.25 0.25 0.23 0.26 0.27 0.29 0.30 0.24 0.18 0.14 0.13 0.16 0.17 0.18 0.20 0.20 0.21 0.21 0.20 0.20 0.19 0.19 0.19 0.19 0.21 0.22 0.22 0.22 0.22 0.22 0.22 0.22 0.21 0.20 0.18 0.16 0.16 0.15 0.14 0.13 0.13 0.13
0.40 0.41 0.36 0.35 0.29 0.27 0.26 0.29 0.25 0.26 0.23 0.24 0.25 0.24 0.24 0.24 0.22 0.20 0.20 0.15 0.13 0.15 0.16 0.16 0.17 0.18 0.18 0.18 0.19 0.20 0.20 0.20 0.20 0.20 0.20 0.20 0.19 0.19 0.19 0.20 0.20 0.19 0.18 0.16 0.14 0.12 0.11 0.11 0.10 0.09 0.09 0.08 0.08 0.08
0.39 0.36 0.32 0.32 0.26 0.25 0.25 0.34 0.25 0.25 0.21 0.24 0.27 0.24 0.20 0.17 0.17 0.18 0.13 0.13 0.14 0.17 0.18 0.18 0.18 0.19 0.18 0.19 0.19 0.19 0.19 0.18 0.17 0.18 0.17 0.17 0.16 0.14 0.12 0.11 0.11 0.10 0.09 0.10 0.10 0.09 0.08 0.07 0.07 0.07 0.06 0.06 0.06 0.06
0.34 0.26 0.23 0.23 0.24 0.21 0.26 0.22 0.24 0.25 0.27 0.23 0.19 0.15 0.13 0.12 0.13 0.11 0.10 0.12 0.14 0.17 0.17 0.17 0.17 0.16 0.17 0.17 0.16 0.15 0.15 0.15 0.13 0.12 0.12 0.11 0.09 0.09 0.09 0.09 0.08 0.08 0.08 0.08 0.08 0.07 0.07 0.07 0.06 0.06 0.06 0.06 0.06 0.06
0.21 0.24 0.25 0.22 0.25 0.23 0.22 0.23 0.22 0.18 0.14 0.14 0.11 0.10 0.10 0.12 0.09 0.10 0.10 0.12 0.14 0.15 0.16 0.17 0.16 0.15 0.14 0.14 0.14 0.14 0.15 0.13 0.12 0.10 0.10 0.09 0.08 0.08 0.08 0.08 0.08 0.08 0.08 0.07 0.07 0.07 0.07 0.07 0.07 0.07 0.06 0.06 0.06 0.06
0.13 0.19 0.17 0.16 0.17 0.15 0.14 0.11 0.11 0.10 0.10 0.09 0.09 0.10 0.10 0.09 0.08 0.08 0.11 0.13 0.14 0.15 0.15 0.14 0.14 0.13 0.13 0.13 0.12 0.12 0.12 0.12 0.10 0.08 0.08 0.09 0.08 0.07 0.06 0.06 0.06 0.07 0.08 0.07 0.07 0.06 0.06 0.06 0.06 0.06 0.07 0.07 0.07 0.06
0.10 0.11 0.14 0.16 0.14 0.12 0.11 0.11 0.11 0.09 0.08 0.08 0.09 0.08 0.07 0.06 0.07 0.10 0.14 0.15 0.15 0.16 0.16 0.16 0.15 0.13 0.12 0.11 0.11 0.10 0.10 0.09 0.08 0.07 0.08 0.08 0.08 0.08 0.07 0.06 0.06 0.07 0.08 0.07 0.07 0.07 0.06 0.06 0.06 0.06 0.06 0.06 0.06 0.06
0.12 0.13 0.10 0.10 0.10 0.10 0.08 0.08 0.08 0.07 0.09 0.10 0.09 0.07 0.06 0.07 0.08 0.12 0.14 0.16 0.17 0.17 0.16 0.15 0.14 0.13 0.11 0.10 0.10 0.09 0.08 0.07 0.07 0.08 0.08 0.08 0.08 0.08 0.08 0.08 0.08 0.07 0.07 0.07 0.07 0.07 0.07 0.07 0.07 0.07 0.06 0.06 0.06 0.06
0.11 0.11 0.10 0.08 0.08 0.08 0.08 0.08 0.08 0.10 0.12 0.10 0.07 0.07 0.08 0.11 0.13 0.14 0.16 0.17 0.16 0.15 0.13 0.12 0.12 0.12 0.11 0.11 0.09 0.08 0.07 0.08 0.07 0.06 0.06 0.06 0.06 0.07 0.08 0.08 0.07 0.07 0.08 0.08 0.08 0.08 0.08 0.08 0.07 0.07 0.07 0.07 0.07 0.07
0.10 0.11 0.08 0.08 0.07 0.07 0.09 0.11 0.11 0.12 0.12 0.11 0.11 0.11 0.12 0.13 0.15 0.17 0.16 0.15 0.14 0.14 0.14 0.13 0.12 0.11 0.10 0.08 0.07 0.07 0.08 0.08 0.08 0.07 0.06 0.06 0.06 0.07 0.07 0.07 0.07 0.08 0.08 0.08 0.08 0.08 0.08 0.08 0.07 0.07 0.06 0.06 0.07 0.07
0.11 0.10 0.09 0.09 0.08 0.10 0.11 0.11 0.12 0.12 0.11 0.11 0.12 0.10 0.10 0.12 0.14 0.15 0.15 0.15 0.14 0.14 0.13 0.11 0.11 0.11 0.09 0.08 0.07 0.06 0.06 0.08 0.08 0.07 0.07 0.07 0.07 0.07 0.07 0.07 0.07 0.08 0.08 0.07 0.07 0.07 0.07 0.07 0.06 0.06 0.06 0.06 0.06 0.06
0.10 0.09 0.08 0.08 0.09 0.11 0.12 0.11 0.11 0.10 0.11 0.11 0.10 0.11 0.11 0.11 0.10 0.13 0.14 0.14 0.13 0.12 0.12 0.12 0.11 0.11 0.10 0.09 0.08 0.07 0.08 0.08 0.08 0.08 0.08 0.08 0.08 0.08 0.08 0.08 0.08 0.08 0.07 0.07 0.07 0.07 0.07 0.06 0.06 0.06 0.06 0.06 0.06 0.06
0.11 0.10 0.10 0.09 0.09 0.09 0.10 0.09 0.09 0.09 0.10 0.10 0.10 0.11 0.10 0.10 0.09 0.12 0.14 0.14 0.14 0.13 0.13 0.13 0.12 0.11 0.09 0.08 0.07 0.08 0.08 0.08 0.08 0.08 0.08 0.08 0.08 0.08 0.07 0.07 0.07 0.07 0.07 0.07 0.06 0.06 0.06 0.06 0.06 0.06 0.06 0.06 0.06 0.06

GFSWCAN_prec_pwat_078.txt.gz
Precipitable_Water
0.63 0.64 0.65 0.65 0.65 0.64 0.62 0.61 0.61 0.60 0.62 0.63 0.64 0.68 0.67 0.66 0.66 0.60 0.51 0.54 0.41 0.34 0.33 0.38 0.40 0.38 0.38 0.40 0.34 0.42 0.39 0.41 0.38 0.30 0.28 0.27 0.26 0.28 0.26 0.29 0.32 0.26 0.24 0.23 0.24 0.20 0.18 0.38 0.38 0.28 0.37 0.42 0.43 0.43
0.64 0.66 0.66 0.65 0.62 0.59 0.58 0.57 0.56 0.57 0.59 0.62 0.64 0.66 0.68 0.65 0.66 0.64 0.47 0.58 0.56 0.42 0.38 0.47 0.47 0.49 0.50 0.49 0.44 0.46 0.38 0.41 0.40 0.33 0.32 0.32 0.27 0.30 0.27 0.22 0.32 0.28 0.30 0.29 0.28 0.27 0.42 0.55 0.46 0.47 0.49 0.47 0.47 0.46
0.66 0.67 0.62 0.57 0.57 0.56 0.56 0.56 0.58 0.58 0.57 0.60 0.62 0.65 0.68 0.65 0.66 0.63 0.53 0.54 0.51 0.42 0.40 0.43 0.42 0.51 0.63 0.62 0.61 0.43 0.46 0.49 0.45 0.46 0.40 0.35 0.29 0.31 0.26 0.26 0.29 0.33 0.38 0.34 0.37 0.37 0.37 0.43 0.47 0.48 0.47 0.43 0.48 0.47
0.65 0.61 0.59 0.60 0.61 0.62 0.60 0.59 0.60 0.60 0.60 0.58 0.62 0.67 0.67 0.65 0.66 0.63 0.53 0.56 0.53 0.44 0.32 0.36 0.51 0.52 0.67 0.65 0.63 0.59 0.55 0.56 0.54 0.49 0.40 0.36 0.30 0.37 0.31 0.32 0.30 0.35 0.36 0.31 0.29 0.32 0.35 0.37 0.45 0.44 0.45 0.46 0.45 0.44
0.62 0.61 0.61 0.60 0.59 0.58 0.58 0.60 0.60 0.62 0.60 0.60 0.65 0.67 0.65 0.64 0.66 0.64 0.61 0.62 0.58 0.43 0.33 0.35 0.50 0.53 0.59 0.64 0.59 0.59 0.57 0.53 0.50 0.43 0.39 0.35 0.40 0.37 0.38 0.37 0.31 0.35 0.32 0.30 0.27 0.40 0.37 0.37 0.44 0.46 0.43 0.42 0.43 0.43
0.61 0.61 0.61 0.58 0.59 0.58 0.59 0.59 0.61 0.61 0.59 0.63 0.67 0.66 0.65 0.65 0.67 0.59 0.45 0.61 0.63 0.58 0.43 0.33 0.50 0.49 0.55 0.58 0.55 0.55 0.56 0.54 0.51 0.45 0.43 0.45 0.48 0.42 0.34 0.31 0.40 0.43 0.44 0.42 0.37 0.42 0.42 0.44 0.48 0.48 0.46 0.47 0.48 0.46
0.61 0.61 0.60 0.60 0.58 0.59 0.59 0.59 0.61 0.62 0.62 0.64 0.67 0.65 0.64 0.63 0.61 0.50 0.44 0.52 0.66 0.63 0.43 0.34 0.36 0.48 0.52 0.52 0.54 0.54 0.57 0.53 0.50 0.46 0.43 0.43 0.43 0.43 0.39 0.31 0.39 0.40 0.41 0.41 0.42 0.42 0.41 0.46 0.43 0.49 0.48 0.48 0.49 0.47
0.63 0.61 0.59 0.61 0.59 0.59 0.60 0.59 0.61 0.60 0.67 0.66 0.65 0.63 0.64 0.65 0.64 0.55 0.60 0.63 0.65 0.53 0.47 0.32 0.33 0.39 0.49 0.42 0.42 0.53 0.48 0.50 0.49 0.45 0.46 0.41 0.44 0.42 0.33 0.36 0.37 0.38 0.39 0.39 0.40 0.44 0.43 0.46 0.48 0.47 0.49 0.49 0.47 0.46
0.63 0.61 0.59 0.61 0.62 0.59 0.60 0.60 0.62 0.67 0.66 0.65 0.63 0.63 0.60 0.56 0.48 0.53 0.64 0.64 0.62 0.50 0.35 0.34 0.30 0.28 0.47 0.42 0.44 0.45 0.47 0.36 0.48 0.39 0.41 0.44 0.38 0.30 0.31 0.33 0.34 0.36 0.35 0.36 0.39 0.40 0.41 0.39 0.40 0.43 0.45 0.46 0.45 0.45
0.63 0.59 0.61 0.60 0.64 0.64 0.65 0.66 0.68 0.66 0.65 0.63 0.58 0.48 0.40 0.53 0.64 0.62 0.54 0.45 0.45 0.46 0.43 0.33 0.38 0.31 0.40 0.37 0.34 0.36 0.41 0.36 0.31 0.38 0.46 0.37 0.31 0.35 0.36 0.35 0.34 0.35 0.36 0.36 0.33 0.33 0.35 0.35 0.37 0.40 0.43 0.45 0.45 0.45
0.63 0.59 0.62 0.62 0.61 0.64 0.64 0.64 0.64 0.63 0.60 0.53 0.46 0.43 0.56 0.64 0.53 0.46 0.36 0.35 0.35 0.30 0.34 0.35 0.34 0.32 0.43 0.34 0.33 0.39 0.36 0.37 0.29 0.33 0.35 0.31 0.28 0.30 0.33 0.33 0.34 0.35 0.35 0.35 0.35 0.35 0.36 0.36 0.36 0.38 0.40 0.43 0.44 0.45
0.63 0.59 0.55 0.60 0.62 0.63 0.64 0.64 0.62 0.58 0.55 0.52 0.51 0.55 0.53 0.45 0.40 0.32 0.30 0.33 0.31 0.27 0.34 0.33 0.36 0.40 0.42 0.47 0.37 0.40 0.33 0.35 0.26 0.38 0.31 0.23 0.24 0.29 0.30 0.30 0.31 0.32 0.32 0.32 0.33 0.33 0.35 0.36 0.37 0.37 0.38 0.39 0.42 0.42
0.62 0.61 0.54 0.50 0.60 0.60 0.61 0.62 0.62 0.59 0.55 0.48 0.39 0.34 0.32 0.30 0.24 0.22 0.21 0.25 0.26 0.32 0.35 0.37 0.34 0.40 0.43 0.44 0.37 0.34 0.29 0.27 0.35 0.27 0.21 0.21 0.25 0.27 0.28 0.28 0.29 0.31 0.32 0.33 0.34 0.35 0.35 0.36 0.36 0.36 0.36 0.37 0.39 0.39
0.60 0.61 0.54 0.50 0.56 0.56 0.53 0.51 0.51 0.47 0.41 0.30 0.26 0.21 0.23 0.21 0.22 0.24 0.26 0.28 0.33 0.35 0.37 0.39 0.37 0.38 0.38 0.34 0.34 0.27 0.28 0.29 0.21 0.18 0.18 0.21 0.24 0.27 0.28 0.30 0.31 0.30 0.33 0.34 0.35 0.35 0.35 0.34 0.34 0.34 0.35 0.35 0.35 0.35
0.56 0.59 0.58 0.47 0.47 0.51 0.51 0.49 0.46 0.40 0.32 0.26 0.25 0.19 0.21 0.25 0.28 0.29 0.31 0.31 0.34 0.37 0.37 0.35 0.34 0.34 0.31 0.28 0.29 0.27 0.23 0.20 0.20 0.19 0.22 0.25 0.28 0.29 0.30 0.31 0.31 0.32 0.32 0.32 0.33 0.33 0.33 0.33 0.33 0.32 0.33 0.33 0.33 0.33
0.56 0.53 0.52 0.50 0.46 0.43 0.40 0.39 0.38 0.35 0.30 0.26 0.25 0.23 0.26 0.25 0.26 0.27 0.28 0.29 0.35 0.36 0.38 0.35 0.30 0.27 0.26 0.26 0.24 0.22 0.21 0.19 0.21 0.24 0.27 0.29 0.29 0.29 0.30 0.30 0.31 0.31 0.31 0.31 0.31 0.31 0.31 0.31 0.30 0.30 0.31 0.31 0.31 0.31
0.53 0.50 0.55 0.46 0.44 0.42 0.39 0.35 0.32 0.28 0.25 0.23 0.24 0.28 0.27 0.26 0.26 0.27 0.29 0.31 0.36 0.35 0.30 0.32 0.27 0.25 0.28 0.24 0.22 0.24 0.22 0.24 0.27 0.27 0.29 0.29 0.29 0.29 0.29 0.30 0.30 0.30 0.30 0.30 0.30 0.30 0.29 0.30 0.30 0.29 0.28 0.29 0.29 0.29
0.49 0.52 0.51 0.51 0.43 0.39 0.36 0.33 0.29 0.26 0.22 0.25 0.24 0.26 0.28 0.29 0.28 0.30 0.33 0.35 0.36 0.34 0.33 0.29 0.31 0.26 0.24 0.22 0.22 0.25 0.26 0.27 0.28 0.28 0.28 0.28 0.29 0.29 0.28 0.28 0.28 0.29 0.29 0.29 0.29 0.29 0.28 0.28 0.27 0.26 0.27 0.27 0.27 0.27
0.52 0.52 0.47 0.47 0.43 0.36 0.31 0.31 0.31 0.25 0.26 0.28 0.29 0.30 0.30 0.30 0.31 0.32 0.33 0.34 0.36 0.38 0.35 0.31 0.26 0.23 0.21 0.21 0.21 0.22 0.23 0.23 0.22 0.23 0.23 0.24 0.24 0.24 0.24 0.25 0.25 0.25 0.25 0.25 0.25 0.25 0.26 0.26 0.26 0.26 0.26 0.25 0.23 0.22
0.51 0.51 0.48 0.45 0.41 0.33 0.29 0.29 0.32 0.26 0.24 0.27 0.28 0.27 0.27 0.27 0.30 0.31 0.32 0.32 0.32 0.30 0.24 0.20 0.17 0.18 0.18 0.19 0.20 0.20 0.20 0.21 0.20 0.19 0.19 0.21 0.22 0.22 0.23 0.23 0.23 0.23 0.23 0.23 0.23 0.24 0.23 0.23 0.22 0.21 0.20 0.19 0.17 0.16
0.46 0.45 0.42 0.40 0.36 0.33 0.30 0.27 0.26 0.27 0.26 0.24 0.27 0.26 0.25 0.28 0.30 0.29 0.23 0.22 0.19 0.16 0.14 0.16 0.17 0.18 0.20 0.20 0.21 0.21 0.21 0.21 0.19 0.19 0.19 0.18 0.20 0.21 0.21 0.22 0.22 0.22 0.21 0.21 0.20 0.20 0.18 0.17 0.16 0.16 0.15 0.14 0.13 0.13
0.43 0.41 0.37 0.36 0.30 0.29 0.28 0.30 0.26 0.28 0.26 0.25 0.25 0.26 0.26 0.26 0.24 0.20 0.19 0.16 0.14 0.15 0.16 0.16 0.17 0.18 0.18 0.18 0.19 0.20 0.20 0.20 0.20 0.19 0.19 0.19 0.18 0.18 0.18 0.19 0.19 0.18 0.18 0.16 0.14 0.12 0.12 0.11 0.11 0.11 0.10 0.09 0.09 0.09
0.40 0.37 0.33 0.31 0.26 0.26 0.25 0.33 0.25 0.26 0.22 0.23 0.26 0.23 0.20 0.19 0.17 0.18 0.14 0.13 0.14 0.17 0.18 0.18 0.19 0.19 0.18 0.19 0.19 0.19 0.19 0.18 0.17 0.17 0.17 0.16 0.15 0.14 0.12 0.12 0.12 0.11 0.10 0.10 0.10 0.09 0.08 0.08 0.08 0.08 0.08 0.08 0.07 0.07
0.35 0.28 0.25 0.25 0.25 0.22 0.27 0.22 0.24 0.23 0.24 0.25 0.22 0.16 0.14 0.13 0.14 0.12 0.11 0.13 0.15 0.17 0.17 0.17 0.17 0.16 0.17 0.16 0.16 0.15 0.15 0.14 0.13 0.12 0.12 0.11 0.10 0.09 0.09 0.09 0.09 0.09 0.09 0.09 0.09 0.08 0.08 0.07 0.07 0.07 0.07 0.07 0.07 0.07
0.20 0.21 0.22 0.19 0.23 0.20 0.19 0.19 0.22 0.24 0.22 0.19 0.12 0.11 0.11 0.12 0.10 0.10 0.10 0.13 0.15 0.16 0.16 0.17 0.16 0.16 0.14 0.14 0.14 0.14 0.14 0.13 0.11 0.10 0.10 0.09 0.08 0.08 0.08 0.08 0.08 0.08 0.09 0.08 0.08 0.08 0.07 0.07 0.07 0.07 0.07 0.07 0.07 0.07
0.16 0.20 0.19 0.19 0.18 0.18 0.19 0.20 0.19 0.16 0.13 0.11 0.10 0.11 0.11 0.10 0.09 0.09 0.11 0.14 0.15 0.15 0.16 0.15 0.15 0.14 0.13 0.14 0.13 0.12 0.12 0.12 0.10 0.08 0.08 0.08 0.08 0.08 0.07 0.07 0.07 0.07 0.08 0.08 0.07 0.07 0.07 0.07 0.07 0.07 0.07 0.07 0.07 0.07
0.17 0.19 0.23 0.25 0.24 0.22 0.18 0.16 0.14 0.11 0.08 0.08 0.09 0.08 0.08 0.07 0.08 0.11 0.14 0.16 0.15 0.16 0.16 0.16 0.16 0.14 0.13 0.12 0.12 0.11 0.11 0.10 0.09 0.08 0.08 0.08 0.08 0.08 0.08 0.07 0.07 0.08 0.08 0.08 0.08 0.07 0.07 0.07 0.07 0.07 0.07 0.07 0.07 0.07
0.14 0.16 0.13 0.14 0.13 0.13 0.10 0.09 0.08 0.07 0.09 0.10 0.09 0.06 0.06 0.07 0.09 0.13 0.15 0.17 0.17 0.17 0.16 0.16 0.15 0.14 0.12 0.11 0.11 0.10 0.08 0.08 0.08 0.09 0.09 0.09 0.08 0.08 0.08 0.08 0.08 0.07 0.08 0.08 0.08 0.08 0.08 0.08 0.07 0.07 0.07 0.07 0.07 0.07
0.11 0.12 0.10 0.08 0.08 0.08 0.08 0.08 0.08 0.10 0.11 0.10 0.08 0.08 0.09 0.12 0.14 0.15 0.16 0.17 0.17 0.16 0.14 0.13 0.12 0.13 0.12 0.11 0.10 0.09 0.09 0.09 0.08 0.06 0.06 0.06 0.07 0.08 0.08 0.08 0.08 0.08 0.08 0.08 0.08 0.08 0.08 0.08 0.08 0.08 0.07 0.07 0.07 0.07
0.10 0.11 0.08 0.08 0.07 0.07 0.09 0.11 0.11 0.12 0.12 0.12 0.12 0.12 0.13 0.14 0.16 0.18 0.17 0.16 0.15 0.15 0.14 0.13 0.13 0.12 0.10 0.09 0.08 0.08 0.08 0.08 0.08 0.07 0.07 0.07 0.07 0.08 0.08 0.08 0.08 0.08 0.08 0.08 0.08 0.08 0.08 0.08 0.08 0.07 0.07 0.07 0.07 0.07
0.11 0.10 0.09 0.09 0.09 0.10 0.11 0.12 0.12 0.12 0.12 0.12 0.13 0.11 0.11 0.13 0.15 0.16 0.16 0.16 0.16 0.15 0.14 0.12 0.12 0.12 0.10 0.08 0.08 0.07 0.07 0.08 0.08 0.08 0.08 0.08 0.08 0.08 0.08 0.08 0.08 0.08 0.08 0.08 0.08 0.07 0.07 0.07 0.07 0.07 0.07 0.07 0.07 0.07
0.10 0.09 0.08 0.08 0.09 0.11 0.12 0.11 0.11 0.11 0.11 0.11 0.10 0.11 0.11 0.12 0.11 0.14 0.15 0.16 0.15 0.13 0.13 0.13 0.13 0.12 0.11 0.10 0.09 0.08 0.08 0.08 0.08 0.08 0.08 0.08 0.08 0.08 0.08 0.08 0.08 0.08 0.08 0.08 0.07 0.07 0.07 0.06 0.06 0.06 0.07 0.06 0.06 0.06
0.11 0.11 0.10 0.10 0.10 0.10 0.11 0.10 0.09 0.09 0.10 0.09 0.10 0.10 0.10 0.10 0.10 0.13 0.16 0.16 0.15 0.15 0.14 0.14 0.14 0.13 0.10 0.09 0.08 0.08 0.08 0.08 0.08 0.08 0.08 0.08 0.08 0.08 0.08 0.08 0.08 0.08 0.07 0.07 0.07 0.07 0.06 0.06 0.06 0.06 0.06 0.06 0.06 0.06

GFSWCAN_prec_pwat_081.txt.gz
Precipitable_Water
0.57 0.61 0.64 0.66 0.67 0.67 0.67 0.65 0.61 0.62 0.62 0.63 0.66 0.67 0.69 0.68 0.67 0.61 0.51 0.51 0.42 0.36 0.36 0.34 0.35 0.32 0.28 0.40 0.35 0.43 0.40 0.40 0.38 0.30 0.29 0.28 0.27 0.28 0.24 0.28 0.31 0.28 0.26 0.24 0.26 0.23 0.19 0.37 0.37 0.30 0.45 0.54 0.52 0.51
0.61 0.64 0.66 0.65 0.64 0.61 0.59 0.59 0.60 0.60 0.60 0.60 0.60 0.62 0.66 0.68 0.68 0.66 0.50 0.57 0.54 0.41 0.38 0.41 0.39 0.43 0.46 0.47 0.46 0.47 0.38 0.42 0.39 0.33 0.32 0.32 0.29 0.30 0.28 0.23 0.37 0.30 0.30 0.28 0.27 0.26 0.43 0.52 0.45 0.56 0.55 0.49 0.49 0.47
0.64 0.65 0.64 0.63 0.62 0.61 0.61 0.59 0.58 0.58 0.57 0.56 0.58 0.60 0.65 0.68 0.69 0.65 0.55 0.57 0.53 0.41 0.39 0.36 0.32 0.42 0.49 0.53 0.59 0.44 0.45 0.47 0.47 0.47 0.45 0.40 0.32 0.32 0.26 0.26 0.35 0.36 0.44 0.38 0.40 0.43 0.50 0.52 0.60 0.58 0.55 0.52 0.51 0.50
0.65 0.63 0.62 0.62 0.61 0.60 0.59 0.59 0.60 0.61 0.59 0.59 0.59 0.58 0.64 0.67 0.69 0.67 0.55 0.59 0.52 0.43 0.29 0.29 0.39 0.35 0.53 0.55 0.58 0.58 0.53 0.57 0.56 0.56 0.44 0.39 0.33 0.37 0.31 0.33 0.34 0.36 0.42 0.33 0.35 0.42 0.42 0.49 0.54 0.56 0.50 0.50 0.46 0.45
0.64 0.62 0.62 0.62 0.59 0.60 0.58 0.58 0.58 0.60 0.61 0.59 0.60 0.59 0.63 0.67 0.68 0.67 0.62 0.59 0.59 0.38 0.30 0.27 0.44 0.43 0.50 0.54 0.54 0.59 0.57 0.53 0.51 0.44 0.41 0.36 0.40 0.40 0.38 0.40 0.35 0.39 0.39 0.34 0.34 0.48 0.46 0.47 0.50 0.50 0.44 0.43 0.43 0.43
0.62 0.63 0.62 0.60 0.60 0.57 0.59 0.61 0.60 0.62 0.61 0.61 0.60 0.60 0.67 0.69 0.67 0.58 0.43 0.57 0.59 0.52 0.42 0.33 0.44 0.44 0.48 0.53 0.52 0.55 0.55 0.54 0.52 0.45 0.42 0.42 0.47 0.44 0.36 0.33 0.46 0.48 0.48 0.46 0.41 0.46 0.43 0.44 0.47 0.47 0.43 0.45 0.45 0.44
0.62 0.62 0.60 0.59 0.59 0.58 0.58 0.59 0.61 0.63 0.62 0.61 0.63 0.68 0.68 0.66 0.63 0.47 0.41 0.50 0.59 0.60 0.43 0.34 0.36 0.45 0.49 0.51 0.53 0.54 0.57 0.52 0.50 0.46 0.42 0.43 0.46 0.45 0.39 0.33 0.44 0.46 0.45 0.44 0.43 0.41 0.39 0.41 0.40 0.46 0.47 0.47 0.48 0.47
0.62 0.61 0.59 0.62 0.62 0.60 0.60 0.62 0.63 0.63 0.62 0.66 0.66 0.65 0.65 0.66 0.64 0.54 0.58 0.61 0.61 0.52 0.47 0.33 0.34 0.40 0.53 0.44 0.42 0.54 0.47 0.49 0.48 0.45 0.45 0.40 0.44 0.46 0.34 0.39 0.41 0.43 0.43 0.43 0.40 0.41 0.41 0.43 0.45 0.43 0.42 0.42 0.41 0.41
0.62 0.59 0.61 0.64 0.65 0.62 0.61 0.63 0.64 0.65 0.66 0.64 0.64 0.64 0.61 0.57 0.49 0.52 0.66 0.66 0.64 0.52 0.37 0.36 0.30 0.30 0.48 0.44 0.47 0.48 0.48 0.37 0.48 0.39 0.42 0.42 0.37 0.32 0.35 0.37 0.37 0.38 0.38 0.38 0.40 0.40 0.40 0.38 0.38 0.38 0.38 0.38 0.38 0.39
0.59 0.61 0.61 0.63 0.64 0.66 0.67 0.65 0.64 0.64 0.63 0.62 0.59 0.49 0.41 0.54 0.65 0.64 0.55 0.46 0.47 0.47 0.45 0.34 0.43 0.33 0.42 0.41 0.39 0.39 0.43 0.37 0.32 0.37 0.45 0.37 0.31 0.36 0.38 0.38 0.37 0.37 0.38 0.38 0.34 0.32 0.34 0.34 0.34 0.35 0.35 0.36 0.36 0.37
0.57 0.60 0.61 0.63 0.66 0.67 0.65 0.64 0.63 0.61 0.61 0.54 0.46 0.43 0.56 0.65 0.55 0.47 0.36 0.35 0.36 0.32 0.37 0.39 0.40 0.36 0.46 0.34 0.33 0.39 0.34 0.35 0.27 0.32 0.33 0.31 0.27 0.32 0.35 0.35 0.36 0.37 0.36 0.35 0.34 0.34 0.34 0.33 0.33 0.33 0.33 0.34 0.35 0.35
0.55 0.57 0.61 0.63 0.63 0.64 0.64 0.62 0.62 0.62 0.57 0.52 0.52 0.58 0.55 0.47 0.41 0.33 0.31 0.34 0.33 0.30 0.35 0.34 0.36 0.40 0.40 0.48 0.38 0.34 0.30 0.33 0.26 0.39 0.32 0.25 0.27 0.31 0.33 0.33 0.34 0.35 0.34 0.33 0.32 0.31 0.32 0.33 0.33 0.33 0.33 0.33 0.34 0.36
0.56 0.54 0.62 0.63 0.64 0.64 0.62 0.63 0.62 0.60 0.56 0.50 0.42 0.40 0.36 0.33 0.27 0.26 0.23 0.26 0.27 0.31 0.33 0.34 0.31 0.38 0.42 0.45 0.39 0.36 0.30 0.28 0.37 0.30 0.25 0.26 0.30 0.31 0.31 0.30 0.30 0.30 0.30 0.30 0.30 0.31 0.32 0.32 0.34 0.34 0.33 0.34 0.34 0.34
0.54 0.53 0.58 0.57 0.59 0.62 0.62 0.60 0.54 0.47 0.43 0.34 0.30 0.24 0.26 0.24 0.23 0.24 0.25 0.26 0.31 0.34 0.35 0.38 0.37 0.37 0.40 0.34 0.35 0.27 0.30 0.32 0.25 0.22 0.20 0.24 0.27 0.28 0.29 0.29 0.28 0.27 0.28 0.29 0.30 0.31 0.31 0.32 0.33 0.34 0.34 0.34 0.33 0.32
0.58 0.55 0.55 0.52 0.52 0.55 0.56 0.50 0.49 0.45 0.35 0.29 0.28 0.21 0.22 0.26 0.29 0.30 0.34 0.34 0.37 0.40 0.39 0.38 0.38 0.39 0.33 0.29 0.30 0.28 0.25 0.21 0.21 0.19 0.23 0.26 0.27 0.27 0.27 0.28 0.29 0.30 0.30 0.31 0.32 0.32 0.31 0.31 0.32 0.31 0.32 0.32 0.31 0.31
0.60 0.56 0.48 0.51 0.49 0.48 0.48 0.47 0.41 0.37 0.31 0.28 0.27 0.25 0.28 0.29 0.28 0.31 0.32 0.33 0.38 0.39 0.40 0.38 0.31 0.28 0.27 0.27 0.24 0.22 0.22 0.19 0.21 0.25 0.27 0.28 0.28 0.28 0.29 0.30 0.31 0.31 0.31 0.31 0.31 0.31 0.30 0.30 0.29 0.29 0.30 0.30 0.29 0.29
0.57 0.55 0.50 0.48 0.45 0.42 0.40 0.37 0.34 0.29 0.28 0.26 0.26 0.30 0.30 0.28 0.27 0.28 0.31 0.32 0.39 0.37 0.31 0.32 0.27 0.25 0.29 0.24 0.22 0.25 0.22 0.25 0.27 0.28 0.30 0.30 0.30 0.30 0.30 0.30 0.30 0.30 0.30 0.29 0.29 0.29 0.29 0.29 0.29 0.28 0.26 0.27 0.28 0.28
0.52 0.53 0.46 0.44 0.45 0.40 0.38 0.36 0.32 0.28 0.24 0.27 0.25 0.27 0.29 0.31 0.29 0.30 0.33 0.36 0.36 0.34 0.33 0.29 0.31 0.26 0.24 0.22 0.23 0.26 0.28 0.29 0.30 0.30 0.30 0.29 0.29 0.28 0.28 0.26 0.26 0.26 0.25 0.25 0.26 0.26 0.26 0.26 0.26 0.26 0.26 0.27 0.26 0.26
0.54 0.53 0.51 0.48 0.43 0.36 0.30 0.30 0.31 0.24 0.26 0.28 0.30 0.31 0.31 0.31 0.33 0.35 0.35 0.36 0.37 0.38 0.35 0.31 0.27 0.25 0.24 0.24 0.21 0.21 0.22 0.22 0.20 0.21 0.21 0.22 0.23 0.22 0.23 0.24 0.24 0.24 0.24 0.24 0.24 0.24 0.24 0.25 0.24 0.24 0.24 0.24 0.23 0.22
0.50 0.46 0.44 0.43 0.42 0.33 0.29 0.30 0.35 0.29 0.26 0.29 0.31 0.30 0.30 0.30 0.32 0.33 0.33 0.33 0.33 0.32 0.27 0.22 0.18 0.18 0.17 0.19 0.21 0.20 0.20 0.21 0.20 0.18 0.19 0.20 0.22 0.22 0.22 0.22 0.22 0.23 0.23 0.23 0.23 0.23 0.23 0.22 0.22 0.22 0.21 0.19 0.18 0.17
0.46 0.44 0.44 0.44 0.39 0.37 0.33 0.31 0.29 0.30 0.29 0.27 0.28 0.28 0.29 0.31 0.28 0.28 0.26 0.28 0.25 0.21 0.16 0.17 0.17 0.18 0.20 0.21 0.22 0.21 0.21 0.21 0.19 0.20 0.18 0.18 0.20 0.21 0.21 0.21 0.22 0.22 0.21 0.21 0.20 0.20 0.20 0.18 0.17 0.17 0.16 0.15 0.14 0.13
0.44 0.44 0.41 0.39 0.34 0.33 0.31 0.32 0.29 0.30 0.27 0.27 0.27 0.29 0.28 0.26 0.23 0.20 0.21 0.18 0.15 0.16 0.17 0.17 0.18 0.18 0.18 0.18 0.19 0.20 0.20 0.20 0.20 0.19 0.19 0.19 0.18 0.18 0.18 0.19 0.19 0.18 0.18 0.17 0.16 0.14 0.12 0.12 0.12 0.12 0.11 0.11 0.11 0.10
0.42 0.40 0.37 0.34 0.29 0.28 0.28 0.36 0.27 0.28 0.24 0.24 0.26 0.26 0.26 0.22 0.18 0.19 0.14 0.14 0.15 0.18 0.18 0.18 0.19 0.19 0.18 0.19 0.19 0.18 0.19 0.18 0.17 0.17 0.17 0.17 0.16 0.15 0.13 0.13 0.13 0.12 0.11 0.11 0.11 0.10 0.09 0.09 0.09 0.09 0.09 0.09 0.09 0.08
0.37 0.32 0.29 0.28 0.27 0.24 0.29 0.25 0.26 0.25 0.25 0.25 0.24 0.20 0.17 0.15 0.15 0.14 0.12 0.14 0.16 0.18 0.17 0.17 0.18 0.16 0.17 0.16 0.15 0.15 0.15 0.14 0.14 0.13 0.13 0.12 0.11 0.10 0.10 0.09 0.10 0.10 0.10 0.10 0.10 0.10 0.09 0.08 0.08 0.09 0.09 0.09 0.09 0.09
0.25 0.24 0.26 0.22 0.26 0.22 0.20 0.21 0.21 0.22 0.22 0.23 0.16 0.13 0.13 0.15 0.11 0.11 0.12 0.13 0.15 0.16 0.16 0.17 0.17 0.16 0.15 0.15 0.14 0.14 0.14 0.13 0.12 0.11 0.11 0.10 0.09 0.09 0.08 0.08 0.08 0.08 0.10 0.10 0.09 0.09 0.08 0.09 0.09 0.09 0.09 0.09 0.08 0.08
0.18 0.21 0.21 0.21 0.21 0.20 0.20 0.19 0.20 0.21 0.22 0.14 0.11 0.12 0.13 0.12 0.10 0.10 0.12 0.15 0.16 0.17 0.17 0.17 0.16 0.15 0.14 0.15 0.14 0.13 0.12 0.13 0.11 0.10 0.09 0.09 0.09 0.09 0.09 0.09 0.09 0.09 0.09 0.10 0.09 0.09 0.08 0.08 0.08 0.07 0.08 0.08 0.07 0.08
0.15 0.16 0.20 0.24 0.23 0.22 0.22 0.24 0.24 0.20 0.13 0.09 0.10 0.10 0.10 0.08 0.09 0.12 0.16 0.18 0.17 0.18 0.19 0.18 0.17 0.15 0.14 0.14 0.13 0.13 0.12 0.11 0.10 0.09 0.09 0.09 0.09 0.09 0.10 0.09 0.08 0.09 0.09 0.09 0.09 0.09 0.08 0.07 0.08 0.08 0.08 0.08 0.08 0.08
0.16 0.19 0.17 0.19 0.20 0.22 0.19 0.17 0.14 0.11 0.10 0.11 0.10 0.08 0.08 0.09 0.10 0.15 0.17 0.19 0.19 0.19 0.18 0.18 0.17 0.15 0.14 0.13 0.12 0.11 0.10 0.09 0.09 0.09 0.09 0.09 0.09 0.09 0.09 0.09 0.08 0.08 0.09 0.09 0.09 0.09 0.09 0.09 0.09 0.08 0.08 0.08 0.08 0.08
0.21 0.21 0.19 0.17 0.17 0.16 0.14 0.12 0.10 0.11 0.12 0.12 0.09 0.09 0.10 0.12 0.15 0.16 0.17 0.18 0.19 0.17 0.15 0.14 0.14 0.14 0.13 0.13 0.12 0.11 0.11 0.11 0.09 0.07 0.07 0.08 0.09 0.09 0.10 0.10 0.09 0.09 0.09 0.09 0.08 0.09 0.08 0.09 0.09 0.09 0.09 0.08 0.09 0.08
0.15 0.17 0.14 0.13 0.11 0.10 0.11 0.12 0.11 0.12 0.12 0.12 0.11 0.12 0.12 0.14 0.16 0.19 0.18 0.18 0.17 0.16 0.16 0.15 0.15 0.14 0.12 0.11 0.09 0.09 0.10 0.10 0.09 0.08 0.08 0.08 0.09 0.09 0.09 0.09 0.09 0.09 0.09 0.09 0.09 0.09 0.09 0.09 0.09 0.09 0.08 0.08 0.08 0.08
0.13 0.13 0.11 0.11 0.10 0.11 0.12 0.13 0.13 0.13 0.13 0.13 0.14 0.12 0.11 0.13 0.15 0.17 0.17 0.18 0.18 0.17 0.16 0.14 0.14 0.14 0.11 0.10 0.10 0.09 0.08 0.09 0.08 0.08 0.09 0.09 0.09 0.09 0.09 0.09 0.09 0.10 0.09 0.09 0.09 0.08 0.08 0.08 0.08 0.08 0.07 0.07 0.07 0.07
0.12 0.10 0.09 0.08 0.09 0.12 0.13 0.13 0.12 0.12 0.13 0.12 0.12 0.13 0.13 0.12 0.11 0.14 0.16 0.17 0.17 0.16 0.16 0.15 0.14 0.13 0.13 0.11 0.10 0.09 0.09 0.08 0.08 0.08 0.08 0.09 0.09 0.09 0.09 0.09 0.09 0.09 0.09 0.08 0.08 0.08 0.08 0.07 0.07 0.07 0.07 0.07 0.07 0.07
0.12 0.12 0.11 0.11 0.10 0.11 0.12 0.13 0.11 0.11 0.12 0.11 0.11 0.12 0.12 0.11 0.10 0.13 0.16 0.18 0.18 0.17 0.15 0.16 0.15 0.14 0.12 0.10 0.10 0.09 0.09 0.09 0.08 0.08 0.08 0.08 0.08 0.09 0.09 0.09 0.09 0.09 0.08 0.08 0.08 0.07 0.07 0.07 0.07 0.07 0.07 0.06 0.06 0.06

GFSWCAN_prec_pwat_087.txt.gz
Precipitable_Water
0.33 0.35 0.42 0.48 0.57 0.61 0.63 0.65 0.66 0.67 0.68 0.69 0.69 0.67 0.65 0.65 0.66 0.62 0.54 0.53 0.42 0.34 0.33 0.36 0.35 0.35 0.38 0.38 0.30 0.36 0.36 0.39 0.38 0.27 0.24 0.21 0.19 0.23 0.25 0.29 0.35 0.28 0.25 0.23 0.24 0.20 0.17 0.39 0.39 0.31 0.47 0.54 0.52 0.50
0.32 0.38 0.46 0.55 0.61 0.63 0.65 0.65 0.64 0.65 0.65 0.65 0.64 0.67 0.65 0.66 0.66 0.66 0.50 0.59 0.54 0.39 0.35 0.42 0.41 0.42 0.44 0.45 0.41 0.44 0.41 0.38 0.43 0.29 0.27 0.29 0.25 0.29 0.31 0.26 0.45 0.31 0.31 0.28 0.28 0.25 0.45 0.52 0.50 0.60 0.58 0.53 0.57 0.56
0.33 0.44 0.52 0.60 0.64 0.66 0.65 0.64 0.63 0.63 0.63 0.61 0.61 0.62 0.63 0.65 0.67 0.66 0.56 0.58 0.53 0.43 0.38 0.34 0.29 0.39 0.45 0.44 0.52 0.38 0.46 0.48 0.47 0.52 0.41 0.38 0.29 0.34 0.29 0.31 0.37 0.46 0.49 0.35 0.33 0.43 0.47 0.53 0.60 0.59 0.61 0.61 0.59 0.60
0.41 0.50 0.58 0.63 0.66 0.66 0.63 0.63 0.63 0.61 0.60 0.61 0.61 0.62 0.62 0.65 0.66 0.66 0.57 0.60 0.54 0.45 0.32 0.30 0.40 0.34 0.36 0.40 0.47 0.49 0.46 0.55 0.52 0.52 0.41 0.36 0.33 0.44 0.36 0.40 0.37 0.45 0.47 0.44 0.43 0.47 0.51 0.56 0.58 0.62 0.59 0.56 0.51 0.51
0.47 0.55 0.61 0.65 0.65 0.62 0.62 0.62 0.62 0.61 0.61 0.60 0.62 0.62 0.62 0.64 0.65 0.66 0.61 0.60 0.60 0.42 0.31 0.31 0.36 0.37 0.42 0.34 0.35 0.47 0.47 0.44 0.43 0.39 0.37 0.33 0.40 0.41 0.43 0.40 0.38 0.43 0.42 0.41 0.37 0.48 0.51 0.52 0.57 0.58 0.54 0.51 0.50 0.48
0.53 0.59 0.62 0.63 0.63 0.60 0.60 0.62 0.65 0.65 0.63 0.62 0.62 0.61 0.61 0.62 0.65 0.58 0.41 0.57 0.61 0.54 0.40 0.29 0.46 0.42 0.34 0.38 0.30 0.37 0.39 0.43 0.44 0.40 0.38 0.43 0.49 0.46 0.36 0.33 0.41 0.44 0.48 0.51 0.46 0.54 0.54 0.54 0.54 0.52 0.48 0.48 0.47 0.45
0.58 0.62 0.62 0.62 0.58 0.60 0.65 0.65 0.63 0.62 0.60 0.61 0.64 0.62 0.63 0.62 0.60 0.47 0.41 0.50 0.63 0.61 0.40 0.30 0.28 0.39 0.38 0.39 0.36 0.36 0.44 0.46 0.45 0.42 0.39 0.41 0.42 0.45 0.40 0.32 0.41 0.46 0.48 0.49 0.50 0.52 0.45 0.46 0.43 0.46 0.46 0.46 0.46 0.44
0.61 0.62 0.61 0.58 0.61 0.63 0.63 0.63 0.62 0.62 0.64 0.64 0.64 0.64 0.64 0.65 0.61 0.53 0.63 0.62 0.63 0.50 0.44 0.28 0.28 0.38 0.41 0.32 0.30 0.43 0.42 0.46 0.45 0.43 0.45 0.41 0.43 0.44 0.31 0.36 0.40 0.44 0.45 0.45 0.47 0.47 0.45 0.44 0.44 0.43 0.43 0.42 0.39 0.38
0.63 0.60 0.57 0.60 0.63 0.62 0.63 0.63 0.62 0.62 0.63 0.65 0.66 0.65 0.61 0.54 0.47 0.52 0.65 0.64 0.61 0.46 0.31 0.32 0.26 0.26 0.46 0.39 0.40 0.44 0.47 0.36 0.47 0.39 0.38 0.42 0.36 0.30 0.34 0.36 0.37 0.40 0.40 0.40 0.42 0.43 0.42 0.40 0.40 0.40 0.39 0.38 0.35 0.33
0.61 0.60 0.62 0.63 0.63 0.64 0.62 0.61 0.63 0.64 0.65 0.64 0.59 0.48 0.40 0.52 0.65 0.64 0.54 0.44 0.43 0.44 0.43 0.33 0.38 0.33 0.45 0.40 0.37 0.39 0.42 0.36 0.30 0.36 0.45 0.35 0.30 0.36 0.38 0.38 0.37 0.38 0.39 0.40 0.38 0.37 0.37 0.36 0.36 0.36 0.35 0.35 0.34 0.32
0.62 0.62 0.63 0.62 0.64 0.63 0.63 0.63 0.64 0.64 0.63 0.54 0.46 0.43 0.56 0.65 0.55 0.45 0.35 0.32 0.33 0.29 0.35 0.36 0.40 0.37 0.50 0.37 0.36 0.41 0.34 0.37 0.28 0.33 0.34 0.29 0.27 0.32 0.36 0.35 0.36 0.37 0.38 0.38 0.38 0.38 0.37 0.36 0.35 0.34 0.32 0.32 0.31 0.30
0.63 0.62 0.63 0.63 0.63 0.62 0.62 0.63 0.62 0.61 0.58 0.55 0.52 0.59 0.56 0.47 0.38 0.32 0.28 0.32 0.29 0.27 0.37 0.34 0.40 0.44 0.44 0.49 0.39 0.40 0.33 0.35 0.26 0.41 0.32 0.24 0.28 0.32 0.34 0.33 0.34 0.34 0.34 0.35 0.35 0.34 0.33 0.33 0.33 0.31 0.30 0.29 0.29 0.30
0.63 0.63 0.63 0.63 0.63 0.63 0.61 0.60 0.62 0.63 0.61 0.55 0.46 0.41 0.39 0.37 0.28 0.25 0.22 0.27 0.28 0.34 0.38 0.40 0.37 0.42 0.42 0.45 0.38 0.35 0.29 0.28 0.38 0.28 0.23 0.23 0.30 0.32 0.32 0.33 0.33 0.33 0.33 0.32 0.31 0.31 0.30 0.29 0.30 0.28 0.28 0.29 0.29 0.28
0.62 0.62 0.62 0.63 0.63 0.59 0.52 0.52 0.55 0.53 0.49 0.37 0.32 0.26 0.28 0.25 0.26 0.28 0.28 0.30 0.34 0.36 0.38 0.39 0.38 0.37 0.41 0.35 0.37 0.28 0.31 0.33 0.25 0.20 0.20 0.26 0.29 0.30 0.30 0.30 0.29 0.28 0.29 0.28 0.28 0.28 0.27 0.27 0.27 0.28 0.28 0.28 0.28 0.28
0.62 0.62 0.62 0.62 0.62 0.54 0.52 0.51 0.51 0.49 0.38 0.30 0.30 0.22 0.24 0.29 0.33 0.34 0.36 0.36 0.39 0.42 0.40 0.36 0.35 0.35 0.32 0.30 0.30 0.28 0.24 0.20 0.21 0.19 0.24 0.27 0.28 0.29 0.29 0.29 0.28 0.28 0.28 0.28 0.27 0.27 0.26 0.26 0.26 0.27 0.28 0.29 0.29 0.28
0.59 0.59 0.56 0.61 0.60 0.59 0.54 0.52 0.47 0.39 0.34 0.30 0.29 0.27 0.30 0.28 0.29 0.32 0.33 0.33 0.39 0.40 0.41 0.39 0.32 0.29 0.26 0.28 0.24 0.21 0.21 0.18 0.21 0.25 0.27 0.28 0.28 0.29 0.29 0.29 0.30 0.29 0.29 0.28 0.27 0.27 0.26 0.26 0.25 0.25 0.25 0.25 0.25 0.25
0.58 0.52 0.54 0.55 0.58 0.56 0.52 0.41 0.36 0.31 0.30 0.28 0.26 0.31 0.29 0.28 0.28 0.30 0.34 0.35 0.42 0.37 0.30 0.31 0.25 0.24 0.30 0.23 0.22 0.24 0.22 0.25 0.28 0.30 0.31 0.31 0.30 0.30 0.28 0.26 0.25 0.24 0.22 0.22 0.22 0.22 0.22 0.22 0.23 0.22 0.21 0.22 0.23 0.23
0.49 0.49 0.48 0.50 0.51 0.44 0.41 0.39 0.33 0.29 0.26 0.29 0.26 0.30 0.33 0.34 0.32 0.33 0.36 0.38 0.37 0.34 0.32 0.28 0.31 0.25 0.23 0.22 0.22 0.27 0.29 0.27 0.27 0.25 0.23 0.22 0.21 0.21 0.21 0.20 0.21 0.21 0.21 0.21 0.21 0.21 0.21 0.21 0.20 0.20 0.21 0.22 0.22 0.22
0.49 0.53 0.50 0.48 0.48 0.39 0.34 0.36 0.34 0.26 0.28 0.31 0.31 0.31 0.32 0.32 0.34 0.35 0.35 0.36 0.38 0.38 0.34 0.30 0.27 0.26 0.26 0.28 0.21 0.19 0.18 0.18 0.17 0.18 0.19 0.20 0.20 0.19 0.20 0.20 0.21 0.21 0.21 0.21 0.21 0.20 0.21 0.21 0.21 0.21 0.22 0.21 0.20 0.20
0.47 0.45 0.46 0.46 0.45 0.35 0.32 0.32 0.37 0.30 0.27 0.30 0.31 0.29 0.30 0.30 0.32 0.32 0.33 0.33 0.33 0.32 0.29 0.27 0.24 0.23 0.20 0.20 0.21 0.19 0.19 0.18 0.17 0.16 0.16 0.18 0.20 0.20 0.21 0.21 0.20 0.20 0.20 0.20 0.20 0.20 0.19 0.19 0.19 0.20 0.19 0.19 0.17 0.15
0.44 0.44 0.46 0.44 0.40 0.38 0.34 0.31 0.29 0.30 0.30 0.28 0.30 0.30 0.29 0.31 0.30 0.30 0.31 0.33 0.31 0.29 0.22 0.19 0.18 0.20 0.22 0.22 0.21 0.21 0.21 0.20 0.19 0.17 0.17 0.17 0.20 0.20 0.19 0.20 0.20 0.19 0.18 0.17 0.16 0.17 0.17 0.16 0.17 0.16 0.13 0.12 0.11 0.11
0.45 0.47 0.42 0.40 0.35 0.34 0.31 0.34 0.31 0.32 0.30 0.30 0.30 0.32 0.29 0.27 0.28 0.30 0.32 0.28 0.25 0.20 0.18 0.18 0.18 0.19 0.18 0.18 0.19 0.20 0.20 0.20 0.20 0.20 0.19 0.19 0.17 0.16 0.16 0.16 0.15 0.13 0.13 0.13 0.13 0.12 0.11 0.12 0.12 0.12 0.11 0.10 0.10 0.10
0.47 0.45 0.39 0.36 0.29 0.29 0.29 0.38 0.30 0.31 0.26 0.27 0.28 0.27 0.25 0.21 0.22 0.24 0.18 0.18 0.17 0.20 0.20 0.19 0.19 0.19 0.18 0.19 0.19 0.19 0.19 0.18 0.17 0.17 0.16 0.15 0.14 0.14 0.12 0.12 0.12 0.11 0.10 0.10 0.11 0.10 0.09 0.09 0.10 0.10 0.10 0.10 0.09 0.08
0.41 0.35 0.32 0.30 0.29 0.27 0.33 0.27 0.29 0.27 0.27 0.26 0.25 0.23 0.20 0.17 0.18 0.14 0.12 0.14 0.17 0.18 0.18 0.18 0.18 0.17 0.18 0.17 0.15 0.15 0.16 0.16 0.14 0.14 0.14 0.13 0.11 0.10 0.09 0.09 0.09 0.10 0.11 0.11 0.10 0.10 0.09 0.08 0.09 0.09 0.09 0.09 0.09 0.09
0.28 0.28 0.30 0.26 0.30 0.27 0.24 0.24 0.25 0.24 0.22 0.24 0.23 0.21 0.16 0.18 0.13 0.12 0.11 0.14 0.16 0.16 0.17 0.18 0.18 0.17 0.15 0.15 0.15 0.15 0.16 0.15 0.13 0.11 0.12 0.12 0.11 0.10 0.10 0.10 0.10 0.10 0.11 0.11 0.10 0.10 0.09 0.09 0.09 0.09 0.09 0.09 0.08 0.08
0.22 0.26 0.26 0.26 0.26 0.24 0.24 0.21 0.22 0.23 0.23 0.22 0.22 0.20 0.17 0.14 0.11 0.10 0.13 0.15 0.16 0.17 0.17 0.18 0.18 0.16 0.16 0.16 0.14 0.14 0.14 0.15 0.14 0.11 0.10 0.10 0.10 0.10 0.10 0.09 0.09 0.10 0.11 0.11 0.10 0.09 0.08 0.09 0.08 0.08 0.08 0.08 0.08 0.07
0.20 0.21 0.25 0.30 0.29 0.28 0.25 0.27 0.26 0.23 0.20 0.19 0.19 0.16 0.12 0.08 0.09 0.13 0.18 0.19 0.18 0.19 0.21 0.20 0.19 0.16 0.16 0.16 0.16 0.16 0.13 0.14 0.13 0.11 0.10 0.10 0.09 0.09 0.09 0.09 0.09 0.10 0.11 0.10 0.09 0.09 0.09 0.08 0.08 0.08 0.09 0.09 0.09 0.09
0.22 0.23 0.20 0.24 0.25 0.26 0.23 0.23 0.21 0.20 0.20 0.20 0.17 0.11 0.09 0.09 0.10 0.17 0.19 0.21 0.21 0.19 0.18 0.18 0.18 0.18 0.17 0.16 0.14 0.12 0.11 0.11 0.11 0.12 0.12 0.11 0.11 0.10 0.09 0.08 0.08 0.09 0.09 0.09 0.09 0.09 0.09 0.09 0.09 0.09 0.09 0.09 0.09 0.10
0.19 0.21 0.20 0.19 0.20 0.20 0.20 0.20 0.20 0.20 0.21 0.19 0.13 0.10 0.10 0.15 0.18 0.18 0.19 0.19 0.19 0.18 0.16 0.16 0.16 0.17 0.15 0.15 0.16 0.15 0.14 0.13 0.11 0.08 0.08 0.08 0.08 0.09 0.10 0.10 0.10 0.10 0.11 0.10 0.10 0.10 0.09 0.08 0.08 0.08 0.08 0.08 0.08 0.09
0.18 0.20 0.16 0.17 0.17 0.17 0.20 0.22 0.20 0.21 0.22 0.20 0.17 0.14 0.14 0.15 0.18 0.21 0.19 0.18 0.17 0.16 0.16 0.15 0.15 0.14 0.14 0.13 0.12 0.12 0.12 0.11 0.11 0.09 0.08 0.08 0.08 0.10 0.10 0.10 0.10 0.10 0.10 0.10 0.10 0.10 0.10 0.10 0.10 0.09 0.09 0.09 0.09 0.08
0.19 0.18 0.16 0.17 0.17 0.20 0.22 0.22 0.21 0.20 0.19 0.16 0.14 0.12 0.11 0.13 0.16 0.19 0.19 0.19 0.18 0.16 0.16 0.15 0.15 0.16 0.15 0.13 0.12 0.11 0.10 0.10 0.09 0.09 0.09 0.09 0.09 0.09 0.09 0.09 0.09 0.10 0.10 0.09 0.09 0.08 0.08 0.07 0.07 0.08 0.08 0.08 0.08 0.08
0.20 0.17 0.16 0.16 0.18 0.21 0.22 0.17 0.15 0.14 0.13 0.12 0.11 0.12 0.13 0.13 0.11 0.14 0.18 0.18 0.16 0.15 0.16 0.16 0.15 0.15 0.16 0.15 0.14 0.13 0.11 0.09 0.09 0.09 0.09 0.09 0.09 0.09 0.09 0.09 0.09 0.09 0.08 0.08 0.08 0.08 0.08 0.07 0.07 0.07 0.07 0.07 0.07 0.07
0.20 0.19 0.18 0.17 0.17 0.16 0.18 0.17 0.14 0.13 0.13 0.12 0.13 0.15 0.14 0.13 0.10 0.14 0.18 0.19 0.18 0.17 0.17 0.17 0.18 0.17 0.14 0.13 0.12 0.11 0.11 0.09 0.08 0.08 0.08 0.08 0.08 0.08 0.08 0.08 0.08 0.08 0.08 0.08 0.08 0.08 0.07 0.07 0.07 0.07 0.07 0.07 0.07 0.07

GFSWCAN_prec_pwat_090.txt.gz
Precipitable_Water
0.34 0.35 0.34 0.33 0.36 0.43 0.48 0.57 0.61 0.64 0.66 0.67 0.67 0.68 0.67 0.64 0.64 0.62 0.54 0.57 0.43 0.31 0.29 0.28 0.31 0.27 0.30 0.34 0.27 0.33 0.31 0.36 0.34 0.27 0.25 0.22 0.21 0.22 0.21 0.23 0.23 0.23 0.25 0.25 0.22 0.17 0.15 0.33 0.38 0.35 0.49 0.55 0.56 0.58
0.34 0.35 0.32 0.32 0.40 0.46 0.55 0.60 0.64 0.65 0.65 0.66 0.67 0.67 0.68 0.67 0.64 0.65 0.50 0.58 0.58 0.40 0.35 0.40 0.36 0.35 0.35 0.39 0.37 0.38 0.36 0.39 0.39 0.33 0.34 0.32 0.24 0.26 0.25 0.19 0.36 0.27 0.34 0.31 0.28 0.24 0.43 0.47 0.43 0.53 0.58 0.55 0.58 0.58
0.35 0.32 0.31 0.36 0.44 0.52 0.59 0.63 0.65 0.65 0.64 0.64 0.64 0.64 0.64 0.65 0.66 0.64 0.56 0.58 0.53 0.42 0.38 0.35 0.30 0.38 0.42 0.43 0.47 0.32 0.40 0.48 0.46 0.50 0.40 0.36 0.28 0.34 0.24 0.27 0.35 0.45 0.48 0.39 0.37 0.44 0.44 0.50 0.57 0.57 0.58 0.60 0.62 0.59
0.33 0.30 0.31 0.42 0.49 0.57 0.62 0.65 0.66 0.65 0.64 0.63 0.63 0.63 0.62 0.63 0.65 0.64 0.55 0.58 0.53 0.44 0.31 0.32 0.43 0.37 0.38 0.41 0.45 0.44 0.44 0.51 0.51 0.49 0.39 0.34 0.29 0.40 0.33 0.38 0.36 0.42 0.47 0.42 0.42 0.47 0.50 0.51 0.55 0.58 0.58 0.58 0.56 0.58
0.31 0.28 0.37 0.46 0.54 0.60 0.63 0.64 0.63 0.63 0.63 0.63 0.63 0.63 0.62 0.62 0.65 0.66 0.63 0.59 0.59 0.43 0.31 0.32 0.40 0.38 0.39 0.37 0.33 0.38 0.42 0.43 0.43 0.36 0.32 0.31 0.38 0.39 0.41 0.41 0.35 0.43 0.39 0.36 0.35 0.46 0.48 0.48 0.54 0.58 0.55 0.54 0.52 0.49
0.28 0.33 0.43 0.51 0.58 0.60 0.61 0.62 0.61 0.60 0.61 0.63 0.64 0.64 0.62 0.63 0.65 0.59 0.43 0.57 0.61 0.58 0.40 0.29 0.44 0.41 0.41 0.39 0.36 0.30 0.40 0.45 0.43 0.35 0.33 0.39 0.46 0.41 0.35 0.31 0.37 0.44 0.47 0.48 0.43 0.52 0.52 0.53 0.54 0.53 0.50 0.50 0.49 0.47
0.32 0.43 0.50 0.58 0.60 0.61 0.60 0.60 0.62 0.64 0.65 0.66 0.66 0.65 0.64 0.64 0.62 0.49 0.42 0.48 0.60 0.58 0.40 0.31 0.29 0.41 0.43 0.38 0.39 0.32 0.42 0.41 0.40 0.37 0.36 0.38 0.40 0.45 0.37 0.29 0.37 0.43 0.46 0.48 0.50 0.51 0.44 0.47 0.45 0.48 0.48 0.47 0.46 0.43
0.43 0.50 0.58 0.61 0.60 0.58 0.61 0.62 0.63 0.63 0.63 0.63 0.63 0.65 0.64 0.66 0.64 0.54 0.59 0.61 0.62 0.49 0.44 0.29 0.27 0.32 0.44 0.32 0.32 0.37 0.31 0.37 0.38 0.37 0.40 0.38 0.44 0.40 0.29 0.34 0.37 0.41 0.44 0.44 0.45 0.47 0.46 0.47 0.46 0.44 0.44 0.43 0.41 0.39
0.51 0.58 0.62 0.59 0.60 0.62 0.62 0.62 0.62 0.61 0.61 0.61 0.64 0.65 0.62 0.55 0.47 0.53 0.62 0.64 0.63 0.49 0.33 0.30 0.23 0.21 0.43 0.36 0.36 0.34 0.38 0.29 0.41 0.34 0.37 0.41 0.32 0.27 0.32 0.35 0.36 0.38 0.39 0.39 0.41 0.41 0.42 0.41 0.40 0.41 0.39 0.38 0.36 0.35
0.59 0.62 0.61 0.63 0.64 0.62 0.61 0.62 0.61 0.62 0.64 0.64 0.58 0.48 0.40 0.51 0.63 0.61 0.52 0.43 0.44 0.45 0.41 0.29 0.35 0.28 0.39 0.37 0.30 0.31 0.35 0.32 0.28 0.35 0.43 0.32 0.27 0.33 0.35 0.36 0.37 0.37 0.37 0.36 0.34 0.33 0.35 0.35 0.35 0.35 0.34 0.34 0.34 0.34
0.62 0.61 0.62 0.63 0.63 0.62 0.62 0.62 0.62 0.62 0.61 0.54 0.45 0.42 0.54 0.62 0.52 0.44 0.35 0.33 0.34 0.28 0.33 0.35 0.37 0.33 0.47 0.34 0.31 0.37 0.33 0.36 0.27 0.33 0.33 0.27 0.26 0.31 0.35 0.35 0.36 0.36 0.35 0.35 0.35 0.34 0.36 0.35 0.34 0.33 0.32 0.32 0.32 0.31
0.61 0.63 0.64 0.64 0.64 0.64 0.63 0.62 0.61 0.57 0.54 0.51 0.50 0.56 0.55 0.46 0.40 0.31 0.28 0.31 0.26 0.23 0.33 0.32 0.35 0.39 0.44 0.49 0.38 0.38 0.32 0.35 0.26 0.41 0.30 0.24 0.27 0.32 0.33 0.33 0.34 0.34 0.34 0.33 0.33 0.33 0.34 0.33 0.33 0.32 0.31 0.30 0.30 0.30
0.62 0.62 0.63 0.61 0.60 0.61 0.62 0.63 0.62 0.60 0.58 0.52 0.46 0.41 0.37 0.35 0.27 0.23 0.20 0.23 0.25 0.32 0.36 0.37 0.35 0.41 0.43 0.45 0.38 0.36 0.29 0.28 0.39 0.28 0.24 0.25 0.29 0.31 0.32 0.32 0.31 0.32 0.32 0.31 0.31 0.31 0.31 0.31 0.31 0.30 0.28 0.29 0.28 0.28
0.62 0.63 0.58 0.56 0.52 0.59 0.61 0.60 0.60 0.57 0.49 0.38 0.31 0.25 0.26 0.23 0.24 0.24 0.25 0.26 0.32 0.36 0.38 0.39 0.37 0.37 0.40 0.35 0.36 0.28 0.32 0.34 0.25 0.20 0.19 0.25 0.29 0.30 0.30 0.30 0.28 0.28 0.28 0.28 0.27 0.27 0.27 0.27 0.27 0.27 0.27 0.27 0.26 0.26
0.62 0.63 0.62 0.58 0.53 0.56 0.53 0.55 0.53 0.46 0.37 0.30 0.28 0.20 0.22 0.28 0.31 0.32 0.35 0.34 0.38 0.43 0.40 0.37 0.37 0.36 0.34 0.31 0.32 0.29 0.24 0.20 0.21 0.20 0.23 0.27 0.29 0.29 0.28 0.28 0.28 0.27 0.27 0.26 0.26 0.26 0.26 0.25 0.25 0.25 0.25 0.26 0.26 0.25
0.61 0.60 0.59 0.62 0.59 0.56 0.50 0.48 0.45 0.40 0.34 0.30 0.28 0.26 0.29 0.28 0.29 0.32 0.34 0.34 0.41 0.41 0.42 0.38 0.32 0.28 0.27 0.27 0.23 0.21 0.20 0.18 0.21 0.24 0.27 0.29 0.29 0.29 0.29 0.30 0.29 0.27 0.25 0.23 0.22 0.21 0.21 0.21 0.20 0.21 0.22 0.22 0.22 0.22
0.60 0.53 0.59 0.59 0.56 0.53 0.51 0.41 0.36 0.32 0.30 0.27 0.26 0.31 0.30 0.30 0.30 0.33 0.35 0.35 0.42 0.37 0.29 0.29 0.23 0.23 0.28 0.22 0.21 0.24 0.22 0.25 0.28 0.29 0.30 0.30 0.28 0.24 0.22 0.20 0.20 0.20 0.19 0.19 0.19 0.19 0.19 0.20 0.21 0.20 0.19 0.20 0.21 0.21
0.51 0.55 0.57 0.55 0.53 0.46 0.41 0.38 0.32 0.29 0.25 0.28 0.26 0.28 0.30 0.32 0.31 0.32 0.34 0.37 0.36 0.32 0.30 0.27 0.29 0.24 0.22 0.21 0.22 0.26 0.28 0.26 0.23 0.21 0.20 0.19 0.19 0.19 0.19 0.19 0.20 0.20 0.19 0.19 0.19 0.20 0.20 0.19 0.18 0.18 0.19 0.20 0.20 0.19
0.50 0.53 0.53 0.53 0.48 0.39 0.36 0.34 0.33 0.25 0.27 0.29 0.31 0.33 0.34 0.34 0.35 0.36 0.36 0.36 0.37 0.37 0.33 0.30 0.26 0.24 0.25 0.28 0.21 0.18 0.17 0.17 0.16 0.17 0.18 0.19 0.19 0.19 0.19 0.19 0.19 0.19 0.19 0.19 0.19 0.18 0.18 0.19 0.19 0.19 0.19 0.19 0.18 0.17
0.49 0.51 0.50 0.48 0.43 0.36 0.32 0.32 0.37 0.30 0.28 0.30 0.32 0.30 0.31 0.31 0.32 0.32 0.33 0.34 0.34 0.32 0.29 0.27 0.26 0.26 0.22 0.18 0.17 0.17 0.17 0.17 0.16 0.15 0.16 0.18 0.19 0.19 0.19 0.18 0.17 0.18 0.18 0.17 0.17 0.18 0.17 0.17 0.18 0.18 0.17 0.17 0.14 0.13
0.46 0.47 0.48 0.45 0.40 0.38 0.33 0.31 0.30 0.31 0.30 0.28 0.30 0.30 0.28 0.29 0.28 0.28 0.29 0.33 0.30 0.29 0.24 0.21 0.19 0.19 0.21 0.20 0.20 0.19 0.18 0.17 0.16 0.16 0.16 0.16 0.18 0.18 0.18 0.18 0.18 0.17 0.15 0.14 0.14 0.14 0.14 0.13 0.13 0.13 0.11 0.10 0.11 0.11
0.45 0.47 0.41 0.41 0.35 0.34 0.31 0.34 0.30 0.32 0.29 0.28 0.29 0.30 0.26 0.26 0.27 0.29 0.31 0.29 0.28 0.22 0.19 0.17 0.18 0.19 0.18 0.18 0.19 0.20 0.20 0.21 0.20 0.19 0.19 0.18 0.16 0.15 0.15 0.15 0.13 0.12 0.13 0.12 0.11 0.10 0.11 0.11 0.11 0.11 0.10 0.09 0.09 0.10
0.46 0.43 0.38 0.36 0.30 0.28 0.28 0.38 0.29 0.28 0.24 0.26 0.28 0.25 0.25 0.25 0.28 0.31 0.26 0.26 0.21 0.20 0.19 0.19 0.19 0.19 0.18 0.19 0.19 0.19 0.20 0.19 0.17 0.17 0.16 0.15 0.15 0.14 0.13 0.12 0.11 0.10 0.10 0.10 0.11 0.09 0.09 0.10 0.10 0.10 0.09 0.09 0.09 0.09
0.42 0.36 0.32 0.28 0.27 0.26 0.32 0.27 0.29 0.27 0.27 0.25 0.25 0.22 0.19 0.20 0.23 0.18 0.16 0.16 0.17 0.19 0.18 0.18 0.18 0.17 0.18 0.18 0.17 0.17 0.17 0.16 0.15 0.14 0.14 0.13 0.11 0.10 0.10 0.10 0.10 0.10 0.10 0.10 0.10 0.10 0.09 0.09 0.09 0.09 0.09 0.09 0.09 0.09
0.29 0.29 0.28 0.24 0.28 0.26 0.24 0.24 0.25 0.24 0.22 0.24 0.23 0.18 0.16 0.18 0.13 0.12 0.11 0.13 0.16 0.16 0.16 0.17 0.17 0.17 0.15 0.14 0.14 0.15 0.17 0.15 0.13 0.12 0.13 0.12 0.11 0.11 0.10 0.10 0.10 0.10 0.12 0.10 0.10 0.09 0.09 0.09 0.09 0.09 0.09 0.09 0.09 0.09
0.22 0.26 0.26 0.26 0.26 0.25 0.23 0.21 0.22 0.22 0.23 0.22 0.22 0.22 0.17 0.12 0.10 0.09 0.12 0.14 0.15 0.15 0.16 0.16 0.16 0.15 0.15 0.15 0.14 0.14 0.15 0.16 0.14 0.12 0.12 0.13 0.12 0.10 0.09 0.08 0.08 0.09 0.11 0.11 0.10 0.09 0.09 0.09 0.08 0.08 0.08 0.08 0.08 0.08
0.19 0.21 0.27 0.32 0.30 0.28 0.25 0.26 0.26 0.23 0.20 0.19 0.21 0.20 0.13 0.08 0.08 0.12 0.16 0.17 0.16 0.18 0.19 0.20 0.19 0.16 0.15 0.15 0.15 0.15 0.15 0.15 0.14 0.13 0.12 0.11 0.10 0.10 0.10 0.09 0.09 0.10 0.11 0.10 0.10 0.10 0.09 0.09 0.08 0.08 0.08 0.09 0.09 0.09
0.23 0.24 0.22 0.25 0.25 0.26 0.23 0.23 0.22 0.21 0.21 0.23 0.22 0.16 0.11 0.08 0.09 0.16 0.18 0.19 0.19 0.20 0.20 0.19 0.19 0.18 0.16 0.16 0.15 0.14 0.13 0.14 0.12 0.12 0.12 0.12 0.11 0.10 0.08 0.08 0.09 0.09 0.09 0.09 0.09 0.09 0.09 0.09 0.09 0.09 0.09 0.09 0.09 0.10
0.21 0.23 0.23 0.21 0.22 0.23 0.22 0.22 0.21 0.22 0.23 0.22 0.17 0.14 0.11 0.14 0.17 0.17 0.19 0.19 0.20 0.18 0.17 0.16 0.16 0.17 0.16 0.14 0.13 0.13 0.13 0.13 0.11 0.09 0.09 0.08 0.08 0.09 0.10 0.09 0.09 0.10 0.10 0.10 0.10 0.10 0.09 0.09 0.08 0.08 0.08 0.08 0.08 0.09
0.20 0.21 0.19 0.18 0.18 0.18 0.21 0.22 0.21 0.23 0.24 0.22 0.19 0.16 0.14 0.15 0.18 0.21 0.20 0.19 0.17 0.16 0.16 0.16 0.16 0.15 0.13 0.12 0.12 0.13 0.14 0.14 0.13 0.11 0.09 0.08 0.08 0.09 0.09 0.09 0.09 0.09 0.10 0.10 0.09 0.09 0.09 0.09 0.09 0.08 0.08 0.08 0.08 0.08
0.22 0.20 0.17 0.17 0.16 0.19 0.21 0.23 0.23 0.23 0.22 0.20 0.18 0.15 0.13 0.14 0.17 0.19 0.20 0.19 0.18 0.17 0.16 0.14 0.14 0.14 0.13 0.12 0.11 0.11 0.10 0.11 0.11 0.11 0.10 0.09 0.09 0.09 0.09 0.09 0.09 0.09 0.09 0.08 0.08 0.08 0.07 0.07 0.07 0.07 0.07 0.07 0.07 0.07
0.17 0.15 0.15 0.15 0.16 0.20 0.23 0.20 0.19 0.18 0.18 0.17 0.15 0.14 0.13 0.12 0.12 0.15 0.18 0.18 0.16 0.15 0.15 0.15 0.14 0.14 0.15 0.15 0.15 0.15 0.13 0.11 0.10 0.10 0.09 0.09 0.08 0.08 0.08 0.08 0.08 0.08 0.08 0.08 0.08 0.08 0.07 0.07 0.07 0.07 0.07 0.07 0.07 0.07
0.17 0.17 0.17 0.17 0.17 0.18 0.20 0.19 0.17 0.15 0.14 0.13 0.12 0.13 0.13 0.12 0.11 0.14 0.18 0.19 0.17 0.16 0.16 0.16 0.16 0.16 0.16 0.15 0.13 0.12 0.11 0.11 0.10 0.10 0.09 0.09 0.08 0.08 0.08 0.08 0.08 0.08 0.07 0.07 0.07 0.07 0.07 0.08 0.07 0.07 0.07 0.08 0.08 0.08

GFSWCAN_prec_pwat_093.txt.gz
Precipitable_Water
0.34 0.36 0.34 0.34 0.36 0.33 0.33 0.39 0.44 0.50 0.57 0.61 0.63 0.64 0.66 0.67 0.64 0.62 0.53 0.56 0.44 0.31 0.30 0.29 0.23 0.23 0.26 0.29 0.24 0.29 0.28 0.32 0.31 0.27 0.24 0.22 0.20 0.22 0.21 0.21 0.21 0.22 0.21 0.21 0.24 0.20 0.15 0.30 0.25 0.23 0.44 0.58 0.59 0.61
0.36 0.36 0.33 0.34 0.35 0.32 0.34 0.42 0.47 0.55 0.59 0.63 0.65 0.67 0.67 0.68 0.67 0.65 0.50 0.58 0.56 0.42 0.35 0.41 0.32 0.30 0.31 0.33 0.31 0.32 0.30 0.34 0.37 0.31 0.31 0.30 0.24 0.25 0.24 0.17 0.30 0.22 0.30 0.28 0.28 0.25 0.42 0.40 0.40 0.45 0.50 0.53 0.57 0.58
0.35 0.35 0.35 0.36 0.33 0.31 0.38 0.45 0.51 0.58 0.63 0.64 0.65 0.66 0.66 0.67 0.69 0.65 0.55 0.57 0.52 0.42 0.39 0.38 0.33 0.35 0.35 0.33 0.39 0.27 0.34 0.41 0.40 0.46 0.39 0.36 0.27 0.31 0.21 0.23 0.28 0.36 0.44 0.38 0.38 0.42 0.43 0.45 0.48 0.51 0.54 0.52 0.55 0.59
0.37 0.36 0.36 0.35 0.31 0.32 0.42 0.48 0.55 0.61 0.64 0.63 0.64 0.64 0.64 0.65 0.66 0.66 0.56 0.57 0.53 0.44 0.31 0.32 0.44 0.38 0.40 0.36 0.37 0.40 0.38 0.45 0.49 0.46 0.37 0.34 0.28 0.37 0.28 0.32 0.31 0.37 0.40 0.39 0.39 0.43 0.47 0.50 0.51 0.54 0.54 0.53 0.53 0.59
0.34 0.35 0.36 0.33 0.30 0.36 0.44 0.52 0.58 0.63 0.65 0.64 0.64 0.63 0.63 0.63 0.64 0.66 0.62 0.59 0.59 0.43 0.31 0.33 0.41 0.42 0.41 0.37 0.35 0.40 0.41 0.40 0.40 0.36 0.34 0.27 0.34 0.35 0.37 0.37 0.32 0.40 0.36 0.34 0.33 0.44 0.45 0.46 0.52 0.55 0.52 0.53 0.53 0.50
0.32 0.33 0.36 0.31 0.31 0.40 0.48 0.55 0.60 0.63 0.63 0.63 0.62 0.63 0.62 0.63 0.64 0.59 0.45 0.57 0.60 0.57 0.39 0.28 0.43 0.42 0.42 0.39 0.37 0.34 0.40 0.39 0.39 0.36 0.33 0.34 0.40 0.39 0.32 0.29 0.37 0.42 0.44 0.45 0.41 0.49 0.49 0.50 0.53 0.54 0.51 0.50 0.49 0.48
0.34 0.36 0.32 0.31 0.37 0.46 0.53 0.58 0.61 0.61 0.61 0.61 0.61 0.61 0.61 0.62 0.61 0.48 0.42 0.54 0.62 0.59 0.39 0.30 0.30 0.40 0.44 0.39 0.39 0.36 0.34 0.35 0.41 0.38 0.34 0.34 0.39 0.44 0.35 0.29 0.37 0.41 0.43 0.45 0.48 0.49 0.44 0.47 0.45 0.49 0.48 0.47 0.46 0.45
0.36 0.31 0.30 0.39 0.48 0.54 0.59 0.61 0.60 0.61 0.63 0.64 0.64 0.65 0.64 0.66 0.64 0.52 0.59 0.64 0.62 0.49 0.44 0.28 0.27 0.32 0.45 0.34 0.33 0.39 0.31 0.35 0.40 0.36 0.37 0.35 0.40 0.38 0.29 0.34 0.36 0.40 0.42 0.43 0.44 0.45 0.44 0.44 0.44 0.44 0.44 0.43 0.41 0.40
0.31 0.32 0.43 0.51 0.57 0.61 0.61 0.61 0.63 0.62 0.62 0.64 0.65 0.66 0.64 0.56 0.47 0.50 0.65 0.64 0.62 0.46 0.31 0.28 0.23 0.23 0.44 0.37 0.38 0.37 0.34 0.25 0.35 0.30 0.31 0.35 0.30 0.27 0.30 0.33 0.35 0.36 0.37 0.38 0.40 0.39 0.39 0.39 0.39 0.39 0.38 0.37 0.36 0.35
0.33 0.46 0.53 0.59 0.62 0.62 0.63 0.62 0.61 0.59 0.60 0.63 0.61 0.48 0.39 0.50 0.64 0.62 0.51 0.42 0.41 0.44 0.41 0.29 0.33 0.26 0.36 0.35 0.31 0.30 0.32 0.26 0.25 0.30 0.37 0.28 0.26 0.32 0.34 0.34 0.35 0.35 0.36 0.36 0.33 0.32 0.33 0.34 0.34 0.34 0.34 0.34 0.34 0.33
0.49 0.54 0.60 0.61 0.63 0.65 0.63 0.60 0.58 0.61 0.60 0.54 0.44 0.41 0.54 0.62 0.52 0.44 0.34 0.31 0.34 0.30 0.35 0.35 0.33 0.28 0.41 0.30 0.29 0.31 0.27 0.29 0.21 0.27 0.30 0.25 0.23 0.28 0.33 0.33 0.34 0.34 0.34 0.34 0.34 0.34 0.34 0.34 0.32 0.32 0.32 0.32 0.32 0.31
0.57 0.61 0.61 0.64 0.64 0.62 0.60 0.59 0.58 0.57 0.53 0.54 0.50 0.57 0.53 0.44 0.38 0.31 0.28 0.30 0.28 0.24 0.32 0.32 0.33 0.38 0.39 0.46 0.35 0.32 0.30 0.33 0.24 0.37 0.29 0.23 0.26 0.31 0.33 0.33 0.33 0.33 0.32 0.31 0.32 0.31 0.32 0.31 0.31 0.30 0.30 0.29 0.29 0.29
0.61 0.62 0.63 0.63 0.64 0.61 0.61 0.60 0.58 0.60 0.58 0.54 0.44 0.39 0.37 0.35 0.26 0.21 0.19 0.22 0.23 0.30 0.33 0.34 0.32 0.38 0.41 0.44 0.37 0.34 0.27 0.27 0.36 0.27 0.24 0.25 0.30 0.31 0.31 0.31 0.31 0.32 0.31 0.30 0.29 0.30 0.29 0.29 0.29 0.28 0.27 0.28 0.28 0.27
0.59 0.58 0.59 0.61 0.63 0.62 0.60 0.60 0.60 0.55 0.47 0.34 0.31 0.26 0.26 0.23 0.22 0.23 0.23 0.25 0.30 0.33 0.35 0.36 0.36 0.37 0.39 0.35 0.35 0.27 0.31 0.33 0.24 0.20 0.20 0.25 0.28 0.29 0.29 0.30 0.29 0.28 0.28 0.27 0.27 0.27 0.26 0.26 0.26 0.26 0.26 0.25 0.25 0.24
0.56 0.54 0.59 0.61 0.61 0.61 0.59 0.55 0.53 0.44 0.36 0.29 0.27 0.19 0.22 0.26 0.28 0.30 0.32 0.32 0.35 0.40 0.39 0.37 0.36 0.37 0.33 0.31 0.32 0.29 0.25 0.21 0.21 0.20 0.22 0.26 0.28 0.28 0.27 0.28 0.27 0.27 0.27 0.26 0.26 0.24 0.23 0.22 0.21 0.21 0.21 0.21 0.21 0.21
0.55 0.59 0.58 0.57 0.55 0.60 0.56 0.50 0.44 0.40 0.33 0.29 0.27 0.24 0.27 0.26 0.27 0.30 0.32 0.33 0.40 0.40 0.40 0.37 0.31 0.28 0.28 0.28 0.24 0.22 0.20 0.17 0.20 0.24 0.27 0.29 0.29 0.30 0.30 0.29 0.27 0.23 0.20 0.19 0.18 0.18 0.18 0.18 0.18 0.18 0.19 0.20 0.20 0.20
0.59 0.53 0.61 0.57 0.54 0.54 0.47 0.41 0.37 0.32 0.29 0.26 0.26 0.31 0.30 0.30 0.29 0.31 0.34 0.36 0.43 0.37 0.30 0.30 0.25 0.24 0.27 0.21 0.20 0.22 0.21 0.24 0.27 0.28 0.27 0.26 0.24 0.21 0.19 0.18 0.18 0.18 0.18 0.18 0.18 0.18 0.18 0.18 0.19 0.18 0.17 0.18 0.18 0.18
0.53 0.59 0.57 0.54 0.51 0.49 0.45 0.38 0.32 0.29 0.25 0.27 0.26 0.29 0.32 0.34 0.33 0.34 0.37 0.39 0.37 0.33 0.31 0.26 0.28 0.23 0.21 0.20 0.21 0.25 0.28 0.27 0.23 0.20 0.19 0.18 0.18 0.18 0.19 0.18 0.18 0.18 0.17 0.17 0.17 0.17 0.17 0.17 0.16 0.16 0.17 0.17 0.17 0.17
0.56 0.58 0.57 0.55 0.53 0.41 0.35 0.33 0.32 0.25 0.27 0.29 0.31 0.33 0.33 0.33 0.35 0.36 0.35 0.35 0.35 0.34 0.30 0.27 0.25 0.23 0.24 0.27 0.24 0.20 0.18 0.17 0.16 0.16 0.17 0.18 0.19 0.18 0.18 0.18 0.18 0.18 0.18 0.18 0.17 0.17 0.17 0.17 0.17 0.17 0.17 0.17 0.16 0.15
0.56 0.56 0.54 0.50 0.44 0.36 0.32 0.31 0.36 0.28 0.25 0.28 0.31 0.30 0.31 0.30 0.32 0.32 0.32 0.32 0.32 0.31 0.29 0.27 0.27 0.29 0.28 0.19 0.17 0.16 0.16 0.17 0.16 0.15 0.15 0.17 0.18 0.17 0.17 0.17 0.17 0.18 0.17 0.17 0.16 0.16 0.15 0.15 0.16 0.16 0.15 0.15 0.13 0.12
0.51 0.50 0.49 0.43 0.40 0.37 0.33 0.31 0.30 0.31 0.31 0.30 0.33 0.31 0.29 0.31 0.28 0.29 0.30 0.33 0.31 0.30 0.28 0.26 0.23 0.21 0.19 0.18 0.18 0.18 0.17 0.17 0.15 0.15 0.15 0.15 0.17 0.18 0.17 0.18 0.17 0.16 0.15 0.13 0.12 0.12 0.12 0.12 0.12 0.11 0.10 0.10 0.10 0.10
0.46 0.47 0.40 0.41 0.34 0.33 0.32 0.34 0.31 0.32 0.29 0.29 0.29 0.29 0.25 0.25 0.26 0.28 0.31 0.29 0.30 0.27 0.23 0.20 0.18 0.17 0.17 0.17 0.17 0.18 0.18 0.18 0.18 0.18 0.18 0.17 0.16 0.15 0.15 0.15 0.14 0.13 0.13 0.12 0.11 0.10 0.10 0.10 0.11 0.10 0.09 0.09 0.09 0.09
0.48 0.43 0.38 0.35 0.29 0.28 0.28 0.38 0.28 0.28 0.24 0.26 0.27 0.24 0.24 0.25 0.28 0.30 0.27 0.29 0.24 0.22 0.20 0.19 0.19 0.19 0.19 0.19 0.20 0.20 0.20 0.19 0.17 0.17 0.17 0.16 0.16 0.15 0.14 0.13 0.12 0.11 0.10 0.10 0.11 0.10 0.09 0.10 0.10 0.10 0.09 0.09 0.09 0.09
0.44 0.36 0.30 0.28 0.28 0.26 0.32 0.27 0.28 0.26 0.26 0.24 0.23 0.21 0.23 0.25 0.28 0.25 0.24 0.22 0.18 0.19 0.18 0.18 0.18 0.17 0.17 0.17 0.17 0.17 0.18 0.19 0.17 0.16 0.16 0.14 0.12 0.12 0.12 0.11 0.11 0.11 0.10 0.10 0.10 0.09 0.09 0.09 0.10 0.09 0.09 0.09 0.08 0.09
0.29 0.28 0.28 0.24 0.27 0.24 0.23 0.23 0.24 0.23 0.21 0.23 0.22 0.18 0.20 0.25 0.20 0.19 0.17 0.17 0.17 0.16 0.17 0.18 0.18 0.17 0.15 0.15 0.16 0.16 0.16 0.15 0.13 0.12 0.14 0.14 0.13 0.12 0.11 0.11 0.10 0.10 0.11 0.10 0.10 0.09 0.09 0.09 0.09 0.09 0.09 0.09 0.09 0.09
0.23 0.26 0.25 0.23 0.23 0.23 0.22 0.20 0.21 0.21 0.22 0.22 0.20 0.18 0.17 0.13 0.10 0.09 0.13 0.15 0.15 0.16 0.16 0.16 0.15 0.15 0.15 0.15 0.14 0.14 0.14 0.15 0.14 0.12 0.13 0.13 0.12 0.11 0.10 0.09 0.09 0.09 0.11 0.11 0.10 0.09 0.09 0.09 0.09 0.09 0.08 0.08 0.08 0.08
0.21 0.22 0.26 0.29 0.28 0.27 0.24 0.25 0.24 0.22 0.20 0.20 0.21 0.16 0.12 0.08 0.07 0.11 0.15 0.17 0.16 0.17 0.18 0.19 0.18 0.15 0.14 0.14 0.14 0.15 0.16 0.15 0.14 0.14 0.14 0.12 0.12 0.12 0.11 0.09 0.09 0.10 0.11 0.10 0.10 0.09 0.09 0.09 0.09 0.08 0.08 0.09 0.09 0.09
0.22 0.24 0.22 0.25 0.25 0.26 0.23 0.22 0.22 0.21 0.22 0.24 0.23 0.18 0.12 0.08 0.09 0.14 0.16 0.18 0.19 0.19 0.19 0.20 0.20 0.18 0.16 0.15 0.15 0.15 0.14 0.14 0.14 0.13 0.12 0.12 0.12 0.10 0.09 0.09 0.09 0.09 0.09 0.09 0.08 0.09 0.09 0.09 0.09 0.09 0.09 0.09 0.09 0.09
0.21 0.24 0.24 0.22 0.23 0.23 0.22 0.21 0.21 0.23 0.25 0.23 0.20 0.19 0.17 0.15 0.15 0.17 0.19 0.19 0.20 0.20 0.18 0.17 0.16 0.16 0.15 0.15 0.15 0.14 0.13 0.12 0.11 0.10 0.09 0.09 0.09 0.09 0.10 0.09 0.09 0.09 0.09 0.09 0.09 0.10 0.09 0.09 0.08 0.08 0.08 0.08 0.08 0.08
0.21 0.23 0.21 0.20 0.19 0.20 0.22 0.24 0.23 0.25 0.25 0.24 0.23 0.22 0.18 0.16 0.17 0.21 0.20 0.20 0.19 0.18 0.17 0.16 0.16 0.15 0.14 0.12 0.11 0.11 0.13 0.14 0.14 0.12 0.10 0.09 0.09 0.10 0.09 0.09 0.09 0.09 0.09 0.09 0.09 0.09 0.09 0.09 0.08 0.08 0.08 0.08 0.08 0.08
0.23 0.21 0.19 0.19 0.18 0.20 0.23 0.24 0.24 0.24 0.23 0.22 0.21 0.17 0.14 0.15 0.17 0.20 0.20 0.20 0.19 0.18 0.17 0.15 0.14 0.14 0.12 0.12 0.11 0.11 0.11 0.13 0.13 0.12 0.11 0.10 0.10 0.09 0.09 0.09 0.09 0.08 0.08 0.08 0.08 0.08 0.07 0.07 0.07 0.07 0.07 0.07 0.07 0.07
0.21 0.19 0.18 0.17 0.17 0.19 0.21 0.20 0.20 0.20 0.20 0.19 0.19 0.19 0.16 0.14 0.13 0.15 0.18 0.19 0.18 0.16 0.16 0.15 0.14 0.13 0.14 0.13 0.13 0.14 0.14 0.13 0.12 0.11 0.10 0.09 0.09 0.08 0.08 0.08 0.07 0.07 0.07 0.07 0.07 0.07 0.07 0.07 0.07 0.07 0.07 0.07 0.07 0.08
0.17 0.16 0.16 0.16 0.16 0.16 0.18 0.19 0.18 0.18 0.18 0.17 0.17 0.17 0.16 0.14 0.12 0.15 0.19 0.20 0.17 0.16 0.15 0.15 0.16 0.16 0.16 0.16 0.15 0.14 0.13 0.12 0.12 0.11 0.10 0.09 0.09 0.08 0.08 0.07 0.07 0.07 0.07 0.07 0.07 0.08 0.08 0.08 0.08 0.08 0.08 0.08 0.08 0.08

GFSWCAN_prec_pwat_096.txt.gz
Precipitable_Water
0.41 0.36 0.36 0.36 0.36 0.34 0.35 0.36 0.33 0.35 0.41 0.46 0.52 0.58 0.61 0.63 0.64 0.61 0.53 0.56 0.45 0.32 0.31 0.31 0.28 0.22 0.24 0.27 0.24 0.30 0.28 0.31 0.30 0.24 0.23 0.23 0.20 0.21 0.21 0.23 0.22 0.21 0.21 0.22 0.24 0.21 0.16 0.40 0.34 0.20 0.30 0.39 0.49 0.58
0.40 0.37 0.36 0.37 0.38 0.35 0.35 0.36 0.32 0.38 0.43 0.49 0.55 0.59 0.61 0.64 0.65 0.66 0.50 0.58 0.57 0.42 0.35 0.42 0.39 0.35 0.28 0.31 0.30 0.30 0.29 0.32 0.33 0.28 0.29 0.30 0.26 0.27 0.25 0.17 0.32 0.23 0.31 0.27 0.29 0.27 0.42 0.47 0.43 0.47 0.44 0.40 0.44 0.53
0.35 0.37 0.35 0.38 0.38 0.35 0.37 0.34 0.33 0.41 0.46 0.53 0.59 0.63 0.64 0.67 0.67 0.66 0.56 0.57 0.51 0.41 0.39 0.38 0.33 0.39 0.38 0.30 0.35 0.23 0.31 0.37 0.36 0.43 0.34 0.34 0.27 0.32 0.23 0.24 0.28 0.34 0.39 0.32 0.34 0.42 0.43 0.46 0.49 0.49 0.50 0.46 0.48 0.50
0.39 0.34 0.35 0.36 0.36 0.37 0.37 0.33 0.37 0.44 0.49 0.57 0.61 0.64 0.65 0.66 0.67 0.68 0.57 0.58 0.52 0.44 0.31 0.32 0.44 0.38 0.41 0.39 0.33 0.31 0.33 0.42 0.41 0.43 0.34 0.31 0.25 0.37 0.29 0.31 0.29 0.32 0.35 0.35 0.36 0.41 0.44 0.46 0.48 0.49 0.49 0.51 0.49 0.48
0.38 0.36 0.35 0.37 0.37 0.37 0.34 0.33 0.40 0.45 0.53 0.59 0.63 0.65 0.64 0.64 0.65 0.67 0.64 0.60 0.60 0.44 0.30 0.32 0.43 0.46 0.43 0.39 0.35 0.32 0.33 0.34 0.36 0.34 0.33 0.28 0.32 0.35 0.36 0.33 0.28 0.35 0.32 0.31 0.29 0.41 0.41 0.41 0.48 0.50 0.48 0.48 0.49 0.48
0.38 0.35 0.33 0.35 0.36 0.37 0.32 0.32 0.41 0.48 0.55 0.60 0.63 0.64 0.64 0.64 0.65 0.60 0.45 0.57 0.62 0.57 0.39 0.27 0.41 0.40 0.45 0.39 0.36 0.33 0.35 0.38 0.38 0.35 0.33 0.35 0.36 0.34 0.29 0.25 0.34 0.38 0.42 0.43 0.38 0.45 0.45 0.46 0.48 0.50 0.47 0.47 0.48 0.46
0.36 0.35 0.32 0.32 0.34 0.37 0.32 0.34 0.42 0.51 0.57 0.61 0.63 0.64 0.64 0.64 0.62 0.48 0.42 0.52 0.64 0.59 0.39 0.30 0.30 0.38 0.42 0.39 0.37 0.36 0.38 0.39 0.38 0.35 0.34 0.34 0.34 0.39 0.32 0.26 0.36 0.40 0.42 0.43 0.45 0.46 0.42 0.44 0.42 0.47 0.47 0.45 0.44 0.43
0.36 0.34 0.31 0.35 0.38 0.34 0.34 0.40 0.49 0.55 0.58 0.61 0.62 0.62 0.62 0.63 0.63 0.51 0.59 0.63 0.65 0.50 0.44 0.29 0.26 0.30 0.42 0.33 0.31 0.41 0.34 0.34 0.33 0.36 0.38 0.32 0.36 0.35 0.27 0.34 0.36 0.38 0.40 0.41 0.42 0.44 0.44 0.44 0.43 0.42 0.42 0.41 0.38 0.37
0.35 0.31 0.34 0.37 0.32 0.32 0.41 0.51 0.56 0.59 0.62 0.62 0.63 0.64 0.61 0.55 0.45 0.49 0.62 0.63 0.62 0.49 0.33 0.30 0.22 0.20 0.42 0.36 0.39 0.38 0.37 0.26 0.34 0.30 0.32 0.33 0.27 0.23 0.28 0.32 0.34 0.36 0.35 0.36 0.39 0.39 0.40 0.37 0.36 0.36 0.36 0.35 0.34 0.34
0.32 0.32 0.35 0.32 0.36 0.47 0.54 0.58 0.61 0.63 0.63 0.63 0.59 0.48 0.38 0.47 0.64 0.61 0.51 0.41 0.42 0.43 0.40 0.28 0.31 0.25 0.35 0.34 0.33 0.31 0.33 0.26 0.21 0.24 0.32 0.25 0.22 0.28 0.32 0.34 0.35 0.35 0.36 0.36 0.32 0.32 0.33 0.33 0.32 0.32 0.31 0.32 0.32 0.32
0.31 0.33 0.33 0.42 0.51 0.56 0.60 0.62 0.64 0.64 0.63 0.52 0.43 0.41 0.51 0.63 0.52 0.44 0.33 0.31 0.33 0.29 0.33 0.32 0.31 0.29 0.40 0.29 0.29 0.32 0.27 0.26 0.18 0.23 0.26 0.23 0.20 0.26 0.32 0.33 0.35 0.35 0.34 0.34 0.34 0.34 0.33 0.32 0.31 0.31 0.30 0.30 0.30 0.30
0.33 0.37 0.46 0.54 0.59 0.61 0.65 0.63 0.60 0.57 0.52 0.52 0.51 0.55 0.54 0.45 0.38 0.31 0.28 0.31 0.27 0.23 0.29 0.28 0.31 0.35 0.36 0.42 0.33 0.31 0.24 0.28 0.20 0.33 0.25 0.18 0.24 0.31 0.32 0.32 0.33 0.33 0.32 0.31 0.32 0.31 0.31 0.31 0.30 0.29 0.29 0.28 0.28 0.29
0.47 0.52 0.57 0.60 0.62 0.65 0.61 0.59 0.60 0.58 0.59 0.55 0.46 0.40 0.37 0.34 0.26 0.23 0.18 0.21 0.21 0.26 0.29 0.32 0.30 0.35 0.37 0.40 0.36 0.31 0.23 0.25 0.35 0.26 0.22 0.23 0.29 0.31 0.31 0.31 0.30 0.30 0.30 0.30 0.30 0.29 0.29 0.28 0.28 0.27 0.26 0.26 0.26 0.25
0.56 0.59 0.63 0.64 0.63 0.61 0.58 0.62 0.59 0.56 0.47 0.38 0.33 0.25 0.27 0.23 0.24 0.22 0.20 0.22 0.27 0.31 0.32 0.33 0.32 0.33 0.38 0.34 0.35 0.26 0.29 0.31 0.23 0.20 0.21 0.26 0.29 0.30 0.30 0.30 0.29 0.28 0.28 0.27 0.27 0.26 0.25 0.23 0.22 0.22 0.21 0.21 0.21 0.20
0.60 0.63 0.63 0.62 0.62 0.60 0.60 0.58 0.52 0.49 0.37 0.31 0.29 0.20 0.22 0.25 0.27 0.28 0.31 0.29 0.33 0.36 0.34 0.34 0.35 0.37 0.33 0.31 0.31 0.29 0.25 0.22 0.23 0.21 0.23 0.26 0.28 0.28 0.27 0.27 0.27 0.27 0.26 0.25 0.22 0.20 0.18 0.18 0.17 0.17 0.18 0.19 0.19 0.18
0.60 0.60 0.59 0.62 0.59 0.60 0.58 0.51 0.43 0.39 0.33 0.29 0.26 0.23 0.27 0.25 0.25 0.27 0.29 0.30 0.37 0.38 0.42 0.38 0.32 0.29 0.28 0.28 0.25 0.24 0.22 0.19 0.21 0.23 0.27 0.29 0.28 0.28 0.28 0.27 0.24 0.20 0.17 0.17 0.17 0.17 0.17 0.17 0.17 0.17 0.18 0.18 0.17 0.17
0.58 0.52 0.59 0.60 0.52 0.53 0.48 0.41 0.37 0.31 0.28 0.26 0.24 0.29 0.28 0.28 0.27 0.29 0.32 0.33 0.40 0.36 0.30 0.30 0.25 0.24 0.28 0.24 0.22 0.24 0.20 0.22 0.25 0.28 0.28 0.25 0.23 0.19 0.17 0.17 0.17 0.17 0.17 0.17 0.17 0.17 0.17 0.17 0.17 0.16 0.15 0.16 0.16 0.16
0.51 0.55 0.60 0.55 0.50 0.44 0.38 0.37 0.32 0.28 0.25 0.27 0.25 0.28 0.32 0.33 0.31 0.32 0.35 0.38 0.36 0.33 0.31 0.27 0.30 0.25 0.22 0.20 0.20 0.24 0.25 0.27 0.28 0.20 0.18 0.17 0.17 0.18 0.18 0.17 0.17 0.17 0.16 0.16 0.16 0.16 0.16 0.16 0.15 0.15 0.15 0.15 0.15 0.15
0.51 0.55 0.56 0.52 0.49 0.39 0.33 0.32 0.32 0.25 0.27 0.29 0.31 0.33 0.32 0.32 0.34 0.36 0.37 0.38 0.38 0.37 0.33 0.29 0.24 0.22 0.23 0.25 0.25 0.26 0.23 0.17 0.15 0.16 0.17 0.18 0.18 0.18 0.17 0.17 0.17 0.16 0.16 0.16 0.16 0.16 0.16 0.15 0.15 0.15 0.15 0.15 0.14 0.13
0.58 0.55 0.55 0.54 0.48 0.35 0.30 0.30 0.35 0.28 0.25 0.29 0.32 0.31 0.32 0.32 0.34 0.35 0.35 0.35 0.33 0.31 0.27 0.25 0.26 0.27 0.28 0.26 0.18 0.17 0.16 0.17 0.16 0.15 0.15 0.17 0.18 0.17 0.17 0.17 0.17 0.17 0.17 0.17 0.16 0.15 0.13 0.13 0.13 0.13 0.13 0.12 0.11 0.11
0.56 0.54 0.51 0.47 0.39 0.37 0.33 0.30 0.29 0.29 0.29 0.28 0.31 0.31 0.30 0.32 0.30 0.29 0.30 0.31 0.29 0.28 0.27 0.29 0.30 0.30 0.26 0.18 0.18 0.18 0.18 0.18 0.16 0.15 0.15 0.14 0.16 0.17 0.17 0.17 0.17 0.17 0.15 0.14 0.13 0.12 0.11 0.11 0.11 0.11 0.10 0.09 0.10 0.10
0.49 0.47 0.40 0.41 0.35 0.34 0.31 0.34 0.29 0.31 0.29 0.30 0.30 0.30 0.27 0.26 0.26 0.28 0.31 0.30 0.30 0.31 0.30 0.25 0.23 0.19 0.16 0.16 0.17 0.18 0.18 0.17 0.17 0.16 0.17 0.17 0.15 0.16 0.15 0.15 0.15 0.14 0.13 0.13 0.12 0.10 0.10 0.10 0.10 0.10 0.09 0.09 0.09 0.09
0.46 0.41 0.36 0.35 0.30 0.30 0.30 0.38 0.29 0.30 0.25 0.27 0.28 0.24 0.24 0.25 0.28 0.31 0.27 0.29 0.30 0.28 0.25 0.21 0.18 0.18 0.17 0.18 0.18 0.18 0.18 0.17 0.16 0.16 0.16 0.16 0.16 0.16 0.15 0.14 0.14 0.12 0.11 0.11 0.11 0.10 0.09 0.09 0.10 0.10 0.09 0.09 0.09 0.09
0.43 0.35 0.30 0.28 0.28 0.26 0.32 0.26 0.28 0.27 0.27 0.24 0.22 0.20 0.22 0.24 0.28 0.25 0.24 0.26 0.24 0.24 0.21 0.19 0.18 0.17 0.18 0.18 0.17 0.17 0.18 0.18 0.17 0.16 0.16 0.15 0.13 0.13 0.13 0.13 0.13 0.12 0.11 0.10 0.10 0.09 0.09 0.09 0.09 0.09 0.09 0.09 0.09 0.08
0.29 0.27 0.27 0.24 0.27 0.25 0.24 0.23 0.24 0.23 0.21 0.22 0.21 0.21 0.23 0.26 0.23 0.23 0.22 0.21 0.19 0.18 0.18 0.18 0.18 0.17 0.16 0.16 0.16 0.17 0.18 0.17 0.14 0.13 0.14 0.14 0.13 0.12 0.12 0.12 0.12 0.11 0.11 0.10 0.09 0.09 0.08 0.09 0.09 0.09 0.09 0.09 0.09 0.09
0.23 0.25 0.24 0.23 0.23 0.23 0.23 0.21 0.21 0.21 0.21 0.20 0.20 0.20 0.24 0.23 0.21 0.18 0.20 0.20 0.18 0.17 0.17 0.17 0.16 0.15 0.15 0.16 0.14 0.13 0.13 0.15 0.14 0.12 0.13 0.13 0.13 0.12 0.11 0.11 0.10 0.10 0.11 0.11 0.10 0.09 0.09 0.09 0.09 0.09 0.09 0.08 0.08 0.08
0.21 0.22 0.26 0.28 0.27 0.26 0.23 0.24 0.24 0.21 0.19 0.19 0.19 0.15 0.13 0.09 0.08 0.13 0.20 0.20 0.19 0.19 0.20 0.19 0.18 0.17 0.15 0.14 0.14 0.14 0.15 0.15 0.13 0.13 0.14 0.14 0.14 0.14 0.12 0.10 0.09 0.10 0.11 0.10 0.09 0.09 0.08 0.09 0.09 0.09 0.08 0.09 0.09 0.08
0.23 0.24 0.21 0.23 0.23 0.24 0.21 0.21 0.20 0.19 0.20 0.23 0.21 0.12 0.10 0.08 0.09 0.13 0.17 0.20 0.21 0.21 0.20 0.19 0.18 0.17 0.15 0.14 0.14 0.13 0.14 0.14 0.13 0.13 0.12 0.12 0.12 0.12 0.11 0.11 0.10 0.10 0.09 0.08 0.08 0.08 0.08 0.09 0.09 0.09 0.08 0.08 0.08 0.09
0.21 0.23 0.22 0.21 0.22 0.22 0.21 0.20 0.20 0.22 0.24 0.23 0.21 0.18 0.15 0.14 0.14 0.15 0.18 0.20 0.21 0.20 0.18 0.17 0.16 0.16 0.15 0.14 0.14 0.14 0.13 0.13 0.11 0.10 0.10 0.10 0.10 0.11 0.11 0.09 0.09 0.09 0.08 0.08 0.09 0.09 0.08 0.08 0.08 0.08 0.08 0.08 0.08 0.08
0.20 0.22 0.21 0.21 0.20 0.19 0.21 0.23 0.23 0.25 0.26 0.25 0.24 0.23 0.22 0.22 0.20 0.19 0.19 0.19 0.18 0.18 0.18 0.18 0.16 0.15 0.14 0.13 0.12 0.12 0.12 0.13 0.13 0.12 0.11 0.10 0.11 0.11 0.10 0.09 0.09 0.08 0.08 0.08 0.08 0.08 0.08 0.08 0.08 0.08 0.08 0.08 0.08 0.08
0.20 0.21 0.20 0.19 0.18 0.20 0.23 0.24 0.25 0.25 0.24 0.23 0.22 0.21 0.20 0.20 0.20 0.20 0.20 0.20 0.20 0.20 0.18 0.16 0.15 0.15 0.13 0.11 0.10 0.10 0.11 0.14 0.14 0.14 0.13 0.12 0.11 0.10 0.09 0.09 0.08 0.08 0.07 0.07 0.07 0.07 0.07 0.07 0.07 0.07 0.07 0.07 0.07 0.08
0.21 0.20 0.19 0.18 0.19 0.21 0.21 0.20 0.22 0.22 0.21 0.20 0.20 0.20 0.20 0.17 0.14 0.16 0.19 0.20 0.19 0.18 0.17 0.17 0.15 0.13 0.12 0.13 0.12 0.12 0.14 0.14 0.13 0.12 0.12 0.11 0.10 0.09 0.08 0.08 0.07 0.07 0.07 0.07 0.07 0.07 0.07 0.07 0.07 0.07 0.07 0.07 0.07 0.08
0.20 0.20 0.19 0.18 0.18 0.17 0.19 0.18 0.17 0.18 0.18 0.18 0.19 0.19 0.18 0.17 0.16 0.18 0.21 0.21 0.20 0.19 0.17 0.16 0.16 0.14 0.13 0.13 0.14 0.14 0.14 0.14 0.13 0.12 0.11 0.10 0.09 0.08 0.08 0.07 0.07 0.07 0.07 0.07 0.07 0.08 0.08 0.08 0.08 0.08 0.07 0.07 0.07 0.07

GFSWCAN_prec_pwat_099.txt.gz
Precipitable_Water
0.39 0.39 0.39 0.38 0.34 0.36 0.44 0.36 0.35 0.38 0.33 0.35 0.42 0.47 0.51 0.58 0.60 0.60 0.54 0.56 0.45 0.33 0.31 0.32 0.31 0.25 0.23 0.24 0.21 0.27 0.27 0.30 0.29 0.24 0.23 0.23 0.20 0.23 0.22 0.25 0.24 0.21 0.20 0.21 0.23 0.19 0.17 0.41 0.38 0.28 0.36 0.38 0.38 0.42
0.41 0.41 0.41 0.40 0.35 0.35 0.39 0.35 0.36 0.38 0.33 0.35 0.40 0.47 0.53 0.58 0.60 0.64 0.50 0.58 0.57 0.40 0.37 0.43 0.39 0.38 0.34 0.29 0.26 0.29 0.28 0.32 0.33 0.26 0.26 0.27 0.25 0.27 0.24 0.18 0.32 0.24 0.30 0.25 0.28 0.28 0.43 0.47 0.43 0.47 0.47 0.42 0.41 0.41
0.39 0.38 0.39 0.40 0.37 0.35 0.39 0.38 0.37 0.37 0.32 0.38 0.45 0.50 0.55 0.57 0.61 0.64 0.56 0.57 0.51 0.40 0.38 0.38 0.34 0.41 0.44 0.37 0.33 0.22 0.29 0.38 0.34 0.40 0.32 0.29 0.25 0.31 0.22 0.24 0.27 0.33 0.37 0.29 0.30 0.36 0.39 0.44 0.47 0.48 0.46 0.44 0.46 0.46
0.40 0.37 0.37 0.38 0.35 0.35 0.38 0.36 0.37 0.35 0.34 0.42 0.48 0.55 0.60 0.63 0.64 0.67 0.56 0.58 0.54 0.43 0.30 0.31 0.44 0.40 0.43 0.42 0.35 0.31 0.31 0.42 0.41 0.39 0.32 0.28 0.24 0.33 0.28 0.30 0.28 0.31 0.33 0.30 0.33 0.38 0.40 0.43 0.45 0.46 0.46 0.47 0.46 0.47
0.42 0.40 0.38 0.37 0.34 0.35 0.34 0.36 0.38 0.33 0.38 0.45 0.51 0.58 0.63 0.64 0.66 0.67 0.63 0.61 0.62 0.43 0.29 0.31 0.41 0.46 0.47 0.42 0.37 0.35 0.28 0.29 0.29 0.29 0.30 0.27 0.31 0.30 0.35 0.33 0.28 0.35 0.30 0.27 0.27 0.38 0.38 0.39 0.44 0.46 0.44 0.45 0.45 0.45
0.39 0.44 0.40 0.37 0.37 0.37 0.37 0.36 0.36 0.32 0.40 0.45 0.53 0.60 0.64 0.65 0.66 0.60 0.44 0.59 0.63 0.58 0.38 0.26 0.40 0.40 0.44 0.42 0.37 0.34 0.32 0.32 0.34 0.32 0.30 0.32 0.36 0.32 0.26 0.25 0.34 0.37 0.39 0.39 0.35 0.43 0.42 0.43 0.45 0.46 0.44 0.44 0.44 0.43
0.38 0.40 0.40 0.37 0.35 0.34 0.37 0.37 0.34 0.32 0.40 0.48 0.56 0.61 0.65 0.66 0.62 0.49 0.42 0.52 0.63 0.59 0.39 0.29 0.27 0.38 0.41 0.39 0.37 0.35 0.37 0.34 0.34 0.34 0.30 0.31 0.33 0.36 0.29 0.24 0.33 0.38 0.40 0.41 0.43 0.44 0.40 0.41 0.39 0.44 0.44 0.42 0.41 0.40
0.36 0.39 0.38 0.37 0.35 0.32 0.33 0.36 0.36 0.33 0.40 0.51 0.58 0.61 0.63 0.65 0.63 0.53 0.59 0.62 0.63 0.49 0.44 0.29 0.26 0.29 0.41 0.32 0.29 0.38 0.33 0.34 0.34 0.32 0.35 0.33 0.35 0.33 0.24 0.30 0.35 0.37 0.39 0.40 0.41 0.43 0.42 0.42 0.42 0.40 0.40 0.39 0.36 0.35
0.35 0.38 0.37 0.37 0.34 0.33 0.36 0.40 0.34 0.36 0.45 0.55 0.59 0.61 0.59 0.54 0.46 0.50 0.64 0.64 0.61 0.48 0.33 0.30 0.23 0.21 0.41 0.35 0.36 0.36 0.36 0.27 0.34 0.29 0.29 0.33 0.28 0.22 0.26 0.30 0.33 0.34 0.35 0.35 0.38 0.40 0.40 0.37 0.36 0.35 0.34 0.33 0.31 0.31
0.36 0.38 0.37 0.35 0.32 0.35 0.39 0.35 0.35 0.43 0.52 0.57 0.55 0.46 0.37 0.47 0.62 0.62 0.51 0.42 0.42 0.42 0.40 0.28 0.32 0.26 0.34 0.32 0.31 0.31 0.33 0.27 0.22 0.26 0.31 0.24 0.23 0.28 0.29 0.29 0.31 0.34 0.34 0.34 0.32 0.31 0.33 0.32 0.32 0.31 0.31 0.31 0.31 0.30
0.36 0.36 0.35 0.33 0.33 0.35 0.34 0.35 0.45 0.54 0.58 0.50 0.42 0.40 0.51 0.62 0.51 0.43 0.34 0.32 0.33 0.27 0.32 0.30 0.31 0.28 0.39 0.28 0.28 0.33 0.26 0.26 0.19 0.23 0.24 0.22 0.19 0.23 0.27 0.29 0.33 0.33 0.34 0.34 0.34 0.33 0.33 0.31 0.30 0.28 0.28 0.28 0.28 0.28
0.35 0.35 0.33 0.31 0.33 0.35 0.43 0.50 0.56 0.54 0.51 0.50 0.51 0.56 0.54 0.44 0.38 0.30 0.27 0.30 0.26 0.21 0.29 0.26 0.29 0.34 0.36 0.40 0.30 0.31 0.25 0.25 0.17 0.31 0.23 0.17 0.21 0.25 0.28 0.32 0.33 0.33 0.33 0.32 0.32 0.31 0.31 0.30 0.29 0.28 0.27 0.27 0.27 0.27
0.33 0.31 0.32 0.33 0.38 0.48 0.55 0.58 0.60 0.61 0.62 0.56 0.46 0.39 0.37 0.34 0.25 0.23 0.18 0.20 0.20 0.25 0.28 0.29 0.27 0.34 0.36 0.38 0.33 0.31 0.23 0.21 0.33 0.25 0.21 0.21 0.27 0.31 0.32 0.32 0.32 0.32 0.31 0.30 0.29 0.29 0.29 0.28 0.27 0.24 0.22 0.21 0.20 0.20
0.32 0.34 0.37 0.47 0.54 0.56 0.59 0.62 0.62 0.60 0.52 0.37 0.33 0.26 0.27 0.24 0.26 0.21 0.19 0.20 0.25 0.26 0.28 0.30 0.29 0.30 0.34 0.29 0.32 0.26 0.28 0.30 0.22 0.20 0.20 0.26 0.30 0.31 0.32 0.31 0.30 0.29 0.29 0.28 0.27 0.26 0.22 0.20 0.19 0.19 0.19 0.18 0.18 0.17
0.42 0.50 0.54 0.56 0.58 0.61 0.62 0.61 0.58 0.52 0.43 0.35 0.30 0.20 0.22 0.27 0.27 0.26 0.28 0.28 0.31 0.34 0.32 0.30 0.32 0.33 0.30 0.29 0.31 0.29 0.25 0.22 0.23 0.22 0.25 0.27 0.28 0.29 0.28 0.29 0.28 0.28 0.25 0.21 0.18 0.17 0.17 0.17 0.17 0.17 0.17 0.18 0.18 0.17
0.55 0.56 0.59 0.62 0.61 0.57 0.57 0.56 0.46 0.40 0.34 0.30 0.27 0.23 0.25 0.24 0.25 0.27 0.28 0.28 0.35 0.33 0.35 0.34 0.30 0.28 0.28 0.29 0.26 0.24 0.23 0.21 0.22 0.24 0.27 0.30 0.29 0.27 0.26 0.23 0.18 0.16 0.16 0.16 0.16 0.16 0.16 0.16 0.16 0.16 0.17 0.17 0.16 0.15
0.58 0.52 0.60 0.59 0.58 0.54 0.47 0.42 0.39 0.32 0.28 0.26 0.24 0.29 0.27 0.26 0.25 0.26 0.29 0.30 0.37 0.33 0.27 0.30 0.25 0.24 0.30 0.24 0.23 0.26 0.23 0.24 0.25 0.27 0.29 0.23 0.20 0.17 0.17 0.17 0.17 0.17 0.16 0.16 0.16 0.16 0.16 0.16 0.16 0.16 0.15 0.15 0.15 0.15
0.51 0.57 0.60 0.55 0.53 0.46 0.42 0.38 0.33 0.29 0.25 0.26 0.24 0.26 0.29 0.29 0.28 0.29 0.33 0.36 0.35 0.33 0.32 0.28 0.31 0.25 0.22 0.21 0.21 0.25 0.26 0.27 0.29 0.24 0.18 0.17 0.17 0.17 0.17 0.17 0.17 0.17 0.16 0.16 0.16 0.16 0.16 0.16 0.15 0.14 0.14 0.14 0.14 0.13
0.56 0.53 0.56 0.51 0.45 0.40 0.34 0.33 0.32 0.24 0.26 0.28 0.30 0.32 0.32 0.30 0.33 0.34 0.35 0.36 0.37 0.37 0.33 0.29 0.25 0.23 0.23 0.25 0.25 0.26 0.28 0.23 0.16 0.16 0.17 0.18 0.18 0.18 0.17 0.17 0.17 0.16 0.16 0.16 0.16 0.16 0.16 0.15 0.14 0.13 0.13 0.12 0.11 0.11
0.57 0.55 0.52 0.47 0.42 0.33 0.29 0.30 0.34 0.27 0.25 0.29 0.32 0.31 0.32 0.31 0.32 0.33 0.34 0.34 0.34 0.33 0.30 0.26 0.25 0.26 0.26 0.29 0.27 0.21 0.17 0.18 0.16 0.15 0.15 0.17 0.18 0.17 0.17 0.16 0.16 0.17 0.16 0.16 0.16 0.15 0.14 0.12 0.12 0.12 0.11 0.11 0.11 0.10
0.55 0.53 0.49 0.44 0.38 0.35 0.32 0.29 0.28 0.29 0.30 0.29 0.32 0.32 0.31 0.32 0.31 0.31 0.32 0.34 0.31 0.29 0.27 0.28 0.29 0.31 0.32 0.22 0.19 0.18 0.18 0.18 0.16 0.16 0.15 0.15 0.16 0.17 0.16 0.17 0.18 0.17 0.16 0.15 0.13 0.12 0.12 0.11 0.11 0.10 0.10 0.09 0.10 0.10
0.50 0.51 0.43 0.42 0.34 0.33 0.32 0.33 0.29 0.31 0.29 0.29 0.30 0.31 0.29 0.29 0.29 0.30 0.32 0.29 0.28 0.29 0.30 0.30 0.30 0.30 0.24 0.16 0.17 0.18 0.18 0.18 0.18 0.17 0.17 0.16 0.15 0.15 0.15 0.15 0.16 0.15 0.14 0.13 0.13 0.11 0.11 0.11 0.10 0.09 0.09 0.09 0.09 0.09
0.45 0.41 0.37 0.35 0.31 0.30 0.28 0.36 0.28 0.28 0.25 0.26 0.28 0.26 0.25 0.25 0.26 0.29 0.27 0.29 0.30 0.33 0.32 0.30 0.27 0.21 0.17 0.18 0.18 0.18 0.18 0.17 0.16 0.15 0.15 0.15 0.15 0.15 0.14 0.14 0.15 0.13 0.12 0.12 0.12 0.10 0.09 0.09 0.09 0.09 0.09 0.09 0.09 0.09
0.42 0.34 0.30 0.29 0.30 0.27 0.31 0.27 0.30 0.28 0.28 0.25 0.23 0.22 0.23 0.25 0.29 0.27 0.25 0.28 0.30 0.30 0.26 0.22 0.19 0.16 0.17 0.17 0.16 0.16 0.17 0.17 0.15 0.15 0.16 0.15 0.13 0.13 0.13 0.14 0.14 0.13 0.12 0.11 0.11 0.10 0.09 0.09 0.09 0.09 0.09 0.09 0.09 0.09
0.29 0.27 0.27 0.25 0.29 0.27 0.25 0.25 0.25 0.24 0.21 0.22 0.20 0.21 0.23 0.26 0.23 0.23 0.23 0.25 0.26 0.24 0.21 0.19 0.17 0.17 0.15 0.15 0.16 0.17 0.18 0.17 0.14 0.13 0.14 0.14 0.12 0.12 0.12 0.13 0.13 0.13 0.12 0.10 0.10 0.09 0.09 0.08 0.09 0.09 0.09 0.09 0.08 0.08
0.23 0.26 0.24 0.24 0.25 0.24 0.23 0.21 0.21 0.21 0.21 0.20 0.21 0.23 0.24 0.23 0.21 0.20 0.22 0.24 0.22 0.21 0.20 0.18 0.17 0.16 0.16 0.17 0.15 0.15 0.15 0.15 0.13 0.12 0.13 0.13 0.13 0.12 0.12 0.11 0.11 0.11 0.12 0.11 0.10 0.09 0.09 0.09 0.08 0.08 0.09 0.09 0.08 0.08
0.21 0.22 0.26 0.28 0.27 0.25 0.23 0.23 0.23 0.21 0.19 0.19 0.19 0.19 0.20 0.18 0.16 0.18 0.24 0.25 0.21 0.21 0.21 0.21 0.19 0.17 0.16 0.15 0.15 0.14 0.14 0.13 0.13 0.13 0.14 0.14 0.14 0.14 0.13 0.11 0.10 0.11 0.11 0.11 0.10 0.09 0.08 0.08 0.08 0.08 0.08 0.08 0.08 0.08
0.23 0.24 0.22 0.22 0.23 0.24 0.21 0.20 0.20 0.18 0.19 0.22 0.20 0.12 0.11 0.09 0.10 0.18 0.23 0.26 0.24 0.23 0.22 0.21 0.20 0.19 0.17 0.15 0.14 0.13 0.13 0.13 0.13 0.13 0.12 0.12 0.13 0.13 0.13 0.13 0.12 0.11 0.09 0.09 0.08 0.08 0.08 0.08 0.08 0.08 0.08 0.08 0.08 0.08
0.21 0.23 0.22 0.20 0.21 0.21 0.20 0.19 0.19 0.21 0.23 0.23 0.20 0.13 0.11 0.13 0.14 0.15 0.20 0.23 0.24 0.22 0.19 0.18 0.17 0.17 0.15 0.14 0.13 0.13 0.13 0.12 0.10 0.10 0.10 0.10 0.11 0.12 0.12 0.11 0.10 0.09 0.09 0.09 0.09 0.08 0.08 0.08 0.07 0.07 0.07 0.07 0.08 0.08
0.21 0.23 0.20 0.19 0.18 0.19 0.20 0.21 0.21 0.23 0.25 0.25 0.24 0.22 0.20 0.19 0.18 0.19 0.19 0.21 0.20 0.19 0.19 0.18 0.17 0.15 0.13 0.12 0.11 0.11 0.12 0.12 0.12 0.12 0.11 0.11 0.12 0.12 0.12 0.10 0.09 0.09 0.08 0.08 0.08 0.08 0.08 0.07 0.07 0.07 0.07 0.08 0.08 0.08
0.21 0.21 0.19 0.19 0.19 0.20 0.22 0.24 0.24 0.24 0.24 0.23 0.23 0.21 0.21 0.22 0.24 0.25 0.23 0.22 0.20 0.20 0.19 0.18 0.16 0.15 0.14 0.13 0.11 0.09 0.09 0.12 0.14 0.15 0.14 0.13 0.12 0.12 0.11 0.10 0.09 0.08 0.08 0.07 0.07 0.07 0.07 0.07 0.07 0.07 0.07 0.07 0.07 0.07
0.18 0.17 0.17 0.16 0.18 0.21 0.21 0.20 0.21 0.22 0.22 0.22 0.21 0.21 0.20 0.20 0.19 0.21 0.22 0.22 0.21 0.20 0.19 0.18 0.16 0.15 0.14 0.12 0.11 0.11 0.12 0.13 0.13 0.14 0.14 0.12 0.11 0.10 0.09 0.08 0.08 0.07 0.07 0.07 0.07 0.07 0.07 0.07 0.07 0.07 0.07 0.07 0.07 0.07
0.19 0.19 0.20 0.19 0.19 0.18 0.19 0.18 0.17 0.18 0.19 0.20 0.20 0.20 0.19 0.18 0.18 0.21 0.23 0.23 0.21 0.21 0.20 0.19 0.18 0.16 0.13 0.12 0.12 0.12 0.12 0.13 0.15 0.15 0.13 0.11 0.10 0.09 0.08 0.08 0.07 0.07 0.07 0.07 0.07 0.07 0.07 0.07 0.07 0.07 0.07 0.07 0.07 0.07

GFSWCAN_prec_pwat_102.txt.gz
Precipitable_Water
0.45 0.49 0.44 0.41 0.39 0.34 0.35 0.37 0.41 0.36 0.38 0.35 0.33 0.40 0.46 0.48 0.55 0.56 0.51 0.55 0.45 0.33 0.32 0.33 0.31 0.25 0.25 0.24 0.19 0.25 0.27 0.30 0.28 0.23 0.22 0.22 0.22 0.24 0.24 0.26 0.26 0.23 0.22 0.21 0.22 0.20 0.19 0.41 0.38 0.29 0.37 0.41 0.39 0.39
0.47 0.46 0.43 0.41 0.40 0.34 0.33 0.40 0.42 0.36 0.36 0.37 0.33 0.39 0.44 0.50 0.55 0.61 0.47 0.56 0.57 0.40 0.36 0.43 0.40 0.40 0.36 0.32 0.25 0.28 0.27 0.30 0.32 0.26 0.27 0.27 0.24 0.26 0.23 0.20 0.30 0.25 0.29 0.25 0.25 0.25 0.38 0.44 0.42 0.46 0.46 0.42 0.43 0.43
0.44 0.42 0.41 0.43 0.44 0.39 0.35 0.37 0.39 0.34 0.38 0.36 0.32 0.37 0.44 0.51 0.56 0.58 0.54 0.56 0.51 0.41 0.38 0.38 0.35 0.42 0.46 0.41 0.38 0.22 0.28 0.36 0.34 0.39 0.31 0.29 0.26 0.30 0.21 0.23 0.26 0.32 0.36 0.30 0.30 0.34 0.37 0.42 0.46 0.47 0.47 0.44 0.45 0.46
0.43 0.41 0.39 0.39 0.41 0.41 0.37 0.36 0.38 0.36 0.38 0.35 0.33 0.42 0.47 0.52 0.56 0.60 0.53 0.57 0.53 0.44 0.31 0.32 0.43 0.41 0.47 0.43 0.40 0.33 0.32 0.42 0.43 0.38 0.33 0.28 0.25 0.31 0.27 0.29 0.27 0.31 0.33 0.30 0.31 0.36 0.38 0.40 0.44 0.45 0.46 0.47 0.46 0.46
0.42 0.42 0.40 0.38 0.38 0.38 0.36 0.36 0.40 0.37 0.37 0.33 0.37 0.45 0.51 0.57 0.61 0.62 0.61 0.61 0.60 0.44 0.32 0.32 0.41 0.45 0.48 0.43 0.39 0.38 0.31 0.27 0.29 0.29 0.30 0.28 0.31 0.30 0.33 0.32 0.28 0.34 0.30 0.27 0.26 0.36 0.37 0.38 0.43 0.45 0.43 0.43 0.44 0.43
0.39 0.40 0.42 0.39 0.38 0.36 0.34 0.34 0.37 0.37 0.35 0.34 0.42 0.49 0.57 0.63 0.65 0.58 0.43 0.59 0.64 0.58 0.41 0.28 0.41 0.41 0.45 0.44 0.40 0.37 0.35 0.30 0.29 0.31 0.31 0.33 0.36 0.32 0.26 0.26 0.33 0.37 0.38 0.39 0.34 0.40 0.41 0.42 0.44 0.45 0.43 0.43 0.42 0.40
0.35 0.37 0.40 0.43 0.40 0.37 0.38 0.36 0.36 0.38 0.34 0.36 0.44 0.52 0.60 0.63 0.62 0.48 0.44 0.52 0.62 0.60 0.40 0.30 0.29 0.39 0.42 0.41 0.39 0.38 0.38 0.37 0.33 0.32 0.28 0.30 0.32 0.34 0.28 0.23 0.31 0.37 0.39 0.40 0.42 0.42 0.38 0.41 0.39 0.43 0.42 0.41 0.40 0.38
0.33 0.35 0.39 0.41 0.40 0.36 0.36 0.34 0.37 0.38 0.34 0.37 0.46 0.55 0.61 0.63 0.63 0.52 0.61 0.62 0.63 0.49 0.43 0.29 0.28 0.32 0.41 0.34 0.32 0.39 0.33 0.35 0.34 0.31 0.31 0.30 0.34 0.32 0.24 0.29 0.33 0.37 0.38 0.39 0.40 0.42 0.41 0.42 0.41 0.40 0.39 0.38 0.35 0.33
0.31 0.35 0.37 0.39 0.39 0.38 0.36 0.33 0.36 0.37 0.36 0.40 0.51 0.58 0.58 0.53 0.46 0.49 0.64 0.63 0.62 0.48 0.33 0.31 0.25 0.24 0.41 0.35 0.36 0.35 0.36 0.27 0.36 0.29 0.29 0.31 0.27 0.23 0.28 0.28 0.30 0.33 0.34 0.34 0.39 0.40 0.40 0.38 0.36 0.35 0.34 0.34 0.32 0.31
0.31 0.35 0.36 0.39 0.38 0.38 0.35 0.35 0.36 0.38 0.37 0.44 0.51 0.44 0.37 0.48 0.63 0.62 0.52 0.42 0.42 0.42 0.40 0.29 0.33 0.26 0.34 0.33 0.31 0.31 0.33 0.28 0.22 0.26 0.33 0.26 0.24 0.29 0.30 0.30 0.30 0.28 0.29 0.33 0.32 0.32 0.33 0.33 0.32 0.31 0.30 0.30 0.30 0.30
0.30 0.34 0.36 0.38 0.38 0.37 0.35 0.39 0.43 0.36 0.44 0.44 0.39 0.37 0.52 0.63 0.52 0.43 0.34 0.32 0.33 0.28 0.32 0.31 0.31 0.28 0.38 0.28 0.28 0.33 0.27 0.27 0.19 0.25 0.24 0.22 0.20 0.22 0.27 0.28 0.28 0.29 0.32 0.33 0.34 0.34 0.33 0.32 0.31 0.29 0.28 0.28 0.27 0.27
0.32 0.34 0.36 0.38 0.38 0.35 0.34 0.40 0.38 0.37 0.42 0.43 0.47 0.54 0.54 0.44 0.37 0.30 0.27 0.31 0.27 0.23 0.29 0.25 0.27 0.33 0.35 0.40 0.32 0.32 0.25 0.26 0.18 0.31 0.24 0.18 0.21 0.26 0.27 0.27 0.28 0.32 0.34 0.33 0.33 0.32 0.30 0.30 0.29 0.28 0.27 0.25 0.24 0.22
0.33 0.35 0.37 0.39 0.38 0.35 0.35 0.39 0.38 0.44 0.53 0.51 0.44 0.39 0.36 0.34 0.26 0.22 0.18 0.21 0.21 0.26 0.27 0.27 0.26 0.33 0.36 0.37 0.32 0.30 0.24 0.22 0.32 0.24 0.21 0.23 0.26 0.29 0.30 0.31 0.32 0.33 0.33 0.32 0.31 0.30 0.29 0.28 0.26 0.22 0.20 0.19 0.19 0.18
0.34 0.36 0.38 0.37 0.34 0.34 0.36 0.38 0.49 0.52 0.47 0.36 0.33 0.25 0.26 0.25 0.25 0.23 0.21 0.22 0.26 0.27 0.27 0.30 0.29 0.30 0.34 0.30 0.31 0.26 0.28 0.29 0.22 0.19 0.21 0.26 0.29 0.31 0.32 0.32 0.31 0.30 0.30 0.29 0.28 0.26 0.21 0.18 0.17 0.17 0.17 0.17 0.16 0.16
0.36 0.36 0.34 0.33 0.35 0.37 0.47 0.54 0.55 0.53 0.43 0.35 0.34 0.24 0.24 0.29 0.29 0.28 0.29 0.28 0.30 0.33 0.31 0.30 0.31 0.32 0.29 0.28 0.30 0.29 0.25 0.22 0.24 0.24 0.27 0.30 0.30 0.30 0.30 0.29 0.28 0.27 0.24 0.18 0.17 0.16 0.16 0.16 0.16 0.16 0.17 0.17 0.17 0.16
0.35 0.36 0.34 0.37 0.46 0.53 0.55 0.56 0.52 0.49 0.41 0.34 0.30 0.25 0.27 0.25 0.26 0.28 0.28 0.27 0.34 0.34 0.35 0.33 0.28 0.26 0.26 0.27 0.26 0.24 0.23 0.22 0.26 0.27 0.30 0.32 0.30 0.27 0.25 0.22 0.18 0.17 0.17 0.17 0.16 0.16 0.17 0.16 0.16 0.16 0.16 0.16 0.15 0.14
0.38 0.34 0.44 0.52 0.55 0.56 0.55 0.49 0.45 0.38 0.33 0.31 0.26 0.29 0.28 0.28 0.27 0.27 0.29 0.30 0.38 0.33 0.25 0.28 0.22 0.23 0.31 0.25 0.24 0.28 0.25 0.27 0.27 0.29 0.31 0.24 0.21 0.19 0.18 0.17 0.17 0.17 0.17 0.17 0.17 0.17 0.17 0.17 0.16 0.16 0.15 0.15 0.15 0.14
0.48 0.57 0.57 0.55 0.54 0.51 0.45 0.42 0.35 0.30 0.26 0.28 0.26 0.27 0.28 0.29 0.29 0.30 0.32 0.36 0.34 0.31 0.29 0.26 0.30 0.25 0.23 0.22 0.24 0.28 0.28 0.30 0.30 0.29 0.20 0.19 0.18 0.18 0.18 0.17 0.17 0.17 0.17 0.17 0.17 0.16 0.16 0.15 0.15 0.14 0.14 0.13 0.13 0.12
0.55 0.55 0.53 0.50 0.47 0.43 0.37 0.35 0.33 0.25 0.26 0.28 0.29 0.31 0.31 0.30 0.32 0.33 0.34 0.35 0.35 0.35 0.33 0.30 0.27 0.25 0.25 0.27 0.27 0.29 0.28 0.29 0.23 0.18 0.18 0.18 0.18 0.17 0.17 0.17 0.17 0.17 0.17 0.16 0.16 0.16 0.16 0.15 0.14 0.13 0.13 0.12 0.11 0.11
0.55 0.54 0.52 0.49 0.45 0.37 0.31 0.32 0.35 0.28 0.25 0.28 0.31 0.30 0.29 0.29 0.31 0.33 0.33 0.33 0.34 0.33 0.31 0.28 0.26 0.28 0.28 0.29 0.31 0.32 0.28 0.21 0.18 0.15 0.16 0.17 0.18 0.18 0.17 0.17 0.16 0.17 0.17 0.17 0.17 0.16 0.15 0.13 0.13 0.12 0.12 0.11 0.11 0.11
0.47 0.45 0.44 0.44 0.40 0.36 0.31 0.29 0.28 0.29 0.29 0.29 0.32 0.32 0.30 0.32 0.30 0.30 0.31 0.33 0.32 0.31 0.30 0.30 0.30 0.31 0.32 0.33 0.29 0.23 0.20 0.19 0.17 0.17 0.16 0.16 0.18 0.18 0.17 0.17 0.17 0.17 0.17 0.16 0.15 0.14 0.13 0.12 0.12 0.12 0.11 0.10 0.10 0.11
0.44 0.44 0.39 0.39 0.33 0.32 0.30 0.32 0.29 0.30 0.29 0.31 0.30 0.31 0.29 0.28 0.28 0.30 0.32 0.29 0.28 0.29 0.30 0.31 0.31 0.32 0.31 0.22 0.20 0.20 0.20 0.19 0.19 0.19 0.19 0.17 0.15 0.15 0.16 0.16 0.16 0.15 0.16 0.15 0.14 0.13 0.12 0.12 0.11 0.10 0.10 0.10 0.10 0.10
0.47 0.45 0.40 0.38 0.32 0.29 0.28 0.35 0.27 0.28 0.26 0.27 0.29 0.27 0.26 0.27 0.29 0.32 0.28 0.29 0.30 0.32 0.33 0.32 0.32 0.33 0.29 0.19 0.18 0.19 0.19 0.18 0.17 0.17 0.17 0.17 0.17 0.17 0.16 0.15 0.16 0.15 0.14 0.14 0.14 0.13 0.11 0.10 0.10 0.10 0.10 0.10 0.10 0.10
0.45 0.36 0.32 0.31 0.30 0.27 0.31 0.27 0.29 0.27 0.28 0.26 0.25 0.24 0.26 0.27 0.29 0.27 0.24 0.27 0.29 0.32 0.32 0.32 0.31 0.28 0.22 0.17 0.16 0.16 0.17 0.18 0.17 0.17 0.17 0.15 0.14 0.14 0.14 0.14 0.15 0.15 0.14 0.14 0.13 0.12 0.11 0.10 0.10 0.09 0.09 0.09 0.09 0.09
0.29 0.28 0.30 0.27 0.30 0.26 0.25 0.25 0.25 0.25 0.23 0.24 0.22 0.22 0.24 0.27 0.24 0.24 0.24 0.27 0.29 0.29 0.29 0.27 0.24 0.19 0.16 0.15 0.16 0.16 0.18 0.17 0.15 0.14 0.15 0.15 0.13 0.13 0.13 0.13 0.14 0.14 0.14 0.13 0.11 0.11 0.11 0.10 0.10 0.09 0.09 0.09 0.09 0.09
0.24 0.27 0.26 0.27 0.27 0.26 0.25 0.23 0.23 0.22 0.22 0.21 0.21 0.24 0.27 0.25 0.23 0.22 0.24 0.27 0.28 0.28 0.27 0.24 0.19 0.16 0.16 0.17 0.15 0.15 0.16 0.18 0.16 0.13 0.13 0.14 0.13 0.13 0.13 0.13 0.13 0.13 0.14 0.13 0.12 0.11 0.10 0.10 0.09 0.09 0.09 0.09 0.08 0.08
0.22 0.23 0.27 0.30 0.28 0.26 0.24 0.25 0.24 0.22 0.20 0.19 0.21 0.22 0.22 0.19 0.19 0.21 0.25 0.27 0.27 0.28 0.27 0.24 0.20 0.18 0.17 0.17 0.18 0.18 0.17 0.16 0.14 0.13 0.14 0.14 0.14 0.14 0.15 0.14 0.13 0.14 0.13 0.12 0.11 0.10 0.09 0.08 0.08 0.08 0.08 0.09 0.09 0.09
0.24 0.25 0.22 0.24 0.24 0.24 0.22 0.21 0.20 0.19 0.20 0.22 0.21 0.17 0.17 0.16 0.15 0.20 0.23 0.28 0.29 0.26 0.24 0.23 0.22 0.21 0.20 0.19 0.17 0.15 0.13 0.13 0.13 0.13 0.13 0.13 0.14 0.14 0.14 0.15 0.14 0.13 0.12 0.10 0.09 0.09 0.08 0.08 0.08 0.08 0.08 0.08 0.08 0.08
0.23 0.24 0.23 0.20 0.21 0.21 0.21 0.20 0.19 0.21 0.22 0.23 0.19 0.13 0.13 0.14 0.16 0.20 0.23 0.28 0.29 0.25 0.21 0.20 0.19 0.19 0.18 0.16 0.15 0.14 0.14 0.12 0.10 0.08 0.09 0.10 0.12 0.13 0.14 0.13 0.12 0.11 0.11 0.10 0.09 0.09 0.08 0.08 0.08 0.08 0.08 0.08 0.08 0.09
0.22 0.24 0.21 0.20 0.19 0.19 0.20 0.21 0.21 0.22 0.24 0.24 0.24 0.20 0.17 0.16 0.17 0.18 0.21 0.25 0.25 0.25 0.23 0.21 0.19 0.18 0.15 0.14 0.13 0.12 0.13 0.12 0.11 0.11 0.10 0.11 0.13 0.15 0.13 0.12 0.11 0.10 0.10 0.09 0.09 0.08 0.08 0.08 0.08 0.08 0.08 0.08 0.08 0.08
0.22 0.22 0.20 0.19 0.19 0.20 0.22 0.23 0.23 0.24 0.24 0.23 0.24 0.22 0.19 0.20 0.21 0.23 0.22 0.23 0.23 0.23 0.21 0.19 0.18 0.17 0.15 0.14 0.13 0.11 0.10 0.11 0.12 0.12 0.13 0.14 0.15 0.14 0.13 0.12 0.11 0.10 0.09 0.09 0.08 0.08 0.08 0.08 0.08 0.08 0.08 0.08 0.08 0.08
0.19 0.18 0.17 0.16 0.17 0.20 0.21 0.20 0.21 0.22 0.22 0.22 0.22 0.22 0.22 0.22 0.20 0.23 0.26 0.26 0.26 0.24 0.22 0.21 0.19 0.17 0.17 0.17 0.15 0.13 0.12 0.11 0.12 0.12 0.13 0.15 0.15 0.13 0.12 0.10 0.09 0.09 0.08 0.08 0.08 0.08 0.08 0.08 0.08 0.08 0.08 0.08 0.08 0.08
0.19 0.18 0.18 0.18 0.18 0.18 0.19 0.19 0.18 0.18 0.19 0.20 0.21 0.21 0.21 0.20 0.19 0.22 0.25 0.26 0.25 0.24 0.23 0.22 0.21 0.20 0.17 0.15 0.13 0.12 0.12 0.11 0.11 0.12 0.15 0.15 0.12 0.11 0.10 0.09 0.09 0.08 0.08 0.08 0.08 0.08 0.08 0.08 0.08 0.08 0.08 0.08 0.08 0.08

GFSWCAN_prec_pwat_105.txt.gz
Precipitable_Water
0.53 0.52 0.50 0.48 0.45 0.43 0.40 0.39 0.40 0.44 0.38 0.37 0.34 0.38 0.43 0.47 0.51 0.53 0.49 0.53 0.43 0.32 0.31 0.34 0.34 0.28 0.27 0.27 0.23 0.26 0.27 0.28 0.27 0.23 0.22 0.22 0.24 0.24 0.28 0.26 0.26 0.25 0.25 0.23 0.23 0.20 0.20 0.38 0.37 0.29 0.36 0.41 0.41 0.40
0.48 0.51 0.52 0.48 0.44 0.42 0.39 0.37 0.39 0.41 0.39 0.39 0.35 0.34 0.40 0.45 0.49 0.56 0.45 0.54 0.54 0.40 0.34 0.43 0.42 0.41 0.37 0.35 0.28 0.28 0.27 0.30 0.30 0.26 0.26 0.27 0.26 0.26 0.24 0.26 0.31 0.25 0.29 0.25 0.24 0.24 0.37 0.42 0.41 0.45 0.46 0.43 0.43 0.43
0.47 0.46 0.47 0.46 0.45 0.42 0.37 0.34 0.36 0.42 0.39 0.36 0.37 0.33 0.37 0.44 0.48 0.53 0.52 0.55 0.49 0.39 0.36 0.37 0.36 0.45 0.48 0.44 0.41 0.24 0.29 0.36 0.36 0.39 0.32 0.29 0.27 0.28 0.22 0.26 0.26 0.31 0.35 0.29 0.28 0.33 0.35 0.40 0.44 0.46 0.47 0.44 0.45 0.47
0.52 0.51 0.48 0.46 0.44 0.43 0.38 0.38 0.36 0.41 0.40 0.38 0.37 0.32 0.36 0.43 0.49 0.56 0.51 0.57 0.51 0.43 0.31 0.35 0.42 0.41 0.49 0.46 0.42 0.36 0.35 0.40 0.41 0.37 0.33 0.29 0.26 0.32 0.26 0.30 0.29 0.31 0.33 0.29 0.29 0.33 0.37 0.38 0.42 0.44 0.45 0.46 0.45 0.45
0.50 0.49 0.47 0.45 0.44 0.43 0.42 0.39 0.38 0.38 0.37 0.39 0.37 0.33 0.38 0.46 0.51 0.55 0.59 0.58 0.58 0.43 0.34 0.36 0.42 0.45 0.47 0.45 0.41 0.41 0.34 0.29 0.29 0.29 0.31 0.30 0.33 0.30 0.34 0.31 0.29 0.34 0.30 0.27 0.26 0.34 0.35 0.37 0.42 0.45 0.44 0.43 0.43 0.42
0.44 0.45 0.44 0.43 0.41 0.41 0.42 0.40 0.37 0.41 0.40 0.38 0.34 0.34 0.43 0.47 0.53 0.54 0.42 0.56 0.60 0.58 0.40 0.30 0.46 0.41 0.44 0.45 0.40 0.40 0.37 0.32 0.27 0.28 0.29 0.34 0.37 0.33 0.27 0.27 0.34 0.36 0.38 0.39 0.34 0.39 0.39 0.41 0.43 0.45 0.43 0.43 0.42 0.40
0.41 0.44 0.44 0.43 0.40 0.39 0.39 0.38 0.37 0.40 0.39 0.37 0.34 0.41 0.47 0.56 0.58 0.46 0.43 0.56 0.62 0.60 0.40 0.31 0.32 0.40 0.42 0.42 0.40 0.39 0.39 0.35 0.34 0.31 0.31 0.31 0.33 0.34 0.30 0.24 0.33 0.35 0.38 0.39 0.42 0.41 0.37 0.40 0.38 0.43 0.43 0.41 0.39 0.38
0.38 0.39 0.40 0.42 0.42 0.39 0.38 0.38 0.37 0.37 0.39 0.37 0.38 0.44 0.54 0.60 0.62 0.51 0.61 0.62 0.62 0.49 0.45 0.30 0.29 0.32 0.42 0.33 0.32 0.40 0.34 0.35 0.35 0.33 0.32 0.26 0.34 0.32 0.23 0.31 0.32 0.36 0.37 0.38 0.40 0.42 0.41 0.42 0.42 0.40 0.40 0.38 0.36 0.34
0.36 0.36 0.37 0.40 0.42 0.41 0.38 0.38 0.38 0.38 0.39 0.36 0.42 0.50 0.54 0.52 0.45 0.52 0.64 0.64 0.62 0.48 0.33 0.31 0.25 0.26 0.41 0.37 0.38 0.36 0.37 0.28 0.35 0.30 0.30 0.31 0.28 0.25 0.30 0.30 0.30 0.32 0.31 0.32 0.36 0.38 0.39 0.37 0.36 0.37 0.36 0.34 0.33 0.32
0.32 0.35 0.36 0.38 0.41 0.42 0.38 0.37 0.36 0.38 0.38 0.39 0.43 0.40 0.35 0.47 0.64 0.62 0.52 0.43 0.43 0.44 0.41 0.30 0.35 0.30 0.35 0.32 0.31 0.31 0.34 0.29 0.25 0.28 0.32 0.25 0.25 0.32 0.33 0.33 0.32 0.31 0.30 0.30 0.29 0.30 0.33 0.33 0.33 0.32 0.32 0.32 0.31 0.29
0.30 0.31 0.34 0.37 0.40 0.41 0.39 0.37 0.35 0.38 0.38 0.36 0.35 0.35 0.52 0.63 0.52 0.44 0.34 0.33 0.34 0.28 0.32 0.31 0.32 0.30 0.39 0.30 0.29 0.33 0.28 0.28 0.20 0.26 0.25 0.23 0.22 0.26 0.29 0.28 0.29 0.29 0.29 0.30 0.34 0.35 0.34 0.34 0.32 0.30 0.29 0.29 0.28 0.26
0.29 0.29 0.34 0.37 0.40 0.40 0.38 0.37 0.37 0.36 0.36 0.39 0.45 0.53 0.52 0.44 0.38 0.31 0.28 0.32 0.28 0.23 0.30 0.27 0.30 0.36 0.36 0.40 0.33 0.33 0.27 0.27 0.18 0.32 0.25 0.20 0.24 0.28 0.27 0.28 0.29 0.29 0.30 0.32 0.34 0.33 0.32 0.30 0.29 0.27 0.26 0.23 0.21 0.21
0.29 0.30 0.35 0.37 0.40 0.40 0.38 0.39 0.42 0.43 0.47 0.48 0.42 0.37 0.36 0.34 0.25 0.22 0.19 0.22 0.22 0.28 0.30 0.29 0.27 0.34 0.36 0.37 0.32 0.30 0.23 0.22 0.32 0.25 0.23 0.25 0.28 0.29 0.30 0.30 0.30 0.31 0.32 0.32 0.31 0.31 0.30 0.29 0.26 0.22 0.19 0.19 0.18 0.17
0.29 0.32 0.36 0.38 0.40 0.39 0.37 0.38 0.41 0.44 0.42 0.32 0.30 0.25 0.27 0.23 0.23 0.24 0.22 0.23 0.31 0.31 0.29 0.31 0.29 0.29 0.33 0.29 0.30 0.23 0.30 0.29 0.22 0.20 0.21 0.26 0.29 0.31 0.32 0.32 0.32 0.31 0.31 0.30 0.29 0.27 0.21 0.17 0.16 0.17 0.17 0.17 0.16 0.16
0.31 0.35 0.38 0.39 0.40 0.39 0.37 0.38 0.42 0.43 0.38 0.31 0.33 0.24 0.23 0.31 0.32 0.33 0.34 0.34 0.35 0.36 0.32 0.31 0.31 0.32 0.29 0.27 0.28 0.27 0.24 0.22 0.24 0.24 0.29 0.31 0.32 0.32 0.31 0.30 0.29 0.27 0.24 0.19 0.17 0.16 0.16 0.16 0.16 0.16 0.17 0.17 0.16 0.14
0.34 0.37 0.36 0.40 0.40 0.38 0.37 0.40 0.42 0.45 0.38 0.34 0.32 0.28 0.29 0.26 0.26 0.29 0.29 0.29 0.36 0.36 0.37 0.34 0.29 0.26 0.24 0.26 0.24 0.22 0.23 0.23 0.29 0.30 0.32 0.32 0.31 0.28 0.25 0.23 0.21 0.19 0.19 0.18 0.17 0.17 0.17 0.17 0.17 0.16 0.16 0.15 0.14 0.14
0.36 0.32 0.37 0.39 0.36 0.40 0.43 0.43 0.41 0.35 0.32 0.30 0.30 0.33 0.32 0.30 0.28 0.29 0.32 0.32 0.40 0.34 0.28 0.30 0.23 0.22 0.30 0.23 0.23 0.30 0.27 0.30 0.32 0.31 0.32 0.27 0.24 0.22 0.21 0.19 0.18 0.18 0.18 0.18 0.18 0.18 0.17 0.18 0.17 0.16 0.14 0.15 0.15 0.14
0.34 0.38 0.37 0.36 0.41 0.44 0.44 0.43 0.37 0.32 0.28 0.30 0.28 0.29 0.31 0.32 0.30 0.32 0.34 0.37 0.36 0.34 0.33 0.28 0.31 0.24 0.24 0.23 0.25 0.29 0.31 0.34 0.34 0.32 0.26 0.23 0.21 0.19 0.19 0.18 0.18 0.18 0.18 0.18 0.17 0.17 0.17 0.16 0.16 0.15 0.14 0.14 0.13 0.13
0.35 0.37 0.39 0.42 0.45 0.43 0.36 0.36 0.37 0.28 0.29 0.30 0.32 0.32 0.31 0.32 0.35 0.36 0.35 0.36 0.39 0.38 0.33 0.29 0.26 0.26 0.27 0.30 0.32 0.32 0.32 0.32 0.30 0.27 0.21 0.21 0.20 0.18 0.18 0.18 0.18 0.18 0.17 0.16 0.17 0.17 0.17 0.16 0.16 0.14 0.14 0.13 0.12 0.13
0.46 0.50 0.54 0.53 0.51 0.40 0.35 0.33 0.38 0.30 0.27 0.30 0.32 0.31 0.30 0.30 0.32 0.34 0.34 0.34 0.33 0.32 0.29 0.27 0.28 0.30 0.32 0.33 0.35 0.34 0.34 0.33 0.27 0.19 0.17 0.18 0.19 0.19 0.18 0.18 0.17 0.17 0.17 0.17 0.17 0.17 0.16 0.15 0.14 0.14 0.13 0.12 0.11 0.12
0.52 0.52 0.52 0.52 0.42 0.39 0.37 0.32 0.30 0.30 0.30 0.28 0.30 0.30 0.28 0.31 0.30 0.30 0.31 0.34 0.32 0.30 0.29 0.31 0.32 0.33 0.35 0.36 0.37 0.36 0.33 0.25 0.20 0.18 0.17 0.16 0.19 0.19 0.18 0.18 0.18 0.17 0.16 0.16 0.16 0.17 0.14 0.14 0.14 0.14 0.13 0.13 0.12 0.12
0.47 0.51 0.45 0.44 0.36 0.34 0.33 0.35 0.31 0.32 0.31 0.30 0.31 0.32 0.28 0.27 0.27 0.29 0.32 0.29 0.29 0.30 0.33 0.34 0.34 0.32 0.33 0.34 0.33 0.29 0.26 0.22 0.21 0.20 0.20 0.20 0.18 0.17 0.17 0.17 0.17 0.16 0.17 0.17 0.17 0.16 0.16 0.14 0.13 0.13 0.12 0.12 0.11 0.11
0.45 0.44 0.40 0.38 0.31 0.29 0.28 0.36 0.28 0.28 0.25 0.27 0.30 0.27 0.28 0.28 0.29 0.32 0.28 0.29 0.30 0.33 0.34 0.34 0.34 0.34 0.34 0.34 0.26 0.22 0.21 0.20 0.19 0.19 0.19 0.19 0.19 0.19 0.18 0.17 0.18 0.17 0.16 0.17 0.16 0.16 0.15 0.13 0.12 0.11 0.12 0.11 0.11 0.11
0.45 0.39 0.34 0.32 0.30 0.25 0.30 0.26 0.28 0.27 0.27 0.27 0.26 0.24 0.26 0.27 0.30 0.28 0.25 0.27 0.29 0.31 0.31 0.32 0.33 0.32 0.32 0.28 0.20 0.18 0.19 0.20 0.19 0.19 0.19 0.18 0.17 0.16 0.17 0.16 0.16 0.17 0.17 0.17 0.16 0.15 0.14 0.13 0.12 0.11 0.11 0.10 0.10 0.10
0.34 0.31 0.32 0.26 0.30 0.27 0.25 0.24 0.25 0.25 0.23 0.25 0.24 0.25 0.26 0.28 0.25 0.24 0.24 0.26 0.29 0.30 0.31 0.32 0.31 0.30 0.29 0.27 0.23 0.18 0.19 0.18 0.17 0.16 0.18 0.18 0.17 0.15 0.14 0.15 0.15 0.15 0.16 0.16 0.15 0.14 0.14 0.13 0.12 0.11 0.11 0.10 0.10 0.09
0.26 0.30 0.29 0.28 0.28 0.27 0.26 0.23 0.23 0.24 0.25 0.24 0.25 0.28 0.29 0.27 0.23 0.22 0.23 0.28 0.29 0.31 0.31 0.31 0.30 0.29 0.27 0.24 0.18 0.16 0.17 0.18 0.17 0.15 0.16 0.16 0.15 0.15 0.14 0.13 0.14 0.15 0.17 0.16 0.15 0.14 0.13 0.12 0.11 0.11 0.10 0.10 0.10 0.09
0.25 0.26 0.29 0.32 0.30 0.29 0.27 0.28 0.28 0.26 0.23 0.21 0.23 0.24 0.24 0.21 0.21 0.24 0.28 0.31 0.30 0.33 0.34 0.33 0.30 0.25 0.21 0.18 0.19 0.19 0.19 0.19 0.17 0.16 0.16 0.15 0.15 0.16 0.16 0.15 0.15 0.17 0.17 0.15 0.14 0.12 0.11 0.11 0.10 0.10 0.10 0.10 0.10 0.10
0.27 0.28 0.25 0.27 0.27 0.28 0.24 0.24 0.22 0.21 0.22 0.24 0.25 0.21 0.20 0.21 0.21 0.24 0.26 0.29 0.33 0.33 0.33 0.32 0.29 0.26 0.22 0.20 0.19 0.19 0.17 0.16 0.15 0.14 0.14 0.13 0.14 0.14 0.15 0.15 0.16 0.16 0.15 0.14 0.12 0.11 0.10 0.10 0.10 0.09 0.09 0.09 0.09 0.10
0.25 0.27 0.26 0.23 0.24 0.23 0.22 0.21 0.21 0.22 0.24 0.24 0.21 0.18 0.20 0.20 0.19 0.20 0.23 0.29 0.31 0.30 0.28 0.26 0.26 0.25 0.22 0.21 0.20 0.18 0.16 0.14 0.11 0.09 0.09 0.10 0.10 0.12 0.14 0.14 0.15 0.15 0.14 0.13 0.11 0.10 0.10 0.09 0.09 0.09 0.09 0.09 0.10 0.10
0.24 0.26 0.23 0.22 0.21 0.20 0.21 0.23 0.22 0.23 0.24 0.25 0.24 0.19 0.17 0.16 0.18 0.23 0.25 0.26 0.29 0.29 0.28 0.26 0.25 0.23 0.19 0.18 0.16 0.15 0.15 0.14 0.13 0.12 0.11 0.11 0.12 0.13 0.14 0.15 0.15 0.14 0.13 0.13 0.11 0.11 0.10 0.10 0.10 0.10 0.09 0.09 0.10 0.09
0.25 0.25 0.22 0.22 0.21 0.22 0.23 0.24 0.25 0.24 0.24 0.23 0.25 0.23 0.20 0.19 0.20 0.21 0.21 0.23 0.26 0.28 0.27 0.25 0.24 0.22 0.19 0.17 0.15 0.14 0.12 0.13 0.12 0.12 0.13 0.13 0.13 0.13 0.15 0.16 0.15 0.14 0.12 0.11 0.10 0.10 0.10 0.10 0.10 0.09 0.09 0.09 0.09 0.09
0.22 0.21 0.20 0.18 0.19 0.22 0.24 0.23 0.23 0.22 0.22 0.22 0.22 0.23 0.23 0.22 0.19 0.21 0.24 0.26 0.26 0.26 0.25 0.25 0.23 0.22 0.23 0.22 0.20 0.18 0.17 0.13 0.13 0.13 0.13 0.13 0.13 0.14 0.15 0.14 0.13 0.12 0.11 0.10 0.10 0.10 0.10 0.09 0.09 0.09 0.09 0.09 0.09 0.08
0.20 0.20 0.20 0.19 0.18 0.18 0.20 0.19 0.19 0.18 0.20 0.20 0.21 0.22 0.22 0.22 0.20 0.23 0.27 0.28 0.27 0.28 0.28 0.27 0.27 0.25 0.23 0.22 0.20 0.17 0.15 0.14 0.13 0.13 0.12 0.12 0.13 0.15 0.14 0.13 0.12 0.11 0.10 0.10 0.10 0.10 0.09 0.09 0.09 0.09 0.08 0.08 0.08 0.08

GFSWCAN_prec_pwat_108.txt.gz
Precipitable_Water
0.62 0.58 0.55 0.52 0.51 0.52 0.52 0.50 0.48 0.46 0.43 0.40 0.36 0.38 0.42 0.46 0.47 0.49 0.47 0.52 0.42 0.33 0.33 0.34 0.33 0.27 0.28 0.28 0.22 0.26 0.26 0.27 0.24 0.22 0.20 0.21 0.22 0.24 0.32 0.30 0.28 0.23 0.30 0.23 0.26 0.24 0.21 0.37 0.35 0.27 0.36 0.44 0.43 0.42
0.62 0.60 0.57 0.53 0.50 0.49 0.48 0.46 0.45 0.44 0.44 0.40 0.38 0.36 0.40 0.45 0.46 0.51 0.46 0.55 0.53 0.38 0.35 0.42 0.39 0.40 0.37 0.36 0.30 0.27 0.27 0.30 0.31 0.26 0.26 0.25 0.25 0.27 0.26 0.28 0.32 0.23 0.28 0.25 0.23 0.24 0.37 0.41 0.40 0.44 0.45 0.43 0.43 0.43
0.58 0.58 0.58 0.53 0.50 0.47 0.46 0.44 0.41 0.42 0.43 0.42 0.38 0.35 0.36 0.41 0.45 0.49 0.48 0.52 0.47 0.36 0.34 0.35 0.41 0.45 0.47 0.47 0.44 0.26 0.36 0.37 0.37 0.38 0.32 0.29 0.26 0.29 0.22 0.28 0.30 0.33 0.35 0.27 0.27 0.32 0.35 0.38 0.42 0.45 0.46 0.45 0.44 0.45
0.53 0.54 0.55 0.52 0.50 0.47 0.44 0.41 0.39 0.40 0.43 0.40 0.37 0.37 0.34 0.38 0.44 0.49 0.47 0.55 0.50 0.41 0.29 0.36 0.43 0.39 0.47 0.46 0.43 0.39 0.36 0.38 0.38 0.36 0.33 0.28 0.27 0.33 0.26 0.30 0.30 0.30 0.31 0.29 0.27 0.32 0.35 0.37 0.40 0.41 0.43 0.45 0.44 0.43
0.51 0.50 0.50 0.50 0.49 0.47 0.44 0.41 0.37 0.38 0.41 0.40 0.39 0.36 0.34 0.34 0.43 0.48 0.53 0.56 0.56 0.41 0.32 0.36 0.45 0.46 0.46 0.44 0.41 0.42 0.37 0.30 0.27 0.26 0.29 0.29 0.36 0.32 0.32 0.34 0.28 0.32 0.28 0.26 0.24 0.34 0.33 0.34 0.39 0.42 0.41 0.41 0.42 0.41
0.51 0.53 0.51 0.47 0.45 0.46 0.45 0.42 0.40 0.40 0.40 0.39 0.39 0.37 0.34 0.39 0.45 0.47 0.38 0.54 0.59 0.54 0.38 0.28 0.49 0.46 0.45 0.45 0.41 0.40 0.39 0.34 0.30 0.25 0.27 0.33 0.40 0.33 0.26 0.28 0.36 0.37 0.36 0.39 0.34 0.39 0.38 0.39 0.40 0.42 0.40 0.40 0.39 0.38
0.50 0.53 0.53 0.49 0.48 0.46 0.45 0.42 0.40 0.39 0.40 0.40 0.38 0.36 0.36 0.41 0.45 0.40 0.41 0.55 0.62 0.57 0.39 0.29 0.32 0.43 0.42 0.41 0.40 0.39 0.39 0.35 0.33 0.29 0.26 0.31 0.35 0.36 0.29 0.25 0.34 0.35 0.36 0.39 0.41 0.40 0.36 0.39 0.37 0.41 0.41 0.40 0.40 0.38
0.47 0.50 0.50 0.48 0.46 0.45 0.45 0.44 0.41 0.41 0.42 0.41 0.37 0.37 0.41 0.47 0.49 0.42 0.54 0.65 0.64 0.49 0.44 0.30 0.30 0.34 0.40 0.32 0.30 0.38 0.33 0.33 0.33 0.33 0.33 0.28 0.31 0.32 0.24 0.31 0.32 0.34 0.38 0.38 0.38 0.40 0.40 0.41 0.41 0.39 0.39 0.38 0.36 0.34
0.44 0.45 0.46 0.45 0.43 0.40 0.40 0.38 0.39 0.41 0.41 0.40 0.37 0.42 0.47 0.45 0.41 0.48 0.61 0.64 0.63 0.50 0.33 0.31 0.25 0.25 0.41 0.37 0.37 0.35 0.36 0.26 0.34 0.29 0.30 0.29 0.28 0.23 0.30 0.31 0.30 0.32 0.32 0.32 0.32 0.32 0.33 0.32 0.33 0.34 0.34 0.34 0.33 0.32
0.41 0.41 0.41 0.43 0.43 0.41 0.39 0.38 0.39 0.39 0.40 0.38 0.40 0.37 0.31 0.42 0.60 0.61 0.52 0.42 0.43 0.44 0.40 0.30 0.35 0.30 0.36 0.33 0.30 0.30 0.33 0.27 0.26 0.30 0.34 0.26 0.23 0.33 0.36 0.35 0.34 0.33 0.32 0.33 0.28 0.26 0.30 0.31 0.32 0.31 0.31 0.31 0.30 0.29
0.36 0.37 0.39 0.40 0.42 0.43 0.40 0.38 0.38 0.40 0.40 0.36 0.32 0.32 0.48 0.59 0.50 0.44 0.34 0.33 0.34 0.28 0.32 0.32 0.33 0.32 0.39 0.28 0.29 0.34 0.29 0.29 0.20 0.25 0.26 0.23 0.22 0.29 0.33 0.32 0.32 0.32 0.31 0.30 0.30 0.32 0.35 0.35 0.32 0.30 0.29 0.28 0.26 0.23
0.33 0.34 0.37 0.39 0.42 0.42 0.39 0.37 0.37 0.38 0.34 0.36 0.40 0.50 0.51 0.42 0.37 0.31 0.28 0.32 0.28 0.23 0.31 0.27 0.30 0.35 0.38 0.41 0.32 0.33 0.27 0.27 0.18 0.32 0.25 0.21 0.27 0.32 0.31 0.29 0.29 0.29 0.28 0.29 0.31 0.32 0.33 0.31 0.30 0.28 0.25 0.21 0.19 0.18
0.31 0.31 0.35 0.37 0.41 0.42 0.41 0.39 0.36 0.39 0.42 0.41 0.39 0.36 0.34 0.34 0.25 0.22 0.19 0.23 0.22 0.29 0.33 0.31 0.30 0.37 0.37 0.37 0.31 0.29 0.22 0.21 0.31 0.24 0.21 0.27 0.31 0.31 0.31 0.30 0.29 0.31 0.33 0.32 0.31 0.32 0.31 0.29 0.25 0.20 0.18 0.17 0.17 0.16
0.31 0.29 0.33 0.38 0.41 0.42 0.40 0.38 0.37 0.46 0.39 0.31 0.30 0.24 0.24 0.22 0.24 0.24 0.23 0.22 0.30 0.32 0.31 0.33 0.30 0.30 0.33 0.29 0.28 0.22 0.26 0.29 0.22 0.19 0.22 0.29 0.30 0.31 0.32 0.32 0.31 0.31 0.32 0.30 0.29 0.24 0.18 0.17 0.16 0.16 0.16 0.16 0.16 0.14
0.30 0.31 0.34 0.37 0.41 0.42 0.39 0.39 0.41 0.44 0.37 0.29 0.30 0.23 0.23 0.31 0.33 0.34 0.36 0.33 0.37 0.38 0.34 0.31 0.30 0.31 0.28 0.25 0.26 0.25 0.23 0.20 0.23 0.24 0.30 0.33 0.33 0.32 0.32 0.32 0.30 0.29 0.24 0.19 0.18 0.17 0.16 0.16 0.16 0.16 0.16 0.16 0.15 0.14
0.30 0.33 0.35 0.39 0.42 0.42 0.39 0.41 0.42 0.42 0.35 0.31 0.28 0.27 0.32 0.29 0.29 0.32 0.33 0.33 0.40 0.39 0.37 0.33 0.28 0.25 0.23 0.25 0.22 0.20 0.20 0.20 0.28 0.32 0.34 0.35 0.33 0.31 0.28 0.25 0.23 0.20 0.19 0.18 0.17 0.17 0.17 0.16 0.16 0.16 0.16 0.15 0.14 0.13
0.32 0.31 0.37 0.40 0.42 0.42 0.41 0.38 0.36 0.31 0.28 0.25 0.25 0.32 0.33 0.32 0.31 0.32 0.35 0.36 0.43 0.35 0.26 0.29 0.23 0.21 0.28 0.23 0.20 0.25 0.23 0.29 0.33 0.35 0.34 0.31 0.26 0.25 0.23 0.21 0.19 0.19 0.18 0.17 0.17 0.17 0.16 0.17 0.16 0.15 0.14 0.14 0.14 0.13
0.32 0.38 0.39 0.41 0.43 0.42 0.38 0.37 0.30 0.26 0.22 0.25 0.23 0.30 0.35 0.36 0.33 0.33 0.36 0.39 0.37 0.35 0.33 0.28 0.33 0.26 0.22 0.20 0.22 0.29 0.30 0.35 0.36 0.35 0.34 0.26 0.24 0.22 0.20 0.18 0.18 0.18 0.17 0.17 0.17 0.17 0.16 0.16 0.16 0.16 0.15 0.16 0.14 0.15
0.38 0.40 0.39 0.41 0.41 0.35 0.30 0.32 0.34 0.25 0.25 0.28 0.31 0.34 0.36 0.36 0.38 0.39 0.38 0.41 0.44 0.44 0.38 0.32 0.28 0.24 0.25 0.30 0.32 0.35 0.35 0.34 0.32 0.33 0.31 0.24 0.22 0.19 0.18 0.18 0.18 0.18 0.17 0.17 0.16 0.17 0.17 0.17 0.17 0.16 0.15 0.15 0.14 0.14
0.42 0.41 0.40 0.40 0.42 0.36 0.30 0.30 0.36 0.29 0.26 0.29 0.33 0.31 0.33 0.33 0.35 0.36 0.37 0.38 0.36 0.34 0.31 0.26 0.27 0.29 0.31 0.34 0.36 0.37 0.36 0.35 0.33 0.28 0.25 0.20 0.20 0.19 0.18 0.18 0.18 0.18 0.17 0.18 0.18 0.17 0.17 0.17 0.17 0.16 0.15 0.14 0.12 0.13
0.43 0.42 0.43 0.42 0.39 0.39 0.35 0.32 0.30 0.30 0.30 0.30 0.34 0.32 0.30 0.33 0.32 0.32 0.32 0.36 0.32 0.30 0.28 0.30 0.30 0.31 0.36 0.39 0.40 0.38 0.36 0.35 0.31 0.27 0.19 0.16 0.19 0.20 0.19 0.21 0.19 0.18 0.18 0.17 0.17 0.17 0.16 0.16 0.17 0.16 0.15 0.14 0.14 0.13
0.37 0.42 0.41 0.42 0.37 0.37 0.34 0.38 0.32 0.35 0.31 0.30 0.32 0.33 0.28 0.27 0.28 0.30 0.35 0.31 0.29 0.30 0.31 0.33 0.32 0.32 0.35 0.35 0.36 0.37 0.36 0.35 0.31 0.23 0.20 0.20 0.18 0.19 0.19 0.19 0.19 0.17 0.18 0.18 0.18 0.18 0.18 0.18 0.16 0.15 0.13 0.14 0.13 0.12
0.49 0.47 0.41 0.39 0.31 0.30 0.30 0.39 0.31 0.31 0.26 0.27 0.30 0.27 0.27 0.28 0.30 0.33 0.27 0.30 0.29 0.33 0.34 0.34 0.34 0.36 0.37 0.37 0.36 0.35 0.31 0.28 0.21 0.20 0.19 0.20 0.20 0.21 0.20 0.20 0.20 0.18 0.17 0.17 0.17 0.17 0.18 0.17 0.15 0.13 0.13 0.13 0.13 0.13
0.49 0.39 0.34 0.32 0.32 0.27 0.33 0.30 0.31 0.29 0.30 0.29 0.27 0.24 0.26 0.28 0.30 0.27 0.24 0.25 0.28 0.31 0.31 0.32 0.34 0.33 0.34 0.33 0.32 0.32 0.24 0.22 0.20 0.20 0.21 0.20 0.19 0.19 0.20 0.20 0.19 0.19 0.18 0.19 0.17 0.16 0.17 0.16 0.15 0.13 0.13 0.12 0.12 0.12
0.34 0.31 0.33 0.27 0.30 0.27 0.25 0.25 0.25 0.25 0.23 0.25 0.24 0.25 0.26 0.30 0.25 0.24 0.23 0.25 0.28 0.29 0.30 0.32 0.32 0.32 0.30 0.30 0.31 0.30 0.27 0.21 0.19 0.18 0.20 0.20 0.19 0.18 0.17 0.17 0.17 0.16 0.17 0.16 0.16 0.16 0.17 0.16 0.15 0.14 0.13 0.12 0.12 0.11
0.27 0.30 0.28 0.27 0.27 0.25 0.25 0.22 0.22 0.23 0.23 0.24 0.25 0.29 0.29 0.26 0.23 0.22 0.24 0.27 0.28 0.30 0.31 0.32 0.31 0.31 0.30 0.31 0.30 0.29 0.27 0.26 0.22 0.17 0.18 0.19 0.18 0.16 0.15 0.14 0.14 0.14 0.16 0.17 0.17 0.16 0.16 0.17 0.15 0.13 0.12 0.12 0.12 0.11
0.26 0.27 0.30 0.33 0.31 0.30 0.27 0.28 0.29 0.26 0.24 0.23 0.25 0.26 0.26 0.22 0.21 0.24 0.28 0.31 0.31 0.34 0.35 0.36 0.34 0.32 0.31 0.32 0.32 0.31 0.28 0.24 0.20 0.17 0.18 0.17 0.18 0.19 0.18 0.15 0.15 0.17 0.18 0.17 0.16 0.15 0.15 0.14 0.13 0.12 0.12 0.12 0.12 0.12
0.30 0.31 0.26 0.29 0.29 0.30 0.27 0.26 0.25 0.24 0.25 0.28 0.28 0.24 0.23 0.23 0.22 0.27 0.28 0.32 0.35 0.36 0.37 0.37 0.35 0.33 0.32 0.32 0.29 0.24 0.21 0.19 0.18 0.17 0.15 0.14 0.15 0.14 0.15 0.15 0.16 0.16 0.15 0.16 0.15 0.14 0.14 0.13 0.12 0.12 0.11 0.11 0.11 0.11
0.29 0.31 0.29 0.26 0.27 0.27 0.26 0.25 0.24 0.25 0.27 0.27 0.25 0.23 0.23 0.25 0.26 0.25 0.27 0.32 0.34 0.33 0.31 0.31 0.32 0.34 0.33 0.30 0.26 0.22 0.20 0.17 0.14 0.11 0.10 0.09 0.09 0.11 0.13 0.12 0.13 0.13 0.15 0.14 0.14 0.14 0.12 0.12 0.11 0.11 0.11 0.10 0.11 0.11
0.26 0.30 0.25 0.24 0.23 0.22 0.24 0.26 0.24 0.26 0.27 0.27 0.26 0.24 0.22 0.22 0.22 0.24 0.24 0.25 0.26 0.28 0.30 0.30 0.31 0.29 0.27 0.25 0.23 0.21 0.21 0.19 0.16 0.13 0.11 0.11 0.12 0.13 0.13 0.12 0.12 0.14 0.16 0.16 0.15 0.14 0.12 0.12 0.12 0.12 0.12 0.11 0.11 0.11
0.28 0.28 0.25 0.24 0.22 0.23 0.25 0.26 0.27 0.26 0.26 0.25 0.27 0.24 0.20 0.18 0.20 0.22 0.24 0.26 0.29 0.28 0.29 0.29 0.29 0.29 0.27 0.24 0.21 0.18 0.15 0.16 0.16 0.16 0.15 0.15 0.14 0.13 0.13 0.13 0.15 0.15 0.15 0.15 0.14 0.12 0.12 0.11 0.11 0.11 0.11 0.10 0.10 0.10
0.25 0.24 0.22 0.20 0.21 0.24 0.26 0.25 0.24 0.23 0.24 0.22 0.22 0.23 0.24 0.23 0.19 0.21 0.24 0.25 0.25 0.23 0.24 0.25 0.25 0.25 0.27 0.26 0.25 0.23 0.21 0.18 0.17 0.16 0.15 0.14 0.13 0.13 0.13 0.14 0.14 0.14 0.14 0.13 0.12 0.12 0.11 0.11 0.10 0.10 0.10 0.09 0.09 0.09
0.23 0.23 0.22 0.21 0.20 0.20 0.22 0.22 0.21 0.20 0.21 0.21 0.21 0.23 0.23 0.23 0.20 0.23 0.26 0.27 0.27 0.27 0.27 0.29 0.30 0.30 0.29 0.27 0.26 0.24 0.22 0.20 0.18 0.16 0.14 0.13 0.13 0.13 0.14 0.14 0.14 0.14 0.13 0.12 0.12 0.11 0.10 0.10 0.09 0.09 0.09 0.09 0.08 0.08